<?xml version="1.0" encoding="UTF-8" standalone="no" ?>
<gpx xmlns="http://www.topografix.com/GPX/1/1" xmlns:xsi="http://www.w3.org/2001/XMLSchema-instance" xsi:schemaLocation="http://www.topografix.com/GPX/1/1 http://www.topografix.com/GPX/1/1/gpx.xsd" version="1.1" creator="VisuGPX - https://www.visugpx.com">
  <metadata>
    <name>samedi 19 04 25</name>
  </metadata>
  <wpt lat="45.41555" lon="0.30443">
    <ele>122.1</ele>
    <name><![CDATA[Ravitaillement]]></name>
  </wpt>
  <wpt lat="45.41556" lon="0.30452">
    <ele>121.6</ele>
    <name><![CDATA[Ravitaillement]]></name>
  </wpt>
  <wpt lat="45.41555" lon="0.30455">
    <ele>121.7</ele>
    <name><![CDATA[Ravitaillement]]></name>
  </wpt>
  <trk>
    <name><![CDATA[samedi 98km]]></name>
    <extensions>
      <line xmlns="http://www.topografix.com/GPX/gpx_style/0/2">
        <color>FF0000</color>
        <width>6</width>
          <extensions>
            <sens>1</sens>
          </extensions>
      </line>
    </extensions>
    <trkseg>
      <trkpt lat="45.24957" lon="0.33705">
        <ele>72</ele>
        <time>2025-04-11T08:57:32Z</time>
      </trkpt>
      <trkpt lat="45.24984" lon="0.337">
        <ele>72</ele>
        <time>2025-04-11T08:57:37Z</time>
      </trkpt>
      <trkpt lat="45.25077" lon="0.33681">
        <ele>70</ele>
        <time>2025-04-11T08:57:54Z</time>
      </trkpt>
      <trkpt lat="45.25073" lon="0.33623">
        <ele>71</ele>
        <time>2025-04-11T08:58:01Z</time>
      </trkpt>
      <trkpt lat="45.25075" lon="0.33595">
        <ele>72</ele>
        <time>2025-04-11T08:58:04Z</time>
      </trkpt>
      <trkpt lat="45.25076" lon="0.33593">
        <ele>72</ele>
        <time>2025-04-11T08:58:05Z</time>
      </trkpt>
      <trkpt lat="45.25038" lon="0.33585">
        <ele>74</ele>
        <time>2025-04-11T08:58:12Z</time>
      </trkpt>
      <trkpt lat="45.24945" lon="0.33548">
        <ele>78</ele>
        <time>2025-04-11T08:58:29Z</time>
      </trkpt>
      <trkpt lat="45.24998" lon="0.33407">
        <ele>87</ele>
        <time>2025-04-11T08:58:49Z</time>
      </trkpt>
      <trkpt lat="45.25008" lon="0.33391">
        <ele>88</ele>
        <time>2025-04-11T08:58:51Z</time>
      </trkpt>
      <trkpt lat="45.25018" lon="0.33382">
        <ele>89</ele>
        <time>2025-04-11T08:58:54Z</time>
      </trkpt>
      <trkpt lat="45.25032" lon="0.33373">
        <ele>89</ele>
        <time>2025-04-11T08:58:56Z</time>
      </trkpt>
      <trkpt lat="45.25103" lon="0.33344">
        <ele>92</ele>
        <time>2025-04-11T08:59:09Z</time>
      </trkpt>
      <trkpt lat="45.25152" lon="0.33321">
        <ele>93</ele>
        <time>2025-04-11T08:59:19Z</time>
      </trkpt>
      <trkpt lat="45.25172" lon="0.33305">
        <ele>95</ele>
        <time>2025-04-11T08:59:23Z</time>
      </trkpt>
      <trkpt lat="45.25187" lon="0.33291">
        <ele>95</ele>
        <time>2025-04-11T08:59:26Z</time>
      </trkpt>
      <trkpt lat="45.25198" lon="0.33274">
        <ele>96</ele>
        <time>2025-04-11T08:59:29Z</time>
      </trkpt>
      <trkpt lat="45.25205" lon="0.33258">
        <ele>97</ele>
        <time>2025-04-11T08:59:31Z</time>
      </trkpt>
      <trkpt lat="45.25212" lon="0.33236">
        <ele>98</ele>
        <time>2025-04-11T08:59:34Z</time>
      </trkpt>
      <trkpt lat="45.25221" lon="0.33184">
        <ele>99</ele>
        <time>2025-04-11T08:59:41Z</time>
      </trkpt>
      <trkpt lat="45.25224" lon="0.33149">
        <ele>100</ele>
        <time>2025-04-11T08:59:45Z</time>
      </trkpt>
      <trkpt lat="45.25222" lon="0.33088">
        <ele>100</ele>
        <time>2025-04-11T08:59:53Z</time>
      </trkpt>
      <trkpt lat="45.25219" lon="0.33059">
        <ele>100</ele>
        <time>2025-04-11T08:59:57Z</time>
      </trkpt>
      <trkpt lat="45.25213" lon="0.3303">
        <ele>100</ele>
        <time>2025-04-11T09:00:00Z</time>
      </trkpt>
      <trkpt lat="45.25187" lon="0.32935">
        <ele>100</ele>
        <time>2025-04-11T09:00:13Z</time>
      </trkpt>
      <trkpt lat="45.25165" lon="0.32854">
        <ele>98</ele>
        <time>2025-04-11T09:00:24Z</time>
      </trkpt>
      <trkpt lat="45.25162" lon="0.32835">
        <ele>97</ele>
        <time>2025-04-11T09:00:26Z</time>
      </trkpt>
      <trkpt lat="45.2516" lon="0.32797">
        <ele>98</ele>
        <time>2025-04-11T09:00:31Z</time>
      </trkpt>
      <trkpt lat="45.25162" lon="0.32774">
        <ele>98</ele>
        <time>2025-04-11T09:00:34Z</time>
      </trkpt>
      <trkpt lat="45.25183" lon="0.32656">
        <ele>97</ele>
        <time>2025-04-11T09:00:49Z</time>
      </trkpt>
      <trkpt lat="45.25187" lon="0.32613">
        <ele>93</ele>
        <time>2025-04-11T09:00:55Z</time>
      </trkpt>
      <trkpt lat="45.25182" lon="0.32575">
        <ele>91</ele>
        <time>2025-04-11T09:01:00Z</time>
      </trkpt>
      <trkpt lat="45.25177" lon="0.32559">
        <ele>90</ele>
        <time>2025-04-11T09:01:02Z</time>
      </trkpt>
      <trkpt lat="45.25171" lon="0.32545">
        <ele>90</ele>
        <time>2025-04-11T09:01:04Z</time>
      </trkpt>
      <trkpt lat="45.2516" lon="0.32531">
        <ele>89</ele>
        <time>2025-04-11T09:01:07Z</time>
      </trkpt>
      <trkpt lat="45.25098" lon="0.32469">
        <ele>88</ele>
        <time>2025-04-11T09:01:20Z</time>
      </trkpt>
      <trkpt lat="45.25089" lon="0.32455">
        <ele>88</ele>
        <time>2025-04-11T09:01:22Z</time>
      </trkpt>
      <trkpt lat="45.25084" lon="0.32438">
        <ele>87</ele>
        <time>2025-04-11T09:01:25Z</time>
      </trkpt>
      <trkpt lat="45.25083" lon="0.32424">
        <ele>87</ele>
        <time>2025-04-11T09:01:26Z</time>
      </trkpt>
      <trkpt lat="45.25084" lon="0.3241">
        <ele>87</ele>
        <time>2025-04-11T09:01:28Z</time>
      </trkpt>
      <trkpt lat="45.25089" lon="0.32395">
        <ele>88</ele>
        <time>2025-04-11T09:01:30Z</time>
      </trkpt>
      <trkpt lat="45.25099" lon="0.32381">
        <ele>89</ele>
        <time>2025-04-11T09:01:33Z</time>
      </trkpt>
      <trkpt lat="45.25113" lon="0.32369">
        <ele>89</ele>
        <time>2025-04-11T09:01:36Z</time>
      </trkpt>
      <trkpt lat="45.25153" lon="0.32324">
        <ele>90</ele>
        <time>2025-04-11T09:01:45Z</time>
      </trkpt>
      <trkpt lat="45.25162" lon="0.3231">
        <ele>91</ele>
        <time>2025-04-11T09:01:47Z</time>
      </trkpt>
      <trkpt lat="45.25174" lon="0.32284">
        <ele>92</ele>
        <time>2025-04-11T09:01:51Z</time>
      </trkpt>
      <trkpt lat="45.25186" lon="0.32223">
        <ele>94</ele>
        <time>2025-04-11T09:01:59Z</time>
      </trkpt>
      <trkpt lat="45.25193" lon="0.32197">
        <ele>94</ele>
        <time>2025-04-11T09:02:02Z</time>
      </trkpt>
      <trkpt lat="45.252" lon="0.3218">
        <ele>94</ele>
        <time>2025-04-11T09:02:05Z</time>
      </trkpt>
      <trkpt lat="45.25244" lon="0.32111">
        <ele>92</ele>
        <time>2025-04-11T09:02:17Z</time>
      </trkpt>
      <trkpt lat="45.25249" lon="0.32098">
        <ele>92</ele>
        <time>2025-04-11T09:02:18Z</time>
      </trkpt>
      <trkpt lat="45.25251" lon="0.32083">
        <ele>92</ele>
        <time>2025-04-11T09:02:20Z</time>
      </trkpt>
      <trkpt lat="45.25253" lon="0.32013">
        <ele>88</ele>
        <time>2025-04-11T09:02:29Z</time>
      </trkpt>
      <trkpt lat="45.25256" lon="0.3196">
        <ele>85</ele>
        <time>2025-04-11T09:02:36Z</time>
      </trkpt>
      <trkpt lat="45.25261" lon="0.31939">
        <ele>83</ele>
        <time>2025-04-11T09:02:39Z</time>
      </trkpt>
      <trkpt lat="45.25298" lon="0.31842">
        <ele>80</ele>
        <time>2025-04-11T09:02:52Z</time>
      </trkpt>
      <trkpt lat="45.25302" lon="0.31824">
        <ele>80</ele>
        <time>2025-04-11T09:02:55Z</time>
      </trkpt>
      <trkpt lat="45.25305" lon="0.318">
        <ele>78</ele>
        <time>2025-04-11T09:02:58Z</time>
      </trkpt>
      <trkpt lat="45.25307" lon="0.31779">
        <ele>77</ele>
        <time>2025-04-11T09:03:00Z</time>
      </trkpt>
      <trkpt lat="45.25305" lon="0.31744">
        <ele>76</ele>
        <time>2025-04-11T09:03:05Z</time>
      </trkpt>
      <trkpt lat="45.25297" lon="0.31669">
        <ele>75</ele>
        <time>2025-04-11T09:03:14Z</time>
      </trkpt>
      <trkpt lat="45.25294" lon="0.31621">
        <ele>70</ele>
        <time>2025-04-11T09:03:20Z</time>
      </trkpt>
      <trkpt lat="45.25297" lon="0.31524">
        <ele>65</ele>
        <time>2025-04-11T09:03:33Z</time>
      </trkpt>
      <trkpt lat="45.25296" lon="0.31469">
        <ele>64</ele>
        <time>2025-04-11T09:03:39Z</time>
      </trkpt>
      <trkpt lat="45.25281" lon="0.31292">
        <ele>68</ele>
        <time>2025-04-11T09:04:02Z</time>
      </trkpt>
      <trkpt lat="45.25282" lon="0.31265">
        <ele>70</ele>
        <time>2025-04-11T09:04:05Z</time>
      </trkpt>
      <trkpt lat="45.25289" lon="0.31231">
        <ele>71</ele>
        <time>2025-04-11T09:04:10Z</time>
      </trkpt>
      <trkpt lat="45.253" lon="0.31204">
        <ele>73</ele>
        <time>2025-04-11T09:04:14Z</time>
      </trkpt>
      <trkpt lat="45.25338" lon="0.31129">
        <ele>74</ele>
        <time>2025-04-11T09:04:25Z</time>
      </trkpt>
      <trkpt lat="45.25652" lon="0.30573">
        <ele>67</ele>
        <time>2025-04-11T09:05:54Z</time>
      </trkpt>
      <trkpt lat="45.25676" lon="0.30526">
        <ele>68</ele>
        <time>2025-04-11T09:06:02Z</time>
      </trkpt>
      <trkpt lat="45.25792" lon="0.30277">
        <ele>67</ele>
        <time>2025-04-11T09:06:39Z</time>
      </trkpt>
      <trkpt lat="45.25805" lon="0.30244">
        <ele>67</ele>
        <time>2025-04-11T09:06:44Z</time>
      </trkpt>
      <trkpt lat="45.25834" lon="0.30158">
        <ele>66</ele>
        <time>2025-04-11T09:06:56Z</time>
      </trkpt>
      <trkpt lat="45.25862" lon="0.30093">
        <ele>67</ele>
        <time>2025-04-11T09:07:05Z</time>
      </trkpt>
      <trkpt lat="45.25875" lon="0.30058">
        <ele>67</ele>
        <time>2025-04-11T09:07:10Z</time>
      </trkpt>
      <trkpt lat="45.25885" lon="0.3002">
        <ele>67</ele>
        <time>2025-04-11T09:07:15Z</time>
      </trkpt>
      <trkpt lat="45.25938" lon="0.29746">
        <ele>66</ele>
        <time>2025-04-11T09:07:51Z</time>
      </trkpt>
      <trkpt lat="45.25942" lon="0.29721">
        <ele>66</ele>
        <time>2025-04-11T09:07:54Z</time>
      </trkpt>
      <trkpt lat="45.25949" lon="0.29633">
        <ele>69</ele>
        <time>2025-04-11T09:08:05Z</time>
      </trkpt>
      <trkpt lat="45.25958" lon="0.29581">
        <ele>72</ele>
        <time>2025-04-11T09:08:12Z</time>
      </trkpt>
      <trkpt lat="45.26082" lon="0.2914">
        <ele>74</ele>
        <time>2025-04-11T09:09:11Z</time>
      </trkpt>
      <trkpt lat="45.26096" lon="0.29106">
        <ele>72</ele>
        <time>2025-04-11T09:09:16Z</time>
      </trkpt>
      <trkpt lat="45.26128" lon="0.29038">
        <ele>68</ele>
        <time>2025-04-11T09:09:27Z</time>
      </trkpt>
      <trkpt lat="45.26132" lon="0.29021">
        <ele>67</ele>
        <time>2025-04-11T09:09:29Z</time>
      </trkpt>
      <trkpt lat="45.26135" lon="0.28991">
        <ele>66</ele>
        <time>2025-04-11T09:09:33Z</time>
      </trkpt>
      <trkpt lat="45.26131" lon="0.28959">
        <ele>66</ele>
        <time>2025-04-11T09:09:37Z</time>
      </trkpt>
      <trkpt lat="45.26089" lon="0.28772">
        <ele>67</ele>
        <time>2025-04-11T09:10:01Z</time>
      </trkpt>
      <trkpt lat="45.26077" lon="0.28705">
        <ele>66</ele>
        <time>2025-04-11T09:10:10Z</time>
      </trkpt>
      <trkpt lat="45.26039" lon="0.28479">
        <ele>64</ele>
        <time>2025-04-11T09:10:39Z</time>
      </trkpt>
      <trkpt lat="45.26037" lon="0.28455">
        <ele>64</ele>
        <time>2025-04-11T09:10:42Z</time>
      </trkpt>
      <trkpt lat="45.26038" lon="0.28435">
        <ele>63</ele>
        <time>2025-04-11T09:10:45Z</time>
      </trkpt>
      <trkpt lat="45.26041" lon="0.28418">
        <ele>63</ele>
        <time>2025-04-11T09:10:47Z</time>
      </trkpt>
      <trkpt lat="45.26052" lon="0.28386">
        <ele>63</ele>
        <time>2025-04-11T09:10:51Z</time>
      </trkpt>
      <trkpt lat="45.26177" lon="0.28164">
        <ele>60</ele>
        <time>2025-04-11T09:11:27Z</time>
      </trkpt>
      <trkpt lat="45.26191" lon="0.28134">
        <ele>60</ele>
        <time>2025-04-11T09:11:31Z</time>
      </trkpt>
      <trkpt lat="45.26317" lon="0.27798">
        <ele>64</ele>
        <time>2025-04-11T09:12:19Z</time>
      </trkpt>
      <trkpt lat="45.26344" lon="0.27732">
        <ele>62</ele>
        <time>2025-04-11T09:12:29Z</time>
      </trkpt>
      <trkpt lat="45.26357" lon="0.27709">
        <ele>63</ele>
        <time>2025-04-11T09:12:32Z</time>
      </trkpt>
      <trkpt lat="45.26437" lon="0.27586">
        <ele>66</ele>
        <time>2025-04-11T09:12:53Z</time>
      </trkpt>
      <trkpt lat="45.26449" lon="0.27562">
        <ele>66</ele>
        <time>2025-04-11T09:12:57Z</time>
      </trkpt>
      <trkpt lat="45.26465" lon="0.27521">
        <ele>68</ele>
        <time>2025-04-11T09:13:03Z</time>
      </trkpt>
      <trkpt lat="45.26542" lon="0.27204">
        <ele>70</ele>
        <time>2025-04-11T09:13:45Z</time>
      </trkpt>
      <trkpt lat="45.26553" lon="0.27169">
        <ele>71</ele>
        <time>2025-04-11T09:13:50Z</time>
      </trkpt>
      <trkpt lat="45.26571" lon="0.27118">
        <ele>71</ele>
        <time>2025-04-11T09:13:57Z</time>
      </trkpt>
      <trkpt lat="45.26591" lon="0.27074">
        <ele>72</ele>
        <time>2025-04-11T09:14:03Z</time>
      </trkpt>
      <trkpt lat="45.26781" lon="0.26754">
        <ele>76</ele>
        <time>2025-04-11T09:14:56Z</time>
      </trkpt>
      <trkpt lat="45.26806" lon="0.26699">
        <ele>76</ele>
        <time>2025-04-11T09:15:04Z</time>
      </trkpt>
      <trkpt lat="45.26849" lon="0.26563">
        <ele>75</ele>
        <time>2025-04-11T09:15:23Z</time>
      </trkpt>
      <trkpt lat="45.2686" lon="0.26518">
        <ele>74</ele>
        <time>2025-04-11T09:15:29Z</time>
      </trkpt>
      <trkpt lat="45.26881" lon="0.26414">
        <ele>72</ele>
        <time>2025-04-11T09:15:42Z</time>
      </trkpt>
      <trkpt lat="45.26889" lon="0.26388">
        <ele>72</ele>
        <time>2025-04-11T09:15:46Z</time>
      </trkpt>
      <trkpt lat="45.26924" lon="0.26296">
        <ele>75</ele>
        <time>2025-04-11T09:15:59Z</time>
      </trkpt>
      <trkpt lat="45.26942" lon="0.26237">
        <ele>77</ele>
        <time>2025-04-11T09:16:07Z</time>
      </trkpt>
      <trkpt lat="45.26947" lon="0.26213">
        <ele>76</ele>
        <time>2025-04-11T09:16:10Z</time>
      </trkpt>
      <trkpt lat="45.2695" lon="0.26188">
        <ele>75</ele>
        <time>2025-04-11T09:16:13Z</time>
      </trkpt>
      <trkpt lat="45.26952" lon="0.26079">
        <ele>75</ele>
        <time>2025-04-11T09:16:27Z</time>
      </trkpt>
      <trkpt lat="45.2696" lon="0.26032">
        <ele>77</ele>
        <time>2025-04-11T09:16:33Z</time>
      </trkpt>
      <trkpt lat="45.26967" lon="0.26005">
        <ele>77</ele>
        <time>2025-04-11T09:16:36Z</time>
      </trkpt>
      <trkpt lat="45.26976" lon="0.25981">
        <ele>78</ele>
        <time>2025-04-11T09:16:40Z</time>
      </trkpt>
      <trkpt lat="45.26987" lon="0.25958">
        <ele>79</ele>
        <time>2025-04-11T09:16:43Z</time>
      </trkpt>
      <trkpt lat="45.27086" lon="0.25825">
        <ele>80</ele>
        <time>2025-04-11T09:17:08Z</time>
      </trkpt>
      <trkpt lat="45.27101" lon="0.25798">
        <ele>80</ele>
        <time>2025-04-11T09:17:12Z</time>
      </trkpt>
      <trkpt lat="45.27105" lon="0.25788">
        <ele>80</ele>
        <time>2025-04-11T09:17:13Z</time>
      </trkpt>
      <trkpt lat="45.27107" lon="0.25775">
        <ele>80</ele>
        <time>2025-04-11T09:17:15Z</time>
      </trkpt>
      <trkpt lat="45.27112" lon="0.25724">
        <ele>80</ele>
        <time>2025-04-11T09:17:21Z</time>
      </trkpt>
      <trkpt lat="45.27117" lon="0.25707">
        <ele>80</ele>
        <time>2025-04-11T09:17:24Z</time>
      </trkpt>
      <trkpt lat="45.27133" lon="0.2567">
        <ele>80</ele>
        <time>2025-04-11T09:17:29Z</time>
      </trkpt>
      <trkpt lat="45.27136" lon="0.25664">
        <ele>80</ele>
        <time>2025-04-11T09:17:30Z</time>
      </trkpt>
      <trkpt lat="45.271" lon="0.25621">
        <ele>79</ele>
        <time>2025-04-11T09:17:38Z</time>
      </trkpt>
      <trkpt lat="45.27034" lon="0.25535">
        <ele>80</ele>
        <time>2025-04-11T09:17:54Z</time>
      </trkpt>
      <trkpt lat="45.27024" lon="0.25527">
        <ele>81</ele>
        <time>2025-04-11T09:17:56Z</time>
      </trkpt>
      <trkpt lat="45.27014" lon="0.25523">
        <ele>81</ele>
        <time>2025-04-11T09:17:58Z</time>
      </trkpt>
      <trkpt lat="45.26892" lon="0.25539">
        <ele>81</ele>
        <time>2025-04-11T09:18:20Z</time>
      </trkpt>
      <trkpt lat="45.26863" lon="0.25549">
        <ele>81</ele>
        <time>2025-04-11T09:18:25Z</time>
      </trkpt>
      <trkpt lat="45.26573" lon="0.25724">
        <ele>92</ele>
        <time>2025-04-11T09:19:21Z</time>
      </trkpt>
      <trkpt lat="45.2644" lon="0.25809">
        <ele>90</ele>
        <time>2025-04-11T09:19:47Z</time>
      </trkpt>
      <trkpt lat="45.26419" lon="0.25812">
        <ele>90</ele>
        <time>2025-04-11T09:19:51Z</time>
      </trkpt>
      <trkpt lat="45.26401" lon="0.25811">
        <ele>90</ele>
        <time>2025-04-11T09:19:54Z</time>
      </trkpt>
      <trkpt lat="45.26386" lon="0.25807">
        <ele>90</ele>
        <time>2025-04-11T09:19:57Z</time>
      </trkpt>
      <trkpt lat="45.26361" lon="0.25787">
        <ele>90</ele>
        <time>2025-04-11T09:20:02Z</time>
      </trkpt>
      <trkpt lat="45.26302" lon="0.25721">
        <ele>84</ele>
        <time>2025-04-11T09:20:16Z</time>
      </trkpt>
      <trkpt lat="45.2629" lon="0.257">
        <ele>83</ele>
        <time>2025-04-11T09:20:19Z</time>
      </trkpt>
      <trkpt lat="45.2623" lon="0.25582">
        <ele>77</ele>
        <time>2025-04-11T09:20:37Z</time>
      </trkpt>
      <trkpt lat="45.26218" lon="0.2552">
        <ele>75</ele>
        <time>2025-04-11T09:20:45Z</time>
      </trkpt>
      <trkpt lat="45.26206" lon="0.25491">
        <ele>74</ele>
        <time>2025-04-11T09:20:49Z</time>
      </trkpt>
      <trkpt lat="45.26187" lon="0.25464">
        <ele>74</ele>
        <time>2025-04-11T09:20:54Z</time>
      </trkpt>
      <trkpt lat="45.26186" lon="0.25463">
        <ele>74</ele>
        <time>2025-04-11T09:20:54Z</time>
      </trkpt>
      <trkpt lat="45.26152" lon="0.25429">
        <ele>75</ele>
        <time>2025-04-11T09:21:02Z</time>
      </trkpt>
      <trkpt lat="45.26076" lon="0.2535">
        <ele>77</ele>
        <time>2025-04-11T09:21:19Z</time>
      </trkpt>
      <trkpt lat="45.2606" lon="0.25342">
        <ele>78</ele>
        <time>2025-04-11T09:21:22Z</time>
      </trkpt>
      <trkpt lat="45.25976" lon="0.25339">
        <ele>83</ele>
        <time>2025-04-11T09:21:37Z</time>
      </trkpt>
      <trkpt lat="45.25962" lon="0.25331">
        <ele>84</ele>
        <time>2025-04-11T09:21:39Z</time>
      </trkpt>
      <trkpt lat="45.25899" lon="0.25279">
        <ele>84</ele>
        <time>2025-04-11T09:21:52Z</time>
      </trkpt>
      <trkpt lat="45.25872" lon="0.25268">
        <ele>85</ele>
        <time>2025-04-11T09:21:57Z</time>
      </trkpt>
      <trkpt lat="45.25849" lon="0.25262">
        <ele>87</ele>
        <time>2025-04-11T09:22:01Z</time>
      </trkpt>
      <trkpt lat="45.25762" lon="0.25278">
        <ele>89</ele>
        <time>2025-04-11T09:22:17Z</time>
      </trkpt>
      <trkpt lat="45.25669" lon="0.25284">
        <ele>88</ele>
        <time>2025-04-11T09:22:34Z</time>
      </trkpt>
      <trkpt lat="45.25653" lon="0.25284">
        <ele>88</ele>
        <time>2025-04-11T09:22:36Z</time>
      </trkpt>
      <trkpt lat="45.25604" lon="0.25276">
        <ele>89</ele>
        <time>2025-04-11T09:22:45Z</time>
      </trkpt>
      <trkpt lat="45.25589" lon="0.2527">
        <ele>89</ele>
        <time>2025-04-11T09:22:48Z</time>
      </trkpt>
      <trkpt lat="45.25569" lon="0.25259">
        <ele>89</ele>
        <time>2025-04-11T09:22:52Z</time>
      </trkpt>
      <trkpt lat="45.25502" lon="0.25209">
        <ele>89</ele>
        <time>2025-04-11T09:23:05Z</time>
      </trkpt>
      <trkpt lat="45.25491" lon="0.25204">
        <ele>89</ele>
        <time>2025-04-11T09:23:07Z</time>
      </trkpt>
      <trkpt lat="45.25469" lon="0.25201">
        <ele>88</ele>
        <time>2025-04-11T09:23:11Z</time>
      </trkpt>
      <trkpt lat="45.25338" lon="0.25211">
        <ele>87</ele>
        <time>2025-04-11T09:23:35Z</time>
      </trkpt>
      <trkpt lat="45.25325" lon="0.25219">
        <ele>88</ele>
        <time>2025-04-11T09:23:37Z</time>
      </trkpt>
      <trkpt lat="45.25304" lon="0.25253">
        <ele>89</ele>
        <time>2025-04-11T09:23:43Z</time>
      </trkpt>
      <trkpt lat="45.25299" lon="0.25257">
        <ele>89</ele>
        <time>2025-04-11T09:23:44Z</time>
      </trkpt>
      <trkpt lat="45.25292" lon="0.2526">
        <ele>90</ele>
        <time>2025-04-11T09:23:45Z</time>
      </trkpt>
      <trkpt lat="45.25255" lon="0.25264">
        <ele>91</ele>
        <time>2025-04-11T09:23:52Z</time>
      </trkpt>
      <trkpt lat="45.25228" lon="0.25255">
        <ele>92</ele>
        <time>2025-04-11T09:23:57Z</time>
      </trkpt>
      <trkpt lat="45.25214" lon="0.25255">
        <ele>92</ele>
        <time>2025-04-11T09:23:59Z</time>
      </trkpt>
      <trkpt lat="45.25067" lon="0.25288">
        <ele>95</ele>
        <time>2025-04-11T09:24:26Z</time>
      </trkpt>
      <trkpt lat="45.25043" lon="0.2529">
        <ele>95</ele>
        <time>2025-04-11T09:24:30Z</time>
      </trkpt>
      <trkpt lat="45.25023" lon="0.25288">
        <ele>96</ele>
        <time>2025-04-11T09:24:33Z</time>
      </trkpt>
      <trkpt lat="45.24995" lon="0.25281">
        <ele>96</ele>
        <time>2025-04-11T09:24:38Z</time>
      </trkpt>
      <trkpt lat="45.24622" lon="0.25158">
        <ele>100</ele>
        <time>2025-04-11T09:25:47Z</time>
      </trkpt>
      <trkpt lat="45.24588" lon="0.25143">
        <ele>100</ele>
        <time>2025-04-11T09:25:53Z</time>
      </trkpt>
      <trkpt lat="45.24571" lon="0.25128">
        <ele>100</ele>
        <time>2025-04-11T09:25:56Z</time>
      </trkpt>
      <trkpt lat="45.24417" lon="0.24928">
        <ele>104</ele>
        <time>2025-04-11T09:26:34Z</time>
      </trkpt>
      <trkpt lat="45.24402" lon="0.24905">
        <ele>104</ele>
        <time>2025-04-11T09:26:38Z</time>
      </trkpt>
      <trkpt lat="45.24385" lon="0.24873">
        <ele>104</ele>
        <time>2025-04-11T09:26:43Z</time>
      </trkpt>
      <trkpt lat="45.24194" lon="0.24341">
        <ele>95</ele>
        <time>2025-04-11T09:27:57Z</time>
      </trkpt>
      <trkpt lat="45.24183" lon="0.24335">
        <ele>95</ele>
        <time>2025-04-11T09:27:59Z</time>
      </trkpt>
      <trkpt lat="45.24163" lon="0.24328">
        <ele>95</ele>
        <time>2025-04-11T09:28:03Z</time>
      </trkpt>
      <trkpt lat="45.2401" lon="0.24343">
        <ele>97</ele>
        <time>2025-04-11T09:28:30Z</time>
      </trkpt>
      <trkpt lat="45.23985" lon="0.24346">
        <ele>98</ele>
        <time>2025-04-11T09:28:35Z</time>
      </trkpt>
      <trkpt lat="45.23975" lon="0.23773">
        <ele>83</ele>
        <time>2025-04-11T09:29:47Z</time>
      </trkpt>
      <trkpt lat="45.23976" lon="0.23747">
        <ele>83</ele>
        <time>2025-04-11T09:29:50Z</time>
      </trkpt>
      <trkpt lat="45.23981" lon="0.23718">
        <ele>83</ele>
        <time>2025-04-11T09:29:54Z</time>
      </trkpt>
      <trkpt lat="45.2403" lon="0.23533">
        <ele>83</ele>
        <time>2025-04-11T09:30:18Z</time>
      </trkpt>
      <trkpt lat="45.24036" lon="0.23493">
        <ele>83</ele>
        <time>2025-04-11T09:30:24Z</time>
      </trkpt>
      <trkpt lat="45.24035" lon="0.2336">
        <ele>80</ele>
        <time>2025-04-11T09:30:40Z</time>
      </trkpt>
      <trkpt lat="45.24038" lon="0.23323">
        <ele>79</ele>
        <time>2025-04-11T09:30:45Z</time>
      </trkpt>
      <trkpt lat="45.24047" lon="0.23255">
        <ele>76</ele>
        <time>2025-04-11T09:30:54Z</time>
      </trkpt>
      <trkpt lat="45.24101" lon="0.22939">
        <ele>74</ele>
        <time>2025-04-11T09:31:34Z</time>
      </trkpt>
      <trkpt lat="45.24104" lon="0.22898">
        <ele>75</ele>
        <time>2025-04-11T09:31:39Z</time>
      </trkpt>
      <trkpt lat="45.2411" lon="0.22767">
        <ele>74</ele>
        <time>2025-04-11T09:31:56Z</time>
      </trkpt>
      <trkpt lat="45.24112" lon="0.22731">
        <ele>73</ele>
        <time>2025-04-11T09:32:00Z</time>
      </trkpt>
      <trkpt lat="45.24118" lon="0.22701">
        <ele>73</ele>
        <time>2025-04-11T09:32:04Z</time>
      </trkpt>
      <trkpt lat="45.24126" lon="0.22678">
        <ele>72</ele>
        <time>2025-04-11T09:32:08Z</time>
      </trkpt>
      <trkpt lat="45.24136" lon="0.22658">
        <ele>72</ele>
        <time>2025-04-11T09:32:11Z</time>
      </trkpt>
      <trkpt lat="45.2415" lon="0.22637">
        <ele>71</ele>
        <time>2025-04-11T09:32:14Z</time>
      </trkpt>
      <trkpt lat="45.24271" lon="0.22471">
        <ele>69</ele>
        <time>2025-04-11T09:32:44Z</time>
      </trkpt>
      <trkpt lat="45.24307" lon="0.2242">
        <ele>68</ele>
        <time>2025-04-11T09:32:53Z</time>
      </trkpt>
      <trkpt lat="45.24339" lon="0.2237">
        <ele>68</ele>
        <time>2025-04-11T09:33:02Z</time>
      </trkpt>
      <trkpt lat="45.24603" lon="0.21928">
        <ele>65</ele>
        <time>2025-04-11T09:34:14Z</time>
      </trkpt>
      <trkpt lat="45.24618" lon="0.21907">
        <ele>65</ele>
        <time>2025-04-11T09:34:18Z</time>
      </trkpt>
      <trkpt lat="45.24632" lon="0.2189">
        <ele>65</ele>
        <time>2025-04-11T09:34:21Z</time>
      </trkpt>
      <trkpt lat="45.24666" lon="0.21859">
        <ele>65</ele>
        <time>2025-04-11T09:34:29Z</time>
      </trkpt>
      <trkpt lat="45.24878" lon="0.21685">
        <ele>63</ele>
        <time>2025-04-11T09:35:12Z</time>
      </trkpt>
      <trkpt lat="45.24906" lon="0.2165">
        <ele>63</ele>
        <time>2025-04-11T09:35:19Z</time>
      </trkpt>
      <trkpt lat="45.24919" lon="0.21626">
        <ele>63</ele>
        <time>2025-04-11T09:35:23Z</time>
      </trkpt>
      <trkpt lat="45.24936" lon="0.21585">
        <ele>63</ele>
        <time>2025-04-11T09:35:28Z</time>
      </trkpt>
      <trkpt lat="45.24952" lon="0.21538">
        <ele>63</ele>
        <time>2025-04-11T09:35:35Z</time>
      </trkpt>
      <trkpt lat="45.24999" lon="0.21387">
        <ele>62</ele>
        <time>2025-04-11T09:35:56Z</time>
      </trkpt>
      <trkpt lat="45.25012" lon="0.21356">
        <ele>62</ele>
        <time>2025-04-11T09:36:00Z</time>
      </trkpt>
      <trkpt lat="45.25025" lon="0.21332">
        <ele>62</ele>
        <time>2025-04-11T09:36:04Z</time>
      </trkpt>
      <trkpt lat="45.25302" lon="0.20859">
        <ele>76</ele>
        <time>2025-04-11T09:37:21Z</time>
      </trkpt>
      <trkpt lat="45.25328" lon="0.20807">
        <ele>78</ele>
        <time>2025-04-11T09:37:29Z</time>
      </trkpt>
      <trkpt lat="45.25336" lon="0.20785">
        <ele>78</ele>
        <time>2025-04-11T09:37:32Z</time>
      </trkpt>
      <trkpt lat="45.25339" lon="0.20765">
        <ele>77</ele>
        <time>2025-04-11T09:37:35Z</time>
      </trkpt>
      <trkpt lat="45.25341" lon="0.20745">
        <ele>77</ele>
        <time>2025-04-11T09:37:37Z</time>
      </trkpt>
      <trkpt lat="45.25341" lon="0.20712">
        <ele>77</ele>
        <time>2025-04-11T09:37:41Z</time>
      </trkpt>
      <trkpt lat="45.25318" lon="0.20379">
        <ele>70</ele>
        <time>2025-04-11T09:38:23Z</time>
      </trkpt>
      <trkpt lat="45.25317" lon="0.20315">
        <ele>71</ele>
        <time>2025-04-11T09:38:31Z</time>
      </trkpt>
      <trkpt lat="45.25321" lon="0.20283">
        <ele>71</ele>
        <time>2025-04-11T09:38:35Z</time>
      </trkpt>
      <trkpt lat="45.25328" lon="0.20251">
        <ele>71</ele>
        <time>2025-04-11T09:38:40Z</time>
      </trkpt>
      <trkpt lat="45.25344" lon="0.20205">
        <ele>71</ele>
        <time>2025-04-11T09:38:46Z</time>
      </trkpt>
      <trkpt lat="45.25366" lon="0.20157">
        <ele>71</ele>
        <time>2025-04-11T09:38:53Z</time>
      </trkpt>
      <trkpt lat="45.2538" lon="0.20137">
        <ele>71</ele>
        <time>2025-04-11T09:38:57Z</time>
      </trkpt>
      <trkpt lat="45.25396" lon="0.20117">
        <ele>71</ele>
        <time>2025-04-11T09:39:01Z</time>
      </trkpt>
      <trkpt lat="45.2547" lon="0.20042">
        <ele>70</ele>
        <time>2025-04-11T09:39:17Z</time>
      </trkpt>
      <trkpt lat="45.2548" lon="0.20022">
        <ele>70</ele>
        <time>2025-04-11T09:39:20Z</time>
      </trkpt>
      <trkpt lat="45.25503" lon="0.20005">
        <ele>70</ele>
        <time>2025-04-11T09:39:24Z</time>
      </trkpt>
      <trkpt lat="45.25552" lon="0.19961">
        <ele>69</ele>
        <time>2025-04-11T09:39:35Z</time>
      </trkpt>
      <trkpt lat="45.25688" lon="0.1982">
        <ele>65</ele>
        <time>2025-04-11T09:40:05Z</time>
      </trkpt>
      <trkpt lat="45.25785" lon="0.19702">
        <ele>55</ele>
        <time>2025-04-11T09:40:27Z</time>
      </trkpt>
      <trkpt lat="45.25851" lon="0.19593">
        <ele>51</ele>
        <time>2025-04-11T09:40:45Z</time>
      </trkpt>
      <trkpt lat="45.25943" lon="0.19457">
        <ele>49</ele>
        <time>2025-04-11T09:41:09Z</time>
      </trkpt>
      <trkpt lat="45.2602" lon="0.19349">
        <ele>49</ele>
        <time>2025-04-11T09:41:28Z</time>
      </trkpt>
      <trkpt lat="45.26035" lon="0.19333">
        <ele>49</ele>
        <time>2025-04-11T09:41:32Z</time>
      </trkpt>
      <trkpt lat="45.26046" lon="0.19319">
        <ele>49</ele>
        <time>2025-04-11T09:41:34Z</time>
      </trkpt>
      <trkpt lat="45.26113" lon="0.19207">
        <ele>48</ele>
        <time>2025-04-11T09:41:53Z</time>
      </trkpt>
      <trkpt lat="45.26125" lon="0.1918">
        <ele>48</ele>
        <time>2025-04-11T09:41:57Z</time>
      </trkpt>
      <trkpt lat="45.26188" lon="0.18993">
        <ele>48</ele>
        <time>2025-04-11T09:42:23Z</time>
      </trkpt>
      <trkpt lat="45.26201" lon="0.18967">
        <ele>48</ele>
        <time>2025-04-11T09:42:27Z</time>
      </trkpt>
      <trkpt lat="45.26229" lon="0.18915">
        <ele>47</ele>
        <time>2025-04-11T09:42:35Z</time>
      </trkpt>
      <trkpt lat="45.26292" lon="0.18816">
        <ele>44</ele>
        <time>2025-04-11T09:42:52Z</time>
      </trkpt>
      <trkpt lat="45.26402" lon="0.18659">
        <ele>45</ele>
        <time>2025-04-11T09:43:19Z</time>
      </trkpt>
      <trkpt lat="45.26801" lon="0.18161">
        <ele>45</ele>
        <time>2025-04-11T09:44:54Z</time>
      </trkpt>
      <trkpt lat="45.26829" lon="0.18115">
        <ele>45</ele>
        <time>2025-04-11T09:45:01Z</time>
      </trkpt>
      <trkpt lat="45.26841" lon="0.18085">
        <ele>45</ele>
        <time>2025-04-11T09:45:06Z</time>
      </trkpt>
      <trkpt lat="45.26863" lon="0.18005">
        <ele>44</ele>
        <time>2025-04-11T09:45:16Z</time>
      </trkpt>
      <trkpt lat="45.26874" lon="0.17963">
        <ele>44</ele>
        <time>2025-04-11T09:45:22Z</time>
      </trkpt>
      <trkpt lat="45.26937" lon="0.17723">
        <ele>44</ele>
        <time>2025-04-11T09:45:54Z</time>
      </trkpt>
      <trkpt lat="45.26941" lon="0.17707">
        <ele>44</ele>
        <time>2025-04-11T09:45:56Z</time>
      </trkpt>
      <trkpt lat="45.2699" lon="0.17519">
        <ele>46</ele>
        <time>2025-04-11T09:46:21Z</time>
      </trkpt>
      <trkpt lat="45.27013" lon="0.17428">
        <ele>47</ele>
        <time>2025-04-11T09:46:33Z</time>
      </trkpt>
      <trkpt lat="45.27048" lon="0.17292">
        <ele>47</ele>
        <time>2025-04-11T09:46:52Z</time>
      </trkpt>
      <trkpt lat="45.27056" lon="0.17254">
        <ele>47</ele>
        <time>2025-04-11T09:46:57Z</time>
      </trkpt>
      <trkpt lat="45.2706" lon="0.17216">
        <ele>48</ele>
        <time>2025-04-11T09:47:01Z</time>
      </trkpt>
      <trkpt lat="45.27061" lon="0.17172">
        <ele>48</ele>
        <time>2025-04-11T09:47:07Z</time>
      </trkpt>
      <trkpt lat="45.27062" lon="0.1716">
        <ele>49</ele>
        <time>2025-04-11T09:47:08Z</time>
      </trkpt>
      <trkpt lat="45.27075" lon="0.17157">
        <ele>50</ele>
        <time>2025-04-11T09:47:11Z</time>
      </trkpt>
      <trkpt lat="45.27239" lon="0.17213">
        <ele>56</ele>
        <time>2025-04-11T09:47:41Z</time>
      </trkpt>
      <trkpt lat="45.27389" lon="0.17258">
        <ele>59</ele>
        <time>2025-04-11T09:48:08Z</time>
      </trkpt>
      <trkpt lat="45.27415" lon="0.17274">
        <ele>59</ele>
        <time>2025-04-11T09:48:13Z</time>
      </trkpt>
      <trkpt lat="45.27435" lon="0.17291">
        <ele>58</ele>
        <time>2025-04-11T09:48:17Z</time>
      </trkpt>
      <trkpt lat="45.27462" lon="0.1732">
        <ele>56</ele>
        <time>2025-04-11T09:48:23Z</time>
      </trkpt>
      <trkpt lat="45.2748" lon="0.17342">
        <ele>55</ele>
        <time>2025-04-11T09:48:27Z</time>
      </trkpt>
      <trkpt lat="45.27493" lon="0.17366">
        <ele>54</ele>
        <time>2025-04-11T09:48:31Z</time>
      </trkpt>
      <trkpt lat="45.27529" lon="0.17446">
        <ele>52</ele>
        <time>2025-04-11T09:48:43Z</time>
      </trkpt>
      <trkpt lat="45.27677" lon="0.17814">
        <ele>50</ele>
        <time>2025-04-11T09:49:36Z</time>
      </trkpt>
      <trkpt lat="45.2776" lon="0.18029">
        <ele>48</ele>
        <time>2025-04-11T09:50:07Z</time>
      </trkpt>
      <trkpt lat="45.2777" lon="0.18062">
        <ele>49</ele>
        <time>2025-04-11T09:50:11Z</time>
      </trkpt>
      <trkpt lat="45.27777" lon="0.1809">
        <ele>50</ele>
        <time>2025-04-11T09:50:15Z</time>
      </trkpt>
      <trkpt lat="45.27783" lon="0.18133">
        <ele>52</ele>
        <time>2025-04-11T09:50:21Z</time>
      </trkpt>
      <trkpt lat="45.27783" lon="0.18161">
        <ele>53</ele>
        <time>2025-04-11T09:50:24Z</time>
      </trkpt>
      <trkpt lat="45.27778" lon="0.18205">
        <ele>53</ele>
        <time>2025-04-11T09:50:30Z</time>
      </trkpt>
      <trkpt lat="45.27748" lon="0.18372">
        <ele>50</ele>
        <time>2025-04-11T09:50:51Z</time>
      </trkpt>
      <trkpt lat="45.27736" lon="0.18425">
        <ele>50</ele>
        <time>2025-04-11T09:50:58Z</time>
      </trkpt>
      <trkpt lat="45.27736" lon="0.1847">
        <ele>51</ele>
        <time>2025-04-11T09:51:04Z</time>
      </trkpt>
      <trkpt lat="45.27679" lon="0.18712">
        <ele>48</ele>
        <time>2025-04-11T09:51:36Z</time>
      </trkpt>
      <trkpt lat="45.27673" lon="0.18744">
        <ele>49</ele>
        <time>2025-04-11T09:51:40Z</time>
      </trkpt>
      <trkpt lat="45.27671" lon="0.18762">
        <ele>49</ele>
        <time>2025-04-11T09:51:42Z</time>
      </trkpt>
      <trkpt lat="45.27672" lon="0.1878">
        <ele>49</ele>
        <time>2025-04-11T09:51:45Z</time>
      </trkpt>
      <trkpt lat="45.2768" lon="0.18814">
        <ele>50</ele>
        <time>2025-04-11T09:51:49Z</time>
      </trkpt>
      <trkpt lat="45.27746" lon="0.18989">
        <ele>47</ele>
        <time>2025-04-11T09:52:14Z</time>
      </trkpt>
      <trkpt lat="45.27743" lon="0.18992">
        <ele>47</ele>
        <time>2025-04-11T09:52:15Z</time>
      </trkpt>
      <trkpt lat="45.27737" lon="0.19005">
        <ele>47</ele>
        <time>2025-04-11T09:52:17Z</time>
      </trkpt>
      <trkpt lat="45.27732" lon="0.19026">
        <ele>49</ele>
        <time>2025-04-11T09:52:19Z</time>
      </trkpt>
      <trkpt lat="45.27722" lon="0.1905">
        <ele>50</ele>
        <time>2025-04-11T09:52:23Z</time>
      </trkpt>
      <trkpt lat="45.27692" lon="0.19107">
        <ele>52</ele>
        <time>2025-04-11T09:52:32Z</time>
      </trkpt>
      <trkpt lat="45.2765" lon="0.19154">
        <ele>54</ele>
        <time>2025-04-11T09:52:41Z</time>
      </trkpt>
      <trkpt lat="45.27637" lon="0.19184">
        <ele>56</ele>
        <time>2025-04-11T09:52:46Z</time>
      </trkpt>
      <trkpt lat="45.27633" lon="0.19244">
        <ele>58</ele>
        <time>2025-04-11T09:52:53Z</time>
      </trkpt>
      <trkpt lat="45.27626" lon="0.19266">
        <ele>58</ele>
        <time>2025-04-11T09:52:56Z</time>
      </trkpt>
      <trkpt lat="45.27575" lon="0.1931">
        <ele>56</ele>
        <time>2025-04-11T09:53:07Z</time>
      </trkpt>
      <trkpt lat="45.27555" lon="0.1934">
        <ele>55</ele>
        <time>2025-04-11T09:53:12Z</time>
      </trkpt>
      <trkpt lat="45.27483" lon="0.19432">
        <ele>53</ele>
        <time>2025-04-11T09:53:29Z</time>
      </trkpt>
      <trkpt lat="45.27476" lon="0.1945">
        <ele>53</ele>
        <time>2025-04-11T09:53:32Z</time>
      </trkpt>
      <trkpt lat="45.27472" lon="0.19536">
        <ele>53</ele>
        <time>2025-04-11T09:53:43Z</time>
      </trkpt>
      <trkpt lat="45.27439" lon="0.19656">
        <ele>56</ele>
        <time>2025-04-11T09:53:59Z</time>
      </trkpt>
      <trkpt lat="45.27403" lon="0.19774">
        <ele>54</ele>
        <time>2025-04-11T09:54:15Z</time>
      </trkpt>
      <trkpt lat="45.27379" lon="0.1984">
        <ele>53</ele>
        <time>2025-04-11T09:54:24Z</time>
      </trkpt>
      <trkpt lat="45.27375" lon="0.19871">
        <ele>52</ele>
        <time>2025-04-11T09:54:28Z</time>
      </trkpt>
      <trkpt lat="45.27378" lon="0.19965">
        <ele>53</ele>
        <time>2025-04-11T09:54:40Z</time>
      </trkpt>
      <trkpt lat="45.27373" lon="0.20009">
        <ele>52</ele>
        <time>2025-04-11T09:54:45Z</time>
      </trkpt>
      <trkpt lat="45.27358" lon="0.20076">
        <ele>50</ele>
        <time>2025-04-11T09:54:54Z</time>
      </trkpt>
      <trkpt lat="45.27324" lon="0.202">
        <ele>49</ele>
        <time>2025-04-11T09:55:11Z</time>
      </trkpt>
      <trkpt lat="45.273" lon="0.20273">
        <ele>50</ele>
        <time>2025-04-11T09:55:21Z</time>
      </trkpt>
      <trkpt lat="45.27283" lon="0.20293">
        <ele>50</ele>
        <time>2025-04-11T09:55:25Z</time>
      </trkpt>
      <trkpt lat="45.27236" lon="0.2033">
        <ele>50</ele>
        <time>2025-04-11T09:55:34Z</time>
      </trkpt>
      <trkpt lat="45.27225" lon="0.20343">
        <ele>49</ele>
        <time>2025-04-11T09:55:37Z</time>
      </trkpt>
      <trkpt lat="45.27142" lon="0.20453">
        <ele>48</ele>
        <time>2025-04-11T09:55:57Z</time>
      </trkpt>
      <trkpt lat="45.27124" lon="0.2049">
        <ele>48</ele>
        <time>2025-04-11T09:56:03Z</time>
      </trkpt>
      <trkpt lat="45.27111" lon="0.20515">
        <ele>48</ele>
        <time>2025-04-11T09:56:07Z</time>
      </trkpt>
      <trkpt lat="45.27065" lon="0.2057">
        <ele>48</ele>
        <time>2025-04-11T09:56:17Z</time>
      </trkpt>
      <trkpt lat="45.2706" lon="0.20584">
        <ele>49</ele>
        <time>2025-04-11T09:56:19Z</time>
      </trkpt>
      <trkpt lat="45.27151" lon="0.20651">
        <ele>48</ele>
        <time>2025-04-11T09:56:38Z</time>
      </trkpt>
      <trkpt lat="45.27258" lon="0.20736">
        <ele>48</ele>
        <time>2025-04-11T09:56:59Z</time>
      </trkpt>
      <trkpt lat="45.27293" lon="0.20755">
        <ele>49</ele>
        <time>2025-04-11T09:57:06Z</time>
      </trkpt>
      <trkpt lat="45.27325" lon="0.20764">
        <ele>49</ele>
        <time>2025-04-11T09:57:12Z</time>
      </trkpt>
      <trkpt lat="45.27651" lon="0.20675">
        <ele>52</ele>
        <time>2025-04-11T09:58:11Z</time>
      </trkpt>
      <trkpt lat="45.27745" lon="0.20657">
        <ele>55</ele>
        <time>2025-04-11T09:58:28Z</time>
      </trkpt>
      <trkpt lat="45.27784" lon="0.20665">
        <ele>56</ele>
        <time>2025-04-11T09:58:35Z</time>
      </trkpt>
      <trkpt lat="45.27817" lon="0.20682">
        <ele>56</ele>
        <time>2025-04-11T09:58:41Z</time>
      </trkpt>
      <trkpt lat="45.27847" lon="0.20717">
        <ele>58</ele>
        <time>2025-04-11T09:58:48Z</time>
      </trkpt>
      <trkpt lat="45.27874" lon="0.20761">
        <ele>59</ele>
        <time>2025-04-11T09:58:55Z</time>
      </trkpt>
      <trkpt lat="45.27995" lon="0.20974">
        <ele>56</ele>
        <time>2025-04-11T09:59:30Z</time>
      </trkpt>
      <trkpt lat="45.28019" lon="0.21007">
        <ele>56</ele>
        <time>2025-04-11T09:59:36Z</time>
      </trkpt>
      <trkpt lat="45.28035" lon="0.21017">
        <ele>56</ele>
        <time>2025-04-11T09:59:39Z</time>
      </trkpt>
      <trkpt lat="45.28063" lon="0.21027">
        <ele>57</ele>
        <time>2025-04-11T09:59:44Z</time>
      </trkpt>
      <trkpt lat="45.28232" lon="0.21091">
        <ele>59</ele>
        <time>2025-04-11T10:00:15Z</time>
      </trkpt>
      <trkpt lat="45.285" lon="0.21239">
        <ele>58</ele>
        <time>2025-04-11T10:01:06Z</time>
      </trkpt>
      <trkpt lat="45.28546" lon="0.21274">
        <ele>59</ele>
        <time>2025-04-11T10:01:15Z</time>
      </trkpt>
      <trkpt lat="45.28564" lon="0.2128">
        <ele>59</ele>
        <time>2025-04-11T10:01:19Z</time>
      </trkpt>
      <trkpt lat="45.28587" lon="0.21267">
        <ele>59</ele>
        <time>2025-04-11T10:01:23Z</time>
      </trkpt>
      <trkpt lat="45.28669" lon="0.21277">
        <ele>54</ele>
        <time>2025-04-11T10:01:38Z</time>
      </trkpt>
      <trkpt lat="45.28716" lon="0.21287">
        <ele>54</ele>
        <time>2025-04-11T10:01:46Z</time>
      </trkpt>
      <trkpt lat="45.2872" lon="0.21387">
        <ele>54</ele>
        <time>2025-04-11T10:01:59Z</time>
      </trkpt>
      <trkpt lat="45.28723" lon="0.21414">
        <ele>55</ele>
        <time>2025-04-11T10:02:02Z</time>
      </trkpt>
      <trkpt lat="45.28728" lon="0.21434">
        <ele>54</ele>
        <time>2025-04-11T10:02:05Z</time>
      </trkpt>
      <trkpt lat="45.28738" lon="0.21454">
        <ele>53</ele>
        <time>2025-04-11T10:02:08Z</time>
      </trkpt>
      <trkpt lat="45.2875" lon="0.2147">
        <ele>53</ele>
        <time>2025-04-11T10:02:11Z</time>
      </trkpt>
      <trkpt lat="45.28925" lon="0.21642">
        <ele>54</ele>
        <time>2025-04-11T10:02:49Z</time>
      </trkpt>
      <trkpt lat="45.29076" lon="0.21797">
        <ele>55</ele>
        <time>2025-04-11T10:03:22Z</time>
      </trkpt>
      <trkpt lat="45.29105" lon="0.2183">
        <ele>55</ele>
        <time>2025-04-11T10:03:28Z</time>
      </trkpt>
      <trkpt lat="45.2917" lon="0.2192">
        <ele>55</ele>
        <time>2025-04-11T10:03:44Z</time>
      </trkpt>
      <trkpt lat="45.29255" lon="0.22052">
        <ele>59</ele>
        <time>2025-04-11T10:04:07Z</time>
      </trkpt>
      <trkpt lat="45.29297" lon="0.22127">
        <ele>58</ele>
        <time>2025-04-11T10:04:19Z</time>
      </trkpt>
      <trkpt lat="45.29411" lon="0.22351">
        <ele>56</ele>
        <time>2025-04-11T10:04:53Z</time>
      </trkpt>
      <trkpt lat="45.29465" lon="0.22423">
        <ele>53</ele>
        <time>2025-04-11T10:05:07Z</time>
      </trkpt>
      <trkpt lat="45.29508" lon="0.22472">
        <ele>51</ele>
        <time>2025-04-11T10:05:16Z</time>
      </trkpt>
      <trkpt lat="45.29632" lon="0.22622">
        <ele>49</ele>
        <time>2025-04-11T10:05:45Z</time>
      </trkpt>
      <trkpt lat="45.29645" lon="0.22639">
        <ele>49</ele>
        <time>2025-04-11T10:05:49Z</time>
      </trkpt>
      <trkpt lat="45.29653" lon="0.2265">
        <ele>49</ele>
        <time>2025-04-11T10:05:51Z</time>
      </trkpt>
      <trkpt lat="45.29642" lon="0.2266">
        <ele>49</ele>
        <time>2025-04-11T10:05:53Z</time>
      </trkpt>
      <trkpt lat="45.29322" lon="0.22816">
        <ele>49</ele>
        <time>2025-04-11T10:06:53Z</time>
      </trkpt>
      <trkpt lat="45.293" lon="0.22827">
        <ele>49</ele>
        <time>2025-04-11T10:06:57Z</time>
      </trkpt>
      <trkpt lat="45.29243" lon="0.22855">
        <ele>49</ele>
        <time>2025-04-11T10:07:08Z</time>
      </trkpt>
      <trkpt lat="45.2919" lon="0.22885">
        <ele>48</ele>
        <time>2025-04-11T10:07:18Z</time>
      </trkpt>
      <trkpt lat="45.29152" lon="0.22913">
        <ele>49</ele>
        <time>2025-04-11T10:07:26Z</time>
      </trkpt>
      <trkpt lat="45.28881" lon="0.23126">
        <ele>53</ele>
        <time>2025-04-11T10:08:21Z</time>
      </trkpt>
      <trkpt lat="45.28826" lon="0.23265">
        <ele>53</ele>
        <time>2025-04-11T10:08:41Z</time>
      </trkpt>
      <trkpt lat="45.28814" lon="0.23291">
        <ele>53</ele>
        <time>2025-04-11T10:08:45Z</time>
      </trkpt>
      <trkpt lat="45.28802" lon="0.23308">
        <ele>53</ele>
        <time>2025-04-11T10:08:48Z</time>
      </trkpt>
      <trkpt lat="45.28793" lon="0.23312">
        <ele>53</ele>
        <time>2025-04-11T10:08:49Z</time>
      </trkpt>
      <trkpt lat="45.28776" lon="0.23313">
        <ele>53</ele>
        <time>2025-04-11T10:08:52Z</time>
      </trkpt>
      <trkpt lat="45.28769" lon="0.23316">
        <ele>53</ele>
        <time>2025-04-11T10:08:54Z</time>
      </trkpt>
      <trkpt lat="45.28759" lon="0.23322">
        <ele>52</ele>
        <time>2025-04-11T10:08:56Z</time>
      </trkpt>
      <trkpt lat="45.28749" lon="0.23334">
        <ele>52</ele>
        <time>2025-04-11T10:08:58Z</time>
      </trkpt>
      <trkpt lat="45.28728" lon="0.23376">
        <ele>53</ele>
        <time>2025-04-11T10:09:04Z</time>
      </trkpt>
      <trkpt lat="45.28669" lon="0.23464">
        <ele>54</ele>
        <time>2025-04-11T10:09:20Z</time>
      </trkpt>
      <trkpt lat="45.28661" lon="0.23497">
        <ele>54</ele>
        <time>2025-04-11T10:09:24Z</time>
      </trkpt>
      <trkpt lat="45.28659" lon="0.23531">
        <ele>54</ele>
        <time>2025-04-11T10:09:28Z</time>
      </trkpt>
      <trkpt lat="45.28662" lon="0.23582">
        <ele>54</ele>
        <time>2025-04-11T10:09:35Z</time>
      </trkpt>
      <trkpt lat="45.28679" lon="0.23724">
        <ele>53</ele>
        <time>2025-04-11T10:09:53Z</time>
      </trkpt>
      <trkpt lat="45.28677" lon="0.23751">
        <ele>53</ele>
        <time>2025-04-11T10:09:56Z</time>
      </trkpt>
      <trkpt lat="45.28651" lon="0.23803">
        <ele>53</ele>
        <time>2025-04-11T10:10:04Z</time>
      </trkpt>
      <trkpt lat="45.28648" lon="0.23827">
        <ele>54</ele>
        <time>2025-04-11T10:10:07Z</time>
      </trkpt>
      <trkpt lat="45.28646" lon="0.23872">
        <ele>55</ele>
        <time>2025-04-11T10:10:13Z</time>
      </trkpt>
      <trkpt lat="45.28546" lon="0.23979">
        <ele>59</ele>
        <time>2025-04-11T10:10:35Z</time>
      </trkpt>
      <trkpt lat="45.28522" lon="0.24011">
        <ele>60</ele>
        <time>2025-04-11T10:10:41Z</time>
      </trkpt>
      <trkpt lat="45.28514" lon="0.24029">
        <ele>60</ele>
        <time>2025-04-11T10:10:44Z</time>
      </trkpt>
      <trkpt lat="45.28512" lon="0.2405">
        <ele>60</ele>
        <time>2025-04-11T10:10:46Z</time>
      </trkpt>
      <trkpt lat="45.28521" lon="0.24114">
        <ele>60</ele>
        <time>2025-04-11T10:10:54Z</time>
      </trkpt>
      <trkpt lat="45.28527" lon="0.24173">
        <ele>59</ele>
        <time>2025-04-11T10:11:02Z</time>
      </trkpt>
      <trkpt lat="45.28522" lon="0.24197">
        <ele>59</ele>
        <time>2025-04-11T10:11:05Z</time>
      </trkpt>
      <trkpt lat="45.28514" lon="0.24218">
        <ele>59</ele>
        <time>2025-04-11T10:11:08Z</time>
      </trkpt>
      <trkpt lat="45.28486" lon="0.24248">
        <ele>59</ele>
        <time>2025-04-11T10:11:14Z</time>
      </trkpt>
      <trkpt lat="45.28386" lon="0.24342">
        <ele>60</ele>
        <time>2025-04-11T10:11:36Z</time>
      </trkpt>
      <trkpt lat="45.28327" lon="0.24429">
        <ele>59</ele>
        <time>2025-04-11T10:11:51Z</time>
      </trkpt>
      <trkpt lat="45.28287" lon="0.24471">
        <ele>60</ele>
        <time>2025-04-11T10:12:00Z</time>
      </trkpt>
      <trkpt lat="45.28281" lon="0.24478">
        <ele>60</ele>
        <time>2025-04-11T10:12:01Z</time>
      </trkpt>
      <trkpt lat="45.28277" lon="0.24486">
        <ele>60</ele>
        <time>2025-04-11T10:12:02Z</time>
      </trkpt>
      <trkpt lat="45.28241" lon="0.24595">
        <ele>57</ele>
        <time>2025-04-11T10:12:17Z</time>
      </trkpt>
      <trkpt lat="45.2823" lon="0.24612">
        <ele>58</ele>
        <time>2025-04-11T10:12:20Z</time>
      </trkpt>
      <trkpt lat="45.28221" lon="0.24619">
        <ele>59</ele>
        <time>2025-04-11T10:12:22Z</time>
      </trkpt>
      <trkpt lat="45.28204" lon="0.24623">
        <ele>60</ele>
        <time>2025-04-11T10:12:25Z</time>
      </trkpt>
      <trkpt lat="45.28172" lon="0.24609">
        <ele>62</ele>
        <time>2025-04-11T10:12:31Z</time>
      </trkpt>
      <trkpt lat="45.28054" lon="0.24523">
        <ele>65</ele>
        <time>2025-04-11T10:12:55Z</time>
      </trkpt>
      <trkpt lat="45.2802" lon="0.24502">
        <ele>67</ele>
        <time>2025-04-11T10:13:01Z</time>
      </trkpt>
      <trkpt lat="45.27987" lon="0.24487">
        <ele>69</ele>
        <time>2025-04-11T10:13:07Z</time>
      </trkpt>
      <trkpt lat="45.27958" lon="0.24482">
        <ele>70</ele>
        <time>2025-04-11T10:13:13Z</time>
      </trkpt>
      <trkpt lat="45.27928" lon="0.2449">
        <ele>71</ele>
        <time>2025-04-11T10:13:18Z</time>
      </trkpt>
      <trkpt lat="45.27893" lon="0.24512">
        <ele>71</ele>
        <time>2025-04-11T10:13:25Z</time>
      </trkpt>
      <trkpt lat="45.27838" lon="0.24574">
        <ele>69</ele>
        <time>2025-04-11T10:13:37Z</time>
      </trkpt>
      <trkpt lat="45.27794" lon="0.24645">
        <ele>68</ele>
        <time>2025-04-11T10:13:49Z</time>
      </trkpt>
      <trkpt lat="45.27766" lon="0.24678">
        <ele>69</ele>
        <time>2025-04-11T10:13:56Z</time>
      </trkpt>
      <trkpt lat="45.27698" lon="0.24737">
        <ele>71</ele>
        <time>2025-04-11T10:14:10Z</time>
      </trkpt>
      <trkpt lat="45.27676" lon="0.24759">
        <ele>71</ele>
        <time>2025-04-11T10:14:15Z</time>
      </trkpt>
      <trkpt lat="45.27626" lon="0.24865">
        <ele>71</ele>
        <time>2025-04-11T10:14:31Z</time>
      </trkpt>
      <trkpt lat="45.27597" lon="0.24897">
        <ele>72</ele>
        <time>2025-04-11T10:14:37Z</time>
      </trkpt>
      <trkpt lat="45.2758" lon="0.24911">
        <ele>72</ele>
        <time>2025-04-11T10:14:41Z</time>
      </trkpt>
      <trkpt lat="45.2757" lon="0.24925">
        <ele>72</ele>
        <time>2025-04-11T10:14:43Z</time>
      </trkpt>
      <trkpt lat="45.27524" lon="0.25016">
        <ele>74</ele>
        <time>2025-04-11T10:14:57Z</time>
      </trkpt>
      <trkpt lat="45.27512" lon="0.25034">
        <ele>74</ele>
        <time>2025-04-11T10:15:00Z</time>
      </trkpt>
      <trkpt lat="45.275" lon="0.25047">
        <ele>75</ele>
        <time>2025-04-11T10:15:03Z</time>
      </trkpt>
      <trkpt lat="45.27413" lon="0.25102">
        <ele>81</ele>
        <time>2025-04-11T10:15:20Z</time>
      </trkpt>
      <trkpt lat="45.2742" lon="0.25126">
        <ele>81</ele>
        <time>2025-04-11T10:15:23Z</time>
      </trkpt>
      <trkpt lat="45.27423" lon="0.25145">
        <ele>80</ele>
        <time>2025-04-11T10:15:25Z</time>
      </trkpt>
      <trkpt lat="45.27425" lon="0.25181">
        <ele>80</ele>
        <time>2025-04-11T10:15:30Z</time>
      </trkpt>
      <trkpt lat="45.27423" lon="0.25217">
        <ele>79</ele>
        <time>2025-04-11T10:15:35Z</time>
      </trkpt>
      <trkpt lat="45.27412" lon="0.2528">
        <ele>77</ele>
        <time>2025-04-11T10:15:43Z</time>
      </trkpt>
      <trkpt lat="45.27405" lon="0.25309">
        <ele>76</ele>
        <time>2025-04-11T10:15:46Z</time>
      </trkpt>
      <trkpt lat="45.27381" lon="0.25374">
        <ele>73</ele>
        <time>2025-04-11T10:15:56Z</time>
      </trkpt>
      <trkpt lat="45.27367" lon="0.2541">
        <ele>72</ele>
        <time>2025-04-11T10:16:01Z</time>
      </trkpt>
      <trkpt lat="45.2735" lon="0.25448">
        <ele>71</ele>
        <time>2025-04-11T10:16:06Z</time>
      </trkpt>
      <trkpt lat="45.27339" lon="0.25463">
        <ele>71</ele>
        <time>2025-04-11T10:16:09Z</time>
      </trkpt>
      <trkpt lat="45.27315" lon="0.25483">
        <ele>72</ele>
        <time>2025-04-11T10:16:14Z</time>
      </trkpt>
      <trkpt lat="45.27297" lon="0.25494">
        <ele>73</ele>
        <time>2025-04-11T10:16:18Z</time>
      </trkpt>
      <trkpt lat="45.27223" lon="0.25523">
        <ele>75</ele>
        <time>2025-04-11T10:16:31Z</time>
      </trkpt>
      <trkpt lat="45.27209" lon="0.25533">
        <ele>75</ele>
        <time>2025-04-11T10:16:34Z</time>
      </trkpt>
      <trkpt lat="45.27198" lon="0.25544">
        <ele>74</ele>
        <time>2025-04-11T10:16:36Z</time>
      </trkpt>
      <trkpt lat="45.27183" lon="0.25568">
        <ele>74</ele>
        <time>2025-04-11T10:16:40Z</time>
      </trkpt>
      <trkpt lat="45.27136" lon="0.25664">
        <ele>80</ele>
        <time>2025-04-11T10:16:55Z</time>
      </trkpt>
      <trkpt lat="45.27226" lon="0.25739">
        <ele>76</ele>
        <time>2025-04-11T10:17:14Z</time>
      </trkpt>
      <trkpt lat="45.27233" lon="0.25749">
        <ele>76</ele>
        <time>2025-04-11T10:17:15Z</time>
      </trkpt>
      <trkpt lat="45.2725" lon="0.25784">
        <ele>73</ele>
        <time>2025-04-11T10:17:21Z</time>
      </trkpt>
      <trkpt lat="45.27265" lon="0.25824">
        <ele>70</ele>
        <time>2025-04-11T10:17:26Z</time>
      </trkpt>
      <trkpt lat="45.27282" lon="0.25847">
        <ele>68</ele>
        <time>2025-04-11T10:17:31Z</time>
      </trkpt>
      <trkpt lat="45.27374" lon="0.2593">
        <ele>61</ele>
        <time>2025-04-11T10:17:50Z</time>
      </trkpt>
      <trkpt lat="45.27387" lon="0.25947">
        <ele>61</ele>
        <time>2025-04-11T10:17:53Z</time>
      </trkpt>
      <trkpt lat="45.27381" lon="0.25974">
        <ele>61</ele>
        <time>2025-04-11T10:17:57Z</time>
      </trkpt>
      <trkpt lat="45.27243" lon="0.26246">
        <ele>60</ele>
        <time>2025-04-11T10:18:39Z</time>
      </trkpt>
      <trkpt lat="45.27229" lon="0.26273">
        <ele>60</ele>
        <time>2025-04-11T10:18:43Z</time>
      </trkpt>
      <trkpt lat="45.27203" lon="0.26337">
        <ele>61</ele>
        <time>2025-04-11T10:18:52Z</time>
      </trkpt>
      <trkpt lat="45.27194" lon="0.26387">
        <ele>60</ele>
        <time>2025-04-11T10:18:59Z</time>
      </trkpt>
      <trkpt lat="45.27177" lon="0.26444">
        <ele>62</ele>
        <time>2025-04-11T10:19:06Z</time>
      </trkpt>
      <trkpt lat="45.27142" lon="0.26516">
        <ele>64</ele>
        <time>2025-04-11T10:19:17Z</time>
      </trkpt>
      <trkpt lat="45.27083" lon="0.2661">
        <ele>62</ele>
        <time>2025-04-11T10:19:33Z</time>
      </trkpt>
      <trkpt lat="45.27262" lon="0.26891">
        <ele>54</ele>
        <time>2025-04-11T10:20:21Z</time>
      </trkpt>
      <trkpt lat="45.27289" lon="0.26934">
        <ele>54</ele>
        <time>2025-04-11T10:20:28Z</time>
      </trkpt>
      <trkpt lat="45.27377" lon="0.27071">
        <ele>53</ele>
        <time>2025-04-11T10:20:51Z</time>
      </trkpt>
      <trkpt lat="45.27479" lon="0.27236">
        <ele>52</ele>
        <time>2025-04-11T10:21:18Z</time>
      </trkpt>
      <trkpt lat="45.27757" lon="0.27676">
        <ele>61</ele>
        <time>2025-04-11T10:22:33Z</time>
      </trkpt>
      <trkpt lat="45.27762" lon="0.2768">
        <ele>62</ele>
        <time>2025-04-11T10:22:34Z</time>
      </trkpt>
      <trkpt lat="45.27771" lon="0.2768">
        <ele>63</ele>
        <time>2025-04-11T10:22:35Z</time>
      </trkpt>
      <trkpt lat="45.27776" lon="0.27676">
        <ele>63</ele>
        <time>2025-04-11T10:22:36Z</time>
      </trkpt>
      <trkpt lat="45.27794" lon="0.27644">
        <ele>63</ele>
        <time>2025-04-11T10:22:41Z</time>
      </trkpt>
      <trkpt lat="45.27834" lon="0.27568">
        <ele>60</ele>
        <time>2025-04-11T10:22:53Z</time>
      </trkpt>
      <trkpt lat="45.27857" lon="0.27519">
        <ele>59</ele>
        <time>2025-04-11T10:23:01Z</time>
      </trkpt>
      <trkpt lat="45.2791" lon="0.27395">
        <ele>57</ele>
        <time>2025-04-11T10:23:19Z</time>
      </trkpt>
      <trkpt lat="45.2793" lon="0.27331">
        <ele>55</ele>
        <time>2025-04-11T10:23:27Z</time>
      </trkpt>
      <trkpt lat="45.28001" lon="0.27076">
        <ele>53</ele>
        <time>2025-04-11T10:24:02Z</time>
      </trkpt>
      <trkpt lat="45.28014" lon="0.27041">
        <ele>53</ele>
        <time>2025-04-11T10:24:07Z</time>
      </trkpt>
      <trkpt lat="45.28027" lon="0.27015">
        <ele>54</ele>
        <time>2025-04-11T10:24:11Z</time>
      </trkpt>
      <trkpt lat="45.28088" lon="0.26906">
        <ele>53</ele>
        <time>2025-04-11T10:24:28Z</time>
      </trkpt>
      <trkpt lat="45.28106" lon="0.26879">
        <ele>53</ele>
        <time>2025-04-11T10:24:33Z</time>
      </trkpt>
      <trkpt lat="45.28385" lon="0.26527">
        <ele>52</ele>
        <time>2025-04-11T10:25:39Z</time>
      </trkpt>
      <trkpt lat="45.28605" lon="0.26246">
        <ele>58</ele>
        <time>2025-04-11T10:26:32Z</time>
      </trkpt>
      <trkpt lat="45.28642" lon="0.26195">
        <ele>57</ele>
        <time>2025-04-11T10:26:41Z</time>
      </trkpt>
      <trkpt lat="45.28671" lon="0.26164">
        <ele>56</ele>
        <time>2025-04-11T10:26:48Z</time>
      </trkpt>
      <trkpt lat="45.28684" lon="0.26155">
        <ele>56</ele>
        <time>2025-04-11T10:26:50Z</time>
      </trkpt>
      <trkpt lat="45.28695" lon="0.2615">
        <ele>57</ele>
        <time>2025-04-11T10:26:52Z</time>
      </trkpt>
      <trkpt lat="45.28932" lon="0.2612">
        <ele>60</ele>
        <time>2025-04-11T10:27:34Z</time>
      </trkpt>
      <trkpt lat="45.28983" lon="0.26123">
        <ele>60</ele>
        <time>2025-04-11T10:27:44Z</time>
      </trkpt>
      <trkpt lat="45.29017" lon="0.26131">
        <ele>60</ele>
        <time>2025-04-11T10:27:50Z</time>
      </trkpt>
      <trkpt lat="45.29036" lon="0.26141">
        <ele>59</ele>
        <time>2025-04-11T10:27:53Z</time>
      </trkpt>
      <trkpt lat="45.29066" lon="0.26166">
        <ele>59</ele>
        <time>2025-04-11T10:27:59Z</time>
      </trkpt>
      <trkpt lat="45.2913" lon="0.2624">
        <ele>57</ele>
        <time>2025-04-11T10:28:14Z</time>
      </trkpt>
      <trkpt lat="45.29156" lon="0.26278">
        <ele>56</ele>
        <time>2025-04-11T10:28:21Z</time>
      </trkpt>
      <trkpt lat="45.29172" lon="0.26309">
        <ele>56</ele>
        <time>2025-04-11T10:28:26Z</time>
      </trkpt>
      <trkpt lat="45.29189" lon="0.26347">
        <ele>55</ele>
        <time>2025-04-11T10:28:31Z</time>
      </trkpt>
      <trkpt lat="45.29231" lon="0.26459">
        <ele>56</ele>
        <time>2025-04-11T10:28:47Z</time>
      </trkpt>
      <trkpt lat="45.29242" lon="0.26479">
        <ele>55</ele>
        <time>2025-04-11T10:28:50Z</time>
      </trkpt>
      <trkpt lat="45.29306" lon="0.26565">
        <ele>55</ele>
        <time>2025-04-11T10:29:06Z</time>
      </trkpt>
      <trkpt lat="45.2932" lon="0.2659">
        <ele>55</ele>
        <time>2025-04-11T10:29:10Z</time>
      </trkpt>
      <trkpt lat="45.29499" lon="0.26976">
        <ele>55</ele>
        <time>2025-04-11T10:30:08Z</time>
      </trkpt>
      <trkpt lat="45.29609" lon="0.27199">
        <ele>57</ele>
        <time>2025-04-11T10:30:42Z</time>
      </trkpt>
      <trkpt lat="45.29625" lon="0.27236">
        <ele>58</ele>
        <time>2025-04-11T10:30:47Z</time>
      </trkpt>
      <trkpt lat="45.29637" lon="0.2727">
        <ele>59</ele>
        <time>2025-04-11T10:30:52Z</time>
      </trkpt>
      <trkpt lat="45.29645" lon="0.27303">
        <ele>59</ele>
        <time>2025-04-11T10:30:56Z</time>
      </trkpt>
      <trkpt lat="45.29649" lon="0.27335">
        <ele>59</ele>
        <time>2025-04-11T10:31:01Z</time>
      </trkpt>
      <trkpt lat="45.29651" lon="0.27381">
        <ele>60</ele>
        <time>2025-04-11T10:31:06Z</time>
      </trkpt>
      <trkpt lat="45.29655" lon="0.27596">
        <ele>63</ele>
        <time>2025-04-11T10:31:33Z</time>
      </trkpt>
      <trkpt lat="45.29657" lon="0.27606">
        <ele>62</ele>
        <time>2025-04-11T10:31:35Z</time>
      </trkpt>
      <trkpt lat="45.2966" lon="0.27609">
        <ele>62</ele>
        <time>2025-04-11T10:31:35Z</time>
      </trkpt>
      <trkpt lat="45.29675" lon="0.27592">
        <ele>60</ele>
        <time>2025-04-11T10:31:39Z</time>
      </trkpt>
      <trkpt lat="45.29693" lon="0.2758">
        <ele>59</ele>
        <time>2025-04-11T10:31:42Z</time>
      </trkpt>
      <trkpt lat="45.29747" lon="0.27557">
        <ele>55</ele>
        <time>2025-04-11T10:31:52Z</time>
      </trkpt>
      <trkpt lat="45.29765" lon="0.27549">
        <ele>54</ele>
        <time>2025-04-11T10:31:56Z</time>
      </trkpt>
      <trkpt lat="45.29873" lon="0.27503">
        <ele>54</ele>
        <time>2025-04-11T10:32:16Z</time>
      </trkpt>
      <trkpt lat="45.29897" lon="0.27496">
        <ele>55</ele>
        <time>2025-04-11T10:32:20Z</time>
      </trkpt>
      <trkpt lat="45.29923" lon="0.27493">
        <ele>55</ele>
        <time>2025-04-11T10:32:25Z</time>
      </trkpt>
      <trkpt lat="45.30119" lon="0.27487">
        <ele>64</ele>
        <time>2025-04-11T10:32:59Z</time>
      </trkpt>
      <trkpt lat="45.30161" lon="0.27494">
        <ele>65</ele>
        <time>2025-04-11T10:33:07Z</time>
      </trkpt>
      <trkpt lat="45.3019" lon="0.27503">
        <ele>65</ele>
        <time>2025-04-11T10:33:12Z</time>
      </trkpt>
      <trkpt lat="45.30326" lon="0.27567">
        <ele>71</ele>
        <time>2025-04-11T10:33:38Z</time>
      </trkpt>
      <trkpt lat="45.30354" lon="0.27583">
        <ele>72</ele>
        <time>2025-04-11T10:33:43Z</time>
      </trkpt>
      <trkpt lat="45.30422" lon="0.27627">
        <ele>73</ele>
        <time>2025-04-11T10:33:56Z</time>
      </trkpt>
      <trkpt lat="45.30443" lon="0.27635">
        <ele>72</ele>
        <time>2025-04-11T10:34:00Z</time>
      </trkpt>
      <trkpt lat="45.30474" lon="0.27643">
        <ele>69</ele>
        <time>2025-04-11T10:34:06Z</time>
      </trkpt>
      <trkpt lat="45.30538" lon="0.27643">
        <ele>67</ele>
        <time>2025-04-11T10:34:17Z</time>
      </trkpt>
      <trkpt lat="45.30558" lon="0.27639">
        <ele>68</ele>
        <time>2025-04-11T10:34:21Z</time>
      </trkpt>
      <trkpt lat="45.30575" lon="0.27632">
        <ele>68</ele>
        <time>2025-04-11T10:34:24Z</time>
      </trkpt>
      <trkpt lat="45.30594" lon="0.27619">
        <ele>68</ele>
        <time>2025-04-11T10:34:28Z</time>
      </trkpt>
      <trkpt lat="45.30719" lon="0.27515">
        <ele>66</ele>
        <time>2025-04-11T10:34:54Z</time>
      </trkpt>
      <trkpt lat="45.30753" lon="0.27493">
        <ele>64</ele>
        <time>2025-04-11T10:35:00Z</time>
      </trkpt>
      <trkpt lat="45.30787" lon="0.27477">
        <ele>63</ele>
        <time>2025-04-11T10:35:07Z</time>
      </trkpt>
      <trkpt lat="45.30862" lon="0.27453">
        <ele>62</ele>
        <time>2025-04-11T10:35:20Z</time>
      </trkpt>
      <trkpt lat="45.30857" lon="0.27454">
        <ele>62</ele>
        <time>2025-04-11T10:35:21Z</time>
      </trkpt>
      <trkpt lat="45.3088" lon="0.27504">
        <ele>65</ele>
        <time>2025-04-11T10:35:29Z</time>
      </trkpt>
      <trkpt lat="45.30903" lon="0.27529">
        <ele>65</ele>
        <time>2025-04-11T10:35:34Z</time>
      </trkpt>
      <trkpt lat="45.31048" lon="0.27647">
        <ele>66</ele>
        <time>2025-04-11T10:36:04Z</time>
      </trkpt>
      <trkpt lat="45.31133" lon="0.27691">
        <ele>68</ele>
        <time>2025-04-11T10:36:20Z</time>
      </trkpt>
      <trkpt lat="45.31163" lon="0.27722">
        <ele>70</ele>
        <time>2025-04-11T10:36:26Z</time>
      </trkpt>
      <trkpt lat="45.31189" lon="0.27723">
        <ele>70</ele>
        <time>2025-04-11T10:36:31Z</time>
      </trkpt>
      <trkpt lat="45.31212" lon="0.27712">
        <ele>69</ele>
        <time>2025-04-11T10:36:35Z</time>
      </trkpt>
      <trkpt lat="45.31255" lon="0.27729">
        <ele>70</ele>
        <time>2025-04-11T10:36:43Z</time>
      </trkpt>
      <trkpt lat="45.31379" lon="0.27758">
        <ele>62</ele>
        <time>2025-04-11T10:37:05Z</time>
      </trkpt>
      <trkpt lat="45.31468" lon="0.27751">
        <ele>60</ele>
        <time>2025-04-11T10:37:21Z</time>
      </trkpt>
      <trkpt lat="45.31485" lon="0.27752">
        <ele>60</ele>
        <time>2025-04-11T10:37:24Z</time>
      </trkpt>
      <trkpt lat="45.31501" lon="0.27758">
        <ele>60</ele>
        <time>2025-04-11T10:37:27Z</time>
      </trkpt>
      <trkpt lat="45.31519" lon="0.27768">
        <ele>60</ele>
        <time>2025-04-11T10:37:31Z</time>
      </trkpt>
      <trkpt lat="45.31537" lon="0.27783">
        <ele>61</ele>
        <time>2025-04-11T10:37:34Z</time>
      </trkpt>
      <trkpt lat="45.3159" lon="0.27833">
        <ele>61</ele>
        <time>2025-04-11T10:37:46Z</time>
      </trkpt>
      <trkpt lat="45.31648" lon="0.27893">
        <ele>60</ele>
        <time>2025-04-11T10:37:59Z</time>
      </trkpt>
      <trkpt lat="45.31656" lon="0.27897">
        <ele>60</ele>
        <time>2025-04-11T10:38:00Z</time>
      </trkpt>
      <trkpt lat="45.31668" lon="0.27899">
        <ele>60</ele>
        <time>2025-04-11T10:38:02Z</time>
      </trkpt>
      <trkpt lat="45.31681" lon="0.27897">
        <ele>60</ele>
        <time>2025-04-11T10:38:05Z</time>
      </trkpt>
      <trkpt lat="45.31757" lon="0.27864">
        <ele>61</ele>
        <time>2025-04-11T10:38:19Z</time>
      </trkpt>
      <trkpt lat="45.3177" lon="0.27872">
        <ele>63</ele>
        <time>2025-04-11T10:38:21Z</time>
      </trkpt>
      <trkpt lat="45.31801" lon="0.27883">
        <ele>66</ele>
        <time>2025-04-11T10:38:27Z</time>
      </trkpt>
      <trkpt lat="45.3182" lon="0.27885">
        <ele>68</ele>
        <time>2025-04-11T10:38:30Z</time>
      </trkpt>
      <trkpt lat="45.3183" lon="0.27882">
        <ele>69</ele>
        <time>2025-04-11T10:38:32Z</time>
      </trkpt>
      <trkpt lat="45.31837" lon="0.27877">
        <ele>69</ele>
        <time>2025-04-11T10:38:33Z</time>
      </trkpt>
      <trkpt lat="45.31863" lon="0.27854">
        <ele>71</ele>
        <time>2025-04-11T10:38:39Z</time>
      </trkpt>
      <trkpt lat="45.31857" lon="0.27893">
        <ele>72</ele>
        <time>2025-04-11T10:38:44Z</time>
      </trkpt>
      <trkpt lat="45.31857" lon="0.27914">
        <ele>73</ele>
        <time>2025-04-11T10:38:47Z</time>
      </trkpt>
      <trkpt lat="45.31893" lon="0.27988">
        <ele>80</ele>
        <time>2025-04-11T10:38:58Z</time>
      </trkpt>
      <trkpt lat="45.3191" lon="0.28012">
        <ele>84</ele>
        <time>2025-04-11T10:39:02Z</time>
      </trkpt>
      <trkpt lat="45.31918" lon="0.28015">
        <ele>85</ele>
        <time>2025-04-11T10:39:04Z</time>
      </trkpt>
      <trkpt lat="45.31945" lon="0.28065">
        <ele>88</ele>
        <time>2025-04-11T10:39:11Z</time>
      </trkpt>
      <trkpt lat="45.31952" lon="0.28074">
        <ele>89</ele>
        <time>2025-04-11T10:39:13Z</time>
      </trkpt>
      <trkpt lat="45.31976" lon="0.28098">
        <ele>91</ele>
        <time>2025-04-11T10:39:18Z</time>
      </trkpt>
      <trkpt lat="45.3198" lon="0.28109">
        <ele>92</ele>
        <time>2025-04-11T10:39:20Z</time>
      </trkpt>
      <trkpt lat="45.31992" lon="0.28139">
        <ele>93</ele>
        <time>2025-04-11T10:39:24Z</time>
      </trkpt>
      <trkpt lat="45.31998" lon="0.28139">
        <ele>94</ele>
        <time>2025-04-11T10:39:25Z</time>
      </trkpt>
      <trkpt lat="45.32245" lon="0.28057">
        <ele>95</ele>
        <time>2025-04-11T10:40:10Z</time>
      </trkpt>
      <trkpt lat="45.32295" lon="0.28044">
        <ele>95</ele>
        <time>2025-04-11T10:40:19Z</time>
      </trkpt>
      <trkpt lat="45.32318" lon="0.28045">
        <ele>96</ele>
        <time>2025-04-11T10:40:24Z</time>
      </trkpt>
      <trkpt lat="45.32491" lon="0.28097">
        <ele>102</ele>
        <time>2025-04-11T10:40:55Z</time>
      </trkpt>
      <trkpt lat="45.32521" lon="0.28098">
        <ele>102</ele>
        <time>2025-04-11T10:41:00Z</time>
      </trkpt>
      <trkpt lat="45.32609" lon="0.28078">
        <ele>103</ele>
        <time>2025-04-11T10:41:16Z</time>
      </trkpt>
      <trkpt lat="45.32634" lon="0.28077">
        <ele>102</ele>
        <time>2025-04-11T10:41:21Z</time>
      </trkpt>
      <trkpt lat="45.32689" lon="0.28087">
        <ele>100</ele>
        <time>2025-04-11T10:41:30Z</time>
      </trkpt>
      <trkpt lat="45.32849" lon="0.28121">
        <ele>103</ele>
        <time>2025-04-11T10:41:59Z</time>
      </trkpt>
      <trkpt lat="45.32867" lon="0.28129">
        <ele>105</ele>
        <time>2025-04-11T10:42:03Z</time>
      </trkpt>
      <trkpt lat="45.32885" lon="0.28143">
        <ele>108</ele>
        <time>2025-04-11T10:42:06Z</time>
      </trkpt>
      <trkpt lat="45.32949" lon="0.28217">
        <ele>114</ele>
        <time>2025-04-11T10:42:21Z</time>
      </trkpt>
      <trkpt lat="45.33049" lon="0.2833">
        <ele>126</ele>
        <time>2025-04-11T10:42:44Z</time>
      </trkpt>
      <trkpt lat="45.33067" lon="0.28355">
        <ele>128</ele>
        <time>2025-04-11T10:42:48Z</time>
      </trkpt>
      <trkpt lat="45.33083" lon="0.28385">
        <ele>131</ele>
        <time>2025-04-11T10:42:53Z</time>
      </trkpt>
      <trkpt lat="45.33106" lon="0.28446">
        <ele>132</ele>
        <time>2025-04-11T10:43:02Z</time>
      </trkpt>
      <trkpt lat="45.33113" lon="0.28476">
        <ele>133</ele>
        <time>2025-04-11T10:43:05Z</time>
      </trkpt>
      <trkpt lat="45.33115" lon="0.28507">
        <ele>134</ele>
        <time>2025-04-11T10:43:09Z</time>
      </trkpt>
      <trkpt lat="45.33115" lon="0.28535">
        <ele>135</ele>
        <time>2025-04-11T10:43:13Z</time>
      </trkpt>
      <trkpt lat="45.33117" lon="0.28556">
        <ele>135</ele>
        <time>2025-04-11T10:43:16Z</time>
      </trkpt>
      <trkpt lat="45.3312" lon="0.2857">
        <ele>135</ele>
        <time>2025-04-11T10:43:17Z</time>
      </trkpt>
      <trkpt lat="45.3314" lon="0.28622">
        <ele>134</ele>
        <time>2025-04-11T10:43:25Z</time>
      </trkpt>
      <trkpt lat="45.33164" lon="0.28699">
        <ele>134</ele>
        <time>2025-04-11T10:43:35Z</time>
      </trkpt>
      <trkpt lat="45.33176" lon="0.28733">
        <ele>135</ele>
        <time>2025-04-11T10:43:40Z</time>
      </trkpt>
      <trkpt lat="45.33195" lon="0.28771">
        <ele>134</ele>
        <time>2025-04-11T10:43:46Z</time>
      </trkpt>
      <trkpt lat="45.33229" lon="0.28822">
        <ele>137</ele>
        <time>2025-04-11T10:43:55Z</time>
      </trkpt>
      <trkpt lat="45.33326" lon="0.28955">
        <ele>142</ele>
        <time>2025-04-11T10:44:19Z</time>
      </trkpt>
      <trkpt lat="45.33347" lon="0.28978">
        <ele>142</ele>
        <time>2025-04-11T10:44:23Z</time>
      </trkpt>
      <trkpt lat="45.33365" lon="0.28993">
        <ele>142</ele>
        <time>2025-04-11T10:44:27Z</time>
      </trkpt>
      <trkpt lat="45.33523" lon="0.29081">
        <ele>147</ele>
        <time>2025-04-11T10:44:57Z</time>
      </trkpt>
      <trkpt lat="45.33552" lon="0.29092">
        <ele>145</ele>
        <time>2025-04-11T10:45:03Z</time>
      </trkpt>
      <trkpt lat="45.33576" lon="0.29096">
        <ele>144</ele>
        <time>2025-04-11T10:45:07Z</time>
      </trkpt>
      <trkpt lat="45.33648" lon="0.29082">
        <ele>143</ele>
        <time>2025-04-11T10:45:20Z</time>
      </trkpt>
      <trkpt lat="45.33671" lon="0.29059">
        <ele>141</ele>
        <time>2025-04-11T10:45:25Z</time>
      </trkpt>
      <trkpt lat="45.33733" lon="0.28989">
        <ele>138</ele>
        <time>2025-04-11T10:45:39Z</time>
      </trkpt>
      <trkpt lat="45.33775" lon="0.28973">
        <ele>142</ele>
        <time>2025-04-11T10:45:47Z</time>
      </trkpt>
      <trkpt lat="45.33851" lon="0.28987">
        <ele>149</ele>
        <time>2025-04-11T10:46:00Z</time>
      </trkpt>
      <trkpt lat="45.33898" lon="0.29001">
        <ele>152</ele>
        <time>2025-04-11T10:46:09Z</time>
      </trkpt>
      <trkpt lat="45.33933" lon="0.28985">
        <ele>154</ele>
        <time>2025-04-11T10:46:15Z</time>
      </trkpt>
      <trkpt lat="45.33969" lon="0.28946">
        <ele>155</ele>
        <time>2025-04-11T10:46:23Z</time>
      </trkpt>
      <trkpt lat="45.33986" lon="0.28931">
        <ele>156</ele>
        <time>2025-04-11T10:46:27Z</time>
      </trkpt>
      <trkpt lat="45.34006" lon="0.28928">
        <ele>156</ele>
        <time>2025-04-11T10:46:31Z</time>
      </trkpt>
      <trkpt lat="45.34041" lon="0.28933">
        <ele>155</ele>
        <time>2025-04-11T10:46:37Z</time>
      </trkpt>
      <trkpt lat="45.34138" lon="0.2897">
        <ele>154</ele>
        <time>2025-04-11T10:46:55Z</time>
      </trkpt>
      <trkpt lat="45.34158" lon="0.29008">
        <ele>154</ele>
        <time>2025-04-11T10:47:01Z</time>
      </trkpt>
      <trkpt lat="45.34202" lon="0.29104">
        <ele>151</ele>
        <time>2025-04-11T10:47:15Z</time>
      </trkpt>
      <trkpt lat="45.34204" lon="0.29144">
        <ele>150</ele>
        <time>2025-04-11T10:47:20Z</time>
      </trkpt>
      <trkpt lat="45.34166" lon="0.29383">
        <ele>150</ele>
        <time>2025-04-11T10:47:51Z</time>
      </trkpt>
      <trkpt lat="45.34138" lon="0.29482">
        <ele>145</ele>
        <time>2025-04-11T10:48:04Z</time>
      </trkpt>
      <trkpt lat="45.34137" lon="0.29529">
        <ele>143</ele>
        <time>2025-04-11T10:48:10Z</time>
      </trkpt>
      <trkpt lat="45.34156" lon="0.29594">
        <ele>142</ele>
        <time>2025-04-11T10:48:19Z</time>
      </trkpt>
      <trkpt lat="45.34169" lon="0.29633">
        <ele>141</ele>
        <time>2025-04-11T10:48:24Z</time>
      </trkpt>
      <trkpt lat="45.34181" lon="0.29693">
        <ele>138</ele>
        <time>2025-04-11T10:48:32Z</time>
      </trkpt>
      <trkpt lat="45.3418" lon="0.29732">
        <ele>136</ele>
        <time>2025-04-11T10:48:37Z</time>
      </trkpt>
      <trkpt lat="45.3417" lon="0.29794">
        <ele>135</ele>
        <time>2025-04-11T10:48:45Z</time>
      </trkpt>
      <trkpt lat="45.34152" lon="0.29874">
        <ele>131</ele>
        <time>2025-04-11T10:48:55Z</time>
      </trkpt>
      <trkpt lat="45.3415" lon="0.29946">
        <ele>128</ele>
        <time>2025-04-11T10:49:04Z</time>
      </trkpt>
      <trkpt lat="45.34163" lon="0.29995">
        <ele>127</ele>
        <time>2025-04-11T10:49:11Z</time>
      </trkpt>
      <trkpt lat="45.34178" lon="0.30026">
        <ele>126</ele>
        <time>2025-04-11T10:49:15Z</time>
      </trkpt>
      <trkpt lat="45.34196" lon="0.30047">
        <ele>125</ele>
        <time>2025-04-11T10:49:20Z</time>
      </trkpt>
      <trkpt lat="45.34208" lon="0.3005">
        <ele>124</ele>
        <time>2025-04-11T10:49:22Z</time>
      </trkpt>
      <trkpt lat="45.34233" lon="0.30048">
        <ele>124</ele>
        <time>2025-04-11T10:49:26Z</time>
      </trkpt>
      <trkpt lat="45.34335" lon="0.30016">
        <ele>120</ele>
        <time>2025-04-11T10:49:45Z</time>
      </trkpt>
      <trkpt lat="45.34357" lon="0.30013">
        <ele>119</ele>
        <time>2025-04-11T10:49:49Z</time>
      </trkpt>
      <trkpt lat="45.34401" lon="0.30022">
        <ele>115</ele>
        <time>2025-04-11T10:49:57Z</time>
      </trkpt>
      <trkpt lat="45.34422" lon="0.30034">
        <ele>114</ele>
        <time>2025-04-11T10:50:01Z</time>
      </trkpt>
      <trkpt lat="45.34452" lon="0.3007">
        <ele>112</ele>
        <time>2025-04-11T10:50:08Z</time>
      </trkpt>
      <trkpt lat="45.34463" lon="0.30092">
        <ele>111</ele>
        <time>2025-04-11T10:50:11Z</time>
      </trkpt>
      <trkpt lat="45.34472" lon="0.30128">
        <ele>110</ele>
        <time>2025-04-11T10:50:16Z</time>
      </trkpt>
      <trkpt lat="45.34502" lon="0.30277">
        <ele>104</ele>
        <time>2025-04-11T10:50:35Z</time>
      </trkpt>
      <trkpt lat="45.3451" lon="0.30315">
        <ele>102</ele>
        <time>2025-04-11T10:50:40Z</time>
      </trkpt>
      <trkpt lat="45.34522" lon="0.30402">
        <ele>100</ele>
        <time>2025-04-11T10:50:51Z</time>
      </trkpt>
      <trkpt lat="45.34517" lon="0.30458">
        <ele>98</ele>
        <time>2025-04-11T10:50:58Z</time>
      </trkpt>
      <trkpt lat="45.3461" lon="0.30484">
        <ele>103</ele>
        <time>2025-04-11T10:51:15Z</time>
      </trkpt>
      <trkpt lat="45.34746" lon="0.30506">
        <ele>109</ele>
        <time>2025-04-11T10:51:40Z</time>
      </trkpt>
      <trkpt lat="45.34814" lon="0.30499">
        <ele>112</ele>
        <time>2025-04-11T10:51:52Z</time>
      </trkpt>
      <trkpt lat="45.34848" lon="0.30475">
        <ele>112</ele>
        <time>2025-04-11T10:51:58Z</time>
      </trkpt>
      <trkpt lat="45.34872" lon="0.30448">
        <ele>111</ele>
        <time>2025-04-11T10:52:04Z</time>
      </trkpt>
      <trkpt lat="45.34907" lon="0.30396">
        <ele>111</ele>
        <time>2025-04-11T10:52:13Z</time>
      </trkpt>
      <trkpt lat="45.34957" lon="0.30277">
        <ele>111</ele>
        <time>2025-04-11T10:52:30Z</time>
      </trkpt>
      <trkpt lat="45.34975" lon="0.30251">
        <ele>109</ele>
        <time>2025-04-11T10:52:35Z</time>
      </trkpt>
      <trkpt lat="45.35053" lon="0.30164">
        <ele>111</ele>
        <time>2025-04-11T10:52:52Z</time>
      </trkpt>
      <trkpt lat="45.35127" lon="0.30107">
        <ele>116</ele>
        <time>2025-04-11T10:53:07Z</time>
      </trkpt>
      <trkpt lat="45.35204" lon="0.29947">
        <ele>120</ele>
        <time>2025-04-11T10:53:32Z</time>
      </trkpt>
      <trkpt lat="45.3526" lon="0.29855">
        <ele>122</ele>
        <time>2025-04-11T10:53:47Z</time>
      </trkpt>
      <trkpt lat="45.35279" lon="0.29811">
        <ele>124</ele>
        <time>2025-04-11T10:53:53Z</time>
      </trkpt>
      <trkpt lat="45.35293" lon="0.29788">
        <ele>125</ele>
        <time>2025-04-11T10:53:57Z</time>
      </trkpt>
      <trkpt lat="45.35308" lon="0.29774">
        <ele>125</ele>
        <time>2025-04-11T10:54:00Z</time>
      </trkpt>
      <trkpt lat="45.35454" lon="0.29698">
        <ele>137</ele>
        <time>2025-04-11T10:54:28Z</time>
      </trkpt>
      <trkpt lat="45.35575" lon="0.29611">
        <ele>156</ele>
        <time>2025-04-11T10:54:52Z</time>
      </trkpt>
      <trkpt lat="45.35649" lon="0.2954">
        <ele>161</ele>
        <time>2025-04-11T10:55:08Z</time>
      </trkpt>
      <trkpt lat="45.35724" lon="0.29441">
        <ele>167</ele>
        <time>2025-04-11T10:55:26Z</time>
      </trkpt>
      <trkpt lat="45.35755" lon="0.29404">
        <ele>168</ele>
        <time>2025-04-11T10:55:33Z</time>
      </trkpt>
      <trkpt lat="45.35761" lon="0.29373">
        <ele>167</ele>
        <time>2025-04-11T10:55:37Z</time>
      </trkpt>
      <trkpt lat="45.35743" lon="0.29249">
        <ele>161</ele>
        <time>2025-04-11T10:55:53Z</time>
      </trkpt>
      <trkpt lat="45.35717" lon="0.29095">
        <ele>146</ele>
        <time>2025-04-11T10:56:13Z</time>
      </trkpt>
      <trkpt lat="45.35688" lon="0.29016">
        <ele>148</ele>
        <time>2025-04-11T10:56:24Z</time>
      </trkpt>
      <trkpt lat="45.35658" lon="0.28953">
        <ele>146</ele>
        <time>2025-04-11T10:56:34Z</time>
      </trkpt>
      <trkpt lat="45.35651" lon="0.28922">
        <ele>145</ele>
        <time>2025-04-11T10:56:38Z</time>
      </trkpt>
      <trkpt lat="45.35654" lon="0.28894">
        <ele>143</ele>
        <time>2025-04-11T10:56:41Z</time>
      </trkpt>
      <trkpt lat="45.35664" lon="0.28876">
        <ele>143</ele>
        <time>2025-04-11T10:56:44Z</time>
      </trkpt>
      <trkpt lat="45.35705" lon="0.2886">
        <ele>144</ele>
        <time>2025-04-11T10:56:52Z</time>
      </trkpt>
      <trkpt lat="45.35729" lon="0.28837">
        <ele>142</ele>
        <time>2025-04-11T10:56:57Z</time>
      </trkpt>
      <trkpt lat="45.35746" lon="0.28809">
        <ele>141</ele>
        <time>2025-04-11T10:57:01Z</time>
      </trkpt>
      <trkpt lat="45.35757" lon="0.28774">
        <ele>138</ele>
        <time>2025-04-11T10:57:06Z</time>
      </trkpt>
      <trkpt lat="45.35747" lon="0.28723">
        <ele>135</ele>
        <time>2025-04-11T10:57:13Z</time>
      </trkpt>
      <trkpt lat="45.35728" lon="0.28676">
        <ele>132</ele>
        <time>2025-04-11T10:57:20Z</time>
      </trkpt>
      <trkpt lat="45.35693" lon="0.28625">
        <ele>127</ele>
        <time>2025-04-11T10:57:29Z</time>
      </trkpt>
      <trkpt lat="45.35677" lon="0.28592">
        <ele>126</ele>
        <time>2025-04-11T10:57:34Z</time>
      </trkpt>
      <trkpt lat="45.35661" lon="0.28499">
        <ele>122</ele>
        <time>2025-04-11T10:57:46Z</time>
      </trkpt>
      <trkpt lat="45.35635" lon="0.28441">
        <ele>120</ele>
        <time>2025-04-11T10:57:54Z</time>
      </trkpt>
      <trkpt lat="45.35571" lon="0.28355">
        <ele>113</ele>
        <time>2025-04-11T10:58:10Z</time>
      </trkpt>
      <trkpt lat="45.35557" lon="0.2831">
        <ele>111</ele>
        <time>2025-04-11T10:58:16Z</time>
      </trkpt>
      <trkpt lat="45.35554" lon="0.28248">
        <ele>110</ele>
        <time>2025-04-11T10:58:24Z</time>
      </trkpt>
      <trkpt lat="45.35555" lon="0.28187">
        <ele>109</ele>
        <time>2025-04-11T10:58:31Z</time>
      </trkpt>
      <trkpt lat="45.3553" lon="0.28073">
        <ele>105</ele>
        <time>2025-04-11T10:58:46Z</time>
      </trkpt>
      <trkpt lat="45.35507" lon="0.27985">
        <ele>99</ele>
        <time>2025-04-11T10:58:58Z</time>
      </trkpt>
      <trkpt lat="45.35468" lon="0.27944">
        <ele>93</ele>
        <time>2025-04-11T10:59:07Z</time>
      </trkpt>
      <trkpt lat="45.35411" lon="0.27934">
        <ele>88</ele>
        <time>2025-04-11T10:59:17Z</time>
      </trkpt>
      <trkpt lat="45.35373" lon="0.27911">
        <ele>86</ele>
        <time>2025-04-11T10:59:24Z</time>
      </trkpt>
      <trkpt lat="45.35221" lon="0.27728">
        <ele>84</ele>
        <time>2025-04-11T11:00:00Z</time>
      </trkpt>
      <trkpt lat="45.35173" lon="0.27658">
        <ele>84</ele>
        <time>2025-04-11T11:00:12Z</time>
      </trkpt>
      <trkpt lat="45.35106" lon="0.27538">
        <ele>83</ele>
        <time>2025-04-11T11:00:31Z</time>
      </trkpt>
      <trkpt lat="45.34902" lon="0.27234">
        <ele>87</ele>
        <time>2025-04-11T11:01:24Z</time>
      </trkpt>
      <trkpt lat="45.34825" lon="0.27105">
        <ele>88</ele>
        <time>2025-04-11T11:01:45Z</time>
      </trkpt>
      <trkpt lat="45.34724" lon="0.2669">
        <ele>82</ele>
        <time>2025-04-11T11:02:40Z</time>
      </trkpt>
      <trkpt lat="45.3474" lon="0.2668">
        <ele>83</ele>
        <time>2025-04-11T11:02:43Z</time>
      </trkpt>
      <trkpt lat="45.34756" lon="0.26675">
        <ele>83</ele>
        <time>2025-04-11T11:02:46Z</time>
      </trkpt>
      <trkpt lat="45.34767" lon="0.26663">
        <ele>83</ele>
        <time>2025-04-11T11:02:48Z</time>
      </trkpt>
      <trkpt lat="45.34799" lon="0.26634">
        <ele>82</ele>
        <time>2025-04-11T11:02:55Z</time>
      </trkpt>
      <trkpt lat="45.34848" lon="0.26562">
        <ele>79</ele>
        <time>2025-04-11T11:03:07Z</time>
      </trkpt>
      <trkpt lat="45.34952" lon="0.26375">
        <ele>69</ele>
        <time>2025-04-11T11:03:37Z</time>
      </trkpt>
      <trkpt lat="45.34959" lon="0.26348">
        <ele>69</ele>
        <time>2025-04-11T11:03:41Z</time>
      </trkpt>
      <trkpt lat="45.34939" lon="0.26293">
        <ele>69</ele>
        <time>2025-04-11T11:03:49Z</time>
      </trkpt>
      <trkpt lat="45.34928" lon="0.26242">
        <ele>69</ele>
        <time>2025-04-11T11:03:55Z</time>
      </trkpt>
      <trkpt lat="45.34928" lon="0.26183">
        <ele>66</ele>
        <time>2025-04-11T11:04:03Z</time>
      </trkpt>
      <trkpt lat="45.34934" lon="0.26156">
        <ele>65</ele>
        <time>2025-04-11T11:04:06Z</time>
      </trkpt>
      <trkpt lat="45.34944" lon="0.26108">
        <ele>64</ele>
        <time>2025-04-11T11:04:12Z</time>
      </trkpt>
      <trkpt lat="45.34966" lon="0.26048">
        <ele>63</ele>
        <time>2025-04-11T11:04:21Z</time>
      </trkpt>
      <trkpt lat="45.35077" lon="0.25871">
        <ele>63</ele>
        <time>2025-04-11T11:04:51Z</time>
      </trkpt>
      <trkpt lat="45.35082" lon="0.25862">
        <ele>63</ele>
        <time>2025-04-11T11:04:52Z</time>
      </trkpt>
      <trkpt lat="45.35108" lon="0.25817">
        <ele>62</ele>
        <time>2025-04-11T11:04:59Z</time>
      </trkpt>
      <trkpt lat="45.3512" lon="0.25787">
        <ele>62</ele>
        <time>2025-04-11T11:05:04Z</time>
      </trkpt>
      <trkpt lat="45.35196" lon="0.25559">
        <ele>62</ele>
        <time>2025-04-11T11:05:35Z</time>
      </trkpt>
      <trkpt lat="45.352" lon="0.2554">
        <ele>62</ele>
        <time>2025-04-11T11:05:38Z</time>
      </trkpt>
      <trkpt lat="45.35228" lon="0.25567">
        <ele>62</ele>
        <time>2025-04-11T11:05:44Z</time>
      </trkpt>
      <trkpt lat="45.35246" lon="0.25576">
        <ele>62</ele>
        <time>2025-04-11T11:05:47Z</time>
      </trkpt>
      <trkpt lat="45.35334" lon="0.25615">
        <ele>63</ele>
        <time>2025-04-11T11:06:04Z</time>
      </trkpt>
      <trkpt lat="45.35347" lon="0.25623">
        <ele>63</ele>
        <time>2025-04-11T11:06:06Z</time>
      </trkpt>
      <trkpt lat="45.35362" lon="0.25639">
        <ele>63</ele>
        <time>2025-04-11T11:06:09Z</time>
      </trkpt>
      <trkpt lat="45.35375" lon="0.25662">
        <ele>63</ele>
        <time>2025-04-11T11:06:13Z</time>
      </trkpt>
      <trkpt lat="45.35378" lon="0.25668">
        <ele>64</ele>
        <time>2025-04-11T11:06:14Z</time>
      </trkpt>
      <trkpt lat="45.35413" lon="0.25747">
        <ele>63</ele>
        <time>2025-04-11T11:06:26Z</time>
      </trkpt>
      <trkpt lat="45.3548" lon="0.25838">
        <ele>62</ele>
        <time>2025-04-11T11:06:42Z</time>
      </trkpt>
      <trkpt lat="45.35688" lon="0.26024">
        <ele>64</ele>
        <time>2025-04-11T11:07:26Z</time>
      </trkpt>
      <trkpt lat="45.35709" lon="0.26028">
        <ele>65</ele>
        <time>2025-04-11T11:07:30Z</time>
      </trkpt>
      <trkpt lat="45.35813" lon="0.26016">
        <ele>73</ele>
        <time>2025-04-11T11:07:48Z</time>
      </trkpt>
      <trkpt lat="45.36058" lon="0.26085">
        <ele>81</ele>
        <time>2025-04-11T11:08:33Z</time>
      </trkpt>
      <trkpt lat="45.36121" lon="0.26123">
        <ele>82</ele>
        <time>2025-04-11T11:08:45Z</time>
      </trkpt>
      <trkpt lat="45.36217" lon="0.26132">
        <ele>83</ele>
        <time>2025-04-11T11:09:02Z</time>
      </trkpt>
      <trkpt lat="45.36369" lon="0.26176">
        <ele>93</ele>
        <time>2025-04-11T11:09:30Z</time>
      </trkpt>
      <trkpt lat="45.36391" lon="0.26176">
        <ele>95</ele>
        <time>2025-04-11T11:09:33Z</time>
      </trkpt>
      <trkpt lat="45.36412" lon="0.26157">
        <ele>96</ele>
        <time>2025-04-11T11:09:38Z</time>
      </trkpt>
      <trkpt lat="45.36451" lon="0.26094">
        <ele>92</ele>
        <time>2025-04-11T11:09:48Z</time>
      </trkpt>
      <trkpt lat="45.36492" lon="0.26055">
        <ele>90</ele>
        <time>2025-04-11T11:09:57Z</time>
      </trkpt>
      <trkpt lat="45.36551" lon="0.26024">
        <ele>89</ele>
        <time>2025-04-11T11:10:08Z</time>
      </trkpt>
      <trkpt lat="45.36585" lon="0.26021">
        <ele>89</ele>
        <time>2025-04-11T11:10:14Z</time>
      </trkpt>
      <trkpt lat="45.3664" lon="0.26035">
        <ele>90</ele>
        <time>2025-04-11T11:10:24Z</time>
      </trkpt>
      <trkpt lat="45.36707" lon="0.26059">
        <ele>93</ele>
        <time>2025-04-11T11:10:37Z</time>
      </trkpt>
      <trkpt lat="45.36738" lon="0.26063">
        <ele>94</ele>
        <time>2025-04-11T11:10:42Z</time>
      </trkpt>
      <trkpt lat="45.36896" lon="0.25984">
        <ele>89</ele>
        <time>2025-04-11T11:11:12Z</time>
      </trkpt>
      <trkpt lat="45.36934" lon="0.25977">
        <ele>89</ele>
        <time>2025-04-11T11:11:19Z</time>
      </trkpt>
      <trkpt lat="45.37117" lon="0.25976">
        <ele>87</ele>
        <time>2025-04-11T11:11:51Z</time>
      </trkpt>
      <trkpt lat="45.37132" lon="0.25978">
        <ele>87</ele>
        <time>2025-04-11T11:11:54Z</time>
      </trkpt>
      <trkpt lat="45.37137" lon="0.25992">
        <ele>88</ele>
        <time>2025-04-11T11:11:56Z</time>
      </trkpt>
      <trkpt lat="45.37193" lon="0.26064">
        <ele>98</ele>
        <time>2025-04-11T11:12:09Z</time>
      </trkpt>
      <trkpt lat="45.37211" lon="0.26073">
        <ele>99</ele>
        <time>2025-04-11T11:12:13Z</time>
      </trkpt>
      <trkpt lat="45.37261" lon="0.2607">
        <ele>99</ele>
        <time>2025-04-11T11:12:22Z</time>
      </trkpt>
      <trkpt lat="45.37273" lon="0.2607">
        <ele>99</ele>
        <time>2025-04-11T11:12:24Z</time>
      </trkpt>
      <trkpt lat="45.37291" lon="0.26075">
        <ele>99</ele>
        <time>2025-04-11T11:12:27Z</time>
      </trkpt>
      <trkpt lat="45.37302" lon="0.26096">
        <ele>101</ele>
        <time>2025-04-11T11:12:30Z</time>
      </trkpt>
      <trkpt lat="45.37301" lon="0.26119">
        <ele>104</ele>
        <time>2025-04-11T11:12:33Z</time>
      </trkpt>
      <trkpt lat="45.37293" lon="0.26146">
        <ele>107</ele>
        <time>2025-04-11T11:12:37Z</time>
      </trkpt>
      <trkpt lat="45.37289" lon="0.26169">
        <ele>110</ele>
        <time>2025-04-11T11:12:40Z</time>
      </trkpt>
      <trkpt lat="45.37299" lon="0.26273">
        <ele>117</ele>
        <time>2025-04-11T11:12:53Z</time>
      </trkpt>
      <trkpt lat="45.37306" lon="0.26286">
        <ele>117</ele>
        <time>2025-04-11T11:12:55Z</time>
      </trkpt>
      <trkpt lat="45.37313" lon="0.26293">
        <ele>118</ele>
        <time>2025-04-11T11:12:57Z</time>
      </trkpt>
      <trkpt lat="45.37371" lon="0.26317">
        <ele>120</ele>
        <time>2025-04-11T11:13:07Z</time>
      </trkpt>
      <trkpt lat="45.37501" lon="0.26398">
        <ele>127</ele>
        <time>2025-04-11T11:13:33Z</time>
      </trkpt>
      <trkpt lat="45.37554" lon="0.26454">
        <ele>127</ele>
        <time>2025-04-11T11:13:44Z</time>
      </trkpt>
      <trkpt lat="45.37616" lon="0.26496">
        <ele>129</ele>
        <time>2025-04-11T11:13:57Z</time>
      </trkpt>
      <trkpt lat="45.37651" lon="0.26526">
        <ele>127</ele>
        <time>2025-04-11T11:14:04Z</time>
      </trkpt>
      <trkpt lat="45.37678" lon="0.26553">
        <ele>126</ele>
        <time>2025-04-11T11:14:10Z</time>
      </trkpt>
      <trkpt lat="45.37728" lon="0.2662">
        <ele>126</ele>
        <time>2025-04-11T11:14:22Z</time>
      </trkpt>
      <trkpt lat="45.37757" lon="0.26688">
        <ele>127</ele>
        <time>2025-04-11T11:14:32Z</time>
      </trkpt>
      <trkpt lat="45.37764" lon="0.26702">
        <ele>127</ele>
        <time>2025-04-11T11:14:34Z</time>
      </trkpt>
      <trkpt lat="45.37779" lon="0.26712">
        <ele>126</ele>
        <time>2025-04-11T11:14:37Z</time>
      </trkpt>
      <trkpt lat="45.37872" lon="0.26764">
        <ele>121</ele>
        <time>2025-04-11T11:14:55Z</time>
      </trkpt>
      <trkpt lat="45.37882" lon="0.26764">
        <ele>119</ele>
        <time>2025-04-11T11:14:56Z</time>
      </trkpt>
      <trkpt lat="45.37888" lon="0.26783">
        <ele>119</ele>
        <time>2025-04-11T11:14:59Z</time>
      </trkpt>
      <trkpt lat="45.37889" lon="0.268">
        <ele>120</ele>
        <time>2025-04-11T11:15:01Z</time>
      </trkpt>
      <trkpt lat="45.37879" lon="0.26851">
        <ele>125</ele>
        <time>2025-04-11T11:15:08Z</time>
      </trkpt>
      <trkpt lat="45.37879" lon="0.26872">
        <ele>127</ele>
        <time>2025-04-11T11:15:10Z</time>
      </trkpt>
      <trkpt lat="45.37882" lon="0.26894">
        <ele>127</ele>
        <time>2025-04-11T11:15:13Z</time>
      </trkpt>
      <trkpt lat="45.37889" lon="0.26913">
        <ele>128</ele>
        <time>2025-04-11T11:15:16Z</time>
      </trkpt>
      <trkpt lat="45.37898" lon="0.26928">
        <ele>128</ele>
        <time>2025-04-11T11:15:18Z</time>
      </trkpt>
      <trkpt lat="45.37916" lon="0.26945">
        <ele>127</ele>
        <time>2025-04-11T11:15:22Z</time>
      </trkpt>
      <trkpt lat="45.37934" lon="0.26961">
        <ele>128</ele>
        <time>2025-04-11T11:15:26Z</time>
      </trkpt>
      <trkpt lat="45.37958" lon="0.26979">
        <ele>129</ele>
        <time>2025-04-11T11:15:31Z</time>
      </trkpt>
      <trkpt lat="45.37971" lon="0.26994">
        <ele>130</ele>
        <time>2025-04-11T11:15:34Z</time>
      </trkpt>
      <trkpt lat="45.3799" lon="0.27021">
        <ele>130</ele>
        <time>2025-04-11T11:15:39Z</time>
      </trkpt>
      <trkpt lat="45.38" lon="0.27023">
        <ele>129</ele>
        <time>2025-04-11T11:15:40Z</time>
      </trkpt>
      <trkpt lat="45.38014" lon="0.2703">
        <ele>130</ele>
        <time>2025-04-11T11:15:43Z</time>
      </trkpt>
      <trkpt lat="45.38255" lon="0.27159">
        <ele>149</ele>
        <time>2025-04-11T11:16:29Z</time>
      </trkpt>
      <trkpt lat="45.38303" lon="0.27198">
        <ele>147</ele>
        <time>2025-04-11T11:16:39Z</time>
      </trkpt>
      <trkpt lat="45.38457" lon="0.27202">
        <ele>136</ele>
        <time>2025-04-11T11:17:06Z</time>
      </trkpt>
      <trkpt lat="45.38493" lon="0.2723">
        <ele>136</ele>
        <time>2025-04-11T11:17:13Z</time>
      </trkpt>
      <trkpt lat="45.38561" lon="0.27294">
        <ele>132</ele>
        <time>2025-04-11T11:17:28Z</time>
      </trkpt>
      <trkpt lat="45.38602" lon="0.27338">
        <ele>132</ele>
        <time>2025-04-11T11:17:37Z</time>
      </trkpt>
      <trkpt lat="45.38613" lon="0.27386">
        <ele>130</ele>
        <time>2025-04-11T11:17:43Z</time>
      </trkpt>
      <trkpt lat="45.38619" lon="0.27481">
        <ele>126</ele>
        <time>2025-04-11T11:17:55Z</time>
      </trkpt>
      <trkpt lat="45.38642" lon="0.27532">
        <ele>124</ele>
        <time>2025-04-11T11:18:03Z</time>
      </trkpt>
      <trkpt lat="45.38718" lon="0.27612">
        <ele>123</ele>
        <time>2025-04-11T11:18:20Z</time>
      </trkpt>
      <trkpt lat="45.38806" lon="0.27683">
        <ele>125</ele>
        <time>2025-04-11T11:18:38Z</time>
      </trkpt>
      <trkpt lat="45.38888" lon="0.27766">
        <ele>124</ele>
        <time>2025-04-11T11:18:56Z</time>
      </trkpt>
      <trkpt lat="45.38953" lon="0.27865">
        <ele>129</ele>
        <time>2025-04-11T11:19:12Z</time>
      </trkpt>
      <trkpt lat="45.38973" lon="0.27901">
        <ele>133</ele>
        <time>2025-04-11T11:19:18Z</time>
      </trkpt>
      <trkpt lat="45.38995" lon="0.27947">
        <ele>138</ele>
        <time>2025-04-11T11:19:25Z</time>
      </trkpt>
      <trkpt lat="45.39006" lon="0.27984">
        <ele>140</ele>
        <time>2025-04-11T11:19:30Z</time>
      </trkpt>
      <trkpt lat="45.39011" lon="0.2801">
        <ele>142</ele>
        <time>2025-04-11T11:19:34Z</time>
      </trkpt>
      <trkpt lat="45.39014" lon="0.28033">
        <ele>143</ele>
        <time>2025-04-11T11:19:36Z</time>
      </trkpt>
      <trkpt lat="45.39015" lon="0.28054">
        <ele>144</ele>
        <time>2025-04-11T11:19:39Z</time>
      </trkpt>
      <trkpt lat="45.39012" lon="0.28079">
        <ele>145</ele>
        <time>2025-04-11T11:19:42Z</time>
      </trkpt>
      <trkpt lat="45.39002" lon="0.28121">
        <ele>147</ele>
        <time>2025-04-11T11:19:48Z</time>
      </trkpt>
      <trkpt lat="45.38992" lon="0.28148">
        <ele>147</ele>
        <time>2025-04-11T11:19:52Z</time>
      </trkpt>
      <trkpt lat="45.38977" lon="0.2818">
        <ele>147</ele>
        <time>2025-04-11T11:19:56Z</time>
      </trkpt>
      <trkpt lat="45.38964" lon="0.28218">
        <ele>147</ele>
        <time>2025-04-11T11:20:02Z</time>
      </trkpt>
      <trkpt lat="45.38961" lon="0.28253">
        <ele>149</ele>
        <time>2025-04-11T11:20:06Z</time>
      </trkpt>
      <trkpt lat="45.3896" lon="0.28306">
        <ele>148</ele>
        <time>2025-04-11T11:20:13Z</time>
      </trkpt>
      <trkpt lat="45.38963" lon="0.28354">
        <ele>147</ele>
        <time>2025-04-11T11:20:19Z</time>
      </trkpt>
      <trkpt lat="45.38965" lon="0.28372">
        <ele>146</ele>
        <time>2025-04-11T11:20:21Z</time>
      </trkpt>
      <trkpt lat="45.38969" lon="0.28388">
        <ele>146</ele>
        <time>2025-04-11T11:20:23Z</time>
      </trkpt>
      <trkpt lat="45.38975" lon="0.28407">
        <ele>145</ele>
        <time>2025-04-11T11:20:26Z</time>
      </trkpt>
      <trkpt lat="45.38984" lon="0.28424">
        <ele>145</ele>
        <time>2025-04-11T11:20:28Z</time>
      </trkpt>
      <trkpt lat="45.39065" lon="0.28538">
        <ele>139</ele>
        <time>2025-04-11T11:20:49Z</time>
      </trkpt>
      <trkpt lat="45.39094" lon="0.28552">
        <ele>137</ele>
        <time>2025-04-11T11:20:54Z</time>
      </trkpt>
      <trkpt lat="45.39175" lon="0.28656">
        <ele>135</ele>
        <time>2025-04-11T11:21:14Z</time>
      </trkpt>
      <trkpt lat="45.39208" lon="0.28694">
        <ele>134</ele>
        <time>2025-04-11T11:21:21Z</time>
      </trkpt>
      <trkpt lat="45.39228" lon="0.28713">
        <ele>134</ele>
        <time>2025-04-11T11:21:25Z</time>
      </trkpt>
      <trkpt lat="45.39246" lon="0.28723">
        <ele>133</ele>
        <time>2025-04-11T11:21:29Z</time>
      </trkpt>
      <trkpt lat="45.39262" lon="0.28723">
        <ele>132</ele>
        <time>2025-04-11T11:21:32Z</time>
      </trkpt>
      <trkpt lat="45.39505" lon="0.28595">
        <ele>112</ele>
        <time>2025-04-11T11:22:18Z</time>
      </trkpt>
      <trkpt lat="45.39571" lon="0.28543">
        <ele>108</ele>
        <time>2025-04-11T11:22:31Z</time>
      </trkpt>
      <trkpt lat="45.39668" lon="0.28487">
        <ele>104</ele>
        <time>2025-04-11T11:22:50Z</time>
      </trkpt>
      <trkpt lat="45.39877" lon="0.28503">
        <ele>97</ele>
        <time>2025-04-11T11:23:27Z</time>
      </trkpt>
      <trkpt lat="45.39908" lon="0.28495">
        <ele>95</ele>
        <time>2025-04-11T11:23:33Z</time>
      </trkpt>
      <trkpt lat="45.39981" lon="0.28337">
        <ele>92</ele>
        <time>2025-04-11T11:23:56Z</time>
      </trkpt>
      <trkpt lat="45.40007" lon="0.28312">
        <ele>92</ele>
        <time>2025-04-11T11:24:02Z</time>
      </trkpt>
      <trkpt lat="45.4034" lon="0.28113">
        <ele>84</ele>
        <time>2025-04-11T11:25:06Z</time>
      </trkpt>
      <trkpt lat="45.40416" lon="0.28082">
        <ele>81</ele>
        <time>2025-04-11T11:25:20Z</time>
      </trkpt>
      <trkpt lat="45.40487" lon="0.28072">
        <ele>81</ele>
        <time>2025-04-11T11:25:33Z</time>
      </trkpt>
      <trkpt lat="45.40653" lon="0.28095">
        <ele>83</ele>
        <time>2025-04-11T11:26:03Z</time>
      </trkpt>
      <trkpt lat="45.40734" lon="0.28121">
        <ele>83</ele>
        <time>2025-04-11T11:26:17Z</time>
      </trkpt>
      <trkpt lat="45.40951" lon="0.28188">
        <ele>80</ele>
        <time>2025-04-11T11:26:57Z</time>
      </trkpt>
      <trkpt lat="45.40979" lon="0.28175">
        <ele>81</ele>
        <time>2025-04-11T11:27:02Z</time>
      </trkpt>
      <trkpt lat="45.41091" lon="0.28069">
        <ele>84</ele>
        <time>2025-04-11T11:27:26Z</time>
      </trkpt>
      <trkpt lat="45.41142" lon="0.28028">
        <ele>85</ele>
        <time>2025-04-11T11:27:36Z</time>
      </trkpt>
      <trkpt lat="45.41298" lon="0.27983">
        <ele>78</ele>
        <time>2025-04-11T11:28:05Z</time>
      </trkpt>
      <trkpt lat="45.41419" lon="0.27961">
        <ele>77</ele>
        <time>2025-04-11T11:28:26Z</time>
      </trkpt>
      <trkpt lat="45.41789" lon="0.28039">
        <ele>77</ele>
        <time>2025-04-11T11:29:33Z</time>
      </trkpt>
      <trkpt lat="45.42052" lon="0.28016">
        <ele>80</ele>
        <time>2025-04-11T11:30:20Z</time>
      </trkpt>
      <trkpt lat="45.42215" lon="0.2795">
        <ele>77</ele>
        <time>2025-04-11T11:30:50Z</time>
      </trkpt>
      <trkpt lat="45.42318" lon="0.27891">
        <ele>78</ele>
        <time>2025-04-11T11:31:10Z</time>
      </trkpt>
      <trkpt lat="45.42375" lon="0.27829">
        <ele>78</ele>
        <time>2025-04-11T11:31:23Z</time>
      </trkpt>
      <trkpt lat="45.42433" lon="0.27724">
        <ele>78</ele>
        <time>2025-04-11T11:31:39Z</time>
      </trkpt>
      <trkpt lat="45.42453" lon="0.27705">
        <ele>78</ele>
        <time>2025-04-11T11:31:43Z</time>
      </trkpt>
      <trkpt lat="45.42421" lon="0.28008">
        <ele>83</ele>
        <time>2025-04-11T11:32:22Z</time>
      </trkpt>
      <trkpt lat="45.42388" lon="0.28334">
        <ele>87</ele>
        <time>2025-04-11T11:33:03Z</time>
      </trkpt>
      <trkpt lat="45.42384" lon="0.28363">
        <ele>86</ele>
        <time>2025-04-11T11:33:07Z</time>
      </trkpt>
      <trkpt lat="45.42377" lon="0.28376">
        <ele>86</ele>
        <time>2025-04-11T11:33:09Z</time>
      </trkpt>
      <trkpt lat="45.423" lon="0.2847">
        <ele>87</ele>
        <time>2025-04-11T11:33:27Z</time>
      </trkpt>
      <trkpt lat="45.42277" lon="0.28503">
        <ele>88</ele>
        <time>2025-04-11T11:33:32Z</time>
      </trkpt>
      <trkpt lat="45.42268" lon="0.28519">
        <ele>88</ele>
        <time>2025-04-11T11:33:35Z</time>
      </trkpt>
      <trkpt lat="45.42091" lon="0.29015">
        <ele>103</ele>
        <time>2025-04-11T11:34:45Z</time>
      </trkpt>
      <trkpt lat="45.41848" lon="0.29502">
        <ele>117</ele>
        <time>2025-04-11T11:35:59Z</time>
      </trkpt>
      <trkpt lat="45.41797" lon="0.29607">
        <ele>119</ele>
        <time>2025-04-11T11:36:15Z</time>
      </trkpt>
      <trkpt lat="45.41712" lon="0.29802">
        <ele>117</ele>
        <time>2025-04-11T11:36:44Z</time>
      </trkpt>
      <trkpt lat="45.41706" lon="0.29812">
        <ele>116</ele>
        <time>2025-04-11T11:36:45Z</time>
      </trkpt>
      <trkpt lat="45.4169" lon="0.29831">
        <ele>115</ele>
        <time>2025-04-11T11:36:49Z</time>
      </trkpt>
      <trkpt lat="45.41675" lon="0.29843">
        <ele>114</ele>
        <time>2025-04-11T11:36:52Z</time>
      </trkpt>
      <trkpt lat="45.41655" lon="0.29855">
        <ele>113</ele>
        <time>2025-04-11T11:36:56Z</time>
      </trkpt>
      <trkpt lat="45.41632" lon="0.29865">
        <ele>111</ele>
        <time>2025-04-11T11:37:00Z</time>
      </trkpt>
      <trkpt lat="45.41612" lon="0.29871">
        <ele>111</ele>
        <time>2025-04-11T11:37:04Z</time>
      </trkpt>
      <trkpt lat="45.41553" lon="0.29879">
        <ele>109</ele>
        <time>2025-04-11T11:37:15Z</time>
      </trkpt>
      <trkpt lat="45.41543" lon="0.29883">
        <ele>108</ele>
        <time>2025-04-11T11:37:16Z</time>
      </trkpt>
      <trkpt lat="45.41532" lon="0.29892">
        <ele>107</ele>
        <time>2025-04-11T11:37:19Z</time>
      </trkpt>
      <trkpt lat="45.41522" lon="0.29905">
        <ele>107</ele>
        <time>2025-04-11T11:37:21Z</time>
      </trkpt>
      <trkpt lat="45.41513" lon="0.29923">
        <ele>106</ele>
        <time>2025-04-11T11:37:24Z</time>
      </trkpt>
      <trkpt lat="45.41501" lon="0.29952">
        <ele>107</ele>
        <time>2025-04-11T11:37:28Z</time>
      </trkpt>
      <trkpt lat="45.4149" lon="0.2999">
        <ele>109</ele>
        <time>2025-04-11T11:37:33Z</time>
      </trkpt>
      <trkpt lat="45.41482" lon="0.30038">
        <ele>111</ele>
        <time>2025-04-11T11:37:39Z</time>
      </trkpt>
      <trkpt lat="45.4148" lon="0.30077">
        <ele>114</ele>
        <time>2025-04-11T11:37:44Z</time>
      </trkpt>
      <trkpt lat="45.41481" lon="0.30116">
        <ele>117</ele>
        <time>2025-04-11T11:37:49Z</time>
      </trkpt>
      <trkpt lat="45.41483" lon="0.30138">
        <ele>118</ele>
        <time>2025-04-11T11:37:52Z</time>
      </trkpt>
      <trkpt lat="45.4149" lon="0.30167">
        <ele>120</ele>
        <time>2025-04-11T11:37:56Z</time>
      </trkpt>
      <trkpt lat="45.41499" lon="0.30187">
        <ele>122</ele>
        <time>2025-04-11T11:37:59Z</time>
      </trkpt>
      <trkpt lat="45.41506" lon="0.30196">
        <ele>122</ele>
        <time>2025-04-11T11:38:00Z</time>
      </trkpt>
      <trkpt lat="45.4155" lon="0.30243">
        <ele>124</ele>
        <time>2025-04-11T11:38:10Z</time>
      </trkpt>
      <trkpt lat="45.41559" lon="0.30259">
        <ele>124</ele>
        <time>2025-04-11T11:38:13Z</time>
      </trkpt>
      <trkpt lat="45.41563" lon="0.30279">
        <ele>125</ele>
        <time>2025-04-11T11:38:15Z</time>
      </trkpt>
      <trkpt lat="45.41562" lon="0.303">
        <ele>126</ele>
        <time>2025-04-11T11:38:18Z</time>
      </trkpt>
      <trkpt lat="45.41556" lon="0.30321">
        <ele>127</ele>
        <time>2025-04-11T11:38:21Z</time>
      </trkpt>
      <trkpt lat="45.41546" lon="0.30334">
        <ele>128</ele>
        <time>2025-04-11T11:38:23Z</time>
      </trkpt>
      <trkpt lat="45.41481" lon="0.30362">
        <ele>131</ele>
        <time>2025-04-11T11:38:35Z</time>
      </trkpt>
      <trkpt lat="45.41501" lon="0.3043">
        <ele>127</ele>
        <time>2025-04-11T11:38:44Z</time>
      </trkpt>
      <trkpt lat="45.41514" lon="0.30467">
        <ele>125</ele>
        <time>2025-04-11T11:38:50Z</time>
      </trkpt>
      <trkpt lat="45.41538" lon="0.30518">
        <ele>124</ele>
        <time>2025-04-11T11:38:57Z</time>
      </trkpt>
      <trkpt lat="45.41554" lon="0.3054">
        <ele>125</ele>
        <time>2025-04-11T11:39:01Z</time>
      </trkpt>
      <trkpt lat="45.41564" lon="0.30563">
        <ele>126</ele>
        <time>2025-04-11T11:39:05Z</time>
      </trkpt>
      <trkpt lat="45.4157" lon="0.3058">
        <ele>128</ele>
        <time>2025-04-11T11:39:07Z</time>
      </trkpt>
      <trkpt lat="45.41576" lon="0.3061">
        <ele>129</ele>
        <time>2025-04-11T11:39:11Z</time>
      </trkpt>
      <trkpt lat="45.41579" lon="0.30635">
        <ele>130</ele>
        <time>2025-04-11T11:39:14Z</time>
      </trkpt>
      <trkpt lat="45.4158" lon="0.3071">
        <ele>133</ele>
        <time>2025-04-11T11:39:23Z</time>
      </trkpt>
      <trkpt lat="45.41586" lon="0.30762">
        <ele>134</ele>
        <time>2025-04-11T11:39:30Z</time>
      </trkpt>
      <trkpt lat="45.41612" lon="0.30928">
        <ele>136</ele>
        <time>2025-04-11T11:39:51Z</time>
      </trkpt>
      <trkpt lat="45.41619" lon="0.30957">
        <ele>134</ele>
        <time>2025-04-11T11:39:55Z</time>
      </trkpt>
      <trkpt lat="45.41631" lon="0.30981">
        <ele>133</ele>
        <time>2025-04-11T11:39:59Z</time>
      </trkpt>
      <trkpt lat="45.41642" lon="0.30993">
        <ele>133</ele>
        <time>2025-04-11T11:40:01Z</time>
      </trkpt>
      <trkpt lat="45.41653" lon="0.31001">
        <ele>133</ele>
        <time>2025-04-11T11:40:03Z</time>
      </trkpt>
      <trkpt lat="45.41677" lon="0.31013">
        <ele>131</ele>
        <time>2025-04-11T11:40:08Z</time>
      </trkpt>
      <trkpt lat="45.41806" lon="0.31038">
        <ele>127</ele>
        <time>2025-04-11T11:40:31Z</time>
      </trkpt>
      <trkpt lat="45.4185" lon="0.31053">
        <ele>125</ele>
        <time>2025-04-11T11:40:39Z</time>
      </trkpt>
      <trkpt lat="45.41929" lon="0.31069">
        <ele>125</ele>
        <time>2025-04-11T11:40:53Z</time>
      </trkpt>
      <trkpt lat="45.41975" lon="0.31073">
        <ele>121</ele>
        <time>2025-04-11T11:41:02Z</time>
      </trkpt>
      <trkpt lat="45.42027" lon="0.3107">
        <ele>118</ele>
        <time>2025-04-11T11:41:11Z</time>
      </trkpt>
      <trkpt lat="45.4209" lon="0.31073">
        <ele>114</ele>
        <time>2025-04-11T11:41:22Z</time>
      </trkpt>
      <trkpt lat="45.42101" lon="0.31077">
        <ele>114</ele>
        <time>2025-04-11T11:41:24Z</time>
      </trkpt>
      <trkpt lat="45.4211" lon="0.31083">
        <ele>114</ele>
        <time>2025-04-11T11:41:26Z</time>
      </trkpt>
      <trkpt lat="45.42118" lon="0.31092">
        <ele>114</ele>
        <time>2025-04-11T11:41:28Z</time>
      </trkpt>
      <trkpt lat="45.42125" lon="0.31104">
        <ele>114</ele>
        <time>2025-04-11T11:41:30Z</time>
      </trkpt>
      <trkpt lat="45.42128" lon="0.31117">
        <ele>113</ele>
        <time>2025-04-11T11:41:31Z</time>
      </trkpt>
      <trkpt lat="45.4213" lon="0.31131">
        <ele>112</ele>
        <time>2025-04-11T11:41:33Z</time>
      </trkpt>
      <trkpt lat="45.4213" lon="0.31148">
        <ele>111</ele>
        <time>2025-04-11T11:41:35Z</time>
      </trkpt>
      <trkpt lat="45.42125" lon="0.31203">
        <ele>107</ele>
        <time>2025-04-11T11:41:42Z</time>
      </trkpt>
      <trkpt lat="45.42126" lon="0.31217">
        <ele>106</ele>
        <time>2025-04-11T11:41:44Z</time>
      </trkpt>
      <trkpt lat="45.42131" lon="0.31231">
        <ele>106</ele>
        <time>2025-04-11T11:41:46Z</time>
      </trkpt>
      <trkpt lat="45.42137" lon="0.3124">
        <ele>106</ele>
        <time>2025-04-11T11:41:47Z</time>
      </trkpt>
      <trkpt lat="45.42147" lon="0.31249">
        <ele>107</ele>
        <time>2025-04-11T11:41:49Z</time>
      </trkpt>
      <trkpt lat="45.42195" lon="0.31283">
        <ele>103</ele>
        <time>2025-04-11T11:41:59Z</time>
      </trkpt>
      <trkpt lat="45.42219" lon="0.31304">
        <ele>99</ele>
        <time>2025-04-11T11:42:04Z</time>
      </trkpt>
      <trkpt lat="45.42244" lon="0.31325">
        <ele>97</ele>
        <time>2025-04-11T11:42:09Z</time>
      </trkpt>
      <trkpt lat="45.42254" lon="0.31338">
        <ele>96</ele>
        <time>2025-04-11T11:42:12Z</time>
      </trkpt>
      <trkpt lat="45.42257" lon="0.31356">
        <ele>95</ele>
        <time>2025-04-11T11:42:14Z</time>
      </trkpt>
      <trkpt lat="45.42253" lon="0.31374">
        <ele>94</ele>
        <time>2025-04-11T11:42:16Z</time>
      </trkpt>
      <trkpt lat="45.42242" lon="0.31416">
        <ele>92</ele>
        <time>2025-04-11T11:42:22Z</time>
      </trkpt>
      <trkpt lat="45.42225" lon="0.31516">
        <ele>93</ele>
        <time>2025-04-11T11:42:35Z</time>
      </trkpt>
      <trkpt lat="45.4222" lon="0.31552">
        <ele>93</ele>
        <time>2025-04-11T11:42:39Z</time>
      </trkpt>
      <trkpt lat="45.42218" lon="0.31572">
        <ele>94</ele>
        <time>2025-04-11T11:42:42Z</time>
      </trkpt>
      <trkpt lat="45.42213" lon="0.31595">
        <ele>94</ele>
        <time>2025-04-11T11:42:45Z</time>
      </trkpt>
      <trkpt lat="45.422" lon="0.31636">
        <ele>95</ele>
        <time>2025-04-11T11:42:50Z</time>
      </trkpt>
      <trkpt lat="45.42198" lon="0.31655">
        <ele>95</ele>
        <time>2025-04-11T11:42:53Z</time>
      </trkpt>
      <trkpt lat="45.42198" lon="0.31683">
        <ele>95</ele>
        <time>2025-04-11T11:42:56Z</time>
      </trkpt>
      <trkpt lat="45.42204" lon="0.3174">
        <ele>94</ele>
        <time>2025-04-11T11:43:04Z</time>
      </trkpt>
      <trkpt lat="45.422" lon="0.31838">
        <ele>96</ele>
        <time>2025-04-11T11:43:16Z</time>
      </trkpt>
      <trkpt lat="45.42204" lon="0.31889">
        <ele>96</ele>
        <time>2025-04-11T11:43:22Z</time>
      </trkpt>
      <trkpt lat="45.42209" lon="0.31904">
        <ele>96</ele>
        <time>2025-04-11T11:43:24Z</time>
      </trkpt>
      <trkpt lat="45.42236" lon="0.3195">
        <ele>96</ele>
        <time>2025-04-11T11:43:32Z</time>
      </trkpt>
      <trkpt lat="45.42307" lon="0.32115">
        <ele>95</ele>
        <time>2025-04-11T11:43:56Z</time>
      </trkpt>
      <trkpt lat="45.42357" lon="0.32218">
        <ele>98</ele>
        <time>2025-04-11T11:44:12Z</time>
      </trkpt>
      <trkpt lat="45.42409" lon="0.32348">
        <ele>99</ele>
        <time>2025-04-11T11:44:30Z</time>
      </trkpt>
      <trkpt lat="45.42418" lon="0.32367">
        <ele>100</ele>
        <time>2025-04-11T11:44:33Z</time>
      </trkpt>
      <trkpt lat="45.42456" lon="0.32429">
        <ele>101</ele>
        <time>2025-04-11T11:44:43Z</time>
      </trkpt>
      <trkpt lat="45.42464" lon="0.32448">
        <ele>101</ele>
        <time>2025-04-11T11:44:46Z</time>
      </trkpt>
      <trkpt lat="45.4248" lon="0.32494">
        <ele>101</ele>
        <time>2025-04-11T11:44:53Z</time>
      </trkpt>
      <trkpt lat="45.42493" lon="0.32552">
        <ele>100</ele>
        <time>2025-04-11T11:45:00Z</time>
      </trkpt>
      <trkpt lat="45.42507" lon="0.32597">
        <ele>99</ele>
        <time>2025-04-11T11:45:06Z</time>
      </trkpt>
      <trkpt lat="45.42527" lon="0.32633">
        <ele>98</ele>
        <time>2025-04-11T11:45:12Z</time>
      </trkpt>
      <trkpt lat="45.42617" lon="0.32756">
        <ele>96</ele>
        <time>2025-04-11T11:45:34Z</time>
      </trkpt>
      <trkpt lat="45.42642" lon="0.32802">
        <ele>96</ele>
        <time>2025-04-11T11:45:41Z</time>
      </trkpt>
      <trkpt lat="45.42687" lon="0.32911">
        <ele>93</ele>
        <time>2025-04-11T11:45:57Z</time>
      </trkpt>
      <trkpt lat="45.42714" lon="0.32961">
        <ele>92</ele>
        <time>2025-04-11T11:46:05Z</time>
      </trkpt>
      <trkpt lat="45.42741" lon="0.33004">
        <ele>92</ele>
        <time>2025-04-11T11:46:12Z</time>
      </trkpt>
      <trkpt lat="45.42774" lon="0.33045">
        <ele>95</ele>
        <time>2025-04-11T11:46:20Z</time>
      </trkpt>
      <trkpt lat="45.42781" lon="0.3306">
        <ele>95</ele>
        <time>2025-04-11T11:46:22Z</time>
      </trkpt>
      <trkpt lat="45.42788" lon="0.33084">
        <ele>96</ele>
        <time>2025-04-11T11:46:26Z</time>
      </trkpt>
      <trkpt lat="45.42794" lon="0.33125">
        <ele>96</ele>
        <time>2025-04-11T11:46:31Z</time>
      </trkpt>
      <trkpt lat="45.42797" lon="0.33159">
        <ele>96</ele>
        <time>2025-04-11T11:46:35Z</time>
      </trkpt>
      <trkpt lat="45.42797" lon="0.33193">
        <ele>96</ele>
        <time>2025-04-11T11:46:39Z</time>
      </trkpt>
      <trkpt lat="45.42793" lon="0.3326">
        <ele>97</ele>
        <time>2025-04-11T11:46:48Z</time>
      </trkpt>
      <trkpt lat="45.42793" lon="0.33285">
        <ele>97</ele>
        <time>2025-04-11T11:46:51Z</time>
      </trkpt>
      <trkpt lat="45.42805" lon="0.33393">
        <ele>99</ele>
        <time>2025-04-11T11:47:05Z</time>
      </trkpt>
      <trkpt lat="45.42807" lon="0.33507">
        <ele>101</ele>
        <time>2025-04-11T11:47:19Z</time>
      </trkpt>
      <trkpt lat="45.42808" lon="0.3352">
        <ele>101</ele>
        <time>2025-04-11T11:47:20Z</time>
      </trkpt>
      <trkpt lat="45.42819" lon="0.33585">
        <ele>102</ele>
        <time>2025-04-11T11:47:29Z</time>
      </trkpt>
      <trkpt lat="45.42828" lon="0.33674">
        <ele>104</ele>
        <time>2025-04-11T11:47:40Z</time>
      </trkpt>
      <trkpt lat="45.42886" lon="0.33891">
        <ele>111</ele>
        <time>2025-04-11T11:48:09Z</time>
      </trkpt>
      <trkpt lat="45.4289" lon="0.33914">
        <ele>113</ele>
        <time>2025-04-11T11:48:12Z</time>
      </trkpt>
      <trkpt lat="45.4289" lon="0.33935">
        <ele>114</ele>
        <time>2025-04-11T11:48:15Z</time>
      </trkpt>
      <trkpt lat="45.42889" lon="0.33952">
        <ele>116</ele>
        <time>2025-04-11T11:48:17Z</time>
      </trkpt>
      <trkpt lat="45.42861" lon="0.34048">
        <ele>120</ele>
        <time>2025-04-11T11:48:30Z</time>
      </trkpt>
      <trkpt lat="45.42826" lon="0.34217">
        <ele>114</ele>
        <time>2025-04-11T11:48:52Z</time>
      </trkpt>
      <trkpt lat="45.42824" lon="0.34251">
        <ele>112</ele>
        <time>2025-04-11T11:48:56Z</time>
      </trkpt>
      <trkpt lat="45.42825" lon="0.34268">
        <ele>112</ele>
        <time>2025-04-11T11:48:58Z</time>
      </trkpt>
      <trkpt lat="45.42846" lon="0.34372">
        <ele>111</ele>
        <time>2025-04-11T11:49:12Z</time>
      </trkpt>
      <trkpt lat="45.42856" lon="0.34407">
        <ele>113</ele>
        <time>2025-04-11T11:49:16Z</time>
      </trkpt>
      <trkpt lat="45.42874" lon="0.34432">
        <ele>114</ele>
        <time>2025-04-11T11:49:21Z</time>
      </trkpt>
      <trkpt lat="45.42898" lon="0.34454">
        <ele>114</ele>
        <time>2025-04-11T11:49:26Z</time>
      </trkpt>
      <trkpt lat="45.42913" lon="0.34458">
        <ele>114</ele>
        <time>2025-04-11T11:49:29Z</time>
      </trkpt>
      <trkpt lat="45.42956" lon="0.34448">
        <ele>113</ele>
        <time>2025-04-11T11:49:36Z</time>
      </trkpt>
      <trkpt lat="45.42966" lon="0.3445">
        <ele>113</ele>
        <time>2025-04-11T11:49:38Z</time>
      </trkpt>
      <trkpt lat="45.42982" lon="0.34458">
        <ele>112</ele>
        <time>2025-04-11T11:49:41Z</time>
      </trkpt>
      <trkpt lat="45.42994" lon="0.34467">
        <ele>112</ele>
        <time>2025-04-11T11:49:44Z</time>
      </trkpt>
      <trkpt lat="45.43037" lon="0.34483">
        <ele>111</ele>
        <time>2025-04-11T11:49:51Z</time>
      </trkpt>
      <trkpt lat="45.43063" lon="0.34504">
        <ele>110</ele>
        <time>2025-04-11T11:49:57Z</time>
      </trkpt>
      <trkpt lat="45.43111" lon="0.34523">
        <ele>109</ele>
        <time>2025-04-11T11:50:06Z</time>
      </trkpt>
      <trkpt lat="45.43123" lon="0.34534">
        <ele>108</ele>
        <time>2025-04-11T11:50:08Z</time>
      </trkpt>
      <trkpt lat="45.43148" lon="0.34563">
        <ele>108</ele>
        <time>2025-04-11T11:50:14Z</time>
      </trkpt>
      <trkpt lat="45.43225" lon="0.34657">
        <ele>104</ele>
        <time>2025-04-11T11:50:32Z</time>
      </trkpt>
      <trkpt lat="45.43261" lon="0.34683">
        <ele>102</ele>
        <time>2025-04-11T11:50:39Z</time>
      </trkpt>
      <trkpt lat="45.43306" lon="0.34705">
        <ele>99</ele>
        <time>2025-04-11T11:50:48Z</time>
      </trkpt>
      <trkpt lat="45.43317" lon="0.34714">
        <ele>98</ele>
        <time>2025-04-11T11:50:50Z</time>
      </trkpt>
      <trkpt lat="45.43323" lon="0.34723">
        <ele>97</ele>
        <time>2025-04-11T11:50:51Z</time>
      </trkpt>
      <trkpt lat="45.43327" lon="0.34736">
        <ele>97</ele>
        <time>2025-04-11T11:50:53Z</time>
      </trkpt>
      <trkpt lat="45.43333" lon="0.34775">
        <ele>97</ele>
        <time>2025-04-11T11:50:58Z</time>
      </trkpt>
      <trkpt lat="45.43336" lon="0.34787">
        <ele>97</ele>
        <time>2025-04-11T11:51:00Z</time>
      </trkpt>
      <trkpt lat="45.43362" lon="0.34838">
        <ele>98</ele>
        <time>2025-04-11T11:51:08Z</time>
      </trkpt>
      <trkpt lat="45.43406" lon="0.34946">
        <ele>101</ele>
        <time>2025-04-11T11:51:23Z</time>
      </trkpt>
      <trkpt lat="45.43464" lon="0.35034">
        <ele>98</ele>
        <time>2025-04-11T11:51:38Z</time>
      </trkpt>
      <trkpt lat="45.43471" lon="0.35054">
        <ele>98</ele>
        <time>2025-04-11T11:51:41Z</time>
      </trkpt>
      <trkpt lat="45.4349" lon="0.35125">
        <ele>97</ele>
        <time>2025-04-11T11:51:51Z</time>
      </trkpt>
      <trkpt lat="45.43508" lon="0.35219">
        <ele>97</ele>
        <time>2025-04-11T11:52:03Z</time>
      </trkpt>
      <trkpt lat="45.43513" lon="0.35235">
        <ele>97</ele>
        <time>2025-04-11T11:52:05Z</time>
      </trkpt>
      <trkpt lat="45.43522" lon="0.35254">
        <ele>96</ele>
        <time>2025-04-11T11:52:08Z</time>
      </trkpt>
      <trkpt lat="45.43552" lon="0.35306">
        <ele>96</ele>
        <time>2025-04-11T11:52:16Z</time>
      </trkpt>
      <trkpt lat="45.43531" lon="0.35325">
        <ele>97</ele>
        <time>2025-04-11T11:52:21Z</time>
      </trkpt>
      <trkpt lat="45.4349" lon="0.35356">
        <ele>99</ele>
        <time>2025-04-11T11:52:29Z</time>
      </trkpt>
      <trkpt lat="45.43322" lon="0.35445">
        <ele>106</ele>
        <time>2025-04-11T11:53:01Z</time>
      </trkpt>
      <trkpt lat="45.43304" lon="0.3545">
        <ele>107</ele>
        <time>2025-04-11T11:53:04Z</time>
      </trkpt>
      <trkpt lat="45.43283" lon="0.35452">
        <ele>108</ele>
        <time>2025-04-11T11:53:08Z</time>
      </trkpt>
      <trkpt lat="45.43169" lon="0.35438">
        <ele>111</ele>
        <time>2025-04-11T11:53:28Z</time>
      </trkpt>
      <trkpt lat="45.43146" lon="0.35438">
        <ele>112</ele>
        <time>2025-04-11T11:53:32Z</time>
      </trkpt>
      <trkpt lat="45.43091" lon="0.35445">
        <ele>113</ele>
        <time>2025-04-11T11:53:42Z</time>
      </trkpt>
      <trkpt lat="45.43016" lon="0.35459">
        <ele>116</ele>
        <time>2025-04-11T11:53:56Z</time>
      </trkpt>
      <trkpt lat="45.42983" lon="0.35473">
        <ele>117</ele>
        <time>2025-04-11T11:54:02Z</time>
      </trkpt>
      <trkpt lat="45.42868" lon="0.3553">
        <ele>118</ele>
        <time>2025-04-11T11:54:23Z</time>
      </trkpt>
      <trkpt lat="45.42848" lon="0.35543">
        <ele>118</ele>
        <time>2025-04-11T11:54:27Z</time>
      </trkpt>
      <trkpt lat="45.42833" lon="0.35557">
        <ele>119</ele>
        <time>2025-04-11T11:54:30Z</time>
      </trkpt>
      <trkpt lat="45.42809" lon="0.35589">
        <ele>119</ele>
        <time>2025-04-11T11:54:36Z</time>
      </trkpt>
      <trkpt lat="45.42798" lon="0.3561">
        <ele>119</ele>
        <time>2025-04-11T11:54:40Z</time>
      </trkpt>
      <trkpt lat="45.42686" lon="0.35864">
        <ele>126</ele>
        <time>2025-04-11T11:55:17Z</time>
      </trkpt>
      <trkpt lat="45.42597" lon="0.36027">
        <ele>130</ele>
        <time>2025-04-11T11:55:43Z</time>
      </trkpt>
      <trkpt lat="45.42585" lon="0.36057">
        <ele>131</ele>
        <time>2025-04-11T11:55:47Z</time>
      </trkpt>
      <trkpt lat="45.42572" lon="0.361">
        <ele>131</ele>
        <time>2025-04-11T11:55:53Z</time>
      </trkpt>
      <trkpt lat="45.42547" lon="0.36193">
        <ele>131</ele>
        <time>2025-04-11T11:56:05Z</time>
      </trkpt>
      <trkpt lat="45.42529" lon="0.36253">
        <ele>130</ele>
        <time>2025-04-11T11:56:14Z</time>
      </trkpt>
      <trkpt lat="45.42511" lon="0.36295">
        <ele>128</ele>
        <time>2025-04-11T11:56:20Z</time>
      </trkpt>
      <trkpt lat="45.42495" lon="0.36322">
        <ele>127</ele>
        <time>2025-04-11T11:56:24Z</time>
      </trkpt>
      <trkpt lat="45.42318" lon="0.36554">
        <ele>118</ele>
        <time>2025-04-11T11:57:07Z</time>
      </trkpt>
      <trkpt lat="45.4227" lon="0.3662">
        <ele>115</ele>
        <time>2025-04-11T11:57:19Z</time>
      </trkpt>
      <trkpt lat="45.42259" lon="0.36641">
        <ele>115</ele>
        <time>2025-04-11T11:57:22Z</time>
      </trkpt>
      <trkpt lat="45.42241" lon="0.36689">
        <ele>114</ele>
        <time>2025-04-11T11:57:29Z</time>
      </trkpt>
      <trkpt lat="45.42191" lon="0.36907">
        <ele>107</ele>
        <time>2025-04-11T11:57:57Z</time>
      </trkpt>
      <trkpt lat="45.4218" lon="0.36943">
        <ele>107</ele>
        <time>2025-04-11T11:58:02Z</time>
      </trkpt>
      <trkpt lat="45.42171" lon="0.36961">
        <ele>107</ele>
        <time>2025-04-11T11:58:05Z</time>
      </trkpt>
      <trkpt lat="45.4216" lon="0.36976">
        <ele>107</ele>
        <time>2025-04-11T11:58:08Z</time>
      </trkpt>
      <trkpt lat="45.42146" lon="0.36987">
        <ele>108</ele>
        <time>2025-04-11T11:58:11Z</time>
      </trkpt>
      <trkpt lat="45.42115" lon="0.36999">
        <ele>109</ele>
        <time>2025-04-11T11:58:16Z</time>
      </trkpt>
      <trkpt lat="45.42106" lon="0.37006">
        <ele>110</ele>
        <time>2025-04-11T11:58:18Z</time>
      </trkpt>
      <trkpt lat="45.42095" lon="0.37016">
        <ele>111</ele>
        <time>2025-04-11T11:58:21Z</time>
      </trkpt>
      <trkpt lat="45.42086" lon="0.37028">
        <ele>112</ele>
        <time>2025-04-11T11:58:23Z</time>
      </trkpt>
      <trkpt lat="45.42067" lon="0.37066">
        <ele>113</ele>
        <time>2025-04-11T11:58:29Z</time>
      </trkpt>
      <trkpt lat="45.41984" lon="0.37251">
        <ele>117</ele>
        <time>2025-04-11T11:58:56Z</time>
      </trkpt>
      <trkpt lat="45.4197" lon="0.37293">
        <ele>118</ele>
        <time>2025-04-11T11:59:02Z</time>
      </trkpt>
      <trkpt lat="45.4191" lon="0.37513">
        <ele>126</ele>
        <time>2025-04-11T11:59:31Z</time>
      </trkpt>
      <trkpt lat="45.41902" lon="0.37536">
        <ele>127</ele>
        <time>2025-04-11T11:59:34Z</time>
      </trkpt>
      <trkpt lat="45.41884" lon="0.37571">
        <ele>128</ele>
        <time>2025-04-11T11:59:40Z</time>
      </trkpt>
      <trkpt lat="45.41725" lon="0.37811">
        <ele>120</ele>
        <time>2025-04-11T12:00:21Z</time>
      </trkpt>
      <trkpt lat="45.41708" lon="0.37846">
        <ele>119</ele>
        <time>2025-04-11T12:00:26Z</time>
      </trkpt>
      <trkpt lat="45.41694" lon="0.37885">
        <ele>117</ele>
        <time>2025-04-11T12:00:32Z</time>
      </trkpt>
      <trkpt lat="45.41655" lon="0.38007">
        <ele>114</ele>
        <time>2025-04-11T12:00:49Z</time>
      </trkpt>
      <trkpt lat="45.41649" lon="0.38033">
        <ele>113</ele>
        <time>2025-04-11T12:00:52Z</time>
      </trkpt>
      <trkpt lat="45.41646" lon="0.3806">
        <ele>112</ele>
        <time>2025-04-11T12:00:55Z</time>
      </trkpt>
      <trkpt lat="45.41631" lon="0.38224">
        <ele>110</ele>
        <time>2025-04-11T12:01:16Z</time>
      </trkpt>
      <trkpt lat="45.41629" lon="0.38238">
        <ele>110</ele>
        <time>2025-04-11T12:01:18Z</time>
      </trkpt>
      <trkpt lat="45.41624" lon="0.38248">
        <ele>110</ele>
        <time>2025-04-11T12:01:19Z</time>
      </trkpt>
      <trkpt lat="45.41613" lon="0.38256">
        <ele>110</ele>
        <time>2025-04-11T12:01:22Z</time>
      </trkpt>
      <trkpt lat="45.4157" lon="0.38278">
        <ele>111</ele>
        <time>2025-04-11T12:01:30Z</time>
      </trkpt>
      <trkpt lat="45.41509" lon="0.38321">
        <ele>114</ele>
        <time>2025-04-11T12:01:42Z</time>
      </trkpt>
      <trkpt lat="45.41397" lon="0.38378">
        <ele>124</ele>
        <time>2025-04-11T12:02:03Z</time>
      </trkpt>
      <trkpt lat="45.41381" lon="0.38393">
        <ele>126</ele>
        <time>2025-04-11T12:02:06Z</time>
      </trkpt>
      <trkpt lat="45.41377" lon="0.38404">
        <ele>127</ele>
        <time>2025-04-11T12:02:08Z</time>
      </trkpt>
      <trkpt lat="45.41374" lon="0.38421">
        <ele>127</ele>
        <time>2025-04-11T12:02:10Z</time>
      </trkpt>
      <trkpt lat="45.41365" lon="0.38425">
        <ele>127</ele>
        <time>2025-04-11T12:02:12Z</time>
      </trkpt>
      <trkpt lat="45.41339" lon="0.38407">
        <ele>129</ele>
        <time>2025-04-11T12:02:17Z</time>
      </trkpt>
      <trkpt lat="45.41312" lon="0.38385">
        <ele>128</ele>
        <time>2025-04-11T12:02:23Z</time>
      </trkpt>
      <trkpt lat="45.41283" lon="0.38357">
        <ele>127</ele>
        <time>2025-04-11T12:02:29Z</time>
      </trkpt>
      <trkpt lat="45.4124" lon="0.38295">
        <ele>125</ele>
        <time>2025-04-11T12:02:40Z</time>
      </trkpt>
      <trkpt lat="45.41144" lon="0.38148">
        <ele>120</ele>
        <time>2025-04-11T12:03:05Z</time>
      </trkpt>
      <trkpt lat="45.41036" lon="0.37985">
        <ele>115</ele>
        <time>2025-04-11T12:03:33Z</time>
      </trkpt>
      <trkpt lat="45.4087" lon="0.37738">
        <ele>112</ele>
        <time>2025-04-11T12:04:15Z</time>
      </trkpt>
      <trkpt lat="45.40777" lon="0.37593">
        <ele>105</ele>
        <time>2025-04-11T12:04:40Z</time>
      </trkpt>
      <trkpt lat="45.40758" lon="0.37555">
        <ele>105</ele>
        <time>2025-04-11T12:04:46Z</time>
      </trkpt>
      <trkpt lat="45.40744" lon="0.37518">
        <ele>104</ele>
        <time>2025-04-11T12:04:51Z</time>
      </trkpt>
      <trkpt lat="45.40733" lon="0.37482">
        <ele>103</ele>
        <time>2025-04-11T12:04:56Z</time>
      </trkpt>
      <trkpt lat="45.40711" lon="0.37385">
        <ele>103</ele>
        <time>2025-04-11T12:05:09Z</time>
      </trkpt>
      <trkpt lat="45.40678" lon="0.37146">
        <ele>103</ele>
        <time>2025-04-11T12:05:39Z</time>
      </trkpt>
      <trkpt lat="45.40661" lon="0.37036">
        <ele>102</ele>
        <time>2025-04-11T12:05:53Z</time>
      </trkpt>
      <trkpt lat="45.40655" lon="0.36985">
        <ele>102</ele>
        <time>2025-04-11T12:06:00Z</time>
      </trkpt>
      <trkpt lat="45.40648" lon="0.36843">
        <ele>100</ele>
        <time>2025-04-11T12:06:17Z</time>
      </trkpt>
      <trkpt lat="45.4064" lon="0.36606">
        <ele>100</ele>
        <time>2025-04-11T12:06:47Z</time>
      </trkpt>
      <trkpt lat="45.40636" lon="0.36547">
        <ele>99</ele>
        <time>2025-04-11T12:06:54Z</time>
      </trkpt>
      <trkpt lat="45.40608" lon="0.36372">
        <ele>100</ele>
        <time>2025-04-11T12:07:17Z</time>
      </trkpt>
      <trkpt lat="45.40532" lon="0.35925">
        <ele>97</ele>
        <time>2025-04-11T12:08:14Z</time>
      </trkpt>
      <trkpt lat="45.40432" lon="0.35315">
        <ele>93</ele>
        <time>2025-04-11T12:09:33Z</time>
      </trkpt>
      <trkpt lat="45.40422" lon="0.35278">
        <ele>93</ele>
        <time>2025-04-11T12:09:38Z</time>
      </trkpt>
      <trkpt lat="45.40402" lon="0.35223">
        <ele>93</ele>
        <time>2025-04-11T12:09:45Z</time>
      </trkpt>
      <trkpt lat="45.40312" lon="0.35018">
        <ele>94</ele>
        <time>2025-04-11T12:10:16Z</time>
      </trkpt>
      <trkpt lat="45.4031" lon="0.35015">
        <ele>94</ele>
        <time>2025-04-11T12:10:16Z</time>
      </trkpt>
      <trkpt lat="45.40221" lon="0.34813">
        <ele>94</ele>
        <time>2025-04-11T12:10:46Z</time>
      </trkpt>
      <trkpt lat="45.40189" lon="0.34717">
        <ele>95</ele>
        <time>2025-04-11T12:10:59Z</time>
      </trkpt>
      <trkpt lat="45.40166" lon="0.34747">
        <ele>95</ele>
        <time>2025-04-11T12:11:05Z</time>
      </trkpt>
      <trkpt lat="45.40055" lon="0.34911">
        <ele>94</ele>
        <time>2025-04-11T12:11:33Z</time>
      </trkpt>
      <trkpt lat="45.40026" lon="0.34948">
        <ele>94</ele>
        <time>2025-04-11T12:11:40Z</time>
      </trkpt>
      <trkpt lat="45.39997" lon="0.34962">
        <ele>94</ele>
        <time>2025-04-11T12:11:45Z</time>
      </trkpt>
      <trkpt lat="45.39989" lon="0.34967">
        <ele>94</ele>
        <time>2025-04-11T12:11:47Z</time>
      </trkpt>
      <trkpt lat="45.39878" lon="0.35036">
        <ele>97</ele>
        <time>2025-04-11T12:12:09Z</time>
      </trkpt>
      <trkpt lat="45.39788" lon="0.35073">
        <ele>98</ele>
        <time>2025-04-11T12:12:25Z</time>
      </trkpt>
      <trkpt lat="45.39664" lon="0.35133">
        <ele>102</ele>
        <time>2025-04-11T12:12:49Z</time>
      </trkpt>
      <trkpt lat="45.39633" lon="0.35145">
        <ele>103</ele>
        <time>2025-04-11T12:12:54Z</time>
      </trkpt>
      <trkpt lat="45.39591" lon="0.35156">
        <ele>105</ele>
        <time>2025-04-11T12:13:02Z</time>
      </trkpt>
      <trkpt lat="45.39547" lon="0.35164">
        <ele>108</ele>
        <time>2025-04-11T12:13:10Z</time>
      </trkpt>
      <trkpt lat="45.39492" lon="0.35167">
        <ele>112</ele>
        <time>2025-04-11T12:13:20Z</time>
      </trkpt>
      <trkpt lat="45.3947" lon="0.35173">
        <ele>114</ele>
        <time>2025-04-11T12:13:24Z</time>
      </trkpt>
      <trkpt lat="45.39451" lon="0.35186">
        <ele>115</ele>
        <time>2025-04-11T12:13:27Z</time>
      </trkpt>
      <trkpt lat="45.394" lon="0.35238">
        <ele>119</ele>
        <time>2025-04-11T12:13:38Z</time>
      </trkpt>
      <trkpt lat="45.39379" lon="0.35299">
        <ele>120</ele>
        <time>2025-04-11T12:13:47Z</time>
      </trkpt>
      <trkpt lat="45.39379" lon="0.35313">
        <ele>119</ele>
        <time>2025-04-11T12:13:49Z</time>
      </trkpt>
      <trkpt lat="45.39384" lon="0.3535">
        <ele>117</ele>
        <time>2025-04-11T12:13:53Z</time>
      </trkpt>
      <trkpt lat="45.39403" lon="0.35462">
        <ele>110</ele>
        <time>2025-04-11T12:14:08Z</time>
      </trkpt>
      <trkpt lat="45.39406" lon="0.35495">
        <ele>109</ele>
        <time>2025-04-11T12:14:12Z</time>
      </trkpt>
      <trkpt lat="45.39407" lon="0.35533">
        <ele>107</ele>
        <time>2025-04-11T12:14:17Z</time>
      </trkpt>
      <trkpt lat="45.39405" lon="0.35576">
        <ele>106</ele>
        <time>2025-04-11T12:14:22Z</time>
      </trkpt>
      <trkpt lat="45.39396" lon="0.35619">
        <ele>105</ele>
        <time>2025-04-11T12:14:28Z</time>
      </trkpt>
      <trkpt lat="45.39385" lon="0.35663">
        <ele>104</ele>
        <time>2025-04-11T12:14:34Z</time>
      </trkpt>
      <trkpt lat="45.39378" lon="0.35703">
        <ele>103</ele>
        <time>2025-04-11T12:14:39Z</time>
      </trkpt>
      <trkpt lat="45.39371" lon="0.35782">
        <ele>102</ele>
        <time>2025-04-11T12:14:49Z</time>
      </trkpt>
      <trkpt lat="45.3937" lon="0.35822">
        <ele>102</ele>
        <time>2025-04-11T12:14:54Z</time>
      </trkpt>
      <trkpt lat="45.39375" lon="0.35879">
        <ele>103</ele>
        <time>2025-04-11T12:15:01Z</time>
      </trkpt>
      <trkpt lat="45.39395" lon="0.35961">
        <ele>102</ele>
        <time>2025-04-11T12:15:12Z</time>
      </trkpt>
      <trkpt lat="45.39419" lon="0.36045">
        <ele>103</ele>
        <time>2025-04-11T12:15:23Z</time>
      </trkpt>
      <trkpt lat="45.39562" lon="0.36472">
        <ele>111</ele>
        <time>2025-04-11T12:16:22Z</time>
      </trkpt>
      <trkpt lat="45.39572" lon="0.36495">
        <ele>113</ele>
        <time>2025-04-11T12:16:25Z</time>
      </trkpt>
      <trkpt lat="45.39588" lon="0.36522">
        <ele>115</ele>
        <time>2025-04-11T12:16:30Z</time>
      </trkpt>
      <trkpt lat="45.39611" lon="0.36545">
        <ele>117</ele>
        <time>2025-04-11T12:16:35Z</time>
      </trkpt>
      <trkpt lat="45.39641" lon="0.36568">
        <ele>121</ele>
        <time>2025-04-11T12:16:41Z</time>
      </trkpt>
      <trkpt lat="45.39654" lon="0.36581">
        <ele>122</ele>
        <time>2025-04-11T12:16:44Z</time>
      </trkpt>
      <trkpt lat="45.39661" lon="0.36594">
        <ele>123</ele>
        <time>2025-04-11T12:16:46Z</time>
      </trkpt>
      <trkpt lat="45.39666" lon="0.36613">
        <ele>123</ele>
        <time>2025-04-11T12:16:48Z</time>
      </trkpt>
      <trkpt lat="45.39667" lon="0.36632">
        <ele>123</ele>
        <time>2025-04-11T12:16:51Z</time>
      </trkpt>
      <trkpt lat="45.39639" lon="0.36856">
        <ele>129</ele>
        <time>2025-04-11T12:17:19Z</time>
      </trkpt>
      <trkpt lat="45.39627" lon="0.37018">
        <ele>125</ele>
        <time>2025-04-11T12:17:40Z</time>
      </trkpt>
      <trkpt lat="45.39619" lon="0.37061">
        <ele>125</ele>
        <time>2025-04-11T12:17:45Z</time>
      </trkpt>
      <trkpt lat="45.39567" lon="0.37238">
        <ele>122</ele>
        <time>2025-04-11T12:18:09Z</time>
      </trkpt>
      <trkpt lat="45.39545" lon="0.37322">
        <ele>121</ele>
        <time>2025-04-11T12:18:20Z</time>
      </trkpt>
      <trkpt lat="45.39515" lon="0.37416">
        <ele>121</ele>
        <time>2025-04-11T12:18:33Z</time>
      </trkpt>
      <trkpt lat="45.39481" lon="0.3741">
        <ele>121</ele>
        <time>2025-04-11T12:18:39Z</time>
      </trkpt>
      <trkpt lat="45.39472" lon="0.3741">
        <ele>121</ele>
        <time>2025-04-11T12:18:41Z</time>
      </trkpt>
      <trkpt lat="45.39446" lon="0.37402">
        <ele>120</ele>
        <time>2025-04-11T12:18:46Z</time>
      </trkpt>
      <trkpt lat="45.39424" lon="0.37399">
        <ele>120</ele>
        <time>2025-04-11T12:18:50Z</time>
      </trkpt>
      <trkpt lat="45.39299" lon="0.37396">
        <ele>118</ele>
        <time>2025-04-11T12:19:12Z</time>
      </trkpt>
      <trkpt lat="45.39099" lon="0.37399">
        <ele>122</ele>
        <time>2025-04-11T12:19:47Z</time>
      </trkpt>
      <trkpt lat="45.39068" lon="0.37394">
        <ele>123</ele>
        <time>2025-04-11T12:19:53Z</time>
      </trkpt>
      <trkpt lat="45.38841" lon="0.37334">
        <ele>130</ele>
        <time>2025-04-11T12:20:34Z</time>
      </trkpt>
      <trkpt lat="45.38733" lon="0.37291">
        <ele>135</ele>
        <time>2025-04-11T12:20:54Z</time>
      </trkpt>
      <trkpt lat="45.386" lon="0.3723">
        <ele>137</ele>
        <time>2025-04-11T12:21:19Z</time>
      </trkpt>
      <trkpt lat="45.38567" lon="0.37224">
        <ele>137</ele>
        <time>2025-04-11T12:21:25Z</time>
      </trkpt>
      <trkpt lat="45.38533" lon="0.37237">
        <ele>136</ele>
        <time>2025-04-11T12:21:31Z</time>
      </trkpt>
      <trkpt lat="45.38305" lon="0.37307">
        <ele>123</ele>
        <time>2025-04-11T12:22:12Z</time>
      </trkpt>
      <trkpt lat="45.38274" lon="0.37309">
        <ele>122</ele>
        <time>2025-04-11T12:22:18Z</time>
      </trkpt>
      <trkpt lat="45.38243" lon="0.37287">
        <ele>121</ele>
        <time>2025-04-11T12:22:24Z</time>
      </trkpt>
      <trkpt lat="45.37974" lon="0.37001">
        <ele>111</ele>
        <time>2025-04-11T12:23:24Z</time>
      </trkpt>
      <trkpt lat="45.37803" lon="0.36862">
        <ele>115</ele>
        <time>2025-04-11T12:23:59Z</time>
      </trkpt>
      <trkpt lat="45.37766" lon="0.36831">
        <ele>114</ele>
        <time>2025-04-11T12:24:07Z</time>
      </trkpt>
      <trkpt lat="45.37721" lon="0.36787">
        <ele>113</ele>
        <time>2025-04-11T12:24:16Z</time>
      </trkpt>
      <trkpt lat="45.37694" lon="0.3675">
        <ele>111</ele>
        <time>2025-04-11T12:24:23Z</time>
      </trkpt>
      <trkpt lat="45.37653" lon="0.36679">
        <ele>108</ele>
        <time>2025-04-11T12:24:34Z</time>
      </trkpt>
      <trkpt lat="45.37645" lon="0.36662">
        <ele>108</ele>
        <time>2025-04-11T12:24:37Z</time>
      </trkpt>
      <trkpt lat="45.37614" lon="0.36572">
        <ele>105</ele>
        <time>2025-04-11T12:24:50Z</time>
      </trkpt>
      <trkpt lat="45.37605" lon="0.36552">
        <ele>104</ele>
        <time>2025-04-11T12:24:52Z</time>
      </trkpt>
      <trkpt lat="45.37582" lon="0.36511">
        <ele>103</ele>
        <time>2025-04-11T12:24:59Z</time>
      </trkpt>
      <trkpt lat="45.37538" lon="0.36442">
        <ele>103</ele>
        <time>2025-04-11T12:25:11Z</time>
      </trkpt>
      <trkpt lat="45.37518" lon="0.36415">
        <ele>102</ele>
        <time>2025-04-11T12:25:16Z</time>
      </trkpt>
      <trkpt lat="45.37493" lon="0.36386">
        <ele>102</ele>
        <time>2025-04-11T12:25:21Z</time>
      </trkpt>
      <trkpt lat="45.37428" lon="0.36321">
        <ele>104</ele>
        <time>2025-04-11T12:25:35Z</time>
      </trkpt>
      <trkpt lat="45.3726" lon="0.36182">
        <ele>103</ele>
        <time>2025-04-11T12:26:10Z</time>
      </trkpt>
      <trkpt lat="45.3716" lon="0.36091">
        <ele>100</ele>
        <time>2025-04-11T12:26:31Z</time>
      </trkpt>
      <trkpt lat="45.36967" lon="0.35931">
        <ele>102</ele>
        <time>2025-04-11T12:27:11Z</time>
      </trkpt>
      <trkpt lat="45.36945" lon="0.35906">
        <ele>101</ele>
        <time>2025-04-11T12:27:16Z</time>
      </trkpt>
      <trkpt lat="45.36932" lon="0.3588">
        <ele>101</ele>
        <time>2025-04-11T12:27:20Z</time>
      </trkpt>
      <trkpt lat="45.36924" lon="0.35852">
        <ele>100</ele>
        <time>2025-04-11T12:27:24Z</time>
      </trkpt>
      <trkpt lat="45.36923" lon="0.35818">
        <ele>100</ele>
        <time>2025-04-11T12:27:28Z</time>
      </trkpt>
      <trkpt lat="45.36934" lon="0.35482">
        <ele>107</ele>
        <time>2025-04-11T12:28:10Z</time>
      </trkpt>
      <trkpt lat="45.36934" lon="0.35418">
        <ele>109</ele>
        <time>2025-04-11T12:28:18Z</time>
      </trkpt>
      <trkpt lat="45.36926" lon="0.35351">
        <ele>112</ele>
        <time>2025-04-11T12:28:26Z</time>
      </trkpt>
      <trkpt lat="45.36908" lon="0.35244">
        <ele>121</ele>
        <time>2025-04-11T12:28:40Z</time>
      </trkpt>
      <trkpt lat="45.36888" lon="0.35156">
        <ele>132</ele>
        <time>2025-04-11T12:28:52Z</time>
      </trkpt>
      <trkpt lat="45.36874" lon="0.35068">
        <ele>138</ele>
        <time>2025-04-11T12:29:03Z</time>
      </trkpt>
      <trkpt lat="45.36818" lon="0.35029">
        <ele>137</ele>
        <time>2025-04-11T12:29:14Z</time>
      </trkpt>
      <trkpt lat="45.36778" lon="0.34991">
        <ele>135</ele>
        <time>2025-04-11T12:29:23Z</time>
      </trkpt>
      <trkpt lat="45.36732" lon="0.34912">
        <ele>130</ele>
        <time>2025-04-11T12:29:36Z</time>
      </trkpt>
      <trkpt lat="45.36693" lon="0.34855">
        <ele>126</ele>
        <time>2025-04-11T12:29:45Z</time>
      </trkpt>
      <trkpt lat="45.36664" lon="0.34819">
        <ele>123</ele>
        <time>2025-04-11T12:29:52Z</time>
      </trkpt>
      <trkpt lat="45.3665" lon="0.34807">
        <ele>122</ele>
        <time>2025-04-11T12:29:55Z</time>
      </trkpt>
      <trkpt lat="45.36608" lon="0.34786">
        <ele>119</ele>
        <time>2025-04-11T12:30:03Z</time>
      </trkpt>
      <trkpt lat="45.3636" lon="0.34671">
        <ele>103</ele>
        <time>2025-04-11T12:30:50Z</time>
      </trkpt>
      <trkpt lat="45.36084" lon="0.34339">
        <ele>118</ele>
        <time>2025-04-11T12:31:54Z</time>
      </trkpt>
      <trkpt lat="45.36042" lon="0.34279">
        <ele>120</ele>
        <time>2025-04-11T12:32:04Z</time>
      </trkpt>
      <trkpt lat="45.3587" lon="0.34002">
        <ele>101</ele>
        <time>2025-04-11T12:32:51Z</time>
      </trkpt>
      <trkpt lat="45.35835" lon="0.33953">
        <ele>102</ele>
        <time>2025-04-11T12:32:59Z</time>
      </trkpt>
      <trkpt lat="45.35829" lon="0.33949">
        <ele>102</ele>
        <time>2025-04-11T12:33:01Z</time>
      </trkpt>
      <trkpt lat="45.35813" lon="0.33941">
        <ele>103</ele>
        <time>2025-04-11T12:33:04Z</time>
      </trkpt>
      <trkpt lat="45.35793" lon="0.33937">
        <ele>104</ele>
        <time>2025-04-11T12:33:07Z</time>
      </trkpt>
      <trkpt lat="45.35784" lon="0.33938">
        <ele>105</ele>
        <time>2025-04-11T12:33:09Z</time>
      </trkpt>
      <trkpt lat="45.3578" lon="0.33895">
        <ele>106</ele>
        <time>2025-04-11T12:33:14Z</time>
      </trkpt>
      <trkpt lat="45.35782" lon="0.33878">
        <ele>106</ele>
        <time>2025-04-11T12:33:16Z</time>
      </trkpt>
      <trkpt lat="45.35774" lon="0.33875">
        <ele>106</ele>
        <time>2025-04-11T12:33:18Z</time>
      </trkpt>
      <trkpt lat="45.35749" lon="0.3384">
        <ele>108</ele>
        <time>2025-04-11T12:33:24Z</time>
      </trkpt>
      <trkpt lat="45.35734" lon="0.33831">
        <ele>108</ele>
        <time>2025-04-11T12:33:27Z</time>
      </trkpt>
      <trkpt lat="45.35711" lon="0.33824">
        <ele>109</ele>
        <time>2025-04-11T12:33:31Z</time>
      </trkpt>
      <trkpt lat="45.35661" lon="0.33821">
        <ele>110</ele>
        <time>2025-04-11T12:33:40Z</time>
      </trkpt>
      <trkpt lat="45.3565" lon="0.33817">
        <ele>109</ele>
        <time>2025-04-11T12:33:42Z</time>
      </trkpt>
      <trkpt lat="45.35578" lon="0.33778">
        <ele>108</ele>
        <time>2025-04-11T12:33:56Z</time>
      </trkpt>
      <trkpt lat="45.35521" lon="0.33739">
        <ele>109</ele>
        <time>2025-04-11T12:34:07Z</time>
      </trkpt>
      <trkpt lat="45.35487" lon="0.33713">
        <ele>109</ele>
        <time>2025-04-11T12:34:14Z</time>
      </trkpt>
      <trkpt lat="45.35415" lon="0.33639">
        <ele>110</ele>
        <time>2025-04-11T12:34:30Z</time>
      </trkpt>
      <trkpt lat="45.35386" lon="0.33587">
        <ele>112</ele>
        <time>2025-04-11T12:34:38Z</time>
      </trkpt>
      <trkpt lat="45.35378" lon="0.33528">
        <ele>113</ele>
        <time>2025-04-11T12:34:46Z</time>
      </trkpt>
      <trkpt lat="45.35362" lon="0.33483">
        <ele>113</ele>
        <time>2025-04-11T12:34:52Z</time>
      </trkpt>
      <trkpt lat="45.35302" lon="0.33436">
        <ele>114</ele>
        <time>2025-04-11T12:35:04Z</time>
      </trkpt>
      <trkpt lat="45.35232" lon="0.33368">
        <ele>118</ele>
        <time>2025-04-11T12:35:19Z</time>
      </trkpt>
      <trkpt lat="45.35164" lon="0.33333">
        <ele>117</ele>
        <time>2025-04-11T12:35:32Z</time>
      </trkpt>
      <trkpt lat="45.35121" lon="0.33173">
        <ele>123</ele>
        <time>2025-04-11T12:35:53Z</time>
      </trkpt>
      <trkpt lat="45.35049" lon="0.32967">
        <ele>138</ele>
        <time>2025-04-11T12:36:22Z</time>
      </trkpt>
      <trkpt lat="45.34989" lon="0.32761">
        <ele>151</ele>
        <time>2025-04-11T12:36:50Z</time>
      </trkpt>
      <trkpt lat="45.34955" lon="0.32686">
        <ele>154</ele>
        <time>2025-04-11T12:37:01Z</time>
      </trkpt>
      <trkpt lat="45.3494" lon="0.32615">
        <ele>158</ele>
        <time>2025-04-11T12:37:10Z</time>
      </trkpt>
      <trkpt lat="45.34889" lon="0.3246">
        <ele>160</ele>
        <time>2025-04-11T12:37:32Z</time>
      </trkpt>
      <trkpt lat="45.34842" lon="0.3242">
        <ele>159</ele>
        <time>2025-04-11T12:37:42Z</time>
      </trkpt>
      <trkpt lat="45.34798" lon="0.32354">
        <ele>159</ele>
        <time>2025-04-11T12:37:53Z</time>
      </trkpt>
      <trkpt lat="45.34783" lon="0.32323">
        <ele>160</ele>
        <time>2025-04-11T12:37:58Z</time>
      </trkpt>
      <trkpt lat="45.3475" lon="0.32255">
        <ele>165</ele>
        <time>2025-04-11T12:38:08Z</time>
      </trkpt>
      <trkpt lat="45.34717" lon="0.32221">
        <ele>168</ele>
        <time>2025-04-11T12:38:15Z</time>
      </trkpt>
      <trkpt lat="45.34686" lon="0.32216">
        <ele>170</ele>
        <time>2025-04-11T12:38:21Z</time>
      </trkpt>
      <trkpt lat="45.34646" lon="0.32226">
        <ele>171</ele>
        <time>2025-04-11T12:38:28Z</time>
      </trkpt>
      <trkpt lat="45.34536" lon="0.32225">
        <ele>171</ele>
        <time>2025-04-11T12:38:48Z</time>
      </trkpt>
      <trkpt lat="45.34362" lon="0.32213">
        <ele>180</ele>
        <time>2025-04-11T12:39:19Z</time>
      </trkpt>
      <trkpt lat="45.34349" lon="0.32208">
        <ele>180</ele>
        <time>2025-04-11T12:39:21Z</time>
      </trkpt>
      <trkpt lat="45.34299" lon="0.32096">
        <ele>175</ele>
        <time>2025-04-11T12:39:38Z</time>
      </trkpt>
      <trkpt lat="45.34267" lon="0.32159">
        <ele>175</ele>
        <time>2025-04-11T12:39:47Z</time>
      </trkpt>
      <trkpt lat="45.34265" lon="0.32152">
        <ele>175</ele>
        <time>2025-04-11T12:39:48Z</time>
      </trkpt>
      <trkpt lat="45.34264" lon="0.32098">
        <ele>174</ele>
        <time>2025-04-11T12:39:55Z</time>
      </trkpt>
      <trkpt lat="45.34262" lon="0.32079">
        <ele>174</ele>
        <time>2025-04-11T12:39:57Z</time>
      </trkpt>
      <trkpt lat="45.34258" lon="0.32057">
        <ele>174</ele>
        <time>2025-04-11T12:40:00Z</time>
      </trkpt>
      <trkpt lat="45.34251" lon="0.32035">
        <ele>174</ele>
        <time>2025-04-11T12:40:03Z</time>
      </trkpt>
      <trkpt lat="45.34222" lon="0.31972">
        <ele>170</ele>
        <time>2025-04-11T12:40:13Z</time>
      </trkpt>
      <trkpt lat="45.34208" lon="0.31949">
        <ele>169</ele>
        <time>2025-04-11T12:40:17Z</time>
      </trkpt>
      <trkpt lat="45.34194" lon="0.31932">
        <ele>168</ele>
        <time>2025-04-11T12:40:20Z</time>
      </trkpt>
      <trkpt lat="45.3418" lon="0.3192">
        <ele>168</ele>
        <time>2025-04-11T12:40:23Z</time>
      </trkpt>
      <trkpt lat="45.34158" lon="0.31905">
        <ele>167</ele>
        <time>2025-04-11T12:40:27Z</time>
      </trkpt>
      <trkpt lat="45.34038" lon="0.31852">
        <ele>163</ele>
        <time>2025-04-11T12:40:49Z</time>
      </trkpt>
      <trkpt lat="45.33916" lon="0.31802">
        <ele>163</ele>
        <time>2025-04-11T12:41:12Z</time>
      </trkpt>
      <trkpt lat="45.33762" lon="0.31731">
        <ele>160</ele>
        <time>2025-04-11T12:41:41Z</time>
      </trkpt>
      <trkpt lat="45.33495" lon="0.31565">
        <ele>153</ele>
        <time>2025-04-11T12:42:33Z</time>
      </trkpt>
      <trkpt lat="45.33474" lon="0.31556">
        <ele>153</ele>
        <time>2025-04-11T12:42:37Z</time>
      </trkpt>
      <trkpt lat="45.33455" lon="0.31552">
        <ele>152</ele>
        <time>2025-04-11T12:42:40Z</time>
      </trkpt>
      <trkpt lat="45.33276" lon="0.31553">
        <ele>145</ele>
        <time>2025-04-11T12:43:12Z</time>
      </trkpt>
      <trkpt lat="45.33199" lon="0.31547">
        <ele>143</ele>
        <time>2025-04-11T12:43:26Z</time>
      </trkpt>
      <trkpt lat="45.3314" lon="0.31529">
        <ele>143</ele>
        <time>2025-04-11T12:43:36Z</time>
      </trkpt>
      <trkpt lat="45.33096" lon="0.31507">
        <ele>144</ele>
        <time>2025-04-11T12:43:45Z</time>
      </trkpt>
      <trkpt lat="45.33067" lon="0.31483">
        <ele>143</ele>
        <time>2025-04-11T12:43:51Z</time>
      </trkpt>
      <trkpt lat="45.32875" lon="0.31284">
        <ele>135</ele>
        <time>2025-04-11T12:44:33Z</time>
      </trkpt>
      <trkpt lat="45.32855" lon="0.31271">
        <ele>134</ele>
        <time>2025-04-11T12:44:37Z</time>
      </trkpt>
      <trkpt lat="45.32817" lon="0.31263">
        <ele>133</ele>
        <time>2025-04-11T12:44:44Z</time>
      </trkpt>
      <trkpt lat="45.32802" lon="0.31254">
        <ele>133</ele>
        <time>2025-04-11T12:44:46Z</time>
      </trkpt>
      <trkpt lat="45.32717" lon="0.31177">
        <ele>135</ele>
        <time>2025-04-11T12:45:04Z</time>
      </trkpt>
      <trkpt lat="45.32705" lon="0.31171">
        <ele>135</ele>
        <time>2025-04-11T12:45:07Z</time>
      </trkpt>
      <trkpt lat="45.32657" lon="0.31158">
        <ele>136</ele>
        <time>2025-04-11T12:45:15Z</time>
      </trkpt>
      <trkpt lat="45.3264" lon="0.31151">
        <ele>137</ele>
        <time>2025-04-11T12:45:19Z</time>
      </trkpt>
      <trkpt lat="45.32619" lon="0.31138">
        <ele>137</ele>
        <time>2025-04-11T12:45:23Z</time>
      </trkpt>
      <trkpt lat="45.32552" lon="0.31074">
        <ele>141</ele>
        <time>2025-04-11T12:45:37Z</time>
      </trkpt>
      <trkpt lat="45.32489" lon="0.31005">
        <ele>144</ele>
        <time>2025-04-11T12:45:51Z</time>
      </trkpt>
      <trkpt lat="45.32441" lon="0.30936">
        <ele>144</ele>
        <time>2025-04-11T12:46:03Z</time>
      </trkpt>
      <trkpt lat="45.32358" lon="0.30808">
        <ele>143</ele>
        <time>2025-04-11T12:46:25Z</time>
      </trkpt>
      <trkpt lat="45.32291" lon="0.30713">
        <ele>140</ele>
        <time>2025-04-11T12:46:42Z</time>
      </trkpt>
      <trkpt lat="45.32238" lon="0.30654">
        <ele>141</ele>
        <time>2025-04-11T12:46:54Z</time>
      </trkpt>
      <trkpt lat="45.32213" lon="0.30631">
        <ele>140</ele>
        <time>2025-04-11T12:46:59Z</time>
      </trkpt>
      <trkpt lat="45.32189" lon="0.30615">
        <ele>140</ele>
        <time>2025-04-11T12:47:04Z</time>
      </trkpt>
      <trkpt lat="45.32161" lon="0.30602">
        <ele>140</ele>
        <time>2025-04-11T12:47:09Z</time>
      </trkpt>
      <trkpt lat="45.32065" lon="0.30564">
        <ele>136</ele>
        <time>2025-04-11T12:47:27Z</time>
      </trkpt>
      <trkpt lat="45.32057" lon="0.30568">
        <ele>137</ele>
        <time>2025-04-11T12:47:28Z</time>
      </trkpt>
      <trkpt lat="45.32049" lon="0.30566">
        <ele>136</ele>
        <time>2025-04-11T12:47:30Z</time>
      </trkpt>
      <trkpt lat="45.3195" lon="0.30531">
        <ele>137</ele>
        <time>2025-04-11T12:47:48Z</time>
      </trkpt>
      <trkpt lat="45.31943" lon="0.30531">
        <ele>137</ele>
        <time>2025-04-11T12:47:49Z</time>
      </trkpt>
      <trkpt lat="45.31931" lon="0.30537">
        <ele>137</ele>
        <time>2025-04-11T12:47:51Z</time>
      </trkpt>
      <trkpt lat="45.31897" lon="0.30577">
        <ele>135</ele>
        <time>2025-04-11T12:47:59Z</time>
      </trkpt>
      <trkpt lat="45.31884" lon="0.30582">
        <ele>134</ele>
        <time>2025-04-11T12:48:02Z</time>
      </trkpt>
      <trkpt lat="45.31842" lon="0.30577">
        <ele>132</ele>
        <time>2025-04-11T12:48:09Z</time>
      </trkpt>
      <trkpt lat="45.31804" lon="0.30586">
        <ele>127</ele>
        <time>2025-04-11T12:48:16Z</time>
      </trkpt>
      <trkpt lat="45.31781" lon="0.30601">
        <ele>123</ele>
        <time>2025-04-11T12:48:21Z</time>
      </trkpt>
      <trkpt lat="45.31728" lon="0.30653">
        <ele>114</ele>
        <time>2025-04-11T12:48:32Z</time>
      </trkpt>
      <trkpt lat="45.31684" lon="0.30712">
        <ele>110</ele>
        <time>2025-04-11T12:48:43Z</time>
      </trkpt>
      <trkpt lat="45.31669" lon="0.30727">
        <ele>109</ele>
        <time>2025-04-11T12:48:46Z</time>
      </trkpt>
      <trkpt lat="45.3165" lon="0.30732">
        <ele>108</ele>
        <time>2025-04-11T12:48:49Z</time>
      </trkpt>
      <trkpt lat="45.31629" lon="0.30745">
        <ele>106</ele>
        <time>2025-04-11T12:48:54Z</time>
      </trkpt>
      <trkpt lat="45.31504" lon="0.30803">
        <ele>98</ele>
        <time>2025-04-11T12:49:17Z</time>
      </trkpt>
      <trkpt lat="45.31419" lon="0.30826">
        <ele>98</ele>
        <time>2025-04-11T12:49:32Z</time>
      </trkpt>
      <trkpt lat="45.31411" lon="0.30833">
        <ele>98</ele>
        <time>2025-04-11T12:49:34Z</time>
      </trkpt>
      <trkpt lat="45.31404" lon="0.3085">
        <ele>97</ele>
        <time>2025-04-11T12:49:36Z</time>
      </trkpt>
      <trkpt lat="45.31406" lon="0.30874">
        <ele>97</ele>
        <time>2025-04-11T12:49:39Z</time>
      </trkpt>
      <trkpt lat="45.31425" lon="0.30961">
        <ele>95</ele>
        <time>2025-04-11T12:49:51Z</time>
      </trkpt>
      <trkpt lat="45.31423" lon="0.30983">
        <ele>94</ele>
        <time>2025-04-11T12:49:54Z</time>
      </trkpt>
      <trkpt lat="45.31417" lon="0.31001">
        <ele>93</ele>
        <time>2025-04-11T12:49:56Z</time>
      </trkpt>
      <trkpt lat="45.31404" lon="0.31019">
        <ele>91</ele>
        <time>2025-04-11T12:49:59Z</time>
      </trkpt>
      <trkpt lat="45.31363" lon="0.3106">
        <ele>88</ele>
        <time>2025-04-11T12:50:08Z</time>
      </trkpt>
      <trkpt lat="45.31339" lon="0.3109">
        <ele>87</ele>
        <time>2025-04-11T12:50:14Z</time>
      </trkpt>
      <trkpt lat="45.31322" lon="0.31112">
        <ele>85</ele>
        <time>2025-04-11T12:50:18Z</time>
      </trkpt>
      <trkpt lat="45.31203" lon="0.31287">
        <ele>73</ele>
        <time>2025-04-11T12:50:49Z</time>
      </trkpt>
      <trkpt lat="45.31174" lon="0.31318">
        <ele>71</ele>
        <time>2025-04-11T12:50:55Z</time>
      </trkpt>
      <trkpt lat="45.31149" lon="0.31335">
        <ele>70</ele>
        <time>2025-04-11T12:51:00Z</time>
      </trkpt>
      <trkpt lat="45.31103" lon="0.31366">
        <ele>68</ele>
        <time>2025-04-11T12:51:09Z</time>
      </trkpt>
      <trkpt lat="45.31093" lon="0.31374">
        <ele>68</ele>
        <time>2025-04-11T12:51:11Z</time>
      </trkpt>
      <trkpt lat="45.30974" lon="0.31462">
        <ele>67</ele>
        <time>2025-04-11T12:51:35Z</time>
      </trkpt>
      <trkpt lat="45.30948" lon="0.31476">
        <ele>68</ele>
        <time>2025-04-11T12:51:40Z</time>
      </trkpt>
      <trkpt lat="45.3093" lon="0.31478">
        <ele>69</ele>
        <time>2025-04-11T12:51:43Z</time>
      </trkpt>
      <trkpt lat="45.30911" lon="0.31471">
        <ele>70</ele>
        <time>2025-04-11T12:51:47Z</time>
      </trkpt>
      <trkpt lat="45.30884" lon="0.31449">
        <ele>70</ele>
        <time>2025-04-11T12:51:52Z</time>
      </trkpt>
      <trkpt lat="45.30852" lon="0.31419">
        <ele>69</ele>
        <time>2025-04-11T12:51:59Z</time>
      </trkpt>
      <trkpt lat="45.30831" lon="0.31407">
        <ele>69</ele>
        <time>2025-04-11T12:52:03Z</time>
      </trkpt>
      <trkpt lat="45.30801" lon="0.31399">
        <ele>70</ele>
        <time>2025-04-11T12:52:08Z</time>
      </trkpt>
      <trkpt lat="45.30598" lon="0.31393">
        <ele>79</ele>
        <time>2025-04-11T12:52:44Z</time>
      </trkpt>
      <trkpt lat="45.30443" lon="0.31379">
        <ele>88</ele>
        <time>2025-04-11T12:53:12Z</time>
      </trkpt>
      <trkpt lat="45.30429" lon="0.3137">
        <ele>90</ele>
        <time>2025-04-11T12:53:15Z</time>
      </trkpt>
      <trkpt lat="45.30418" lon="0.31356">
        <ele>91</ele>
        <time>2025-04-11T12:53:17Z</time>
      </trkpt>
      <trkpt lat="45.30412" lon="0.31333">
        <ele>93</ele>
        <time>2025-04-11T12:53:21Z</time>
      </trkpt>
      <trkpt lat="45.30407" lon="0.3128">
        <ele>94</ele>
        <time>2025-04-11T12:53:27Z</time>
      </trkpt>
      <trkpt lat="45.30398" lon="0.31252">
        <ele>95</ele>
        <time>2025-04-11T12:53:31Z</time>
      </trkpt>
      <trkpt lat="45.30386" lon="0.31237">
        <ele>96</ele>
        <time>2025-04-11T12:53:34Z</time>
      </trkpt>
      <trkpt lat="45.30368" lon="0.31224">
        <ele>97</ele>
        <time>2025-04-11T12:53:38Z</time>
      </trkpt>
      <trkpt lat="45.30347" lon="0.31218">
        <ele>99</ele>
        <time>2025-04-11T12:53:41Z</time>
      </trkpt>
      <trkpt lat="45.30322" lon="0.31217">
        <ele>101</ele>
        <time>2025-04-11T12:53:46Z</time>
      </trkpt>
      <trkpt lat="45.30301" lon="0.31223">
        <ele>102</ele>
        <time>2025-04-11T12:53:50Z</time>
      </trkpt>
      <trkpt lat="45.3028" lon="0.31237">
        <ele>103</ele>
        <time>2025-04-11T12:53:54Z</time>
      </trkpt>
      <trkpt lat="45.30237" lon="0.31288">
        <ele>108</ele>
        <time>2025-04-11T12:54:04Z</time>
      </trkpt>
      <trkpt lat="45.30213" lon="0.31314">
        <ele>110</ele>
        <time>2025-04-11T12:54:09Z</time>
      </trkpt>
      <trkpt lat="45.3006" lon="0.31427">
        <ele>124</ele>
        <time>2025-04-11T12:54:40Z</time>
      </trkpt>
      <trkpt lat="45.30012" lon="0.31447">
        <ele>125</ele>
        <time>2025-04-11T12:54:49Z</time>
      </trkpt>
      <trkpt lat="45.2997" lon="0.31459">
        <ele>124</ele>
        <time>2025-04-11T12:54:56Z</time>
      </trkpt>
      <trkpt lat="45.29941" lon="0.31464">
        <ele>124</ele>
        <time>2025-04-11T12:55:01Z</time>
      </trkpt>
      <trkpt lat="45.29851" lon="0.31461">
        <ele>126</ele>
        <time>2025-04-11T12:55:17Z</time>
      </trkpt>
      <trkpt lat="45.29819" lon="0.31455">
        <ele>127</ele>
        <time>2025-04-11T12:55:23Z</time>
      </trkpt>
      <trkpt lat="45.29636" lon="0.31396">
        <ele>134</ele>
        <time>2025-04-11T12:55:57Z</time>
      </trkpt>
      <trkpt lat="45.29608" lon="0.31383">
        <ele>135</ele>
        <time>2025-04-11T12:56:02Z</time>
      </trkpt>
      <trkpt lat="45.29464" lon="0.31287">
        <ele>124</ele>
        <time>2025-04-11T12:56:30Z</time>
      </trkpt>
      <trkpt lat="45.29441" lon="0.31269">
        <ele>122</ele>
        <time>2025-04-11T12:56:35Z</time>
      </trkpt>
      <trkpt lat="45.29411" lon="0.31233">
        <ele>120</ele>
        <time>2025-04-11T12:56:42Z</time>
      </trkpt>
      <trkpt lat="45.29393" lon="0.31202">
        <ele>119</ele>
        <time>2025-04-11T12:56:47Z</time>
      </trkpt>
      <trkpt lat="45.29373" lon="0.31146">
        <ele>117</ele>
        <time>2025-04-11T12:56:55Z</time>
      </trkpt>
      <trkpt lat="45.29356" lon="0.31084">
        <ele>113</ele>
        <time>2025-04-11T12:57:03Z</time>
      </trkpt>
      <trkpt lat="45.29352" lon="0.31047">
        <ele>112</ele>
        <time>2025-04-11T12:57:08Z</time>
      </trkpt>
      <trkpt lat="45.29353" lon="0.30952">
        <ele>111</ele>
        <time>2025-04-11T12:57:20Z</time>
      </trkpt>
      <trkpt lat="45.29351" lon="0.30913">
        <ele>110</ele>
        <time>2025-04-11T12:57:24Z</time>
      </trkpt>
      <trkpt lat="45.29336" lon="0.3084">
        <ele>107</ele>
        <time>2025-04-11T12:57:34Z</time>
      </trkpt>
      <trkpt lat="45.29327" lon="0.30826">
        <ele>106</ele>
        <time>2025-04-11T12:57:36Z</time>
      </trkpt>
      <trkpt lat="45.29316" lon="0.30822">
        <ele>105</ele>
        <time>2025-04-11T12:57:38Z</time>
      </trkpt>
      <trkpt lat="45.29269" lon="0.30844">
        <ele>103</ele>
        <time>2025-04-11T12:57:47Z</time>
      </trkpt>
      <trkpt lat="45.29254" lon="0.30847">
        <ele>102</ele>
        <time>2025-04-11T12:57:50Z</time>
      </trkpt>
      <trkpt lat="45.29239" lon="0.30843">
        <ele>103</ele>
        <time>2025-04-11T12:57:53Z</time>
      </trkpt>
      <trkpt lat="45.29216" lon="0.30822">
        <ele>104</ele>
        <time>2025-04-11T12:57:57Z</time>
      </trkpt>
      <trkpt lat="45.29202" lon="0.30819">
        <ele>105</ele>
        <time>2025-04-11T12:58:00Z</time>
      </trkpt>
      <trkpt lat="45.29187" lon="0.30824">
        <ele>107</ele>
        <time>2025-04-11T12:58:03Z</time>
      </trkpt>
      <trkpt lat="45.2914" lon="0.30856">
        <ele>111</ele>
        <time>2025-04-11T12:58:12Z</time>
      </trkpt>
      <trkpt lat="45.29095" lon="0.30881">
        <ele>111</ele>
        <time>2025-04-11T12:58:21Z</time>
      </trkpt>
      <trkpt lat="45.29043" lon="0.30903">
        <ele>111</ele>
        <time>2025-04-11T12:58:30Z</time>
      </trkpt>
      <trkpt lat="45.28991" lon="0.30921">
        <ele>112</ele>
        <time>2025-04-11T12:58:40Z</time>
      </trkpt>
      <trkpt lat="45.28941" lon="0.30931">
        <ele>113</ele>
        <time>2025-04-11T12:58:49Z</time>
      </trkpt>
      <trkpt lat="45.28908" lon="0.30934">
        <ele>115</ele>
        <time>2025-04-11T12:58:55Z</time>
      </trkpt>
      <trkpt lat="45.28893" lon="0.30931">
        <ele>115</ele>
        <time>2025-04-11T12:58:57Z</time>
      </trkpt>
      <trkpt lat="45.2888" lon="0.30918">
        <ele>115</ele>
        <time>2025-04-11T12:59:00Z</time>
      </trkpt>
      <trkpt lat="45.28874" lon="0.309">
        <ele>115</ele>
        <time>2025-04-11T12:59:03Z</time>
      </trkpt>
      <trkpt lat="45.28841" lon="0.30906">
        <ele>117</ele>
        <time>2025-04-11T12:59:09Z</time>
      </trkpt>
      <trkpt lat="45.2881" lon="0.30893">
        <ele>118</ele>
        <time>2025-04-11T12:59:14Z</time>
      </trkpt>
      <trkpt lat="45.28804" lon="0.30896">
        <ele>118</ele>
        <time>2025-04-11T12:59:15Z</time>
      </trkpt>
      <trkpt lat="45.2879" lon="0.30908">
        <ele>119</ele>
        <time>2025-04-11T12:59:18Z</time>
      </trkpt>
      <trkpt lat="45.28783" lon="0.3091">
        <ele>119</ele>
        <time>2025-04-11T12:59:20Z</time>
      </trkpt>
      <trkpt lat="45.28764" lon="0.30907">
        <ele>120</ele>
        <time>2025-04-11T12:59:23Z</time>
      </trkpt>
      <trkpt lat="45.28733" lon="0.3088">
        <ele>122</ele>
        <time>2025-04-11T12:59:30Z</time>
      </trkpt>
      <trkpt lat="45.28683" lon="0.30857">
        <ele>125</ele>
        <time>2025-04-11T12:59:39Z</time>
      </trkpt>
      <trkpt lat="45.28628" lon="0.30855">
        <ele>126</ele>
        <time>2025-04-11T12:59:49Z</time>
      </trkpt>
      <trkpt lat="45.28607" lon="0.30862">
        <ele>127</ele>
        <time>2025-04-11T12:59:53Z</time>
      </trkpt>
      <trkpt lat="45.28591" lon="0.30876">
        <ele>127</ele>
        <time>2025-04-11T12:59:56Z</time>
      </trkpt>
      <trkpt lat="45.28583" lon="0.30887">
        <ele>128</ele>
        <time>2025-04-11T12:59:58Z</time>
      </trkpt>
      <trkpt lat="45.28576" lon="0.30902">
        <ele>128</ele>
        <time>2025-04-11T13:00:00Z</time>
      </trkpt>
      <trkpt lat="45.28571" lon="0.30918">
        <ele>128</ele>
        <time>2025-04-11T13:00:02Z</time>
      </trkpt>
      <trkpt lat="45.28566" lon="0.30968">
        <ele>128</ele>
        <time>2025-04-11T13:00:09Z</time>
      </trkpt>
      <trkpt lat="45.28561" lon="0.30988">
        <ele>128</ele>
        <time>2025-04-11T13:00:11Z</time>
      </trkpt>
      <trkpt lat="45.28556" lon="0.31002">
        <ele>127</ele>
        <time>2025-04-11T13:00:13Z</time>
      </trkpt>
      <trkpt lat="45.28538" lon="0.3103">
        <ele>127</ele>
        <time>2025-04-11T13:00:18Z</time>
      </trkpt>
      <trkpt lat="45.28516" lon="0.31051">
        <ele>127</ele>
        <time>2025-04-11T13:00:23Z</time>
      </trkpt>
      <trkpt lat="45.2849" lon="0.31064">
        <ele>126</ele>
        <time>2025-04-11T13:00:28Z</time>
      </trkpt>
      <trkpt lat="45.28466" lon="0.31065">
        <ele>125</ele>
        <time>2025-04-11T13:00:32Z</time>
      </trkpt>
      <trkpt lat="45.28451" lon="0.31061">
        <ele>124</ele>
        <time>2025-04-11T13:00:35Z</time>
      </trkpt>
      <trkpt lat="45.28439" lon="0.31054">
        <ele>123</ele>
        <time>2025-04-11T13:00:37Z</time>
      </trkpt>
      <trkpt lat="45.28385" lon="0.31008">
        <ele>119</ele>
        <time>2025-04-11T13:00:48Z</time>
      </trkpt>
      <trkpt lat="45.28371" lon="0.30999">
        <ele>119</ele>
        <time>2025-04-11T13:00:51Z</time>
      </trkpt>
      <trkpt lat="45.28359" lon="0.30994">
        <ele>118</ele>
        <time>2025-04-11T13:00:53Z</time>
      </trkpt>
      <trkpt lat="45.28346" lon="0.30993">
        <ele>117</ele>
        <time>2025-04-11T13:00:55Z</time>
      </trkpt>
      <trkpt lat="45.28335" lon="0.30996">
        <ele>116</ele>
        <time>2025-04-11T13:00:57Z</time>
      </trkpt>
      <trkpt lat="45.28323" lon="0.31001">
        <ele>116</ele>
        <time>2025-04-11T13:01:00Z</time>
      </trkpt>
      <trkpt lat="45.28303" lon="0.31022">
        <ele>115</ele>
        <time>2025-04-11T13:01:04Z</time>
      </trkpt>
      <trkpt lat="45.2829" lon="0.31041">
        <ele>113</ele>
        <time>2025-04-11T13:01:07Z</time>
      </trkpt>
      <trkpt lat="45.2822" lon="0.31162">
        <ele>103</ele>
        <time>2025-04-11T13:01:27Z</time>
      </trkpt>
      <trkpt lat="45.28212" lon="0.31172">
        <ele>102</ele>
        <time>2025-04-11T13:01:29Z</time>
      </trkpt>
      <trkpt lat="45.28204" lon="0.31178">
        <ele>101</ele>
        <time>2025-04-11T13:01:30Z</time>
      </trkpt>
      <trkpt lat="45.28191" lon="0.31183">
        <ele>100</ele>
        <time>2025-04-11T13:01:33Z</time>
      </trkpt>
      <trkpt lat="45.28175" lon="0.31182">
        <ele>100</ele>
        <time>2025-04-11T13:01:36Z</time>
      </trkpt>
      <trkpt lat="45.28157" lon="0.31176">
        <ele>99</ele>
        <time>2025-04-11T13:01:39Z</time>
      </trkpt>
      <trkpt lat="45.28121" lon="0.31156">
        <ele>97</ele>
        <time>2025-04-11T13:01:46Z</time>
      </trkpt>
      <trkpt lat="45.2808" lon="0.31127">
        <ele>95</ele>
        <time>2025-04-11T13:01:54Z</time>
      </trkpt>
      <trkpt lat="45.28054" lon="0.31114">
        <ele>95</ele>
        <time>2025-04-11T13:01:59Z</time>
      </trkpt>
      <trkpt lat="45.28037" lon="0.31109">
        <ele>94</ele>
        <time>2025-04-11T13:02:02Z</time>
      </trkpt>
      <trkpt lat="45.28013" lon="0.31108">
        <ele>93</ele>
        <time>2025-04-11T13:02:06Z</time>
      </trkpt>
      <trkpt lat="45.2799" lon="0.3111">
        <ele>92</ele>
        <time>2025-04-11T13:02:10Z</time>
      </trkpt>
      <trkpt lat="45.27952" lon="0.31118">
        <ele>91</ele>
        <time>2025-04-11T13:02:17Z</time>
      </trkpt>
      <trkpt lat="45.27922" lon="0.31129">
        <ele>90</ele>
        <time>2025-04-11T13:02:23Z</time>
      </trkpt>
      <trkpt lat="45.2789" lon="0.31148">
        <ele>89</ele>
        <time>2025-04-11T13:02:29Z</time>
      </trkpt>
      <trkpt lat="45.27862" lon="0.31169">
        <ele>89</ele>
        <time>2025-04-11T13:02:35Z</time>
      </trkpt>
      <trkpt lat="45.27847" lon="0.31184">
        <ele>88</ele>
        <time>2025-04-11T13:02:38Z</time>
      </trkpt>
      <trkpt lat="45.27757" lon="0.31314">
        <ele>87</ele>
        <time>2025-04-11T13:03:01Z</time>
      </trkpt>
      <trkpt lat="45.27724" lon="0.31347">
        <ele>86</ele>
        <time>2025-04-11T13:03:08Z</time>
      </trkpt>
      <trkpt lat="45.27592" lon="0.31468">
        <ele>81</ele>
        <time>2025-04-11T13:03:36Z</time>
      </trkpt>
      <trkpt lat="45.27562" lon="0.31493">
        <ele>79</ele>
        <time>2025-04-11T13:03:42Z</time>
      </trkpt>
      <trkpt lat="45.27414" lon="0.31577">
        <ele>75</ele>
        <time>2025-04-11T13:04:10Z</time>
      </trkpt>
      <trkpt lat="45.27393" lon="0.31591">
        <ele>75</ele>
        <time>2025-04-11T13:04:14Z</time>
      </trkpt>
      <trkpt lat="45.26878" lon="0.31879">
        <ele>68</ele>
        <time>2025-04-11T13:05:53Z</time>
      </trkpt>
      <trkpt lat="45.26824" lon="0.31912">
        <ele>67</ele>
        <time>2025-04-11T13:06:03Z</time>
      </trkpt>
      <trkpt lat="45.26791" lon="0.31938">
        <ele>65</ele>
        <time>2025-04-11T13:06:10Z</time>
      </trkpt>
      <trkpt lat="45.26756" lon="0.31981">
        <ele>64</ele>
        <time>2025-04-11T13:06:18Z</time>
      </trkpt>
      <trkpt lat="45.26751" lon="0.3199">
        <ele>64</ele>
        <time>2025-04-11T13:06:20Z</time>
      </trkpt>
      <trkpt lat="45.26734" lon="0.32019">
        <ele>64</ele>
        <time>2025-04-11T13:06:24Z</time>
      </trkpt>
      <trkpt lat="45.26708" lon="0.32076">
        <ele>66</ele>
        <time>2025-04-11T13:06:33Z</time>
      </trkpt>
      <trkpt lat="45.26691" lon="0.32136">
        <ele>69</ele>
        <time>2025-04-11T13:06:41Z</time>
      </trkpt>
      <trkpt lat="45.26682" lon="0.3219">
        <ele>72</ele>
        <time>2025-04-11T13:06:48Z</time>
      </trkpt>
      <trkpt lat="45.26679" lon="0.32253">
        <ele>75</ele>
        <time>2025-04-11T13:06:56Z</time>
      </trkpt>
      <trkpt lat="45.26682" lon="0.32313">
        <ele>77</ele>
        <time>2025-04-11T13:07:03Z</time>
      </trkpt>
      <trkpt lat="45.26699" lon="0.32504">
        <ele>80</ele>
        <time>2025-04-11T13:07:28Z</time>
      </trkpt>
      <trkpt lat="45.26702" lon="0.32547">
        <ele>81</ele>
        <time>2025-04-11T13:07:33Z</time>
      </trkpt>
      <trkpt lat="45.26706" lon="0.32679">
        <ele>80</ele>
        <time>2025-04-11T13:07:50Z</time>
      </trkpt>
      <trkpt lat="45.26706" lon="0.32758">
        <ele>80</ele>
        <time>2025-04-11T13:07:59Z</time>
      </trkpt>
      <trkpt lat="45.26697" lon="0.32984">
        <ele>78</ele>
        <time>2025-04-11T13:08:28Z</time>
      </trkpt>
      <trkpt lat="45.26692" lon="0.33051">
        <ele>77</ele>
        <time>2025-04-11T13:08:36Z</time>
      </trkpt>
      <trkpt lat="45.26645" lon="0.33357">
        <ele>70</ele>
        <time>2025-04-11T13:09:15Z</time>
      </trkpt>
      <trkpt lat="45.26636" lon="0.3339">
        <ele>70</ele>
        <time>2025-04-11T13:09:20Z</time>
      </trkpt>
      <trkpt lat="45.26623" lon="0.33424">
        <ele>70</ele>
        <time>2025-04-11T13:09:25Z</time>
      </trkpt>
      <trkpt lat="45.26592" lon="0.33497">
        <ele>69</ele>
        <time>2025-04-11T13:09:35Z</time>
      </trkpt>
      <trkpt lat="45.26581" lon="0.33518">
        <ele>69</ele>
        <time>2025-04-11T13:09:39Z</time>
      </trkpt>
      <trkpt lat="45.26571" lon="0.33533">
        <ele>69</ele>
        <time>2025-04-11T13:09:41Z</time>
      </trkpt>
      <trkpt lat="45.26554" lon="0.33551">
        <ele>68</ele>
        <time>2025-04-11T13:09:45Z</time>
      </trkpt>
      <trkpt lat="45.26501" lon="0.33593">
        <ele>66</ele>
        <time>2025-04-11T13:09:56Z</time>
      </trkpt>
      <trkpt lat="45.26394" lon="0.33672">
        <ele>62</ele>
        <time>2025-04-11T13:10:17Z</time>
      </trkpt>
      <trkpt lat="45.26363" lon="0.337">
        <ele>61</ele>
        <time>2025-04-11T13:10:24Z</time>
      </trkpt>
      <trkpt lat="45.26323" lon="0.3374">
        <ele>61</ele>
        <time>2025-04-11T13:10:32Z</time>
      </trkpt>
      <trkpt lat="45.26292" lon="0.33777">
        <ele>62</ele>
        <time>2025-04-11T13:10:40Z</time>
      </trkpt>
      <trkpt lat="45.26263" lon="0.33818">
        <ele>61</ele>
        <time>2025-04-11T13:10:47Z</time>
      </trkpt>
      <trkpt lat="45.26233" lon="0.33868">
        <ele>61</ele>
        <time>2025-04-11T13:10:55Z</time>
      </trkpt>
      <trkpt lat="45.26214" lon="0.33904">
        <ele>60</ele>
        <time>2025-04-11T13:11:01Z</time>
      </trkpt>
      <trkpt lat="45.26197" lon="0.33942">
        <ele>59</ele>
        <time>2025-04-11T13:11:06Z</time>
      </trkpt>
      <trkpt lat="45.26172" lon="0.34007">
        <ele>58</ele>
        <time>2025-04-11T13:11:16Z</time>
      </trkpt>
      <trkpt lat="45.26153" lon="0.34067">
        <ele>59</ele>
        <time>2025-04-11T13:11:24Z</time>
      </trkpt>
      <trkpt lat="45.26135" lon="0.34146">
        <ele>60</ele>
        <time>2025-04-11T13:11:34Z</time>
      </trkpt>
      <trkpt lat="45.26126" lon="0.34204">
        <ele>61</ele>
        <time>2025-04-11T13:11:42Z</time>
      </trkpt>
      <trkpt lat="45.26124" lon="0.34246">
        <ele>61</ele>
        <time>2025-04-11T13:11:47Z</time>
      </trkpt>
      <trkpt lat="45.2612" lon="0.34278">
        <ele>61</ele>
        <time>2025-04-11T13:11:51Z</time>
      </trkpt>
      <trkpt lat="45.26115" lon="0.34285">
        <ele>61</ele>
        <time>2025-04-11T13:11:52Z</time>
      </trkpt>
      <trkpt lat="45.26101" lon="0.34287">
        <ele>61</ele>
        <time>2025-04-11T13:11:55Z</time>
      </trkpt>
      <trkpt lat="45.26056" lon="0.34284">
        <ele>61</ele>
        <time>2025-04-11T13:12:03Z</time>
      </trkpt>
      <trkpt lat="45.25963" lon="0.34288">
        <ele>61</ele>
        <time>2025-04-11T13:12:19Z</time>
      </trkpt>
      <trkpt lat="45.25925" lon="0.34288">
        <ele>61</ele>
        <time>2025-04-11T13:12:26Z</time>
      </trkpt>
      <trkpt lat="45.25797" lon="0.3429">
        <ele>63</ele>
        <time>2025-04-11T13:12:49Z</time>
      </trkpt>
      <trkpt lat="45.25768" lon="0.34291">
        <ele>62</ele>
        <time>2025-04-11T13:12:54Z</time>
      </trkpt>
      <trkpt lat="45.25715" lon="0.34292">
        <ele>62</ele>
        <time>2025-04-11T13:13:04Z</time>
      </trkpt>
      <trkpt lat="45.25693" lon="0.3429">
        <ele>61</ele>
        <time>2025-04-11T13:13:08Z</time>
      </trkpt>
      <trkpt lat="45.25678" lon="0.34286">
        <ele>61</ele>
        <time>2025-04-11T13:13:10Z</time>
      </trkpt>
      <trkpt lat="45.2566" lon="0.34276">
        <ele>61</ele>
        <time>2025-04-11T13:13:14Z</time>
      </trkpt>
      <trkpt lat="45.25619" lon="0.34246">
        <ele>63</ele>
        <time>2025-04-11T13:13:22Z</time>
      </trkpt>
      <trkpt lat="45.25505" lon="0.34162">
        <ele>65</ele>
        <time>2025-04-11T13:13:45Z</time>
      </trkpt>
      <trkpt lat="45.25472" lon="0.34135">
        <ele>67</ele>
        <time>2025-04-11T13:13:52Z</time>
      </trkpt>
      <trkpt lat="45.25462" lon="0.34115">
        <ele>67</ele>
        <time>2025-04-11T13:13:55Z</time>
      </trkpt>
      <trkpt lat="45.25463" lon="0.34104">
        <ele>67</ele>
        <time>2025-04-11T13:13:56Z</time>
      </trkpt>
      <trkpt lat="45.25462" lon="0.34099">
        <ele>67</ele>
        <time>2025-04-11T13:13:57Z</time>
      </trkpt>
      <trkpt lat="45.25469" lon="0.34083">
        <ele>66</ele>
        <time>2025-04-11T13:13:59Z</time>
      </trkpt>
      <trkpt lat="45.25484" lon="0.34069">
        <ele>66</ele>
        <time>2025-04-11T13:14:02Z</time>
      </trkpt>
      <trkpt lat="45.25494" lon="0.34054">
        <ele>65</ele>
        <time>2025-04-11T13:14:05Z</time>
      </trkpt>
      <trkpt lat="45.255" lon="0.34039">
        <ele>64</ele>
        <time>2025-04-11T13:14:07Z</time>
      </trkpt>
      <trkpt lat="45.25513" lon="0.33978">
        <ele>64</ele>
        <time>2025-04-11T13:14:15Z</time>
      </trkpt>
      <trkpt lat="45.25514" lon="0.33974">
        <ele>64</ele>
        <time>2025-04-11T13:14:15Z</time>
      </trkpt>
      <trkpt lat="45.25547" lon="0.33806">
        <ele>67</ele>
        <time>2025-04-11T13:14:37Z</time>
      </trkpt>
      <trkpt lat="45.25549" lon="0.33787">
        <ele>67</ele>
        <time>2025-04-11T13:14:40Z</time>
      </trkpt>
      <trkpt lat="45.2555" lon="0.33766">
        <ele>68</ele>
        <time>2025-04-11T13:14:42Z</time>
      </trkpt>
      <trkpt lat="45.25541" lon="0.33708">
        <ele>69</ele>
        <time>2025-04-11T13:14:50Z</time>
      </trkpt>
      <trkpt lat="45.25539" lon="0.33679">
        <ele>69</ele>
        <time>2025-04-11T13:14:53Z</time>
      </trkpt>
      <trkpt lat="45.25536" lon="0.33672">
        <ele>70</ele>
        <time>2025-04-11T13:14:54Z</time>
      </trkpt>
      <trkpt lat="45.2553" lon="0.33667">
        <ele>70</ele>
        <time>2025-04-11T13:14:56Z</time>
      </trkpt>
      <trkpt lat="45.25452" lon="0.33655">
        <ele>70</ele>
        <time>2025-04-11T13:15:10Z</time>
      </trkpt>
      <trkpt lat="45.25437" lon="0.3365">
        <ele>69</ele>
        <time>2025-04-11T13:15:12Z</time>
      </trkpt>
      <trkpt lat="45.25125" lon="0.33601">
        <ele>72</ele>
        <time>2025-04-11T13:16:08Z</time>
      </trkpt>
      <trkpt lat="45.25076" lon="0.33593">
        <ele>72</ele>
        <time>2025-04-11T13:16:17Z</time>
      </trkpt>
      <trkpt lat="45.25073" lon="0.33623">
        <ele>71</ele>
        <time>2025-04-11T13:16:21Z</time>
      </trkpt>
      <trkpt lat="45.25077" lon="0.33681">
        <ele>70</ele>
        <time>2025-04-11T13:16:28Z</time>
      </trkpt>
      <trkpt lat="45.24984" lon="0.337">
        <ele>72</ele>
        <time>2025-04-11T13:16:45Z</time>
      </trkpt>
      <trkpt lat="45.24971" lon="0.33702">
        <ele>72</ele>
        <time>2025-04-11T13:16:47Z</time>
      </trkpt>
    </trkseg>
  </trk>
  <trk>
    <name><![CDATA[samedi 78km]]></name>
    <extensions>
      <line xmlns="http://www.topografix.com/GPX/gpx_style/0/2">
        <color>00FF00</color>
        <width>6</width>
          <extensions>
            <sens>1</sens>
          </extensions>
      </line>
    </extensions>
    <trkseg>
      <trkpt lat="45.24962" lon="0.33704">
        <ele>72</ele>
        <time>2025-04-11T09:00:01Z</time>
      </trkpt>
      <trkpt lat="45.24984" lon="0.337">
        <ele>72</ele>
        <time>2025-04-11T09:00:05Z</time>
      </trkpt>
      <trkpt lat="45.25077" lon="0.33681">
        <ele>70</ele>
        <time>2025-04-11T09:00:22Z</time>
      </trkpt>
      <trkpt lat="45.25073" lon="0.33623">
        <ele>71</ele>
        <time>2025-04-11T09:00:29Z</time>
      </trkpt>
      <trkpt lat="45.25076" lon="0.33593">
        <ele>72</ele>
        <time>2025-04-11T09:00:33Z</time>
      </trkpt>
      <trkpt lat="45.25038" lon="0.33585">
        <ele>74</ele>
        <time>2025-04-11T09:00:40Z</time>
      </trkpt>
      <trkpt lat="45.24945" lon="0.33548">
        <ele>78</ele>
        <time>2025-04-11T09:00:57Z</time>
      </trkpt>
      <trkpt lat="45.24998" lon="0.33407">
        <ele>87</ele>
        <time>2025-04-11T09:01:17Z</time>
      </trkpt>
      <trkpt lat="45.25005" lon="0.33395">
        <ele>88</ele>
        <time>2025-04-11T09:01:19Z</time>
      </trkpt>
      <trkpt lat="45.25018" lon="0.33382">
        <ele>89</ele>
        <time>2025-04-11T09:01:22Z</time>
      </trkpt>
      <trkpt lat="45.25032" lon="0.33373">
        <ele>89</ele>
        <time>2025-04-11T09:01:24Z</time>
      </trkpt>
      <trkpt lat="45.25103" lon="0.33344">
        <ele>92</ele>
        <time>2025-04-11T09:01:37Z</time>
      </trkpt>
      <trkpt lat="45.25152" lon="0.33321">
        <ele>93</ele>
        <time>2025-04-11T09:01:47Z</time>
      </trkpt>
      <trkpt lat="45.25172" lon="0.33305">
        <ele>95</ele>
        <time>2025-04-11T09:01:51Z</time>
      </trkpt>
      <trkpt lat="45.25187" lon="0.33291">
        <ele>95</ele>
        <time>2025-04-11T09:01:54Z</time>
      </trkpt>
      <trkpt lat="45.25198" lon="0.33274">
        <ele>96</ele>
        <time>2025-04-11T09:01:57Z</time>
      </trkpt>
      <trkpt lat="45.25205" lon="0.33258">
        <ele>97</ele>
        <time>2025-04-11T09:01:59Z</time>
      </trkpt>
      <trkpt lat="45.25212" lon="0.33236">
        <ele>98</ele>
        <time>2025-04-11T09:02:02Z</time>
      </trkpt>
      <trkpt lat="45.25221" lon="0.33184">
        <ele>99</ele>
        <time>2025-04-11T09:02:09Z</time>
      </trkpt>
      <trkpt lat="45.25224" lon="0.33149">
        <ele>100</ele>
        <time>2025-04-11T09:02:13Z</time>
      </trkpt>
      <trkpt lat="45.25222" lon="0.33088">
        <ele>100</ele>
        <time>2025-04-11T09:02:21Z</time>
      </trkpt>
      <trkpt lat="45.25217" lon="0.33051">
        <ele>100</ele>
        <time>2025-04-11T09:02:26Z</time>
      </trkpt>
      <trkpt lat="45.25208" lon="0.33009">
        <ele>101</ele>
        <time>2025-04-11T09:02:31Z</time>
      </trkpt>
      <trkpt lat="45.25165" lon="0.32854">
        <ele>98</ele>
        <time>2025-04-11T09:02:52Z</time>
      </trkpt>
      <trkpt lat="45.25162" lon="0.32835">
        <ele>97</ele>
        <time>2025-04-11T09:02:54Z</time>
      </trkpt>
      <trkpt lat="45.2516" lon="0.32797">
        <ele>98</ele>
        <time>2025-04-11T09:02:59Z</time>
      </trkpt>
      <trkpt lat="45.25162" lon="0.32774">
        <ele>98</ele>
        <time>2025-04-11T09:03:02Z</time>
      </trkpt>
      <trkpt lat="45.25183" lon="0.32656">
        <ele>97</ele>
        <time>2025-04-11T09:03:17Z</time>
      </trkpt>
      <trkpt lat="45.25187" lon="0.32613">
        <ele>93</ele>
        <time>2025-04-11T09:03:23Z</time>
      </trkpt>
      <trkpt lat="45.25182" lon="0.32575">
        <ele>91</ele>
        <time>2025-04-11T09:03:28Z</time>
      </trkpt>
      <trkpt lat="45.25177" lon="0.32559">
        <ele>90</ele>
        <time>2025-04-11T09:03:30Z</time>
      </trkpt>
      <trkpt lat="45.25171" lon="0.32545">
        <ele>90</ele>
        <time>2025-04-11T09:03:32Z</time>
      </trkpt>
      <trkpt lat="45.2516" lon="0.32531">
        <ele>89</ele>
        <time>2025-04-11T09:03:35Z</time>
      </trkpt>
      <trkpt lat="45.25098" lon="0.32469">
        <ele>88</ele>
        <time>2025-04-11T09:03:48Z</time>
      </trkpt>
      <trkpt lat="45.25089" lon="0.32455">
        <ele>88</ele>
        <time>2025-04-11T09:03:50Z</time>
      </trkpt>
      <trkpt lat="45.25084" lon="0.32438">
        <ele>87</ele>
        <time>2025-04-11T09:03:53Z</time>
      </trkpt>
      <trkpt lat="45.25083" lon="0.32424">
        <ele>87</ele>
        <time>2025-04-11T09:03:55Z</time>
      </trkpt>
      <trkpt lat="45.25084" lon="0.3241">
        <ele>87</ele>
        <time>2025-04-11T09:03:56Z</time>
      </trkpt>
      <trkpt lat="45.25089" lon="0.32395">
        <ele>88</ele>
        <time>2025-04-11T09:03:58Z</time>
      </trkpt>
      <trkpt lat="45.25099" lon="0.32381">
        <ele>89</ele>
        <time>2025-04-11T09:04:01Z</time>
      </trkpt>
      <trkpt lat="45.25113" lon="0.32369">
        <ele>89</ele>
        <time>2025-04-11T09:04:04Z</time>
      </trkpt>
      <trkpt lat="45.25153" lon="0.32324">
        <ele>90</ele>
        <time>2025-04-11T09:04:13Z</time>
      </trkpt>
      <trkpt lat="45.25162" lon="0.3231">
        <ele>91</ele>
        <time>2025-04-11T09:04:15Z</time>
      </trkpt>
      <trkpt lat="45.25174" lon="0.32284">
        <ele>92</ele>
        <time>2025-04-11T09:04:19Z</time>
      </trkpt>
      <trkpt lat="45.25186" lon="0.32223">
        <ele>94</ele>
        <time>2025-04-11T09:04:27Z</time>
      </trkpt>
      <trkpt lat="45.25193" lon="0.32197">
        <ele>94</ele>
        <time>2025-04-11T09:04:31Z</time>
      </trkpt>
      <trkpt lat="45.252" lon="0.3218">
        <ele>94</ele>
        <time>2025-04-11T09:04:33Z</time>
      </trkpt>
      <trkpt lat="45.25244" lon="0.32111">
        <ele>92</ele>
        <time>2025-04-11T09:04:45Z</time>
      </trkpt>
      <trkpt lat="45.25249" lon="0.32098">
        <ele>92</ele>
        <time>2025-04-11T09:04:47Z</time>
      </trkpt>
      <trkpt lat="45.25251" lon="0.32083">
        <ele>92</ele>
        <time>2025-04-11T09:04:48Z</time>
      </trkpt>
      <trkpt lat="45.25253" lon="0.32013">
        <ele>88</ele>
        <time>2025-04-11T09:04:57Z</time>
      </trkpt>
      <trkpt lat="45.25256" lon="0.3196">
        <ele>85</ele>
        <time>2025-04-11T09:05:04Z</time>
      </trkpt>
      <trkpt lat="45.25261" lon="0.31939">
        <ele>83</ele>
        <time>2025-04-11T09:05:07Z</time>
      </trkpt>
      <trkpt lat="45.25298" lon="0.31842">
        <ele>80</ele>
        <time>2025-04-11T09:05:20Z</time>
      </trkpt>
      <trkpt lat="45.25302" lon="0.31824">
        <ele>80</ele>
        <time>2025-04-11T09:05:23Z</time>
      </trkpt>
      <trkpt lat="45.25305" lon="0.318">
        <ele>78</ele>
        <time>2025-04-11T09:05:26Z</time>
      </trkpt>
      <trkpt lat="45.25307" lon="0.31779">
        <ele>77</ele>
        <time>2025-04-11T09:05:29Z</time>
      </trkpt>
      <trkpt lat="45.25305" lon="0.31744">
        <ele>76</ele>
        <time>2025-04-11T09:05:33Z</time>
      </trkpt>
      <trkpt lat="45.25297" lon="0.31669">
        <ele>75</ele>
        <time>2025-04-11T09:05:42Z</time>
      </trkpt>
      <trkpt lat="45.25294" lon="0.31621">
        <ele>70</ele>
        <time>2025-04-11T09:05:48Z</time>
      </trkpt>
      <trkpt lat="45.25297" lon="0.31524">
        <ele>65</ele>
        <time>2025-04-11T09:06:01Z</time>
      </trkpt>
      <trkpt lat="45.25296" lon="0.31469">
        <ele>64</ele>
        <time>2025-04-11T09:06:08Z</time>
      </trkpt>
      <trkpt lat="45.25281" lon="0.31292">
        <ele>68</ele>
        <time>2025-04-11T09:06:30Z</time>
      </trkpt>
      <trkpt lat="45.25282" lon="0.31265">
        <ele>70</ele>
        <time>2025-04-11T09:06:33Z</time>
      </trkpt>
      <trkpt lat="45.25289" lon="0.31231">
        <ele>71</ele>
        <time>2025-04-11T09:06:38Z</time>
      </trkpt>
      <trkpt lat="45.253" lon="0.31204">
        <ele>73</ele>
        <time>2025-04-11T09:06:42Z</time>
      </trkpt>
      <trkpt lat="45.25338" lon="0.31129">
        <ele>74</ele>
        <time>2025-04-11T09:06:53Z</time>
      </trkpt>
      <trkpt lat="45.25652" lon="0.30573">
        <ele>67</ele>
        <time>2025-04-11T09:08:22Z</time>
      </trkpt>
      <trkpt lat="45.25676" lon="0.30526">
        <ele>68</ele>
        <time>2025-04-11T09:08:30Z</time>
      </trkpt>
      <trkpt lat="45.25792" lon="0.30277">
        <ele>67</ele>
        <time>2025-04-11T09:09:07Z</time>
      </trkpt>
      <trkpt lat="45.25805" lon="0.30244">
        <ele>67</ele>
        <time>2025-04-11T09:09:12Z</time>
      </trkpt>
      <trkpt lat="45.25834" lon="0.30158">
        <ele>66</ele>
        <time>2025-04-11T09:09:24Z</time>
      </trkpt>
      <trkpt lat="45.25862" lon="0.30093">
        <ele>67</ele>
        <time>2025-04-11T09:09:33Z</time>
      </trkpt>
      <trkpt lat="45.25875" lon="0.30058">
        <ele>67</ele>
        <time>2025-04-11T09:09:38Z</time>
      </trkpt>
      <trkpt lat="45.25885" lon="0.3002">
        <ele>67</ele>
        <time>2025-04-11T09:09:43Z</time>
      </trkpt>
      <trkpt lat="45.25938" lon="0.29746">
        <ele>66</ele>
        <time>2025-04-11T09:10:19Z</time>
      </trkpt>
      <trkpt lat="45.25942" lon="0.29721">
        <ele>66</ele>
        <time>2025-04-11T09:10:22Z</time>
      </trkpt>
      <trkpt lat="45.25949" lon="0.29633">
        <ele>69</ele>
        <time>2025-04-11T09:10:33Z</time>
      </trkpt>
      <trkpt lat="45.25958" lon="0.29581">
        <ele>72</ele>
        <time>2025-04-11T09:10:40Z</time>
      </trkpt>
      <trkpt lat="45.26082" lon="0.2914">
        <ele>74</ele>
        <time>2025-04-11T09:11:39Z</time>
      </trkpt>
      <trkpt lat="45.26096" lon="0.29106">
        <ele>72</ele>
        <time>2025-04-11T09:11:44Z</time>
      </trkpt>
      <trkpt lat="45.26128" lon="0.29038">
        <ele>68</ele>
        <time>2025-04-11T09:11:55Z</time>
      </trkpt>
      <trkpt lat="45.26132" lon="0.29021">
        <ele>67</ele>
        <time>2025-04-11T09:11:57Z</time>
      </trkpt>
      <trkpt lat="45.26135" lon="0.28991">
        <ele>66</ele>
        <time>2025-04-11T09:12:01Z</time>
      </trkpt>
      <trkpt lat="45.26131" lon="0.28959">
        <ele>66</ele>
        <time>2025-04-11T09:12:05Z</time>
      </trkpt>
      <trkpt lat="45.26089" lon="0.28772">
        <ele>67</ele>
        <time>2025-04-11T09:12:29Z</time>
      </trkpt>
      <trkpt lat="45.26077" lon="0.28705">
        <ele>66</ele>
        <time>2025-04-11T09:12:38Z</time>
      </trkpt>
      <trkpt lat="45.26039" lon="0.28479">
        <ele>64</ele>
        <time>2025-04-11T09:13:07Z</time>
      </trkpt>
      <trkpt lat="45.26037" lon="0.28455">
        <ele>64</ele>
        <time>2025-04-11T09:13:10Z</time>
      </trkpt>
      <trkpt lat="45.26038" lon="0.28435">
        <ele>63</ele>
        <time>2025-04-11T09:13:13Z</time>
      </trkpt>
      <trkpt lat="45.26041" lon="0.28418">
        <ele>63</ele>
        <time>2025-04-11T09:13:15Z</time>
      </trkpt>
      <trkpt lat="45.26052" lon="0.28386">
        <ele>63</ele>
        <time>2025-04-11T09:13:19Z</time>
      </trkpt>
      <trkpt lat="45.26177" lon="0.28164">
        <ele>60</ele>
        <time>2025-04-11T09:13:55Z</time>
      </trkpt>
      <trkpt lat="45.26191" lon="0.28134">
        <ele>60</ele>
        <time>2025-04-11T09:13:59Z</time>
      </trkpt>
      <trkpt lat="45.26317" lon="0.27798">
        <ele>64</ele>
        <time>2025-04-11T09:14:47Z</time>
      </trkpt>
      <trkpt lat="45.26344" lon="0.27732">
        <ele>62</ele>
        <time>2025-04-11T09:14:57Z</time>
      </trkpt>
      <trkpt lat="45.26357" lon="0.27709">
        <ele>63</ele>
        <time>2025-04-11T09:15:00Z</time>
      </trkpt>
      <trkpt lat="45.26437" lon="0.27586">
        <ele>66</ele>
        <time>2025-04-11T09:15:21Z</time>
      </trkpt>
      <trkpt lat="45.26449" lon="0.27562">
        <ele>66</ele>
        <time>2025-04-11T09:15:25Z</time>
      </trkpt>
      <trkpt lat="45.26465" lon="0.27521">
        <ele>68</ele>
        <time>2025-04-11T09:15:31Z</time>
      </trkpt>
      <trkpt lat="45.26542" lon="0.27204">
        <ele>70</ele>
        <time>2025-04-11T09:16:13Z</time>
      </trkpt>
      <trkpt lat="45.26553" lon="0.27169">
        <ele>71</ele>
        <time>2025-04-11T09:16:18Z</time>
      </trkpt>
      <trkpt lat="45.26571" lon="0.27118">
        <ele>71</ele>
        <time>2025-04-11T09:16:25Z</time>
      </trkpt>
      <trkpt lat="45.26591" lon="0.27074">
        <ele>72</ele>
        <time>2025-04-11T09:16:31Z</time>
      </trkpt>
      <trkpt lat="45.26781" lon="0.26754">
        <ele>76</ele>
        <time>2025-04-11T09:17:24Z</time>
      </trkpt>
      <trkpt lat="45.26806" lon="0.26699">
        <ele>76</ele>
        <time>2025-04-11T09:17:32Z</time>
      </trkpt>
      <trkpt lat="45.26849" lon="0.26563">
        <ele>75</ele>
        <time>2025-04-11T09:17:51Z</time>
      </trkpt>
      <trkpt lat="45.2686" lon="0.26518">
        <ele>74</ele>
        <time>2025-04-11T09:17:57Z</time>
      </trkpt>
      <trkpt lat="45.26881" lon="0.26414">
        <ele>72</ele>
        <time>2025-04-11T09:18:10Z</time>
      </trkpt>
      <trkpt lat="45.26889" lon="0.26388">
        <ele>72</ele>
        <time>2025-04-11T09:18:14Z</time>
      </trkpt>
      <trkpt lat="45.26924" lon="0.26296">
        <ele>75</ele>
        <time>2025-04-11T09:18:27Z</time>
      </trkpt>
      <trkpt lat="45.26942" lon="0.26237">
        <ele>77</ele>
        <time>2025-04-11T09:18:35Z</time>
      </trkpt>
      <trkpt lat="45.26947" lon="0.26213">
        <ele>76</ele>
        <time>2025-04-11T09:18:38Z</time>
      </trkpt>
      <trkpt lat="45.2695" lon="0.26188">
        <ele>75</ele>
        <time>2025-04-11T09:18:41Z</time>
      </trkpt>
      <trkpt lat="45.26952" lon="0.26079">
        <ele>75</ele>
        <time>2025-04-11T09:18:55Z</time>
      </trkpt>
      <trkpt lat="45.2696" lon="0.26032">
        <ele>77</ele>
        <time>2025-04-11T09:19:01Z</time>
      </trkpt>
      <trkpt lat="45.26967" lon="0.26005">
        <ele>77</ele>
        <time>2025-04-11T09:19:04Z</time>
      </trkpt>
      <trkpt lat="45.26976" lon="0.25981">
        <ele>78</ele>
        <time>2025-04-11T09:19:08Z</time>
      </trkpt>
      <trkpt lat="45.26987" lon="0.25958">
        <ele>79</ele>
        <time>2025-04-11T09:19:11Z</time>
      </trkpt>
      <trkpt lat="45.27086" lon="0.25825">
        <ele>80</ele>
        <time>2025-04-11T09:19:36Z</time>
      </trkpt>
      <trkpt lat="45.27101" lon="0.25798">
        <ele>80</ele>
        <time>2025-04-11T09:19:40Z</time>
      </trkpt>
      <trkpt lat="45.27105" lon="0.25788">
        <ele>80</ele>
        <time>2025-04-11T09:19:41Z</time>
      </trkpt>
      <trkpt lat="45.27107" lon="0.25775">
        <ele>80</ele>
        <time>2025-04-11T09:19:43Z</time>
      </trkpt>
      <trkpt lat="45.27112" lon="0.25724">
        <ele>80</ele>
        <time>2025-04-11T09:19:49Z</time>
      </trkpt>
      <trkpt lat="45.27117" lon="0.25707">
        <ele>80</ele>
        <time>2025-04-11T09:19:52Z</time>
      </trkpt>
      <trkpt lat="45.27136" lon="0.25664">
        <ele>80</ele>
        <time>2025-04-11T09:19:58Z</time>
      </trkpt>
      <trkpt lat="45.27073" lon="0.25586">
        <ele>80</ele>
        <time>2025-04-11T09:20:13Z</time>
      </trkpt>
      <trkpt lat="45.27034" lon="0.25535">
        <ele>80</ele>
        <time>2025-04-11T09:20:22Z</time>
      </trkpt>
      <trkpt lat="45.27024" lon="0.25527">
        <ele>81</ele>
        <time>2025-04-11T09:20:24Z</time>
      </trkpt>
      <trkpt lat="45.27014" lon="0.25523">
        <ele>81</ele>
        <time>2025-04-11T09:20:26Z</time>
      </trkpt>
      <trkpt lat="45.26892" lon="0.25539">
        <ele>81</ele>
        <time>2025-04-11T09:20:48Z</time>
      </trkpt>
      <trkpt lat="45.26863" lon="0.25549">
        <ele>81</ele>
        <time>2025-04-11T09:20:53Z</time>
      </trkpt>
      <trkpt lat="45.26573" lon="0.25724">
        <ele>92</ele>
        <time>2025-04-11T09:21:49Z</time>
      </trkpt>
      <trkpt lat="45.2644" lon="0.25809">
        <ele>90</ele>
        <time>2025-04-11T09:22:15Z</time>
      </trkpt>
      <trkpt lat="45.26419" lon="0.25812">
        <ele>90</ele>
        <time>2025-04-11T09:22:19Z</time>
      </trkpt>
      <trkpt lat="45.26401" lon="0.25811">
        <ele>90</ele>
        <time>2025-04-11T09:22:22Z</time>
      </trkpt>
      <trkpt lat="45.26386" lon="0.25807">
        <ele>90</ele>
        <time>2025-04-11T09:22:25Z</time>
      </trkpt>
      <trkpt lat="45.26361" lon="0.25787">
        <ele>90</ele>
        <time>2025-04-11T09:22:30Z</time>
      </trkpt>
      <trkpt lat="45.26302" lon="0.25721">
        <ele>84</ele>
        <time>2025-04-11T09:22:44Z</time>
      </trkpt>
      <trkpt lat="45.2629" lon="0.257">
        <ele>83</ele>
        <time>2025-04-11T09:22:47Z</time>
      </trkpt>
      <trkpt lat="45.2623" lon="0.25582">
        <ele>77</ele>
        <time>2025-04-11T09:23:05Z</time>
      </trkpt>
      <trkpt lat="45.26218" lon="0.2552">
        <ele>75</ele>
        <time>2025-04-11T09:23:13Z</time>
      </trkpt>
      <trkpt lat="45.26206" lon="0.25491">
        <ele>74</ele>
        <time>2025-04-11T09:23:17Z</time>
      </trkpt>
      <trkpt lat="45.26187" lon="0.25464">
        <ele>74</ele>
        <time>2025-04-11T09:23:22Z</time>
      </trkpt>
      <trkpt lat="45.26186" lon="0.25463">
        <ele>74</ele>
        <time>2025-04-11T09:23:22Z</time>
      </trkpt>
      <trkpt lat="45.26152" lon="0.25429">
        <ele>75</ele>
        <time>2025-04-11T09:23:30Z</time>
      </trkpt>
      <trkpt lat="45.26076" lon="0.2535">
        <ele>77</ele>
        <time>2025-04-11T09:23:47Z</time>
      </trkpt>
      <trkpt lat="45.2606" lon="0.25342">
        <ele>78</ele>
        <time>2025-04-11T09:23:50Z</time>
      </trkpt>
      <trkpt lat="45.25976" lon="0.25339">
        <ele>83</ele>
        <time>2025-04-11T09:24:05Z</time>
      </trkpt>
      <trkpt lat="45.25962" lon="0.25331">
        <ele>84</ele>
        <time>2025-04-11T09:24:07Z</time>
      </trkpt>
      <trkpt lat="45.25899" lon="0.25279">
        <ele>84</ele>
        <time>2025-04-11T09:24:20Z</time>
      </trkpt>
      <trkpt lat="45.25872" lon="0.25268">
        <ele>85</ele>
        <time>2025-04-11T09:24:25Z</time>
      </trkpt>
      <trkpt lat="45.25849" lon="0.25262">
        <ele>87</ele>
        <time>2025-04-11T09:24:29Z</time>
      </trkpt>
      <trkpt lat="45.25762" lon="0.25278">
        <ele>89</ele>
        <time>2025-04-11T09:24:45Z</time>
      </trkpt>
      <trkpt lat="45.25669" lon="0.25284">
        <ele>88</ele>
        <time>2025-04-11T09:25:02Z</time>
      </trkpt>
      <trkpt lat="45.25653" lon="0.25284">
        <ele>88</ele>
        <time>2025-04-11T09:25:04Z</time>
      </trkpt>
      <trkpt lat="45.25604" lon="0.25276">
        <ele>89</ele>
        <time>2025-04-11T09:25:13Z</time>
      </trkpt>
      <trkpt lat="45.25589" lon="0.2527">
        <ele>89</ele>
        <time>2025-04-11T09:25:16Z</time>
      </trkpt>
      <trkpt lat="45.25569" lon="0.25259">
        <ele>89</ele>
        <time>2025-04-11T09:25:20Z</time>
      </trkpt>
      <trkpt lat="45.25502" lon="0.25209">
        <ele>89</ele>
        <time>2025-04-11T09:25:33Z</time>
      </trkpt>
      <trkpt lat="45.25491" lon="0.25204">
        <ele>89</ele>
        <time>2025-04-11T09:25:35Z</time>
      </trkpt>
      <trkpt lat="45.25469" lon="0.25201">
        <ele>88</ele>
        <time>2025-04-11T09:25:39Z</time>
      </trkpt>
      <trkpt lat="45.25338" lon="0.25211">
        <ele>87</ele>
        <time>2025-04-11T09:26:03Z</time>
      </trkpt>
      <trkpt lat="45.25325" lon="0.25219">
        <ele>88</ele>
        <time>2025-04-11T09:26:05Z</time>
      </trkpt>
      <trkpt lat="45.25304" lon="0.25253">
        <ele>89</ele>
        <time>2025-04-11T09:26:11Z</time>
      </trkpt>
      <trkpt lat="45.25299" lon="0.25257">
        <ele>89</ele>
        <time>2025-04-11T09:26:12Z</time>
      </trkpt>
      <trkpt lat="45.25292" lon="0.2526">
        <ele>90</ele>
        <time>2025-04-11T09:26:13Z</time>
      </trkpt>
      <trkpt lat="45.25255" lon="0.25264">
        <ele>91</ele>
        <time>2025-04-11T09:26:20Z</time>
      </trkpt>
      <trkpt lat="45.25228" lon="0.25255">
        <ele>92</ele>
        <time>2025-04-11T09:26:25Z</time>
      </trkpt>
      <trkpt lat="45.25214" lon="0.25255">
        <ele>92</ele>
        <time>2025-04-11T09:26:27Z</time>
      </trkpt>
      <trkpt lat="45.25067" lon="0.25288">
        <ele>95</ele>
        <time>2025-04-11T09:26:54Z</time>
      </trkpt>
      <trkpt lat="45.25043" lon="0.2529">
        <ele>95</ele>
        <time>2025-04-11T09:26:58Z</time>
      </trkpt>
      <trkpt lat="45.25023" lon="0.25288">
        <ele>96</ele>
        <time>2025-04-11T09:27:01Z</time>
      </trkpt>
      <trkpt lat="45.24995" lon="0.25281">
        <ele>96</ele>
        <time>2025-04-11T09:27:06Z</time>
      </trkpt>
      <trkpt lat="45.24622" lon="0.25158">
        <ele>100</ele>
        <time>2025-04-11T09:28:15Z</time>
      </trkpt>
      <trkpt lat="45.24588" lon="0.25143">
        <ele>100</ele>
        <time>2025-04-11T09:28:21Z</time>
      </trkpt>
      <trkpt lat="45.24571" lon="0.25128">
        <ele>100</ele>
        <time>2025-04-11T09:28:25Z</time>
      </trkpt>
      <trkpt lat="45.24417" lon="0.24928">
        <ele>104</ele>
        <time>2025-04-11T09:29:02Z</time>
      </trkpt>
      <trkpt lat="45.24402" lon="0.24905">
        <ele>104</ele>
        <time>2025-04-11T09:29:06Z</time>
      </trkpt>
      <trkpt lat="45.24385" lon="0.24873">
        <ele>104</ele>
        <time>2025-04-11T09:29:11Z</time>
      </trkpt>
      <trkpt lat="45.24194" lon="0.24341">
        <ele>95</ele>
        <time>2025-04-11T09:30:25Z</time>
      </trkpt>
      <trkpt lat="45.24183" lon="0.24335">
        <ele>95</ele>
        <time>2025-04-11T09:30:28Z</time>
      </trkpt>
      <trkpt lat="45.24163" lon="0.24328">
        <ele>95</ele>
        <time>2025-04-11T09:30:31Z</time>
      </trkpt>
      <trkpt lat="45.23985" lon="0.24346">
        <ele>98</ele>
        <time>2025-04-11T09:31:03Z</time>
      </trkpt>
      <trkpt lat="45.23981" lon="0.24143">
        <ele>93</ele>
        <time>2025-04-11T09:31:28Z</time>
      </trkpt>
      <trkpt lat="45.23975" lon="0.23773">
        <ele>83</ele>
        <time>2025-04-11T09:32:15Z</time>
      </trkpt>
      <trkpt lat="45.23976" lon="0.23747">
        <ele>83</ele>
        <time>2025-04-11T09:32:18Z</time>
      </trkpt>
      <trkpt lat="45.23981" lon="0.23718">
        <ele>83</ele>
        <time>2025-04-11T09:32:22Z</time>
      </trkpt>
      <trkpt lat="45.2403" lon="0.23533">
        <ele>83</ele>
        <time>2025-04-11T09:32:46Z</time>
      </trkpt>
      <trkpt lat="45.24036" lon="0.23493">
        <ele>83</ele>
        <time>2025-04-11T09:32:52Z</time>
      </trkpt>
      <trkpt lat="45.24035" lon="0.2336">
        <ele>80</ele>
        <time>2025-04-11T09:33:08Z</time>
      </trkpt>
      <trkpt lat="45.24038" lon="0.23323">
        <ele>79</ele>
        <time>2025-04-11T09:33:13Z</time>
      </trkpt>
      <trkpt lat="45.24047" lon="0.23255">
        <ele>76</ele>
        <time>2025-04-11T09:33:22Z</time>
      </trkpt>
      <trkpt lat="45.24101" lon="0.22939">
        <ele>74</ele>
        <time>2025-04-11T09:34:02Z</time>
      </trkpt>
      <trkpt lat="45.24104" lon="0.22898">
        <ele>75</ele>
        <time>2025-04-11T09:34:08Z</time>
      </trkpt>
      <trkpt lat="45.2411" lon="0.22767">
        <ele>74</ele>
        <time>2025-04-11T09:34:24Z</time>
      </trkpt>
      <trkpt lat="45.24112" lon="0.22731">
        <ele>73</ele>
        <time>2025-04-11T09:34:28Z</time>
      </trkpt>
      <trkpt lat="45.24118" lon="0.22701">
        <ele>73</ele>
        <time>2025-04-11T09:34:32Z</time>
      </trkpt>
      <trkpt lat="45.24126" lon="0.22678">
        <ele>72</ele>
        <time>2025-04-11T09:34:36Z</time>
      </trkpt>
      <trkpt lat="45.24136" lon="0.22658">
        <ele>72</ele>
        <time>2025-04-11T09:34:39Z</time>
      </trkpt>
      <trkpt lat="45.2415" lon="0.22637">
        <ele>71</ele>
        <time>2025-04-11T09:34:42Z</time>
      </trkpt>
      <trkpt lat="45.24271" lon="0.22471">
        <ele>69</ele>
        <time>2025-04-11T09:35:12Z</time>
      </trkpt>
      <trkpt lat="45.24307" lon="0.2242">
        <ele>68</ele>
        <time>2025-04-11T09:35:21Z</time>
      </trkpt>
      <trkpt lat="45.24339" lon="0.2237">
        <ele>68</ele>
        <time>2025-04-11T09:35:30Z</time>
      </trkpt>
      <trkpt lat="45.24603" lon="0.21928">
        <ele>65</ele>
        <time>2025-04-11T09:36:42Z</time>
      </trkpt>
      <trkpt lat="45.24618" lon="0.21907">
        <ele>65</ele>
        <time>2025-04-11T09:36:46Z</time>
      </trkpt>
      <trkpt lat="45.24632" lon="0.2189">
        <ele>65</ele>
        <time>2025-04-11T09:36:49Z</time>
      </trkpt>
      <trkpt lat="45.24666" lon="0.21859">
        <ele>65</ele>
        <time>2025-04-11T09:36:57Z</time>
      </trkpt>
      <trkpt lat="45.24878" lon="0.21685">
        <ele>63</ele>
        <time>2025-04-11T09:37:40Z</time>
      </trkpt>
      <trkpt lat="45.24906" lon="0.2165">
        <ele>63</ele>
        <time>2025-04-11T09:37:47Z</time>
      </trkpt>
      <trkpt lat="45.24919" lon="0.21626">
        <ele>63</ele>
        <time>2025-04-11T09:37:51Z</time>
      </trkpt>
      <trkpt lat="45.24936" lon="0.21585">
        <ele>63</ele>
        <time>2025-04-11T09:37:57Z</time>
      </trkpt>
      <trkpt lat="45.24952" lon="0.21538">
        <ele>63</ele>
        <time>2025-04-11T09:38:03Z</time>
      </trkpt>
      <trkpt lat="45.24999" lon="0.21387">
        <ele>62</ele>
        <time>2025-04-11T09:38:24Z</time>
      </trkpt>
      <trkpt lat="45.25012" lon="0.21356">
        <ele>62</ele>
        <time>2025-04-11T09:38:28Z</time>
      </trkpt>
      <trkpt lat="45.25025" lon="0.21332">
        <ele>62</ele>
        <time>2025-04-11T09:38:32Z</time>
      </trkpt>
      <trkpt lat="45.25302" lon="0.20859">
        <ele>76</ele>
        <time>2025-04-11T09:39:49Z</time>
      </trkpt>
      <trkpt lat="45.25328" lon="0.20807">
        <ele>78</ele>
        <time>2025-04-11T09:39:57Z</time>
      </trkpt>
      <trkpt lat="45.25336" lon="0.20785">
        <ele>78</ele>
        <time>2025-04-11T09:40:00Z</time>
      </trkpt>
      <trkpt lat="45.25339" lon="0.20765">
        <ele>77</ele>
        <time>2025-04-11T09:40:03Z</time>
      </trkpt>
      <trkpt lat="45.25341" lon="0.20745">
        <ele>77</ele>
        <time>2025-04-11T09:40:05Z</time>
      </trkpt>
      <trkpt lat="45.25341" lon="0.20712">
        <ele>77</ele>
        <time>2025-04-11T09:40:09Z</time>
      </trkpt>
      <trkpt lat="45.25318" lon="0.20379">
        <ele>70</ele>
        <time>2025-04-11T09:40:51Z</time>
      </trkpt>
      <trkpt lat="45.25317" lon="0.20315">
        <ele>71</ele>
        <time>2025-04-11T09:40:59Z</time>
      </trkpt>
      <trkpt lat="45.25321" lon="0.20283">
        <ele>71</ele>
        <time>2025-04-11T09:41:03Z</time>
      </trkpt>
      <trkpt lat="45.25328" lon="0.20251">
        <ele>71</ele>
        <time>2025-04-11T09:41:08Z</time>
      </trkpt>
      <trkpt lat="45.25344" lon="0.20205">
        <ele>71</ele>
        <time>2025-04-11T09:41:14Z</time>
      </trkpt>
      <trkpt lat="45.25366" lon="0.20157">
        <ele>71</ele>
        <time>2025-04-11T09:41:21Z</time>
      </trkpt>
      <trkpt lat="45.2538" lon="0.20137">
        <ele>71</ele>
        <time>2025-04-11T09:41:25Z</time>
      </trkpt>
      <trkpt lat="45.25396" lon="0.20117">
        <ele>71</ele>
        <time>2025-04-11T09:41:29Z</time>
      </trkpt>
      <trkpt lat="45.2547" lon="0.20042">
        <ele>70</ele>
        <time>2025-04-11T09:41:45Z</time>
      </trkpt>
      <trkpt lat="45.2548" lon="0.20022">
        <ele>70</ele>
        <time>2025-04-11T09:41:48Z</time>
      </trkpt>
      <trkpt lat="45.25503" lon="0.20005">
        <ele>70</ele>
        <time>2025-04-11T09:41:52Z</time>
      </trkpt>
      <trkpt lat="45.25552" lon="0.19961">
        <ele>69</ele>
        <time>2025-04-11T09:42:03Z</time>
      </trkpt>
      <trkpt lat="45.25688" lon="0.1982">
        <ele>65</ele>
        <time>2025-04-11T09:42:33Z</time>
      </trkpt>
      <trkpt lat="45.25785" lon="0.19702">
        <ele>55</ele>
        <time>2025-04-11T09:42:55Z</time>
      </trkpt>
      <trkpt lat="45.25851" lon="0.19593">
        <ele>51</ele>
        <time>2025-04-11T09:43:13Z</time>
      </trkpt>
      <trkpt lat="45.25943" lon="0.19457">
        <ele>49</ele>
        <time>2025-04-11T09:43:37Z</time>
      </trkpt>
      <trkpt lat="45.2602" lon="0.19349">
        <ele>49</ele>
        <time>2025-04-11T09:43:56Z</time>
      </trkpt>
      <trkpt lat="45.26035" lon="0.19333">
        <ele>49</ele>
        <time>2025-04-11T09:44:00Z</time>
      </trkpt>
      <trkpt lat="45.26046" lon="0.19319">
        <ele>49</ele>
        <time>2025-04-11T09:44:02Z</time>
      </trkpt>
      <trkpt lat="45.26113" lon="0.19207">
        <ele>48</ele>
        <time>2025-04-11T09:44:21Z</time>
      </trkpt>
      <trkpt lat="45.26125" lon="0.1918">
        <ele>48</ele>
        <time>2025-04-11T09:44:25Z</time>
      </trkpt>
      <trkpt lat="45.26188" lon="0.18993">
        <ele>48</ele>
        <time>2025-04-11T09:44:51Z</time>
      </trkpt>
      <trkpt lat="45.26201" lon="0.18967">
        <ele>48</ele>
        <time>2025-04-11T09:44:55Z</time>
      </trkpt>
      <trkpt lat="45.26229" lon="0.18915">
        <ele>47</ele>
        <time>2025-04-11T09:45:03Z</time>
      </trkpt>
      <trkpt lat="45.26292" lon="0.18816">
        <ele>44</ele>
        <time>2025-04-11T09:45:20Z</time>
      </trkpt>
      <trkpt lat="45.26402" lon="0.18659">
        <ele>45</ele>
        <time>2025-04-11T09:45:47Z</time>
      </trkpt>
      <trkpt lat="45.26801" lon="0.18161">
        <ele>45</ele>
        <time>2025-04-11T09:47:22Z</time>
      </trkpt>
      <trkpt lat="45.26829" lon="0.18115">
        <ele>45</ele>
        <time>2025-04-11T09:47:29Z</time>
      </trkpt>
      <trkpt lat="45.26841" lon="0.18085">
        <ele>45</ele>
        <time>2025-04-11T09:47:34Z</time>
      </trkpt>
      <trkpt lat="45.26863" lon="0.18005">
        <ele>44</ele>
        <time>2025-04-11T09:47:44Z</time>
      </trkpt>
      <trkpt lat="45.26874" lon="0.17963">
        <ele>44</ele>
        <time>2025-04-11T09:47:50Z</time>
      </trkpt>
      <trkpt lat="45.26937" lon="0.17723">
        <ele>44</ele>
        <time>2025-04-11T09:48:22Z</time>
      </trkpt>
      <trkpt lat="45.26941" lon="0.17707">
        <ele>44</ele>
        <time>2025-04-11T09:48:24Z</time>
      </trkpt>
      <trkpt lat="45.2699" lon="0.17519">
        <ele>46</ele>
        <time>2025-04-11T09:48:49Z</time>
      </trkpt>
      <trkpt lat="45.27013" lon="0.17428">
        <ele>47</ele>
        <time>2025-04-11T09:49:02Z</time>
      </trkpt>
      <trkpt lat="45.27048" lon="0.17292">
        <ele>47</ele>
        <time>2025-04-11T09:49:20Z</time>
      </trkpt>
      <trkpt lat="45.27056" lon="0.17254">
        <ele>47</ele>
        <time>2025-04-11T09:49:25Z</time>
      </trkpt>
      <trkpt lat="45.2706" lon="0.17216">
        <ele>48</ele>
        <time>2025-04-11T09:49:29Z</time>
      </trkpt>
      <trkpt lat="45.27062" lon="0.1716">
        <ele>49</ele>
        <time>2025-04-11T09:49:36Z</time>
      </trkpt>
      <trkpt lat="45.27075" lon="0.17157">
        <ele>50</ele>
        <time>2025-04-11T09:49:39Z</time>
      </trkpt>
      <trkpt lat="45.27189" lon="0.17196">
        <ele>54</ele>
        <time>2025-04-11T09:50:00Z</time>
      </trkpt>
      <trkpt lat="45.27389" lon="0.17258">
        <ele>59</ele>
        <time>2025-04-11T09:50:36Z</time>
      </trkpt>
      <trkpt lat="45.27415" lon="0.17274">
        <ele>59</ele>
        <time>2025-04-11T09:50:41Z</time>
      </trkpt>
      <trkpt lat="45.27435" lon="0.17291">
        <ele>58</ele>
        <time>2025-04-11T09:50:45Z</time>
      </trkpt>
      <trkpt lat="45.27462" lon="0.1732">
        <ele>56</ele>
        <time>2025-04-11T09:50:51Z</time>
      </trkpt>
      <trkpt lat="45.2748" lon="0.17342">
        <ele>55</ele>
        <time>2025-04-11T09:50:56Z</time>
      </trkpt>
      <trkpt lat="45.27493" lon="0.17366">
        <ele>54</ele>
        <time>2025-04-11T09:50:59Z</time>
      </trkpt>
      <trkpt lat="45.27529" lon="0.17446">
        <ele>52</ele>
        <time>2025-04-11T09:51:11Z</time>
      </trkpt>
      <trkpt lat="45.27677" lon="0.17814">
        <ele>50</ele>
        <time>2025-04-11T09:52:04Z</time>
      </trkpt>
      <trkpt lat="45.2776" lon="0.18029">
        <ele>48</ele>
        <time>2025-04-11T09:52:35Z</time>
      </trkpt>
      <trkpt lat="45.2777" lon="0.18062">
        <ele>49</ele>
        <time>2025-04-11T09:52:39Z</time>
      </trkpt>
      <trkpt lat="45.27777" lon="0.1809">
        <ele>50</ele>
        <time>2025-04-11T09:52:43Z</time>
      </trkpt>
      <trkpt lat="45.27783" lon="0.18133">
        <ele>52</ele>
        <time>2025-04-11T09:52:49Z</time>
      </trkpt>
      <trkpt lat="45.27783" lon="0.18161">
        <ele>53</ele>
        <time>2025-04-11T09:52:52Z</time>
      </trkpt>
      <trkpt lat="45.27778" lon="0.18205">
        <ele>53</ele>
        <time>2025-04-11T09:52:58Z</time>
      </trkpt>
      <trkpt lat="45.27748" lon="0.18372">
        <ele>50</ele>
        <time>2025-04-11T09:53:19Z</time>
      </trkpt>
      <trkpt lat="45.27736" lon="0.18425">
        <ele>50</ele>
        <time>2025-04-11T09:53:26Z</time>
      </trkpt>
      <trkpt lat="45.27736" lon="0.1847">
        <ele>51</ele>
        <time>2025-04-11T09:53:32Z</time>
      </trkpt>
      <trkpt lat="45.27679" lon="0.18712">
        <ele>48</ele>
        <time>2025-04-11T09:54:04Z</time>
      </trkpt>
      <trkpt lat="45.27673" lon="0.18744">
        <ele>49</ele>
        <time>2025-04-11T09:54:08Z</time>
      </trkpt>
      <trkpt lat="45.27671" lon="0.18762">
        <ele>49</ele>
        <time>2025-04-11T09:54:10Z</time>
      </trkpt>
      <trkpt lat="45.27672" lon="0.1878">
        <ele>49</ele>
        <time>2025-04-11T09:54:13Z</time>
      </trkpt>
      <trkpt lat="45.2768" lon="0.18814">
        <ele>50</ele>
        <time>2025-04-11T09:54:17Z</time>
      </trkpt>
      <trkpt lat="45.27746" lon="0.18989">
        <ele>47</ele>
        <time>2025-04-11T09:54:42Z</time>
      </trkpt>
      <trkpt lat="45.27743" lon="0.18992">
        <ele>47</ele>
        <time>2025-04-11T09:54:43Z</time>
      </trkpt>
      <trkpt lat="45.27737" lon="0.19005">
        <ele>47</ele>
        <time>2025-04-11T09:54:45Z</time>
      </trkpt>
      <trkpt lat="45.27732" lon="0.19026">
        <ele>49</ele>
        <time>2025-04-11T09:54:47Z</time>
      </trkpt>
      <trkpt lat="45.27722" lon="0.1905">
        <ele>50</ele>
        <time>2025-04-11T09:54:51Z</time>
      </trkpt>
      <trkpt lat="45.27692" lon="0.19107">
        <ele>52</ele>
        <time>2025-04-11T09:55:00Z</time>
      </trkpt>
      <trkpt lat="45.2765" lon="0.19154">
        <ele>54</ele>
        <time>2025-04-11T09:55:09Z</time>
      </trkpt>
      <trkpt lat="45.27637" lon="0.19184">
        <ele>56</ele>
        <time>2025-04-11T09:55:14Z</time>
      </trkpt>
      <trkpt lat="45.27633" lon="0.19244">
        <ele>58</ele>
        <time>2025-04-11T09:55:21Z</time>
      </trkpt>
      <trkpt lat="45.27626" lon="0.19266">
        <ele>58</ele>
        <time>2025-04-11T09:55:24Z</time>
      </trkpt>
      <trkpt lat="45.27575" lon="0.1931">
        <ele>56</ele>
        <time>2025-04-11T09:55:35Z</time>
      </trkpt>
      <trkpt lat="45.27555" lon="0.1934">
        <ele>55</ele>
        <time>2025-04-11T09:55:40Z</time>
      </trkpt>
      <trkpt lat="45.27483" lon="0.19432">
        <ele>53</ele>
        <time>2025-04-11T09:55:57Z</time>
      </trkpt>
      <trkpt lat="45.27476" lon="0.1945">
        <ele>53</ele>
        <time>2025-04-11T09:56:00Z</time>
      </trkpt>
      <trkpt lat="45.27472" lon="0.19536">
        <ele>53</ele>
        <time>2025-04-11T09:56:11Z</time>
      </trkpt>
      <trkpt lat="45.27439" lon="0.19656">
        <ele>56</ele>
        <time>2025-04-11T09:56:27Z</time>
      </trkpt>
      <trkpt lat="45.27403" lon="0.19774">
        <ele>54</ele>
        <time>2025-04-11T09:56:43Z</time>
      </trkpt>
      <trkpt lat="45.27379" lon="0.1984">
        <ele>53</ele>
        <time>2025-04-11T09:56:52Z</time>
      </trkpt>
      <trkpt lat="45.27375" lon="0.19871">
        <ele>52</ele>
        <time>2025-04-11T09:56:56Z</time>
      </trkpt>
      <trkpt lat="45.27378" lon="0.19965">
        <ele>53</ele>
        <time>2025-04-11T09:57:08Z</time>
      </trkpt>
      <trkpt lat="45.27373" lon="0.20009">
        <ele>52</ele>
        <time>2025-04-11T09:57:13Z</time>
      </trkpt>
      <trkpt lat="45.27358" lon="0.20076">
        <ele>50</ele>
        <time>2025-04-11T09:57:22Z</time>
      </trkpt>
      <trkpt lat="45.27324" lon="0.202">
        <ele>49</ele>
        <time>2025-04-11T09:57:39Z</time>
      </trkpt>
      <trkpt lat="45.273" lon="0.20273">
        <ele>50</ele>
        <time>2025-04-11T09:57:49Z</time>
      </trkpt>
      <trkpt lat="45.27283" lon="0.20293">
        <ele>50</ele>
        <time>2025-04-11T09:57:53Z</time>
      </trkpt>
      <trkpt lat="45.27236" lon="0.2033">
        <ele>50</ele>
        <time>2025-04-11T09:58:02Z</time>
      </trkpt>
      <trkpt lat="45.27225" lon="0.20343">
        <ele>49</ele>
        <time>2025-04-11T09:58:05Z</time>
      </trkpt>
      <trkpt lat="45.27142" lon="0.20453">
        <ele>48</ele>
        <time>2025-04-11T09:58:25Z</time>
      </trkpt>
      <trkpt lat="45.27111" lon="0.20515">
        <ele>48</ele>
        <time>2025-04-11T09:58:35Z</time>
      </trkpt>
      <trkpt lat="45.27065" lon="0.2057">
        <ele>48</ele>
        <time>2025-04-11T09:58:45Z</time>
      </trkpt>
      <trkpt lat="45.2706" lon="0.20584">
        <ele>49</ele>
        <time>2025-04-11T09:58:47Z</time>
      </trkpt>
      <trkpt lat="45.27106" lon="0.20617">
        <ele>48</ele>
        <time>2025-04-11T09:58:57Z</time>
      </trkpt>
      <trkpt lat="45.27151" lon="0.20651">
        <ele>48</ele>
        <time>2025-04-11T09:59:06Z</time>
      </trkpt>
      <trkpt lat="45.27258" lon="0.20736">
        <ele>48</ele>
        <time>2025-04-11T09:59:27Z</time>
      </trkpt>
      <trkpt lat="45.27293" lon="0.20755">
        <ele>49</ele>
        <time>2025-04-11T09:59:34Z</time>
      </trkpt>
      <trkpt lat="45.27325" lon="0.20764">
        <ele>49</ele>
        <time>2025-04-11T09:59:40Z</time>
      </trkpt>
      <trkpt lat="45.27651" lon="0.20675">
        <ele>52</ele>
        <time>2025-04-11T10:00:39Z</time>
      </trkpt>
      <trkpt lat="45.27745" lon="0.20657">
        <ele>55</ele>
        <time>2025-04-11T10:00:56Z</time>
      </trkpt>
      <trkpt lat="45.27784" lon="0.20665">
        <ele>56</ele>
        <time>2025-04-11T10:01:03Z</time>
      </trkpt>
      <trkpt lat="45.27817" lon="0.20682">
        <ele>56</ele>
        <time>2025-04-11T10:01:09Z</time>
      </trkpt>
      <trkpt lat="45.27847" lon="0.20717">
        <ele>58</ele>
        <time>2025-04-11T10:01:16Z</time>
      </trkpt>
      <trkpt lat="45.27874" lon="0.20761">
        <ele>59</ele>
        <time>2025-04-11T10:01:23Z</time>
      </trkpt>
      <trkpt lat="45.27995" lon="0.20974">
        <ele>56</ele>
        <time>2025-04-11T10:01:58Z</time>
      </trkpt>
      <trkpt lat="45.28019" lon="0.21007">
        <ele>56</ele>
        <time>2025-04-11T10:02:04Z</time>
      </trkpt>
      <trkpt lat="45.28035" lon="0.21017">
        <ele>56</ele>
        <time>2025-04-11T10:02:07Z</time>
      </trkpt>
      <trkpt lat="45.28063" lon="0.21027">
        <ele>57</ele>
        <time>2025-04-11T10:02:12Z</time>
      </trkpt>
      <trkpt lat="45.28232" lon="0.21091">
        <ele>59</ele>
        <time>2025-04-11T10:02:43Z</time>
      </trkpt>
      <trkpt lat="45.285" lon="0.21239">
        <ele>58</ele>
        <time>2025-04-11T10:03:34Z</time>
      </trkpt>
      <trkpt lat="45.28546" lon="0.21274">
        <ele>59</ele>
        <time>2025-04-11T10:03:43Z</time>
      </trkpt>
      <trkpt lat="45.28564" lon="0.2128">
        <ele>59</ele>
        <time>2025-04-11T10:03:47Z</time>
      </trkpt>
      <trkpt lat="45.28587" lon="0.21267">
        <ele>59</ele>
        <time>2025-04-11T10:03:51Z</time>
      </trkpt>
      <trkpt lat="45.28669" lon="0.21277">
        <ele>54</ele>
        <time>2025-04-11T10:04:06Z</time>
      </trkpt>
      <trkpt lat="45.28716" lon="0.21287">
        <ele>54</ele>
        <time>2025-04-11T10:04:14Z</time>
      </trkpt>
      <trkpt lat="45.2872" lon="0.21387">
        <ele>54</ele>
        <time>2025-04-11T10:04:27Z</time>
      </trkpt>
      <trkpt lat="45.28723" lon="0.21414">
        <ele>55</ele>
        <time>2025-04-11T10:04:30Z</time>
      </trkpt>
      <trkpt lat="45.28728" lon="0.21434">
        <ele>54</ele>
        <time>2025-04-11T10:04:33Z</time>
      </trkpt>
      <trkpt lat="45.28738" lon="0.21454">
        <ele>53</ele>
        <time>2025-04-11T10:04:36Z</time>
      </trkpt>
      <trkpt lat="45.2875" lon="0.2147">
        <ele>53</ele>
        <time>2025-04-11T10:04:39Z</time>
      </trkpt>
      <trkpt lat="45.28925" lon="0.21642">
        <ele>54</ele>
        <time>2025-04-11T10:05:17Z</time>
      </trkpt>
      <trkpt lat="45.29076" lon="0.21797">
        <ele>55</ele>
        <time>2025-04-11T10:05:50Z</time>
      </trkpt>
      <trkpt lat="45.29105" lon="0.2183">
        <ele>55</ele>
        <time>2025-04-11T10:05:56Z</time>
      </trkpt>
      <trkpt lat="45.2917" lon="0.2192">
        <ele>55</ele>
        <time>2025-04-11T10:06:13Z</time>
      </trkpt>
      <trkpt lat="45.29255" lon="0.22052">
        <ele>59</ele>
        <time>2025-04-11T10:06:35Z</time>
      </trkpt>
      <trkpt lat="45.29297" lon="0.22127">
        <ele>58</ele>
        <time>2025-04-11T10:06:47Z</time>
      </trkpt>
      <trkpt lat="45.29411" lon="0.22351">
        <ele>56</ele>
        <time>2025-04-11T10:07:22Z</time>
      </trkpt>
      <trkpt lat="45.29465" lon="0.22423">
        <ele>53</ele>
        <time>2025-04-11T10:07:35Z</time>
      </trkpt>
      <trkpt lat="45.29508" lon="0.22472">
        <ele>51</ele>
        <time>2025-04-11T10:07:45Z</time>
      </trkpt>
      <trkpt lat="45.29632" lon="0.22622">
        <ele>49</ele>
        <time>2025-04-11T10:08:13Z</time>
      </trkpt>
      <trkpt lat="45.29645" lon="0.22639">
        <ele>49</ele>
        <time>2025-04-11T10:08:17Z</time>
      </trkpt>
      <trkpt lat="45.29665" lon="0.22663">
        <ele>49</ele>
        <time>2025-04-11T10:08:21Z</time>
      </trkpt>
      <trkpt lat="45.29686" lon="0.2268">
        <ele>49</ele>
        <time>2025-04-11T10:08:26Z</time>
      </trkpt>
      <trkpt lat="45.29705" lon="0.22686">
        <ele>50</ele>
        <time>2025-04-11T10:08:29Z</time>
      </trkpt>
      <trkpt lat="45.29735" lon="0.22684">
        <ele>50</ele>
        <time>2025-04-11T10:08:34Z</time>
      </trkpt>
      <trkpt lat="45.29847" lon="0.22656">
        <ele>51</ele>
        <time>2025-04-11T10:08:55Z</time>
      </trkpt>
      <trkpt lat="45.29865" lon="0.22655">
        <ele>51</ele>
        <time>2025-04-11T10:08:58Z</time>
      </trkpt>
      <trkpt lat="45.29887" lon="0.22661">
        <ele>51</ele>
        <time>2025-04-11T10:09:02Z</time>
      </trkpt>
      <trkpt lat="45.29903" lon="0.22671">
        <ele>52</ele>
        <time>2025-04-11T10:09:05Z</time>
      </trkpt>
      <trkpt lat="45.29913" lon="0.22681">
        <ele>52</ele>
        <time>2025-04-11T10:09:07Z</time>
      </trkpt>
      <trkpt lat="45.29931" lon="0.22705">
        <ele>55</ele>
        <time>2025-04-11T10:09:11Z</time>
      </trkpt>
      <trkpt lat="45.29944" lon="0.22735">
        <ele>57</ele>
        <time>2025-04-11T10:09:16Z</time>
      </trkpt>
      <trkpt lat="45.30007" lon="0.22939">
        <ele>63</ele>
        <time>2025-04-11T10:09:44Z</time>
      </trkpt>
      <trkpt lat="45.30038" lon="0.23015">
        <ele>65</ele>
        <time>2025-04-11T10:09:55Z</time>
      </trkpt>
      <trkpt lat="45.30283" lon="0.23519">
        <ele>82</ele>
        <time>2025-04-11T10:11:11Z</time>
      </trkpt>
      <trkpt lat="45.30299" lon="0.2355">
        <ele>82</ele>
        <time>2025-04-11T10:11:16Z</time>
      </trkpt>
      <trkpt lat="45.30323" lon="0.23587">
        <ele>82</ele>
        <time>2025-04-11T10:11:23Z</time>
      </trkpt>
      <trkpt lat="45.30718" lon="0.24101">
        <ele>94</ele>
        <time>2025-04-11T10:12:58Z</time>
      </trkpt>
      <trkpt lat="45.30736" lon="0.24129">
        <ele>96</ele>
        <time>2025-04-11T10:13:03Z</time>
      </trkpt>
      <trkpt lat="45.30757" lon="0.24166">
        <ele>98</ele>
        <time>2025-04-11T10:13:09Z</time>
      </trkpt>
      <trkpt lat="45.30985" lon="0.24596">
        <ele>104</ele>
        <time>2025-04-11T10:14:16Z</time>
      </trkpt>
      <trkpt lat="45.31002" lon="0.24623">
        <ele>106</ele>
        <time>2025-04-11T10:14:20Z</time>
      </trkpt>
      <trkpt lat="45.31037" lon="0.24668">
        <ele>107</ele>
        <time>2025-04-11T10:14:29Z</time>
      </trkpt>
      <trkpt lat="45.31292" lon="0.25004">
        <ele>107</ele>
        <time>2025-04-11T10:15:31Z</time>
      </trkpt>
      <trkpt lat="45.31389" lon="0.24962">
        <ele>101</ele>
        <time>2025-04-11T10:15:49Z</time>
      </trkpt>
      <trkpt lat="45.31411" lon="0.24948">
        <ele>101</ele>
        <time>2025-04-11T10:15:53Z</time>
      </trkpt>
      <trkpt lat="45.31424" lon="0.24936">
        <ele>100</ele>
        <time>2025-04-11T10:15:56Z</time>
      </trkpt>
      <trkpt lat="45.31464" lon="0.24893">
        <ele>99</ele>
        <time>2025-04-11T10:16:05Z</time>
      </trkpt>
      <trkpt lat="45.31496" lon="0.24851">
        <ele>98</ele>
        <time>2025-04-11T10:16:12Z</time>
      </trkpt>
      <trkpt lat="45.31515" lon="0.24818">
        <ele>98</ele>
        <time>2025-04-11T10:16:18Z</time>
      </trkpt>
      <trkpt lat="45.31546" lon="0.24756">
        <ele>100</ele>
        <time>2025-04-11T10:16:27Z</time>
      </trkpt>
      <trkpt lat="45.31565" lon="0.24732">
        <ele>100</ele>
        <time>2025-04-11T10:16:32Z</time>
      </trkpt>
      <trkpt lat="45.31596" lon="0.24711">
        <ele>100</ele>
        <time>2025-04-11T10:16:38Z</time>
      </trkpt>
      <trkpt lat="45.31625" lon="0.24701">
        <ele>101</ele>
        <time>2025-04-11T10:16:43Z</time>
      </trkpt>
      <trkpt lat="45.31653" lon="0.24696">
        <ele>101</ele>
        <time>2025-04-11T10:16:48Z</time>
      </trkpt>
      <trkpt lat="45.31692" lon="0.24694">
        <ele>101</ele>
        <time>2025-04-11T10:16:55Z</time>
      </trkpt>
      <trkpt lat="45.31754" lon="0.24696">
        <ele>100</ele>
        <time>2025-04-11T10:17:06Z</time>
      </trkpt>
      <trkpt lat="45.31812" lon="0.24701">
        <ele>101</ele>
        <time>2025-04-11T10:17:17Z</time>
      </trkpt>
      <trkpt lat="45.31965" lon="0.2473">
        <ele>104</ele>
        <time>2025-04-11T10:17:44Z</time>
      </trkpt>
      <trkpt lat="45.31988" lon="0.24731">
        <ele>105</ele>
        <time>2025-04-11T10:17:48Z</time>
      </trkpt>
      <trkpt lat="45.32254" lon="0.24709">
        <ele>112</ele>
        <time>2025-04-11T10:18:36Z</time>
      </trkpt>
      <trkpt lat="45.32489" lon="0.24695">
        <ele>111</ele>
        <time>2025-04-11T10:19:17Z</time>
      </trkpt>
      <trkpt lat="45.32527" lon="0.247">
        <ele>109</ele>
        <time>2025-04-11T10:19:24Z</time>
      </trkpt>
      <trkpt lat="45.3255" lon="0.24706">
        <ele>108</ele>
        <time>2025-04-11T10:19:28Z</time>
      </trkpt>
      <trkpt lat="45.32589" lon="0.2472">
        <ele>106</ele>
        <time>2025-04-11T10:19:36Z</time>
      </trkpt>
      <trkpt lat="45.3261" lon="0.24722">
        <ele>105</ele>
        <time>2025-04-11T10:19:39Z</time>
      </trkpt>
      <trkpt lat="45.32611" lon="0.24728">
        <ele>105</ele>
        <time>2025-04-11T10:19:40Z</time>
      </trkpt>
      <trkpt lat="45.32621" lon="0.2474">
        <ele>104</ele>
        <time>2025-04-11T10:19:42Z</time>
      </trkpt>
      <trkpt lat="45.32724" lon="0.24787">
        <ele>99</ele>
        <time>2025-04-11T10:20:02Z</time>
      </trkpt>
      <trkpt lat="45.32746" lon="0.248">
        <ele>98</ele>
        <time>2025-04-11T10:20:06Z</time>
      </trkpt>
      <trkpt lat="45.32768" lon="0.24818">
        <ele>98</ele>
        <time>2025-04-11T10:20:10Z</time>
      </trkpt>
      <trkpt lat="45.32832" lon="0.24887">
        <ele>96</ele>
        <time>2025-04-11T10:20:25Z</time>
      </trkpt>
      <trkpt lat="45.32919" lon="0.24985">
        <ele>94</ele>
        <time>2025-04-11T10:20:44Z</time>
      </trkpt>
      <trkpt lat="45.32929" lon="0.24992">
        <ele>95</ele>
        <time>2025-04-11T10:20:46Z</time>
      </trkpt>
      <trkpt lat="45.32943" lon="0.24997">
        <ele>95</ele>
        <time>2025-04-11T10:20:49Z</time>
      </trkpt>
      <trkpt lat="45.32956" lon="0.24999">
        <ele>95</ele>
        <time>2025-04-11T10:20:51Z</time>
      </trkpt>
      <trkpt lat="45.32967" lon="0.24997">
        <ele>95</ele>
        <time>2025-04-11T10:20:53Z</time>
      </trkpt>
      <trkpt lat="45.32977" lon="0.24993">
        <ele>95</ele>
        <time>2025-04-11T10:20:55Z</time>
      </trkpt>
      <trkpt lat="45.33137" lon="0.24897">
        <ele>89</ele>
        <time>2025-04-11T10:21:26Z</time>
      </trkpt>
      <trkpt lat="45.33154" lon="0.24891">
        <ele>88</ele>
        <time>2025-04-11T10:21:29Z</time>
      </trkpt>
      <trkpt lat="45.33167" lon="0.24891">
        <ele>88</ele>
        <time>2025-04-11T10:21:31Z</time>
      </trkpt>
      <trkpt lat="45.33179" lon="0.24893">
        <ele>88</ele>
        <time>2025-04-11T10:21:34Z</time>
      </trkpt>
      <trkpt lat="45.33218" lon="0.24906">
        <ele>86</ele>
        <time>2025-04-11T10:21:41Z</time>
      </trkpt>
      <trkpt lat="45.33277" lon="0.24927">
        <ele>83</ele>
        <time>2025-04-11T10:21:52Z</time>
      </trkpt>
      <trkpt lat="45.33298" lon="0.24937">
        <ele>82</ele>
        <time>2025-04-11T10:21:55Z</time>
      </trkpt>
      <trkpt lat="45.33316" lon="0.2495">
        <ele>82</ele>
        <time>2025-04-11T10:21:59Z</time>
      </trkpt>
      <trkpt lat="45.3333" lon="0.24965">
        <ele>81</ele>
        <time>2025-04-11T10:22:02Z</time>
      </trkpt>
      <trkpt lat="45.33612" lon="0.25331">
        <ele>75</ele>
        <time>2025-04-11T10:23:10Z</time>
      </trkpt>
      <trkpt lat="45.33624" lon="0.25345">
        <ele>74</ele>
        <time>2025-04-11T10:23:13Z</time>
      </trkpt>
      <trkpt lat="45.33642" lon="0.25359">
        <ele>72</ele>
        <time>2025-04-11T10:23:17Z</time>
      </trkpt>
      <trkpt lat="45.33659" lon="0.25368">
        <ele>69</ele>
        <time>2025-04-11T10:23:20Z</time>
      </trkpt>
      <trkpt lat="45.3368" lon="0.25374">
        <ele>68</ele>
        <time>2025-04-11T10:23:24Z</time>
      </trkpt>
      <trkpt lat="45.33704" lon="0.25374">
        <ele>68</ele>
        <time>2025-04-11T10:23:28Z</time>
      </trkpt>
      <trkpt lat="45.33727" lon="0.2537">
        <ele>67</ele>
        <time>2025-04-11T10:23:32Z</time>
      </trkpt>
      <trkpt lat="45.34393" lon="0.25094">
        <ele>77</ele>
        <time>2025-04-11T10:25:35Z</time>
      </trkpt>
      <trkpt lat="45.34798" lon="0.24871">
        <ele>77</ele>
        <time>2025-04-11T10:26:53Z</time>
      </trkpt>
      <trkpt lat="45.34819" lon="0.24863">
        <ele>78</ele>
        <time>2025-04-11T10:26:57Z</time>
      </trkpt>
      <trkpt lat="45.34854" lon="0.24843">
        <ele>77</ele>
        <time>2025-04-11T10:27:03Z</time>
      </trkpt>
      <trkpt lat="45.34862" lon="0.24843">
        <ele>77</ele>
        <time>2025-04-11T10:27:05Z</time>
      </trkpt>
      <trkpt lat="45.3487" lon="0.24849">
        <ele>77</ele>
        <time>2025-04-11T10:27:06Z</time>
      </trkpt>
      <trkpt lat="45.34901" lon="0.24917">
        <ele>75</ele>
        <time>2025-04-11T10:27:16Z</time>
      </trkpt>
      <trkpt lat="45.34909" lon="0.24924">
        <ele>75</ele>
        <time>2025-04-11T10:27:18Z</time>
      </trkpt>
      <trkpt lat="45.34919" lon="0.24929">
        <ele>74</ele>
        <time>2025-04-11T10:27:20Z</time>
      </trkpt>
      <trkpt lat="45.34919" lon="0.24934">
        <ele>74</ele>
        <time>2025-04-11T10:27:21Z</time>
      </trkpt>
      <trkpt lat="45.34925" lon="0.24947">
        <ele>74</ele>
        <time>2025-04-11T10:27:23Z</time>
      </trkpt>
      <trkpt lat="45.34958" lon="0.24985">
        <ele>71</ele>
        <time>2025-04-11T10:27:30Z</time>
      </trkpt>
      <trkpt lat="45.35155" lon="0.25235">
        <ele>66</ele>
        <time>2025-04-11T10:28:17Z</time>
      </trkpt>
      <trkpt lat="45.35169" lon="0.25268">
        <ele>66</ele>
        <time>2025-04-11T10:28:22Z</time>
      </trkpt>
      <trkpt lat="45.35173" lon="0.25309">
        <ele>66</ele>
        <time>2025-04-11T10:28:27Z</time>
      </trkpt>
      <trkpt lat="45.35174" lon="0.25316">
        <ele>66</ele>
        <time>2025-04-11T10:28:28Z</time>
      </trkpt>
      <trkpt lat="45.3519" lon="0.25468">
        <ele>62</ele>
        <time>2025-04-11T10:28:47Z</time>
      </trkpt>
      <trkpt lat="45.35191" lon="0.25475">
        <ele>62</ele>
        <time>2025-04-11T10:28:48Z</time>
      </trkpt>
      <trkpt lat="45.35195" lon="0.25517">
        <ele>62</ele>
        <time>2025-04-11T10:28:53Z</time>
      </trkpt>
      <trkpt lat="45.352" lon="0.2554">
        <ele>62</ele>
        <time>2025-04-11T10:28:56Z</time>
      </trkpt>
      <trkpt lat="45.35228" lon="0.25567">
        <ele>62</ele>
        <time>2025-04-11T10:29:02Z</time>
      </trkpt>
      <trkpt lat="45.35246" lon="0.25576">
        <ele>62</ele>
        <time>2025-04-11T10:29:06Z</time>
      </trkpt>
      <trkpt lat="45.35331" lon="0.25613">
        <ele>63</ele>
        <time>2025-04-11T10:29:22Z</time>
      </trkpt>
      <trkpt lat="45.35347" lon="0.25623">
        <ele>63</ele>
        <time>2025-04-11T10:29:25Z</time>
      </trkpt>
      <trkpt lat="45.35362" lon="0.25639">
        <ele>63</ele>
        <time>2025-04-11T10:29:28Z</time>
      </trkpt>
      <trkpt lat="45.35375" lon="0.25662">
        <ele>63</ele>
        <time>2025-04-11T10:29:32Z</time>
      </trkpt>
      <trkpt lat="45.35378" lon="0.25668">
        <ele>64</ele>
        <time>2025-04-11T10:29:33Z</time>
      </trkpt>
      <trkpt lat="45.35413" lon="0.25747">
        <ele>63</ele>
        <time>2025-04-11T10:29:44Z</time>
      </trkpt>
      <trkpt lat="45.3548" lon="0.25838">
        <ele>62</ele>
        <time>2025-04-11T10:30:01Z</time>
      </trkpt>
      <trkpt lat="45.35643" lon="0.25984">
        <ele>63</ele>
        <time>2025-04-11T10:30:35Z</time>
      </trkpt>
      <trkpt lat="45.35688" lon="0.26024">
        <ele>64</ele>
        <time>2025-04-11T10:30:44Z</time>
      </trkpt>
      <trkpt lat="45.35709" lon="0.26028">
        <ele>65</ele>
        <time>2025-04-11T10:30:48Z</time>
      </trkpt>
      <trkpt lat="45.35813" lon="0.26016">
        <ele>73</ele>
        <time>2025-04-11T10:31:07Z</time>
      </trkpt>
      <trkpt lat="45.36058" lon="0.26085">
        <ele>81</ele>
        <time>2025-04-11T10:31:51Z</time>
      </trkpt>
      <trkpt lat="45.36121" lon="0.26123">
        <ele>82</ele>
        <time>2025-04-11T10:32:03Z</time>
      </trkpt>
      <trkpt lat="45.36217" lon="0.26132">
        <ele>83</ele>
        <time>2025-04-11T10:32:21Z</time>
      </trkpt>
      <trkpt lat="45.36369" lon="0.26176">
        <ele>93</ele>
        <time>2025-04-11T10:32:48Z</time>
      </trkpt>
      <trkpt lat="45.36391" lon="0.26176">
        <ele>95</ele>
        <time>2025-04-11T10:32:52Z</time>
      </trkpt>
      <trkpt lat="45.36412" lon="0.26157">
        <ele>96</ele>
        <time>2025-04-11T10:32:56Z</time>
      </trkpt>
      <trkpt lat="45.36451" lon="0.26094">
        <ele>92</ele>
        <time>2025-04-11T10:33:07Z</time>
      </trkpt>
      <trkpt lat="45.36492" lon="0.26055">
        <ele>90</ele>
        <time>2025-04-11T10:33:16Z</time>
      </trkpt>
      <trkpt lat="45.36551" lon="0.26024">
        <ele>89</ele>
        <time>2025-04-11T10:33:27Z</time>
      </trkpt>
      <trkpt lat="45.36585" lon="0.26021">
        <ele>89</ele>
        <time>2025-04-11T10:33:33Z</time>
      </trkpt>
      <trkpt lat="45.3664" lon="0.26035">
        <ele>90</ele>
        <time>2025-04-11T10:33:43Z</time>
      </trkpt>
      <trkpt lat="45.36707" lon="0.26059">
        <ele>93</ele>
        <time>2025-04-11T10:33:55Z</time>
      </trkpt>
      <trkpt lat="45.36738" lon="0.26063">
        <ele>94</ele>
        <time>2025-04-11T10:34:01Z</time>
      </trkpt>
      <trkpt lat="45.36896" lon="0.25984">
        <ele>89</ele>
        <time>2025-04-11T10:34:31Z</time>
      </trkpt>
      <trkpt lat="45.36934" lon="0.25977">
        <ele>89</ele>
        <time>2025-04-11T10:34:37Z</time>
      </trkpt>
      <trkpt lat="45.37117" lon="0.25976">
        <ele>87</ele>
        <time>2025-04-11T10:35:10Z</time>
      </trkpt>
      <trkpt lat="45.37132" lon="0.25978">
        <ele>87</ele>
        <time>2025-04-11T10:35:13Z</time>
      </trkpt>
      <trkpt lat="45.37137" lon="0.25992">
        <ele>88</ele>
        <time>2025-04-11T10:35:15Z</time>
      </trkpt>
      <trkpt lat="45.37193" lon="0.26064">
        <ele>98</ele>
        <time>2025-04-11T10:35:28Z</time>
      </trkpt>
      <trkpt lat="45.37211" lon="0.26073">
        <ele>99</ele>
        <time>2025-04-11T10:35:31Z</time>
      </trkpt>
      <trkpt lat="45.37261" lon="0.2607">
        <ele>99</ele>
        <time>2025-04-11T10:35:40Z</time>
      </trkpt>
      <trkpt lat="45.37273" lon="0.2607">
        <ele>99</ele>
        <time>2025-04-11T10:35:42Z</time>
      </trkpt>
      <trkpt lat="45.37291" lon="0.26075">
        <ele>99</ele>
        <time>2025-04-11T10:35:46Z</time>
      </trkpt>
      <trkpt lat="45.37302" lon="0.26096">
        <ele>101</ele>
        <time>2025-04-11T10:35:49Z</time>
      </trkpt>
      <trkpt lat="45.37301" lon="0.26119">
        <ele>104</ele>
        <time>2025-04-11T10:35:52Z</time>
      </trkpt>
      <trkpt lat="45.37293" lon="0.26146">
        <ele>107</ele>
        <time>2025-04-11T10:35:56Z</time>
      </trkpt>
      <trkpt lat="45.37289" lon="0.26169">
        <ele>110</ele>
        <time>2025-04-11T10:35:59Z</time>
      </trkpt>
      <trkpt lat="45.37299" lon="0.26273">
        <ele>117</ele>
        <time>2025-04-11T10:36:12Z</time>
      </trkpt>
      <trkpt lat="45.37306" lon="0.26286">
        <ele>117</ele>
        <time>2025-04-11T10:36:14Z</time>
      </trkpt>
      <trkpt lat="45.37313" lon="0.26293">
        <ele>118</ele>
        <time>2025-04-11T10:36:15Z</time>
      </trkpt>
      <trkpt lat="45.37371" lon="0.26317">
        <ele>120</ele>
        <time>2025-04-11T10:36:26Z</time>
      </trkpt>
      <trkpt lat="45.37501" lon="0.26398">
        <ele>127</ele>
        <time>2025-04-11T10:36:51Z</time>
      </trkpt>
      <trkpt lat="45.37554" lon="0.26454">
        <ele>127</ele>
        <time>2025-04-11T10:37:03Z</time>
      </trkpt>
      <trkpt lat="45.37616" lon="0.26496">
        <ele>129</ele>
        <time>2025-04-11T10:37:15Z</time>
      </trkpt>
      <trkpt lat="45.37651" lon="0.26526">
        <ele>127</ele>
        <time>2025-04-11T10:37:22Z</time>
      </trkpt>
      <trkpt lat="45.37678" lon="0.26553">
        <ele>126</ele>
        <time>2025-04-11T10:37:28Z</time>
      </trkpt>
      <trkpt lat="45.37728" lon="0.2662">
        <ele>126</ele>
        <time>2025-04-11T10:37:41Z</time>
      </trkpt>
      <trkpt lat="45.37757" lon="0.26688">
        <ele>127</ele>
        <time>2025-04-11T10:37:50Z</time>
      </trkpt>
      <trkpt lat="45.37764" lon="0.26702">
        <ele>127</ele>
        <time>2025-04-11T10:37:53Z</time>
      </trkpt>
      <trkpt lat="45.37779" lon="0.26712">
        <ele>126</ele>
        <time>2025-04-11T10:37:56Z</time>
      </trkpt>
      <trkpt lat="45.37872" lon="0.26764">
        <ele>121</ele>
        <time>2025-04-11T10:38:13Z</time>
      </trkpt>
      <trkpt lat="45.37882" lon="0.26764">
        <ele>119</ele>
        <time>2025-04-11T10:38:15Z</time>
      </trkpt>
      <trkpt lat="45.37888" lon="0.26783">
        <ele>119</ele>
        <time>2025-04-11T10:38:18Z</time>
      </trkpt>
      <trkpt lat="45.37889" lon="0.268">
        <ele>120</ele>
        <time>2025-04-11T10:38:20Z</time>
      </trkpt>
      <trkpt lat="45.37879" lon="0.26851">
        <ele>125</ele>
        <time>2025-04-11T10:38:26Z</time>
      </trkpt>
      <trkpt lat="45.37879" lon="0.26872">
        <ele>127</ele>
        <time>2025-04-11T10:38:29Z</time>
      </trkpt>
      <trkpt lat="45.37882" lon="0.26894">
        <ele>127</ele>
        <time>2025-04-11T10:38:32Z</time>
      </trkpt>
      <trkpt lat="45.37889" lon="0.26913">
        <ele>128</ele>
        <time>2025-04-11T10:38:35Z</time>
      </trkpt>
      <trkpt lat="45.37898" lon="0.26928">
        <ele>128</ele>
        <time>2025-04-11T10:38:37Z</time>
      </trkpt>
      <trkpt lat="45.37934" lon="0.26961">
        <ele>128</ele>
        <time>2025-04-11T10:38:45Z</time>
      </trkpt>
      <trkpt lat="45.37958" lon="0.26979">
        <ele>129</ele>
        <time>2025-04-11T10:38:49Z</time>
      </trkpt>
      <trkpt lat="45.37971" lon="0.26994">
        <ele>130</ele>
        <time>2025-04-11T10:38:52Z</time>
      </trkpt>
      <trkpt lat="45.3799" lon="0.27021">
        <ele>130</ele>
        <time>2025-04-11T10:38:57Z</time>
      </trkpt>
      <trkpt lat="45.38" lon="0.27023">
        <ele>129</ele>
        <time>2025-04-11T10:38:59Z</time>
      </trkpt>
      <trkpt lat="45.38014" lon="0.2703">
        <ele>130</ele>
        <time>2025-04-11T10:39:02Z</time>
      </trkpt>
      <trkpt lat="45.38255" lon="0.27159">
        <ele>149</ele>
        <time>2025-04-11T10:39:47Z</time>
      </trkpt>
      <trkpt lat="45.38303" lon="0.27198">
        <ele>147</ele>
        <time>2025-04-11T10:39:57Z</time>
      </trkpt>
      <trkpt lat="45.38457" lon="0.27202">
        <ele>136</ele>
        <time>2025-04-11T10:40:25Z</time>
      </trkpt>
      <trkpt lat="45.38493" lon="0.2723">
        <ele>136</ele>
        <time>2025-04-11T10:40:32Z</time>
      </trkpt>
      <trkpt lat="45.38561" lon="0.27294">
        <ele>132</ele>
        <time>2025-04-11T10:40:47Z</time>
      </trkpt>
      <trkpt lat="45.38602" lon="0.27338">
        <ele>132</ele>
        <time>2025-04-11T10:40:56Z</time>
      </trkpt>
      <trkpt lat="45.38613" lon="0.27386">
        <ele>130</ele>
        <time>2025-04-11T10:41:02Z</time>
      </trkpt>
      <trkpt lat="45.38619" lon="0.27481">
        <ele>126</ele>
        <time>2025-04-11T10:41:14Z</time>
      </trkpt>
      <trkpt lat="45.38642" lon="0.27532">
        <ele>124</ele>
        <time>2025-04-11T10:41:21Z</time>
      </trkpt>
      <trkpt lat="45.38718" lon="0.27612">
        <ele>123</ele>
        <time>2025-04-11T10:41:38Z</time>
      </trkpt>
      <trkpt lat="45.38806" lon="0.27683">
        <ele>125</ele>
        <time>2025-04-11T10:41:56Z</time>
      </trkpt>
      <trkpt lat="45.38888" lon="0.27766">
        <ele>124</ele>
        <time>2025-04-11T10:42:14Z</time>
      </trkpt>
      <trkpt lat="45.38953" lon="0.27865">
        <ele>129</ele>
        <time>2025-04-11T10:42:31Z</time>
      </trkpt>
      <trkpt lat="45.38973" lon="0.27901">
        <ele>133</ele>
        <time>2025-04-11T10:42:37Z</time>
      </trkpt>
      <trkpt lat="45.38995" lon="0.27947">
        <ele>138</ele>
        <time>2025-04-11T10:42:44Z</time>
      </trkpt>
      <trkpt lat="45.39006" lon="0.27984">
        <ele>140</ele>
        <time>2025-04-11T10:42:49Z</time>
      </trkpt>
      <trkpt lat="45.39011" lon="0.2801">
        <ele>142</ele>
        <time>2025-04-11T10:42:52Z</time>
      </trkpt>
      <trkpt lat="45.39014" lon="0.28033">
        <ele>143</ele>
        <time>2025-04-11T10:42:55Z</time>
      </trkpt>
      <trkpt lat="45.39015" lon="0.28054">
        <ele>144</ele>
        <time>2025-04-11T10:42:58Z</time>
      </trkpt>
      <trkpt lat="45.39012" lon="0.28079">
        <ele>145</ele>
        <time>2025-04-11T10:43:01Z</time>
      </trkpt>
      <trkpt lat="45.39002" lon="0.28121">
        <ele>147</ele>
        <time>2025-04-11T10:43:06Z</time>
      </trkpt>
      <trkpt lat="45.38992" lon="0.28148">
        <ele>147</ele>
        <time>2025-04-11T10:43:10Z</time>
      </trkpt>
      <trkpt lat="45.38977" lon="0.2818">
        <ele>147</ele>
        <time>2025-04-11T10:43:15Z</time>
      </trkpt>
      <trkpt lat="45.38964" lon="0.28218">
        <ele>147</ele>
        <time>2025-04-11T10:43:20Z</time>
      </trkpt>
      <trkpt lat="45.38961" lon="0.28253">
        <ele>149</ele>
        <time>2025-04-11T10:43:25Z</time>
      </trkpt>
      <trkpt lat="45.3896" lon="0.28306">
        <ele>148</ele>
        <time>2025-04-11T10:43:31Z</time>
      </trkpt>
      <trkpt lat="45.38963" lon="0.28354">
        <ele>147</ele>
        <time>2025-04-11T10:43:37Z</time>
      </trkpt>
      <trkpt lat="45.38965" lon="0.28372">
        <ele>146</ele>
        <time>2025-04-11T10:43:40Z</time>
      </trkpt>
      <trkpt lat="45.38969" lon="0.28388">
        <ele>146</ele>
        <time>2025-04-11T10:43:42Z</time>
      </trkpt>
      <trkpt lat="45.38975" lon="0.28407">
        <ele>145</ele>
        <time>2025-04-11T10:43:44Z</time>
      </trkpt>
      <trkpt lat="45.38984" lon="0.28424">
        <ele>145</ele>
        <time>2025-04-11T10:43:47Z</time>
      </trkpt>
      <trkpt lat="45.39065" lon="0.28538">
        <ele>139</ele>
        <time>2025-04-11T10:44:07Z</time>
      </trkpt>
      <trkpt lat="45.39094" lon="0.28552">
        <ele>137</ele>
        <time>2025-04-11T10:44:13Z</time>
      </trkpt>
      <trkpt lat="45.39175" lon="0.28656">
        <ele>135</ele>
        <time>2025-04-11T10:44:32Z</time>
      </trkpt>
      <trkpt lat="45.39208" lon="0.28694">
        <ele>134</ele>
        <time>2025-04-11T10:44:40Z</time>
      </trkpt>
      <trkpt lat="45.39228" lon="0.28713">
        <ele>134</ele>
        <time>2025-04-11T10:44:44Z</time>
      </trkpt>
      <trkpt lat="45.39246" lon="0.28723">
        <ele>133</ele>
        <time>2025-04-11T10:44:47Z</time>
      </trkpt>
      <trkpt lat="45.39262" lon="0.28723">
        <ele>132</ele>
        <time>2025-04-11T10:44:50Z</time>
      </trkpt>
      <trkpt lat="45.39505" lon="0.28595">
        <ele>112</ele>
        <time>2025-04-11T10:45:36Z</time>
      </trkpt>
      <trkpt lat="45.39571" lon="0.28543">
        <ele>108</ele>
        <time>2025-04-11T10:45:50Z</time>
      </trkpt>
      <trkpt lat="45.39668" lon="0.28487">
        <ele>104</ele>
        <time>2025-04-11T10:46:08Z</time>
      </trkpt>
      <trkpt lat="45.39877" lon="0.28503">
        <ele>97</ele>
        <time>2025-04-11T10:46:46Z</time>
      </trkpt>
      <trkpt lat="45.39908" lon="0.28495">
        <ele>95</ele>
        <time>2025-04-11T10:46:51Z</time>
      </trkpt>
      <trkpt lat="45.39915" lon="0.28481">
        <ele>95</ele>
        <time>2025-04-11T10:46:53Z</time>
      </trkpt>
      <trkpt lat="45.39981" lon="0.28337">
        <ele>92</ele>
        <time>2025-04-11T10:47:15Z</time>
      </trkpt>
      <trkpt lat="45.40007" lon="0.28312">
        <ele>92</ele>
        <time>2025-04-11T10:47:21Z</time>
      </trkpt>
      <trkpt lat="45.4034" lon="0.28113">
        <ele>84</ele>
        <time>2025-04-11T10:48:25Z</time>
      </trkpt>
      <trkpt lat="45.40416" lon="0.28082">
        <ele>81</ele>
        <time>2025-04-11T10:48:39Z</time>
      </trkpt>
      <trkpt lat="45.40487" lon="0.28072">
        <ele>81</ele>
        <time>2025-04-11T10:48:52Z</time>
      </trkpt>
      <trkpt lat="45.40653" lon="0.28095">
        <ele>83</ele>
        <time>2025-04-11T10:49:21Z</time>
      </trkpt>
      <trkpt lat="45.40951" lon="0.28188">
        <ele>80</ele>
        <time>2025-04-11T10:50:15Z</time>
      </trkpt>
      <trkpt lat="45.40979" lon="0.28175">
        <ele>81</ele>
        <time>2025-04-11T10:50:21Z</time>
      </trkpt>
      <trkpt lat="45.41091" lon="0.28069">
        <ele>84</ele>
        <time>2025-04-11T10:50:45Z</time>
      </trkpt>
      <trkpt lat="45.41142" lon="0.28028">
        <ele>85</ele>
        <time>2025-04-11T10:50:55Z</time>
      </trkpt>
      <trkpt lat="45.41298" lon="0.27983">
        <ele>78</ele>
        <time>2025-04-11T10:51:23Z</time>
      </trkpt>
      <trkpt lat="45.41419" lon="0.27961">
        <ele>77</ele>
        <time>2025-04-11T10:51:45Z</time>
      </trkpt>
      <trkpt lat="45.41789" lon="0.28039">
        <ele>77</ele>
        <time>2025-04-11T10:52:52Z</time>
      </trkpt>
      <trkpt lat="45.42052" lon="0.28016">
        <ele>80</ele>
        <time>2025-04-11T10:53:39Z</time>
      </trkpt>
      <trkpt lat="45.42215" lon="0.2795">
        <ele>77</ele>
        <time>2025-04-11T10:54:09Z</time>
      </trkpt>
      <trkpt lat="45.42318" lon="0.27891">
        <ele>78</ele>
        <time>2025-04-11T10:54:28Z</time>
      </trkpt>
      <trkpt lat="45.42332" lon="0.27876">
        <ele>78</ele>
        <time>2025-04-11T10:54:32Z</time>
      </trkpt>
      <trkpt lat="45.42375" lon="0.27829">
        <ele>78</ele>
        <time>2025-04-11T10:54:41Z</time>
      </trkpt>
      <trkpt lat="45.42433" lon="0.27724">
        <ele>78</ele>
        <time>2025-04-11T10:54:58Z</time>
      </trkpt>
      <trkpt lat="45.42453" lon="0.27705">
        <ele>78</ele>
        <time>2025-04-11T10:55:02Z</time>
      </trkpt>
      <trkpt lat="45.42388" lon="0.28334">
        <ele>87</ele>
        <time>2025-04-11T10:56:22Z</time>
      </trkpt>
      <trkpt lat="45.42384" lon="0.28363">
        <ele>86</ele>
        <time>2025-04-11T10:56:25Z</time>
      </trkpt>
      <trkpt lat="45.42377" lon="0.28376">
        <ele>86</ele>
        <time>2025-04-11T10:56:27Z</time>
      </trkpt>
      <trkpt lat="45.423" lon="0.2847">
        <ele>87</ele>
        <time>2025-04-11T10:56:45Z</time>
      </trkpt>
      <trkpt lat="45.42277" lon="0.28503">
        <ele>88</ele>
        <time>2025-04-11T10:56:51Z</time>
      </trkpt>
      <trkpt lat="45.42268" lon="0.28519">
        <ele>88</ele>
        <time>2025-04-11T10:56:54Z</time>
      </trkpt>
      <trkpt lat="45.42091" lon="0.29015">
        <ele>103</ele>
        <time>2025-04-11T10:58:03Z</time>
      </trkpt>
      <trkpt lat="45.41848" lon="0.29502">
        <ele>117</ele>
        <time>2025-04-11T10:59:18Z</time>
      </trkpt>
      <trkpt lat="45.41797" lon="0.29607">
        <ele>119</ele>
        <time>2025-04-11T10:59:34Z</time>
      </trkpt>
      <trkpt lat="45.41712" lon="0.29802">
        <ele>117</ele>
        <time>2025-04-11T11:00:02Z</time>
      </trkpt>
      <trkpt lat="45.41706" lon="0.29812">
        <ele>116</ele>
        <time>2025-04-11T11:00:04Z</time>
      </trkpt>
      <trkpt lat="45.4169" lon="0.29831">
        <ele>115</ele>
        <time>2025-04-11T11:00:08Z</time>
      </trkpt>
      <trkpt lat="45.41675" lon="0.29843">
        <ele>114</ele>
        <time>2025-04-11T11:00:11Z</time>
      </trkpt>
      <trkpt lat="45.41655" lon="0.29855">
        <ele>113</ele>
        <time>2025-04-11T11:00:15Z</time>
      </trkpt>
      <trkpt lat="45.41632" lon="0.29865">
        <ele>111</ele>
        <time>2025-04-11T11:00:19Z</time>
      </trkpt>
      <trkpt lat="45.41612" lon="0.29871">
        <ele>111</ele>
        <time>2025-04-11T11:00:23Z</time>
      </trkpt>
      <trkpt lat="45.41553" lon="0.29879">
        <ele>109</ele>
        <time>2025-04-11T11:00:33Z</time>
      </trkpt>
      <trkpt lat="45.41543" lon="0.29883">
        <ele>108</ele>
        <time>2025-04-11T11:00:35Z</time>
      </trkpt>
      <trkpt lat="45.41532" lon="0.29892">
        <ele>107</ele>
        <time>2025-04-11T11:00:37Z</time>
      </trkpt>
      <trkpt lat="45.41522" lon="0.29905">
        <ele>107</ele>
        <time>2025-04-11T11:00:40Z</time>
      </trkpt>
      <trkpt lat="45.41513" lon="0.29923">
        <ele>106</ele>
        <time>2025-04-11T11:00:42Z</time>
      </trkpt>
      <trkpt lat="45.41501" lon="0.29952">
        <ele>107</ele>
        <time>2025-04-11T11:00:47Z</time>
      </trkpt>
      <trkpt lat="45.4149" lon="0.2999">
        <ele>109</ele>
        <time>2025-04-11T11:00:52Z</time>
      </trkpt>
      <trkpt lat="45.41482" lon="0.30038">
        <ele>111</ele>
        <time>2025-04-11T11:00:58Z</time>
      </trkpt>
      <trkpt lat="45.4148" lon="0.30077">
        <ele>114</ele>
        <time>2025-04-11T11:01:03Z</time>
      </trkpt>
      <trkpt lat="45.41481" lon="0.30116">
        <ele>117</ele>
        <time>2025-04-11T11:01:08Z</time>
      </trkpt>
      <trkpt lat="45.41483" lon="0.30138">
        <ele>118</ele>
        <time>2025-04-11T11:01:10Z</time>
      </trkpt>
      <trkpt lat="45.4149" lon="0.30167">
        <ele>120</ele>
        <time>2025-04-11T11:01:14Z</time>
      </trkpt>
      <trkpt lat="45.41499" lon="0.30187">
        <ele>122</ele>
        <time>2025-04-11T11:01:17Z</time>
      </trkpt>
      <trkpt lat="45.41506" lon="0.30196">
        <ele>122</ele>
        <time>2025-04-11T11:01:19Z</time>
      </trkpt>
      <trkpt lat="45.4155" lon="0.30243">
        <ele>124</ele>
        <time>2025-04-11T11:01:29Z</time>
      </trkpt>
      <trkpt lat="45.41559" lon="0.30259">
        <ele>124</ele>
        <time>2025-04-11T11:01:31Z</time>
      </trkpt>
      <trkpt lat="45.41563" lon="0.30279">
        <ele>125</ele>
        <time>2025-04-11T11:01:34Z</time>
      </trkpt>
      <trkpt lat="45.41562" lon="0.303">
        <ele>126</ele>
        <time>2025-04-11T11:01:37Z</time>
      </trkpt>
      <trkpt lat="45.41556" lon="0.30321">
        <ele>127</ele>
        <time>2025-04-11T11:01:39Z</time>
      </trkpt>
      <trkpt lat="45.41546" lon="0.30334">
        <ele>128</ele>
        <time>2025-04-11T11:01:42Z</time>
      </trkpt>
      <trkpt lat="45.41481" lon="0.30362">
        <ele>131</ele>
        <time>2025-04-11T11:01:54Z</time>
      </trkpt>
      <trkpt lat="45.41501" lon="0.3043">
        <ele>127</ele>
        <time>2025-04-11T11:02:03Z</time>
      </trkpt>
      <trkpt lat="45.41514" lon="0.30467">
        <ele>125</ele>
        <time>2025-04-11T11:02:08Z</time>
      </trkpt>
      <trkpt lat="45.41538" lon="0.30518">
        <ele>124</ele>
        <time>2025-04-11T11:02:16Z</time>
      </trkpt>
      <trkpt lat="45.41554" lon="0.3054">
        <ele>125</ele>
        <time>2025-04-11T11:02:20Z</time>
      </trkpt>
      <trkpt lat="45.41564" lon="0.30563">
        <ele>126</ele>
        <time>2025-04-11T11:02:23Z</time>
      </trkpt>
      <trkpt lat="45.4157" lon="0.3058">
        <ele>128</ele>
        <time>2025-04-11T11:02:26Z</time>
      </trkpt>
      <trkpt lat="45.41576" lon="0.3061">
        <ele>129</ele>
        <time>2025-04-11T11:02:29Z</time>
      </trkpt>
      <trkpt lat="45.41579" lon="0.30635">
        <ele>130</ele>
        <time>2025-04-11T11:02:33Z</time>
      </trkpt>
      <trkpt lat="45.4158" lon="0.3071">
        <ele>133</ele>
        <time>2025-04-11T11:02:42Z</time>
      </trkpt>
      <trkpt lat="45.41586" lon="0.30762">
        <ele>134</ele>
        <time>2025-04-11T11:02:49Z</time>
      </trkpt>
      <trkpt lat="45.41612" lon="0.30928">
        <ele>136</ele>
        <time>2025-04-11T11:03:10Z</time>
      </trkpt>
      <trkpt lat="45.41619" lon="0.30957">
        <ele>134</ele>
        <time>2025-04-11T11:03:14Z</time>
      </trkpt>
      <trkpt lat="45.41631" lon="0.30981">
        <ele>133</ele>
        <time>2025-04-11T11:03:17Z</time>
      </trkpt>
      <trkpt lat="45.41642" lon="0.30993">
        <ele>133</ele>
        <time>2025-04-11T11:03:20Z</time>
      </trkpt>
      <trkpt lat="45.41653" lon="0.31001">
        <ele>133</ele>
        <time>2025-04-11T11:03:22Z</time>
      </trkpt>
      <trkpt lat="45.41677" lon="0.31013">
        <ele>131</ele>
        <time>2025-04-11T11:03:27Z</time>
      </trkpt>
      <trkpt lat="45.41806" lon="0.31038">
        <ele>127</ele>
        <time>2025-04-11T11:03:50Z</time>
      </trkpt>
      <trkpt lat="45.4185" lon="0.31053">
        <ele>125</ele>
        <time>2025-04-11T11:03:58Z</time>
      </trkpt>
      <trkpt lat="45.41929" lon="0.31069">
        <ele>125</ele>
        <time>2025-04-11T11:04:12Z</time>
      </trkpt>
      <trkpt lat="45.41975" lon="0.31073">
        <ele>121</ele>
        <time>2025-04-11T11:04:20Z</time>
      </trkpt>
      <trkpt lat="45.42027" lon="0.3107">
        <ele>118</ele>
        <time>2025-04-11T11:04:29Z</time>
      </trkpt>
      <trkpt lat="45.4209" lon="0.31073">
        <ele>114</ele>
        <time>2025-04-11T11:04:41Z</time>
      </trkpt>
      <trkpt lat="45.42101" lon="0.31077">
        <ele>114</ele>
        <time>2025-04-11T11:04:43Z</time>
      </trkpt>
      <trkpt lat="45.4211" lon="0.31083">
        <ele>114</ele>
        <time>2025-04-11T11:04:44Z</time>
      </trkpt>
      <trkpt lat="45.42118" lon="0.31092">
        <ele>114</ele>
        <time>2025-04-11T11:04:46Z</time>
      </trkpt>
      <trkpt lat="45.42125" lon="0.31104">
        <ele>114</ele>
        <time>2025-04-11T11:04:48Z</time>
      </trkpt>
      <trkpt lat="45.42128" lon="0.31117">
        <ele>113</ele>
        <time>2025-04-11T11:04:50Z</time>
      </trkpt>
      <trkpt lat="45.4213" lon="0.31131">
        <ele>112</ele>
        <time>2025-04-11T11:04:52Z</time>
      </trkpt>
      <trkpt lat="45.4213" lon="0.31148">
        <ele>111</ele>
        <time>2025-04-11T11:04:54Z</time>
      </trkpt>
      <trkpt lat="45.42125" lon="0.31203">
        <ele>107</ele>
        <time>2025-04-11T11:05:01Z</time>
      </trkpt>
      <trkpt lat="45.42126" lon="0.31217">
        <ele>106</ele>
        <time>2025-04-11T11:05:02Z</time>
      </trkpt>
      <trkpt lat="45.42131" lon="0.31231">
        <ele>106</ele>
        <time>2025-04-11T11:05:04Z</time>
      </trkpt>
      <trkpt lat="45.42137" lon="0.3124">
        <ele>106</ele>
        <time>2025-04-11T11:05:06Z</time>
      </trkpt>
      <trkpt lat="45.42147" lon="0.31249">
        <ele>107</ele>
        <time>2025-04-11T11:05:08Z</time>
      </trkpt>
      <trkpt lat="45.42195" lon="0.31283">
        <ele>103</ele>
        <time>2025-04-11T11:05:18Z</time>
      </trkpt>
      <trkpt lat="45.42219" lon="0.31304">
        <ele>99</ele>
        <time>2025-04-11T11:05:23Z</time>
      </trkpt>
      <trkpt lat="45.42244" lon="0.31325">
        <ele>97</ele>
        <time>2025-04-11T11:05:28Z</time>
      </trkpt>
      <trkpt lat="45.42254" lon="0.31338">
        <ele>96</ele>
        <time>2025-04-11T11:05:30Z</time>
      </trkpt>
      <trkpt lat="45.42257" lon="0.31356">
        <ele>95</ele>
        <time>2025-04-11T11:05:33Z</time>
      </trkpt>
      <trkpt lat="45.42253" lon="0.31374">
        <ele>94</ele>
        <time>2025-04-11T11:05:35Z</time>
      </trkpt>
      <trkpt lat="45.42242" lon="0.31416">
        <ele>92</ele>
        <time>2025-04-11T11:05:40Z</time>
      </trkpt>
      <trkpt lat="45.42225" lon="0.31516">
        <ele>93</ele>
        <time>2025-04-11T11:05:53Z</time>
      </trkpt>
      <trkpt lat="45.4222" lon="0.31552">
        <ele>93</ele>
        <time>2025-04-11T11:05:58Z</time>
      </trkpt>
      <trkpt lat="45.42218" lon="0.31572">
        <ele>94</ele>
        <time>2025-04-11T11:06:00Z</time>
      </trkpt>
      <trkpt lat="45.42213" lon="0.31595">
        <ele>94</ele>
        <time>2025-04-11T11:06:03Z</time>
      </trkpt>
      <trkpt lat="45.422" lon="0.31636">
        <ele>95</ele>
        <time>2025-04-11T11:06:09Z</time>
      </trkpt>
      <trkpt lat="45.42198" lon="0.31655">
        <ele>95</ele>
        <time>2025-04-11T11:06:11Z</time>
      </trkpt>
      <trkpt lat="45.42198" lon="0.31683">
        <ele>95</ele>
        <time>2025-04-11T11:06:15Z</time>
      </trkpt>
      <trkpt lat="45.42204" lon="0.3174">
        <ele>94</ele>
        <time>2025-04-11T11:06:22Z</time>
      </trkpt>
      <trkpt lat="45.422" lon="0.31838">
        <ele>96</ele>
        <time>2025-04-11T11:06:34Z</time>
      </trkpt>
      <trkpt lat="45.42204" lon="0.31889">
        <ele>96</ele>
        <time>2025-04-11T11:06:41Z</time>
      </trkpt>
      <trkpt lat="45.42209" lon="0.31904">
        <ele>96</ele>
        <time>2025-04-11T11:06:43Z</time>
      </trkpt>
      <trkpt lat="45.42236" lon="0.3195">
        <ele>96</ele>
        <time>2025-04-11T11:06:50Z</time>
      </trkpt>
      <trkpt lat="45.42307" lon="0.32115">
        <ele>95</ele>
        <time>2025-04-11T11:07:15Z</time>
      </trkpt>
      <trkpt lat="45.42357" lon="0.32218">
        <ele>98</ele>
        <time>2025-04-11T11:07:30Z</time>
      </trkpt>
      <trkpt lat="45.42409" lon="0.32348">
        <ele>99</ele>
        <time>2025-04-11T11:07:49Z</time>
      </trkpt>
      <trkpt lat="45.42418" lon="0.32367">
        <ele>100</ele>
        <time>2025-04-11T11:07:52Z</time>
      </trkpt>
      <trkpt lat="45.42456" lon="0.32429">
        <ele>101</ele>
        <time>2025-04-11T11:08:02Z</time>
      </trkpt>
      <trkpt lat="45.42464" lon="0.32448">
        <ele>101</ele>
        <time>2025-04-11T11:08:05Z</time>
      </trkpt>
      <trkpt lat="45.4248" lon="0.32494">
        <ele>101</ele>
        <time>2025-04-11T11:08:11Z</time>
      </trkpt>
      <trkpt lat="45.42493" lon="0.32552">
        <ele>100</ele>
        <time>2025-04-11T11:08:19Z</time>
      </trkpt>
      <trkpt lat="45.42507" lon="0.32597">
        <ele>99</ele>
        <time>2025-04-11T11:08:25Z</time>
      </trkpt>
      <trkpt lat="45.42527" lon="0.32633">
        <ele>98</ele>
        <time>2025-04-11T11:08:31Z</time>
      </trkpt>
      <trkpt lat="45.42617" lon="0.32756">
        <ele>96</ele>
        <time>2025-04-11T11:08:53Z</time>
      </trkpt>
      <trkpt lat="45.42642" lon="0.32802">
        <ele>96</ele>
        <time>2025-04-11T11:09:00Z</time>
      </trkpt>
      <trkpt lat="45.42687" lon="0.32911">
        <ele>93</ele>
        <time>2025-04-11T11:09:16Z</time>
      </trkpt>
      <trkpt lat="45.42714" lon="0.32961">
        <ele>92</ele>
        <time>2025-04-11T11:09:24Z</time>
      </trkpt>
      <trkpt lat="45.42741" lon="0.33004">
        <ele>92</ele>
        <time>2025-04-11T11:09:31Z</time>
      </trkpt>
      <trkpt lat="45.42774" lon="0.33045">
        <ele>95</ele>
        <time>2025-04-11T11:09:39Z</time>
      </trkpt>
      <trkpt lat="45.42781" lon="0.3306">
        <ele>95</ele>
        <time>2025-04-11T11:09:41Z</time>
      </trkpt>
      <trkpt lat="45.42788" lon="0.33084">
        <ele>96</ele>
        <time>2025-04-11T11:09:44Z</time>
      </trkpt>
      <trkpt lat="45.42794" lon="0.33125">
        <ele>96</ele>
        <time>2025-04-11T11:09:50Z</time>
      </trkpt>
      <trkpt lat="45.42797" lon="0.33159">
        <ele>96</ele>
        <time>2025-04-11T11:09:54Z</time>
      </trkpt>
      <trkpt lat="45.42797" lon="0.33193">
        <ele>96</ele>
        <time>2025-04-11T11:09:58Z</time>
      </trkpt>
      <trkpt lat="45.42793" lon="0.3326">
        <ele>97</ele>
        <time>2025-04-11T11:10:06Z</time>
      </trkpt>
      <trkpt lat="45.42793" lon="0.33285">
        <ele>97</ele>
        <time>2025-04-11T11:10:10Z</time>
      </trkpt>
      <trkpt lat="45.42805" lon="0.33393">
        <ele>99</ele>
        <time>2025-04-11T11:10:23Z</time>
      </trkpt>
      <trkpt lat="45.42806" lon="0.33429">
        <ele>100</ele>
        <time>2025-04-11T11:10:28Z</time>
      </trkpt>
      <trkpt lat="45.42806" lon="0.335">
        <ele>101</ele>
        <time>2025-04-11T11:10:37Z</time>
      </trkpt>
      <trkpt lat="45.42808" lon="0.3352">
        <ele>101</ele>
        <time>2025-04-11T11:10:39Z</time>
      </trkpt>
      <trkpt lat="45.42819" lon="0.33585">
        <ele>102</ele>
        <time>2025-04-11T11:10:47Z</time>
      </trkpt>
      <trkpt lat="45.42828" lon="0.33674">
        <ele>104</ele>
        <time>2025-04-11T11:10:59Z</time>
      </trkpt>
      <trkpt lat="45.42886" lon="0.33891">
        <ele>111</ele>
        <time>2025-04-11T11:11:28Z</time>
      </trkpt>
      <trkpt lat="45.4289" lon="0.33914">
        <ele>113</ele>
        <time>2025-04-11T11:11:31Z</time>
      </trkpt>
      <trkpt lat="45.4289" lon="0.33935">
        <ele>114</ele>
        <time>2025-04-11T11:11:33Z</time>
      </trkpt>
      <trkpt lat="45.42889" lon="0.33952">
        <ele>116</ele>
        <time>2025-04-11T11:11:35Z</time>
      </trkpt>
      <trkpt lat="45.42861" lon="0.34048">
        <ele>120</ele>
        <time>2025-04-11T11:11:48Z</time>
      </trkpt>
      <trkpt lat="45.42826" lon="0.34217">
        <ele>114</ele>
        <time>2025-04-11T11:12:10Z</time>
      </trkpt>
      <trkpt lat="45.42824" lon="0.34251">
        <ele>112</ele>
        <time>2025-04-11T11:12:15Z</time>
      </trkpt>
      <trkpt lat="45.42825" lon="0.34268">
        <ele>112</ele>
        <time>2025-04-11T11:12:17Z</time>
      </trkpt>
      <trkpt lat="45.42846" lon="0.34372">
        <ele>111</ele>
        <time>2025-04-11T11:12:30Z</time>
      </trkpt>
      <trkpt lat="45.42851" lon="0.34394">
        <ele>112</ele>
        <time>2025-04-11T11:12:33Z</time>
      </trkpt>
      <trkpt lat="45.42856" lon="0.34407">
        <ele>113</ele>
        <time>2025-04-11T11:12:35Z</time>
      </trkpt>
      <trkpt lat="45.42863" lon="0.34419">
        <ele>113</ele>
        <time>2025-04-11T11:12:37Z</time>
      </trkpt>
      <trkpt lat="45.42883" lon="0.3444">
        <ele>114</ele>
        <time>2025-04-11T11:12:41Z</time>
      </trkpt>
      <trkpt lat="45.42898" lon="0.34454">
        <ele>114</ele>
        <time>2025-04-11T11:12:45Z</time>
      </trkpt>
      <trkpt lat="45.42913" lon="0.34458">
        <ele>114</ele>
        <time>2025-04-11T11:12:47Z</time>
      </trkpt>
      <trkpt lat="45.42956" lon="0.34448">
        <ele>113</ele>
        <time>2025-04-11T11:12:55Z</time>
      </trkpt>
      <trkpt lat="45.42966" lon="0.3445">
        <ele>113</ele>
        <time>2025-04-11T11:12:57Z</time>
      </trkpt>
      <trkpt lat="45.42982" lon="0.34458">
        <ele>112</ele>
        <time>2025-04-11T11:13:00Z</time>
      </trkpt>
      <trkpt lat="45.42994" lon="0.34467">
        <ele>112</ele>
        <time>2025-04-11T11:13:02Z</time>
      </trkpt>
      <trkpt lat="45.43037" lon="0.34483">
        <ele>111</ele>
        <time>2025-04-11T11:13:10Z</time>
      </trkpt>
      <trkpt lat="45.43063" lon="0.34504">
        <ele>110</ele>
        <time>2025-04-11T11:13:16Z</time>
      </trkpt>
      <trkpt lat="45.43111" lon="0.34523">
        <ele>109</ele>
        <time>2025-04-11T11:13:24Z</time>
      </trkpt>
      <trkpt lat="45.43123" lon="0.34534">
        <ele>108</ele>
        <time>2025-04-11T11:13:27Z</time>
      </trkpt>
      <trkpt lat="45.43148" lon="0.34563">
        <ele>108</ele>
        <time>2025-04-11T11:13:33Z</time>
      </trkpt>
      <trkpt lat="45.43225" lon="0.34657">
        <ele>104</ele>
        <time>2025-04-11T11:13:51Z</time>
      </trkpt>
      <trkpt lat="45.43261" lon="0.34683">
        <ele>102</ele>
        <time>2025-04-11T11:13:58Z</time>
      </trkpt>
      <trkpt lat="45.43306" lon="0.34705">
        <ele>99</ele>
        <time>2025-04-11T11:14:06Z</time>
      </trkpt>
      <trkpt lat="45.43317" lon="0.34714">
        <ele>98</ele>
        <time>2025-04-11T11:14:09Z</time>
      </trkpt>
      <trkpt lat="45.43323" lon="0.34723">
        <ele>97</ele>
        <time>2025-04-11T11:14:10Z</time>
      </trkpt>
      <trkpt lat="45.43327" lon="0.34736">
        <ele>97</ele>
        <time>2025-04-11T11:14:12Z</time>
      </trkpt>
      <trkpt lat="45.43333" lon="0.34775">
        <ele>97</ele>
        <time>2025-04-11T11:14:17Z</time>
      </trkpt>
      <trkpt lat="45.43336" lon="0.34787">
        <ele>97</ele>
        <time>2025-04-11T11:14:18Z</time>
      </trkpt>
      <trkpt lat="45.43362" lon="0.34838">
        <ele>98</ele>
        <time>2025-04-11T11:14:26Z</time>
      </trkpt>
      <trkpt lat="45.43406" lon="0.34946">
        <ele>101</ele>
        <time>2025-04-11T11:14:42Z</time>
      </trkpt>
      <trkpt lat="45.43464" lon="0.35034">
        <ele>98</ele>
        <time>2025-04-11T11:14:57Z</time>
      </trkpt>
      <trkpt lat="45.43471" lon="0.35054">
        <ele>98</ele>
        <time>2025-04-11T11:15:00Z</time>
      </trkpt>
      <trkpt lat="45.4349" lon="0.35125">
        <ele>97</ele>
        <time>2025-04-11T11:15:09Z</time>
      </trkpt>
      <trkpt lat="45.43508" lon="0.35219">
        <ele>97</ele>
        <time>2025-04-11T11:15:21Z</time>
      </trkpt>
      <trkpt lat="45.43513" lon="0.35235">
        <ele>97</ele>
        <time>2025-04-11T11:15:24Z</time>
      </trkpt>
      <trkpt lat="45.43522" lon="0.35254">
        <ele>96</ele>
        <time>2025-04-11T11:15:27Z</time>
      </trkpt>
      <trkpt lat="45.43552" lon="0.35306">
        <ele>96</ele>
        <time>2025-04-11T11:15:35Z</time>
      </trkpt>
      <trkpt lat="45.43531" lon="0.35325">
        <ele>97</ele>
        <time>2025-04-11T11:15:39Z</time>
      </trkpt>
      <trkpt lat="45.4349" lon="0.35356">
        <ele>99</ele>
        <time>2025-04-11T11:15:48Z</time>
      </trkpt>
      <trkpt lat="45.43322" lon="0.35445">
        <ele>106</ele>
        <time>2025-04-11T11:16:20Z</time>
      </trkpt>
      <trkpt lat="45.43304" lon="0.3545">
        <ele>107</ele>
        <time>2025-04-11T11:16:23Z</time>
      </trkpt>
      <trkpt lat="45.43283" lon="0.35452">
        <ele>108</ele>
        <time>2025-04-11T11:16:27Z</time>
      </trkpt>
      <trkpt lat="45.43169" lon="0.35438">
        <ele>111</ele>
        <time>2025-04-11T11:16:47Z</time>
      </trkpt>
      <trkpt lat="45.43146" lon="0.35438">
        <ele>112</ele>
        <time>2025-04-11T11:16:51Z</time>
      </trkpt>
      <trkpt lat="45.43091" lon="0.35445">
        <ele>113</ele>
        <time>2025-04-11T11:17:01Z</time>
      </trkpt>
      <trkpt lat="45.43016" lon="0.35459">
        <ele>116</ele>
        <time>2025-04-11T11:17:14Z</time>
      </trkpt>
      <trkpt lat="45.42983" lon="0.35473">
        <ele>117</ele>
        <time>2025-04-11T11:17:20Z</time>
      </trkpt>
      <trkpt lat="45.42868" lon="0.3553">
        <ele>118</ele>
        <time>2025-04-11T11:17:42Z</time>
      </trkpt>
      <trkpt lat="45.42848" lon="0.35543">
        <ele>118</ele>
        <time>2025-04-11T11:17:46Z</time>
      </trkpt>
      <trkpt lat="45.42833" lon="0.35557">
        <ele>119</ele>
        <time>2025-04-11T11:17:49Z</time>
      </trkpt>
      <trkpt lat="45.42809" lon="0.35589">
        <ele>119</ele>
        <time>2025-04-11T11:17:55Z</time>
      </trkpt>
      <trkpt lat="45.42798" lon="0.3561">
        <ele>119</ele>
        <time>2025-04-11T11:17:58Z</time>
      </trkpt>
      <trkpt lat="45.42686" lon="0.35864">
        <ele>126</ele>
        <time>2025-04-11T11:18:36Z</time>
      </trkpt>
      <trkpt lat="45.42597" lon="0.36027">
        <ele>130</ele>
        <time>2025-04-11T11:19:02Z</time>
      </trkpt>
      <trkpt lat="45.42585" lon="0.36057">
        <ele>131</ele>
        <time>2025-04-11T11:19:06Z</time>
      </trkpt>
      <trkpt lat="45.42572" lon="0.361">
        <ele>131</ele>
        <time>2025-04-11T11:19:12Z</time>
      </trkpt>
      <trkpt lat="45.42547" lon="0.36193">
        <ele>131</ele>
        <time>2025-04-11T11:19:24Z</time>
      </trkpt>
      <trkpt lat="45.42529" lon="0.36253">
        <ele>130</ele>
        <time>2025-04-11T11:19:32Z</time>
      </trkpt>
      <trkpt lat="45.42511" lon="0.36295">
        <ele>128</ele>
        <time>2025-04-11T11:19:38Z</time>
      </trkpt>
      <trkpt lat="45.42495" lon="0.36322">
        <ele>127</ele>
        <time>2025-04-11T11:19:43Z</time>
      </trkpt>
      <trkpt lat="45.42318" lon="0.36554">
        <ele>118</ele>
        <time>2025-04-11T11:20:26Z</time>
      </trkpt>
      <trkpt lat="45.4227" lon="0.3662">
        <ele>115</ele>
        <time>2025-04-11T11:20:37Z</time>
      </trkpt>
      <trkpt lat="45.42259" lon="0.36641">
        <ele>115</ele>
        <time>2025-04-11T11:20:41Z</time>
      </trkpt>
      <trkpt lat="45.42241" lon="0.36689">
        <ele>114</ele>
        <time>2025-04-11T11:20:48Z</time>
      </trkpt>
      <trkpt lat="45.42206" lon="0.36841">
        <ele>107</ele>
        <time>2025-04-11T11:21:08Z</time>
      </trkpt>
      <trkpt lat="45.42197" lon="0.36839">
        <ele>107</ele>
        <time>2025-04-11T11:21:09Z</time>
      </trkpt>
      <trkpt lat="45.41947" lon="0.36876">
        <ele>105</ele>
        <time>2025-04-11T11:21:54Z</time>
      </trkpt>
      <trkpt lat="45.41911" lon="0.36876">
        <ele>105</ele>
        <time>2025-04-11T11:22:00Z</time>
      </trkpt>
      <trkpt lat="45.41778" lon="0.36844">
        <ele>104</ele>
        <time>2025-04-11T11:22:24Z</time>
      </trkpt>
      <trkpt lat="45.41747" lon="0.36843">
        <ele>104</ele>
        <time>2025-04-11T11:22:30Z</time>
      </trkpt>
      <trkpt lat="45.41623" lon="0.36863">
        <ele>103</ele>
        <time>2025-04-11T11:22:52Z</time>
      </trkpt>
      <trkpt lat="45.41586" lon="0.36864">
        <ele>103</ele>
        <time>2025-04-11T11:22:59Z</time>
      </trkpt>
      <trkpt lat="45.4155" lon="0.3686">
        <ele>104</ele>
        <time>2025-04-11T11:23:05Z</time>
      </trkpt>
      <trkpt lat="45.41446" lon="0.36824">
        <ele>105</ele>
        <time>2025-04-11T11:23:24Z</time>
      </trkpt>
      <trkpt lat="45.41418" lon="0.36828">
        <ele>106</ele>
        <time>2025-04-11T11:23:29Z</time>
      </trkpt>
      <trkpt lat="45.41388" lon="0.36842">
        <ele>106</ele>
        <time>2025-04-11T11:23:35Z</time>
      </trkpt>
      <trkpt lat="45.41149" lon="0.3697">
        <ele>105</ele>
        <time>2025-04-11T11:24:20Z</time>
      </trkpt>
      <trkpt lat="45.41118" lon="0.36993">
        <ele>106</ele>
        <time>2025-04-11T11:24:26Z</time>
      </trkpt>
      <trkpt lat="45.40948" lon="0.37156">
        <ele>104</ele>
        <time>2025-04-11T11:25:03Z</time>
      </trkpt>
      <trkpt lat="45.40924" lon="0.37172">
        <ele>103</ele>
        <time>2025-04-11T11:25:07Z</time>
      </trkpt>
      <trkpt lat="45.40898" lon="0.37181">
        <ele>103</ele>
        <time>2025-04-11T11:25:12Z</time>
      </trkpt>
      <trkpt lat="45.40545" lon="0.37243">
        <ele>104</ele>
        <time>2025-04-11T11:26:16Z</time>
      </trkpt>
      <trkpt lat="45.40503" lon="0.37245">
        <ele>104</ele>
        <time>2025-04-11T11:26:23Z</time>
      </trkpt>
      <trkpt lat="45.40471" lon="0.37238">
        <ele>104</ele>
        <time>2025-04-11T11:26:29Z</time>
      </trkpt>
      <trkpt lat="45.40352" lon="0.37188">
        <ele>104</ele>
        <time>2025-04-11T11:26:51Z</time>
      </trkpt>
      <trkpt lat="45.40322" lon="0.37183">
        <ele>104</ele>
        <time>2025-04-11T11:26:56Z</time>
      </trkpt>
      <trkpt lat="45.40293" lon="0.37189">
        <ele>105</ele>
        <time>2025-04-11T11:27:01Z</time>
      </trkpt>
      <trkpt lat="45.40208" lon="0.37236">
        <ele>107</ele>
        <time>2025-04-11T11:27:18Z</time>
      </trkpt>
      <trkpt lat="45.40046" lon="0.37332">
        <ele>114</ele>
        <time>2025-04-11T11:27:49Z</time>
      </trkpt>
      <trkpt lat="45.40014" lon="0.37339">
        <ele>116</ele>
        <time>2025-04-11T11:27:55Z</time>
      </trkpt>
      <trkpt lat="45.3988" lon="0.37339">
        <ele>118</ele>
        <time>2025-04-11T11:28:18Z</time>
      </trkpt>
      <trkpt lat="45.39846" lon="0.37344">
        <ele>118</ele>
        <time>2025-04-11T11:28:25Z</time>
      </trkpt>
      <trkpt lat="45.39733" lon="0.37381">
        <ele>118</ele>
        <time>2025-04-11T11:28:45Z</time>
      </trkpt>
      <trkpt lat="45.39676" lon="0.37396">
        <ele>119</ele>
        <time>2025-04-11T11:28:56Z</time>
      </trkpt>
      <trkpt lat="45.39642" lon="0.37402">
        <ele>119</ele>
        <time>2025-04-11T11:29:02Z</time>
      </trkpt>
      <trkpt lat="45.39515" lon="0.37416">
        <ele>121</ele>
        <time>2025-04-11T11:29:24Z</time>
      </trkpt>
      <trkpt lat="45.39481" lon="0.3741">
        <ele>121</ele>
        <time>2025-04-11T11:29:30Z</time>
      </trkpt>
      <trkpt lat="45.39472" lon="0.3741">
        <ele>121</ele>
        <time>2025-04-11T11:29:32Z</time>
      </trkpt>
      <trkpt lat="45.39446" lon="0.37402">
        <ele>120</ele>
        <time>2025-04-11T11:29:37Z</time>
      </trkpt>
      <trkpt lat="45.39424" lon="0.37399">
        <ele>120</ele>
        <time>2025-04-11T11:29:41Z</time>
      </trkpt>
      <trkpt lat="45.39299" lon="0.37396">
        <ele>118</ele>
        <time>2025-04-11T11:30:03Z</time>
      </trkpt>
      <trkpt lat="45.39099" lon="0.37399">
        <ele>122</ele>
        <time>2025-04-11T11:30:38Z</time>
      </trkpt>
      <trkpt lat="45.39068" lon="0.37394">
        <ele>123</ele>
        <time>2025-04-11T11:30:44Z</time>
      </trkpt>
      <trkpt lat="45.39036" lon="0.37385">
        <ele>123</ele>
        <time>2025-04-11T11:30:50Z</time>
      </trkpt>
      <trkpt lat="45.38841" lon="0.37334">
        <ele>130</ele>
        <time>2025-04-11T11:31:25Z</time>
      </trkpt>
      <trkpt lat="45.38733" lon="0.37291">
        <ele>135</ele>
        <time>2025-04-11T11:31:45Z</time>
      </trkpt>
      <trkpt lat="45.386" lon="0.3723">
        <ele>137</ele>
        <time>2025-04-11T11:32:10Z</time>
      </trkpt>
      <trkpt lat="45.38567" lon="0.37224">
        <ele>137</ele>
        <time>2025-04-11T11:32:16Z</time>
      </trkpt>
      <trkpt lat="45.38533" lon="0.37237">
        <ele>136</ele>
        <time>2025-04-11T11:32:22Z</time>
      </trkpt>
      <trkpt lat="45.38305" lon="0.37307">
        <ele>123</ele>
        <time>2025-04-11T11:33:04Z</time>
      </trkpt>
      <trkpt lat="45.38274" lon="0.37309">
        <ele>122</ele>
        <time>2025-04-11T11:33:09Z</time>
      </trkpt>
      <trkpt lat="45.38243" lon="0.37287">
        <ele>121</ele>
        <time>2025-04-11T11:33:15Z</time>
      </trkpt>
      <trkpt lat="45.37974" lon="0.37001">
        <ele>111</ele>
        <time>2025-04-11T11:34:15Z</time>
      </trkpt>
      <trkpt lat="45.37803" lon="0.36862">
        <ele>115</ele>
        <time>2025-04-11T11:34:50Z</time>
      </trkpt>
      <trkpt lat="45.37766" lon="0.36831">
        <ele>114</ele>
        <time>2025-04-11T11:34:58Z</time>
      </trkpt>
      <trkpt lat="45.37721" lon="0.36787">
        <ele>113</ele>
        <time>2025-04-11T11:35:07Z</time>
      </trkpt>
      <trkpt lat="45.37694" lon="0.3675">
        <ele>111</ele>
        <time>2025-04-11T11:35:14Z</time>
      </trkpt>
      <trkpt lat="45.37653" lon="0.36679">
        <ele>108</ele>
        <time>2025-04-11T11:35:26Z</time>
      </trkpt>
      <trkpt lat="45.37645" lon="0.36662">
        <ele>108</ele>
        <time>2025-04-11T11:35:28Z</time>
      </trkpt>
      <trkpt lat="45.37614" lon="0.36572">
        <ele>105</ele>
        <time>2025-04-11T11:35:41Z</time>
      </trkpt>
      <trkpt lat="45.37605" lon="0.36552">
        <ele>104</ele>
        <time>2025-04-11T11:35:44Z</time>
      </trkpt>
      <trkpt lat="45.37586" lon="0.36518">
        <ele>103</ele>
        <time>2025-04-11T11:35:49Z</time>
      </trkpt>
      <trkpt lat="45.37538" lon="0.36442">
        <ele>103</ele>
        <time>2025-04-11T11:36:02Z</time>
      </trkpt>
      <trkpt lat="45.37518" lon="0.36415">
        <ele>102</ele>
        <time>2025-04-11T11:36:07Z</time>
      </trkpt>
      <trkpt lat="45.37493" lon="0.36386">
        <ele>102</ele>
        <time>2025-04-11T11:36:12Z</time>
      </trkpt>
      <trkpt lat="45.37428" lon="0.36321">
        <ele>104</ele>
        <time>2025-04-11T11:36:27Z</time>
      </trkpt>
      <trkpt lat="45.3726" lon="0.36182">
        <ele>103</ele>
        <time>2025-04-11T11:37:01Z</time>
      </trkpt>
      <trkpt lat="45.3716" lon="0.36091">
        <ele>100</ele>
        <time>2025-04-11T11:37:22Z</time>
      </trkpt>
      <trkpt lat="45.36967" lon="0.35931">
        <ele>102</ele>
        <time>2025-04-11T11:38:02Z</time>
      </trkpt>
      <trkpt lat="45.36945" lon="0.35906">
        <ele>101</ele>
        <time>2025-04-11T11:38:07Z</time>
      </trkpt>
      <trkpt lat="45.36932" lon="0.3588">
        <ele>101</ele>
        <time>2025-04-11T11:38:11Z</time>
      </trkpt>
      <trkpt lat="45.36924" lon="0.35852">
        <ele>100</ele>
        <time>2025-04-11T11:38:15Z</time>
      </trkpt>
      <trkpt lat="45.36923" lon="0.35818">
        <ele>100</ele>
        <time>2025-04-11T11:38:19Z</time>
      </trkpt>
      <trkpt lat="45.36934" lon="0.35482">
        <ele>107</ele>
        <time>2025-04-11T11:39:01Z</time>
      </trkpt>
      <trkpt lat="45.36934" lon="0.35418">
        <ele>109</ele>
        <time>2025-04-11T11:39:09Z</time>
      </trkpt>
      <trkpt lat="45.36926" lon="0.35351">
        <ele>112</ele>
        <time>2025-04-11T11:39:18Z</time>
      </trkpt>
      <trkpt lat="45.36908" lon="0.35244">
        <ele>121</ele>
        <time>2025-04-11T11:39:31Z</time>
      </trkpt>
      <trkpt lat="45.36888" lon="0.35156">
        <ele>132</ele>
        <time>2025-04-11T11:39:43Z</time>
      </trkpt>
      <trkpt lat="45.36874" lon="0.35068">
        <ele>138</ele>
        <time>2025-04-11T11:39:54Z</time>
      </trkpt>
      <trkpt lat="45.36818" lon="0.35029">
        <ele>137</ele>
        <time>2025-04-11T11:40:05Z</time>
      </trkpt>
      <trkpt lat="45.36778" lon="0.34991">
        <ele>135</ele>
        <time>2025-04-11T11:40:14Z</time>
      </trkpt>
      <trkpt lat="45.36732" lon="0.34912">
        <ele>130</ele>
        <time>2025-04-11T11:40:27Z</time>
      </trkpt>
      <trkpt lat="45.36693" lon="0.34855">
        <ele>126</ele>
        <time>2025-04-11T11:40:37Z</time>
      </trkpt>
      <trkpt lat="45.36664" lon="0.34819">
        <ele>123</ele>
        <time>2025-04-11T11:40:43Z</time>
      </trkpt>
      <trkpt lat="45.3665" lon="0.34807">
        <ele>122</ele>
        <time>2025-04-11T11:40:46Z</time>
      </trkpt>
      <trkpt lat="45.36608" lon="0.34786">
        <ele>119</ele>
        <time>2025-04-11T11:40:54Z</time>
      </trkpt>
      <trkpt lat="45.3636" lon="0.34671">
        <ele>103</ele>
        <time>2025-04-11T11:41:41Z</time>
      </trkpt>
      <trkpt lat="45.36084" lon="0.34339">
        <ele>118</ele>
        <time>2025-04-11T11:42:45Z</time>
      </trkpt>
      <trkpt lat="45.36042" lon="0.34279">
        <ele>120</ele>
        <time>2025-04-11T11:42:56Z</time>
      </trkpt>
      <trkpt lat="45.3587" lon="0.34002">
        <ele>101</ele>
        <time>2025-04-11T11:43:42Z</time>
      </trkpt>
      <trkpt lat="45.35835" lon="0.33953">
        <ele>102</ele>
        <time>2025-04-11T11:43:51Z</time>
      </trkpt>
      <trkpt lat="45.35829" lon="0.33949">
        <ele>102</ele>
        <time>2025-04-11T11:43:52Z</time>
      </trkpt>
      <trkpt lat="45.35813" lon="0.33941">
        <ele>103</ele>
        <time>2025-04-11T11:43:55Z</time>
      </trkpt>
      <trkpt lat="45.35793" lon="0.33937">
        <ele>104</ele>
        <time>2025-04-11T11:43:58Z</time>
      </trkpt>
      <trkpt lat="45.35784" lon="0.33938">
        <ele>105</ele>
        <time>2025-04-11T11:44:00Z</time>
      </trkpt>
      <trkpt lat="45.3578" lon="0.33895">
        <ele>106</ele>
        <time>2025-04-11T11:44:05Z</time>
      </trkpt>
      <trkpt lat="45.35782" lon="0.33878">
        <ele>106</ele>
        <time>2025-04-11T11:44:08Z</time>
      </trkpt>
      <trkpt lat="45.35774" lon="0.33875">
        <ele>106</ele>
        <time>2025-04-11T11:44:09Z</time>
      </trkpt>
      <trkpt lat="45.35749" lon="0.3384">
        <ele>108</ele>
        <time>2025-04-11T11:44:15Z</time>
      </trkpt>
      <trkpt lat="45.35734" lon="0.33831">
        <ele>108</ele>
        <time>2025-04-11T11:44:18Z</time>
      </trkpt>
      <trkpt lat="45.35711" lon="0.33824">
        <ele>109</ele>
        <time>2025-04-11T11:44:22Z</time>
      </trkpt>
      <trkpt lat="45.35661" lon="0.33821">
        <ele>110</ele>
        <time>2025-04-11T11:44:31Z</time>
      </trkpt>
      <trkpt lat="45.3565" lon="0.33817">
        <ele>109</ele>
        <time>2025-04-11T11:44:33Z</time>
      </trkpt>
      <trkpt lat="45.35578" lon="0.33778">
        <ele>108</ele>
        <time>2025-04-11T11:44:47Z</time>
      </trkpt>
      <trkpt lat="45.35521" lon="0.33739">
        <ele>109</ele>
        <time>2025-04-11T11:44:58Z</time>
      </trkpt>
      <trkpt lat="45.35487" lon="0.33713">
        <ele>109</ele>
        <time>2025-04-11T11:45:05Z</time>
      </trkpt>
      <trkpt lat="45.35415" lon="0.33639">
        <ele>110</ele>
        <time>2025-04-11T11:45:21Z</time>
      </trkpt>
      <trkpt lat="45.35386" lon="0.33587">
        <ele>112</ele>
        <time>2025-04-11T11:45:29Z</time>
      </trkpt>
      <trkpt lat="45.35378" lon="0.33528">
        <ele>113</ele>
        <time>2025-04-11T11:45:37Z</time>
      </trkpt>
      <trkpt lat="45.35362" lon="0.33483">
        <ele>113</ele>
        <time>2025-04-11T11:45:43Z</time>
      </trkpt>
      <trkpt lat="45.35302" lon="0.33436">
        <ele>114</ele>
        <time>2025-04-11T11:45:55Z</time>
      </trkpt>
      <trkpt lat="45.35232" lon="0.33368">
        <ele>118</ele>
        <time>2025-04-11T11:46:10Z</time>
      </trkpt>
      <trkpt lat="45.35164" lon="0.33333">
        <ele>117</ele>
        <time>2025-04-11T11:46:23Z</time>
      </trkpt>
      <trkpt lat="45.35121" lon="0.33173">
        <ele>123</ele>
        <time>2025-04-11T11:46:45Z</time>
      </trkpt>
      <trkpt lat="45.35049" lon="0.32967">
        <ele>138</ele>
        <time>2025-04-11T11:47:13Z</time>
      </trkpt>
      <trkpt lat="45.34989" lon="0.32761">
        <ele>151</ele>
        <time>2025-04-11T11:47:41Z</time>
      </trkpt>
      <trkpt lat="45.34955" lon="0.32686">
        <ele>154</ele>
        <time>2025-04-11T11:47:52Z</time>
      </trkpt>
      <trkpt lat="45.3494" lon="0.32615">
        <ele>158</ele>
        <time>2025-04-11T11:48:02Z</time>
      </trkpt>
      <trkpt lat="45.34889" lon="0.3246">
        <ele>160</ele>
        <time>2025-04-11T11:48:23Z</time>
      </trkpt>
      <trkpt lat="45.34842" lon="0.3242">
        <ele>159</ele>
        <time>2025-04-11T11:48:33Z</time>
      </trkpt>
      <trkpt lat="45.34798" lon="0.32354">
        <ele>159</ele>
        <time>2025-04-11T11:48:44Z</time>
      </trkpt>
      <trkpt lat="45.3475" lon="0.32255">
        <ele>165</ele>
        <time>2025-04-11T11:48:59Z</time>
      </trkpt>
      <trkpt lat="45.34717" lon="0.32221">
        <ele>168</ele>
        <time>2025-04-11T11:49:06Z</time>
      </trkpt>
      <trkpt lat="45.34686" lon="0.32216">
        <ele>170</ele>
        <time>2025-04-11T11:49:12Z</time>
      </trkpt>
      <trkpt lat="45.34646" lon="0.32226">
        <ele>171</ele>
        <time>2025-04-11T11:49:19Z</time>
      </trkpt>
      <trkpt lat="45.34536" lon="0.32225">
        <ele>171</ele>
        <time>2025-04-11T11:49:39Z</time>
      </trkpt>
      <trkpt lat="45.34362" lon="0.32213">
        <ele>180</ele>
        <time>2025-04-11T11:50:10Z</time>
      </trkpt>
      <trkpt lat="45.34349" lon="0.32208">
        <ele>180</ele>
        <time>2025-04-11T11:50:12Z</time>
      </trkpt>
      <trkpt lat="45.34299" lon="0.32096">
        <ele>175</ele>
        <time>2025-04-11T11:50:29Z</time>
      </trkpt>
      <trkpt lat="45.34267" lon="0.32159">
        <ele>175</ele>
        <time>2025-04-11T11:50:38Z</time>
      </trkpt>
      <trkpt lat="45.34265" lon="0.32152">
        <ele>175</ele>
        <time>2025-04-11T11:50:39Z</time>
      </trkpt>
      <trkpt lat="45.34264" lon="0.32098">
        <ele>174</ele>
        <time>2025-04-11T11:50:46Z</time>
      </trkpt>
      <trkpt lat="45.34262" lon="0.32079">
        <ele>174</ele>
        <time>2025-04-11T11:50:49Z</time>
      </trkpt>
      <trkpt lat="45.34258" lon="0.32057">
        <ele>174</ele>
        <time>2025-04-11T11:50:51Z</time>
      </trkpt>
      <trkpt lat="45.34251" lon="0.32035">
        <ele>174</ele>
        <time>2025-04-11T11:50:54Z</time>
      </trkpt>
      <trkpt lat="45.34222" lon="0.31972">
        <ele>170</ele>
        <time>2025-04-11T11:51:04Z</time>
      </trkpt>
      <trkpt lat="45.34208" lon="0.31949">
        <ele>169</ele>
        <time>2025-04-11T11:51:08Z</time>
      </trkpt>
      <trkpt lat="45.34194" lon="0.31932">
        <ele>168</ele>
        <time>2025-04-11T11:51:11Z</time>
      </trkpt>
      <trkpt lat="45.3418" lon="0.3192">
        <ele>168</ele>
        <time>2025-04-11T11:51:14Z</time>
      </trkpt>
      <trkpt lat="45.34158" lon="0.31905">
        <ele>167</ele>
        <time>2025-04-11T11:51:18Z</time>
      </trkpt>
      <trkpt lat="45.34038" lon="0.31852">
        <ele>163</ele>
        <time>2025-04-11T11:51:41Z</time>
      </trkpt>
      <trkpt lat="45.33916" lon="0.31802">
        <ele>163</ele>
        <time>2025-04-11T11:52:03Z</time>
      </trkpt>
      <trkpt lat="45.33762" lon="0.31731">
        <ele>160</ele>
        <time>2025-04-11T11:52:32Z</time>
      </trkpt>
      <trkpt lat="45.33495" lon="0.31565">
        <ele>153</ele>
        <time>2025-04-11T11:53:24Z</time>
      </trkpt>
      <trkpt lat="45.33474" lon="0.31556">
        <ele>153</ele>
        <time>2025-04-11T11:53:28Z</time>
      </trkpt>
      <trkpt lat="45.33455" lon="0.31552">
        <ele>152</ele>
        <time>2025-04-11T11:53:31Z</time>
      </trkpt>
      <trkpt lat="45.33276" lon="0.31553">
        <ele>145</ele>
        <time>2025-04-11T11:54:03Z</time>
      </trkpt>
      <trkpt lat="45.33199" lon="0.31547">
        <ele>143</ele>
        <time>2025-04-11T11:54:17Z</time>
      </trkpt>
      <trkpt lat="45.3314" lon="0.31529">
        <ele>143</ele>
        <time>2025-04-11T11:54:27Z</time>
      </trkpt>
      <trkpt lat="45.33096" lon="0.31507">
        <ele>144</ele>
        <time>2025-04-11T11:54:36Z</time>
      </trkpt>
      <trkpt lat="45.33067" lon="0.31483">
        <ele>143</ele>
        <time>2025-04-11T11:54:42Z</time>
      </trkpt>
      <trkpt lat="45.32875" lon="0.31284">
        <ele>135</ele>
        <time>2025-04-11T11:55:24Z</time>
      </trkpt>
      <trkpt lat="45.32855" lon="0.31271">
        <ele>134</ele>
        <time>2025-04-11T11:55:28Z</time>
      </trkpt>
      <trkpt lat="45.32817" lon="0.31263">
        <ele>133</ele>
        <time>2025-04-11T11:55:35Z</time>
      </trkpt>
      <trkpt lat="45.32802" lon="0.31254">
        <ele>133</ele>
        <time>2025-04-11T11:55:38Z</time>
      </trkpt>
      <trkpt lat="45.32717" lon="0.31177">
        <ele>135</ele>
        <time>2025-04-11T11:55:56Z</time>
      </trkpt>
      <trkpt lat="45.32705" lon="0.31171">
        <ele>135</ele>
        <time>2025-04-11T11:55:58Z</time>
      </trkpt>
      <trkpt lat="45.32657" lon="0.31158">
        <ele>136</ele>
        <time>2025-04-11T11:56:06Z</time>
      </trkpt>
      <trkpt lat="45.3264" lon="0.31151">
        <ele>137</ele>
        <time>2025-04-11T11:56:10Z</time>
      </trkpt>
      <trkpt lat="45.32619" lon="0.31138">
        <ele>137</ele>
        <time>2025-04-11T11:56:14Z</time>
      </trkpt>
      <trkpt lat="45.32552" lon="0.31074">
        <ele>141</ele>
        <time>2025-04-11T11:56:28Z</time>
      </trkpt>
      <trkpt lat="45.32489" lon="0.31005">
        <ele>144</ele>
        <time>2025-04-11T11:56:42Z</time>
      </trkpt>
      <trkpt lat="45.32441" lon="0.30936">
        <ele>144</ele>
        <time>2025-04-11T11:56:54Z</time>
      </trkpt>
      <trkpt lat="45.32358" lon="0.30808">
        <ele>143</ele>
        <time>2025-04-11T11:57:16Z</time>
      </trkpt>
      <trkpt lat="45.32291" lon="0.30713">
        <ele>140</ele>
        <time>2025-04-11T11:57:33Z</time>
      </trkpt>
      <trkpt lat="45.32238" lon="0.30654">
        <ele>141</ele>
        <time>2025-04-11T11:57:45Z</time>
      </trkpt>
      <trkpt lat="45.32213" lon="0.30631">
        <ele>140</ele>
        <time>2025-04-11T11:57:50Z</time>
      </trkpt>
      <trkpt lat="45.32189" lon="0.30615">
        <ele>140</ele>
        <time>2025-04-11T11:57:55Z</time>
      </trkpt>
      <trkpt lat="45.32161" lon="0.30602">
        <ele>140</ele>
        <time>2025-04-11T11:58:00Z</time>
      </trkpt>
      <trkpt lat="45.32065" lon="0.30564">
        <ele>136</ele>
        <time>2025-04-11T11:58:18Z</time>
      </trkpt>
      <trkpt lat="45.32057" lon="0.30568">
        <ele>137</ele>
        <time>2025-04-11T11:58:19Z</time>
      </trkpt>
      <trkpt lat="45.32049" lon="0.30566">
        <ele>136</ele>
        <time>2025-04-11T11:58:21Z</time>
      </trkpt>
      <trkpt lat="45.3195" lon="0.30531">
        <ele>137</ele>
        <time>2025-04-11T11:58:39Z</time>
      </trkpt>
      <trkpt lat="45.31943" lon="0.30531">
        <ele>137</ele>
        <time>2025-04-11T11:58:40Z</time>
      </trkpt>
      <trkpt lat="45.31931" lon="0.30537">
        <ele>137</ele>
        <time>2025-04-11T11:58:43Z</time>
      </trkpt>
      <trkpt lat="45.31897" lon="0.30577">
        <ele>135</ele>
        <time>2025-04-11T11:58:50Z</time>
      </trkpt>
      <trkpt lat="45.31884" lon="0.30582">
        <ele>134</ele>
        <time>2025-04-11T11:58:53Z</time>
      </trkpt>
      <trkpt lat="45.31842" lon="0.30577">
        <ele>132</ele>
        <time>2025-04-11T11:59:00Z</time>
      </trkpt>
      <trkpt lat="45.31804" lon="0.30586">
        <ele>127</ele>
        <time>2025-04-11T11:59:07Z</time>
      </trkpt>
      <trkpt lat="45.31781" lon="0.30601">
        <ele>123</ele>
        <time>2025-04-11T11:59:12Z</time>
      </trkpt>
      <trkpt lat="45.31728" lon="0.30653">
        <ele>114</ele>
        <time>2025-04-11T11:59:23Z</time>
      </trkpt>
      <trkpt lat="45.31684" lon="0.30712">
        <ele>110</ele>
        <time>2025-04-11T11:59:34Z</time>
      </trkpt>
      <trkpt lat="45.31669" lon="0.30727">
        <ele>109</ele>
        <time>2025-04-11T11:59:37Z</time>
      </trkpt>
      <trkpt lat="45.3165" lon="0.30732">
        <ele>108</ele>
        <time>2025-04-11T11:59:41Z</time>
      </trkpt>
      <trkpt lat="45.31629" lon="0.30745">
        <ele>106</ele>
        <time>2025-04-11T11:59:45Z</time>
      </trkpt>
      <trkpt lat="45.31504" lon="0.30803">
        <ele>98</ele>
        <time>2025-04-11T12:00:08Z</time>
      </trkpt>
      <trkpt lat="45.31419" lon="0.30826">
        <ele>98</ele>
        <time>2025-04-11T12:00:23Z</time>
      </trkpt>
      <trkpt lat="45.31411" lon="0.30833">
        <ele>98</ele>
        <time>2025-04-11T12:00:25Z</time>
      </trkpt>
      <trkpt lat="45.31404" lon="0.3085">
        <ele>97</ele>
        <time>2025-04-11T12:00:28Z</time>
      </trkpt>
      <trkpt lat="45.31406" lon="0.30874">
        <ele>97</ele>
        <time>2025-04-11T12:00:31Z</time>
      </trkpt>
      <trkpt lat="45.31425" lon="0.30961">
        <ele>95</ele>
        <time>2025-04-11T12:00:42Z</time>
      </trkpt>
      <trkpt lat="45.31423" lon="0.30983">
        <ele>94</ele>
        <time>2025-04-11T12:00:45Z</time>
      </trkpt>
      <trkpt lat="45.31417" lon="0.31001">
        <ele>93</ele>
        <time>2025-04-11T12:00:47Z</time>
      </trkpt>
      <trkpt lat="45.31404" lon="0.31019">
        <ele>91</ele>
        <time>2025-04-11T12:00:50Z</time>
      </trkpt>
      <trkpt lat="45.31363" lon="0.3106">
        <ele>88</ele>
        <time>2025-04-11T12:00:59Z</time>
      </trkpt>
      <trkpt lat="45.31322" lon="0.31112">
        <ele>85</ele>
        <time>2025-04-11T12:01:09Z</time>
      </trkpt>
      <trkpt lat="45.31293" lon="0.31155">
        <ele>82</ele>
        <time>2025-04-11T12:01:17Z</time>
      </trkpt>
      <trkpt lat="45.31203" lon="0.31287">
        <ele>73</ele>
        <time>2025-04-11T12:01:40Z</time>
      </trkpt>
      <trkpt lat="45.31174" lon="0.31318">
        <ele>71</ele>
        <time>2025-04-11T12:01:46Z</time>
      </trkpt>
      <trkpt lat="45.31149" lon="0.31335">
        <ele>70</ele>
        <time>2025-04-11T12:01:51Z</time>
      </trkpt>
      <trkpt lat="45.31103" lon="0.31366">
        <ele>68</ele>
        <time>2025-04-11T12:02:00Z</time>
      </trkpt>
      <trkpt lat="45.31093" lon="0.31374">
        <ele>68</ele>
        <time>2025-04-11T12:02:02Z</time>
      </trkpt>
      <trkpt lat="45.30974" lon="0.31462">
        <ele>67</ele>
        <time>2025-04-11T12:02:26Z</time>
      </trkpt>
      <trkpt lat="45.30948" lon="0.31476">
        <ele>68</ele>
        <time>2025-04-11T12:02:31Z</time>
      </trkpt>
      <trkpt lat="45.3093" lon="0.31478">
        <ele>69</ele>
        <time>2025-04-11T12:02:34Z</time>
      </trkpt>
      <trkpt lat="45.30911" lon="0.31471">
        <ele>70</ele>
        <time>2025-04-11T12:02:38Z</time>
      </trkpt>
      <trkpt lat="45.30884" lon="0.31449">
        <ele>70</ele>
        <time>2025-04-11T12:02:43Z</time>
      </trkpt>
      <trkpt lat="45.30852" lon="0.31419">
        <ele>69</ele>
        <time>2025-04-11T12:02:50Z</time>
      </trkpt>
      <trkpt lat="45.30831" lon="0.31407">
        <ele>69</ele>
        <time>2025-04-11T12:02:54Z</time>
      </trkpt>
      <trkpt lat="45.30801" lon="0.31399">
        <ele>70</ele>
        <time>2025-04-11T12:02:59Z</time>
      </trkpt>
      <trkpt lat="45.30598" lon="0.31393">
        <ele>79</ele>
        <time>2025-04-11T12:03:36Z</time>
      </trkpt>
      <trkpt lat="45.30443" lon="0.31379">
        <ele>88</ele>
        <time>2025-04-11T12:04:03Z</time>
      </trkpt>
      <trkpt lat="45.30429" lon="0.3137">
        <ele>90</ele>
        <time>2025-04-11T12:04:06Z</time>
      </trkpt>
      <trkpt lat="45.30418" lon="0.31356">
        <ele>91</ele>
        <time>2025-04-11T12:04:09Z</time>
      </trkpt>
      <trkpt lat="45.30412" lon="0.31333">
        <ele>93</ele>
        <time>2025-04-11T12:04:12Z</time>
      </trkpt>
      <trkpt lat="45.30407" lon="0.3128">
        <ele>94</ele>
        <time>2025-04-11T12:04:18Z</time>
      </trkpt>
      <trkpt lat="45.30398" lon="0.31252">
        <ele>95</ele>
        <time>2025-04-11T12:04:22Z</time>
      </trkpt>
      <trkpt lat="45.30386" lon="0.31237">
        <ele>96</ele>
        <time>2025-04-11T12:04:25Z</time>
      </trkpt>
      <trkpt lat="45.30368" lon="0.31224">
        <ele>97</ele>
        <time>2025-04-11T12:04:29Z</time>
      </trkpt>
      <trkpt lat="45.30347" lon="0.31218">
        <ele>99</ele>
        <time>2025-04-11T12:04:32Z</time>
      </trkpt>
      <trkpt lat="45.30322" lon="0.31217">
        <ele>101</ele>
        <time>2025-04-11T12:04:37Z</time>
      </trkpt>
      <trkpt lat="45.30301" lon="0.31223">
        <ele>102</ele>
        <time>2025-04-11T12:04:41Z</time>
      </trkpt>
      <trkpt lat="45.3028" lon="0.31237">
        <ele>103</ele>
        <time>2025-04-11T12:04:45Z</time>
      </trkpt>
      <trkpt lat="45.30237" lon="0.31288">
        <ele>108</ele>
        <time>2025-04-11T12:04:55Z</time>
      </trkpt>
      <trkpt lat="45.30213" lon="0.31314">
        <ele>110</ele>
        <time>2025-04-11T12:05:00Z</time>
      </trkpt>
      <trkpt lat="45.3006" lon="0.31427">
        <ele>124</ele>
        <time>2025-04-11T12:05:31Z</time>
      </trkpt>
      <trkpt lat="45.30012" lon="0.31447">
        <ele>125</ele>
        <time>2025-04-11T12:05:40Z</time>
      </trkpt>
      <trkpt lat="45.2997" lon="0.31459">
        <ele>124</ele>
        <time>2025-04-11T12:05:47Z</time>
      </trkpt>
      <trkpt lat="45.29941" lon="0.31464">
        <ele>124</ele>
        <time>2025-04-11T12:05:53Z</time>
      </trkpt>
      <trkpt lat="45.29851" lon="0.31461">
        <ele>126</ele>
        <time>2025-04-11T12:06:09Z</time>
      </trkpt>
      <trkpt lat="45.29819" lon="0.31455">
        <ele>127</ele>
        <time>2025-04-11T12:06:14Z</time>
      </trkpt>
      <trkpt lat="45.29636" lon="0.31396">
        <ele>134</ele>
        <time>2025-04-11T12:06:48Z</time>
      </trkpt>
      <trkpt lat="45.29608" lon="0.31383">
        <ele>135</ele>
        <time>2025-04-11T12:06:53Z</time>
      </trkpt>
      <trkpt lat="45.29464" lon="0.31287">
        <ele>124</ele>
        <time>2025-04-11T12:07:21Z</time>
      </trkpt>
      <trkpt lat="45.29441" lon="0.31269">
        <ele>122</ele>
        <time>2025-04-11T12:07:26Z</time>
      </trkpt>
      <trkpt lat="45.29411" lon="0.31233">
        <ele>120</ele>
        <time>2025-04-11T12:07:33Z</time>
      </trkpt>
      <trkpt lat="45.29393" lon="0.31202">
        <ele>119</ele>
        <time>2025-04-11T12:07:38Z</time>
      </trkpt>
      <trkpt lat="45.29373" lon="0.31146">
        <ele>117</ele>
        <time>2025-04-11T12:07:46Z</time>
      </trkpt>
      <trkpt lat="45.29356" lon="0.31084">
        <ele>113</ele>
        <time>2025-04-11T12:07:54Z</time>
      </trkpt>
      <trkpt lat="45.29352" lon="0.31047">
        <ele>112</ele>
        <time>2025-04-11T12:07:59Z</time>
      </trkpt>
      <trkpt lat="45.29353" lon="0.30952">
        <ele>111</ele>
        <time>2025-04-11T12:08:11Z</time>
      </trkpt>
      <trkpt lat="45.29351" lon="0.30913">
        <ele>110</ele>
        <time>2025-04-11T12:08:16Z</time>
      </trkpt>
      <trkpt lat="45.29336" lon="0.3084">
        <ele>107</ele>
        <time>2025-04-11T12:08:25Z</time>
      </trkpt>
      <trkpt lat="45.29327" lon="0.30826">
        <ele>106</ele>
        <time>2025-04-11T12:08:27Z</time>
      </trkpt>
      <trkpt lat="45.29316" lon="0.30822">
        <ele>105</ele>
        <time>2025-04-11T12:08:30Z</time>
      </trkpt>
      <trkpt lat="45.29269" lon="0.30844">
        <ele>103</ele>
        <time>2025-04-11T12:08:38Z</time>
      </trkpt>
      <trkpt lat="45.29254" lon="0.30847">
        <ele>102</ele>
        <time>2025-04-11T12:08:41Z</time>
      </trkpt>
      <trkpt lat="45.29239" lon="0.30843">
        <ele>103</ele>
        <time>2025-04-11T12:08:44Z</time>
      </trkpt>
      <trkpt lat="45.29216" lon="0.30822">
        <ele>104</ele>
        <time>2025-04-11T12:08:49Z</time>
      </trkpt>
      <trkpt lat="45.29202" lon="0.30819">
        <ele>105</ele>
        <time>2025-04-11T12:08:51Z</time>
      </trkpt>
      <trkpt lat="45.29187" lon="0.30824">
        <ele>107</ele>
        <time>2025-04-11T12:08:54Z</time>
      </trkpt>
      <trkpt lat="45.2914" lon="0.30856">
        <ele>111</ele>
        <time>2025-04-11T12:09:03Z</time>
      </trkpt>
      <trkpt lat="45.29095" lon="0.30881">
        <ele>111</ele>
        <time>2025-04-11T12:09:12Z</time>
      </trkpt>
      <trkpt lat="45.29043" lon="0.30903">
        <ele>111</ele>
        <time>2025-04-11T12:09:21Z</time>
      </trkpt>
      <trkpt lat="45.28991" lon="0.30921">
        <ele>112</ele>
        <time>2025-04-11T12:09:31Z</time>
      </trkpt>
      <trkpt lat="45.28941" lon="0.30931">
        <ele>113</ele>
        <time>2025-04-11T12:09:40Z</time>
      </trkpt>
      <trkpt lat="45.28908" lon="0.30934">
        <ele>115</ele>
        <time>2025-04-11T12:09:46Z</time>
      </trkpt>
      <trkpt lat="45.28893" lon="0.30931">
        <ele>115</ele>
        <time>2025-04-11T12:09:48Z</time>
      </trkpt>
      <trkpt lat="45.2888" lon="0.30918">
        <ele>115</ele>
        <time>2025-04-11T12:09:51Z</time>
      </trkpt>
      <trkpt lat="45.28874" lon="0.309">
        <ele>115</ele>
        <time>2025-04-11T12:09:54Z</time>
      </trkpt>
      <trkpt lat="45.28841" lon="0.30906">
        <ele>117</ele>
        <time>2025-04-11T12:10:00Z</time>
      </trkpt>
      <trkpt lat="45.2881" lon="0.30893">
        <ele>118</ele>
        <time>2025-04-11T12:10:05Z</time>
      </trkpt>
      <trkpt lat="45.28804" lon="0.30896">
        <ele>118</ele>
        <time>2025-04-11T12:10:07Z</time>
      </trkpt>
      <trkpt lat="45.2879" lon="0.30908">
        <ele>119</ele>
        <time>2025-04-11T12:10:09Z</time>
      </trkpt>
      <trkpt lat="45.28783" lon="0.3091">
        <ele>119</ele>
        <time>2025-04-11T12:10:11Z</time>
      </trkpt>
      <trkpt lat="45.28764" lon="0.30907">
        <ele>120</ele>
        <time>2025-04-11T12:10:14Z</time>
      </trkpt>
      <trkpt lat="45.28733" lon="0.3088">
        <ele>122</ele>
        <time>2025-04-11T12:10:21Z</time>
      </trkpt>
      <trkpt lat="45.28683" lon="0.30857">
        <ele>125</ele>
        <time>2025-04-11T12:10:30Z</time>
      </trkpt>
      <trkpt lat="45.28628" lon="0.30855">
        <ele>126</ele>
        <time>2025-04-11T12:10:40Z</time>
      </trkpt>
      <trkpt lat="45.28607" lon="0.30862">
        <ele>127</ele>
        <time>2025-04-11T12:10:44Z</time>
      </trkpt>
      <trkpt lat="45.28591" lon="0.30876">
        <ele>127</ele>
        <time>2025-04-11T12:10:47Z</time>
      </trkpt>
      <trkpt lat="45.28583" lon="0.30887">
        <ele>128</ele>
        <time>2025-04-11T12:10:49Z</time>
      </trkpt>
      <trkpt lat="45.28576" lon="0.30902">
        <ele>128</ele>
        <time>2025-04-11T12:10:51Z</time>
      </trkpt>
      <trkpt lat="45.28571" lon="0.30918">
        <ele>128</ele>
        <time>2025-04-11T12:10:53Z</time>
      </trkpt>
      <trkpt lat="45.28566" lon="0.30968">
        <ele>128</ele>
        <time>2025-04-11T12:11:00Z</time>
      </trkpt>
      <trkpt lat="45.28561" lon="0.30988">
        <ele>128</ele>
        <time>2025-04-11T12:11:02Z</time>
      </trkpt>
      <trkpt lat="45.28556" lon="0.31002">
        <ele>127</ele>
        <time>2025-04-11T12:11:04Z</time>
      </trkpt>
      <trkpt lat="45.28538" lon="0.3103">
        <ele>127</ele>
        <time>2025-04-11T12:11:09Z</time>
      </trkpt>
      <trkpt lat="45.28516" lon="0.31051">
        <ele>127</ele>
        <time>2025-04-11T12:11:14Z</time>
      </trkpt>
      <trkpt lat="45.2849" lon="0.31064">
        <ele>126</ele>
        <time>2025-04-11T12:11:19Z</time>
      </trkpt>
      <trkpt lat="45.28466" lon="0.31065">
        <ele>125</ele>
        <time>2025-04-11T12:11:23Z</time>
      </trkpt>
      <trkpt lat="45.28451" lon="0.31061">
        <ele>124</ele>
        <time>2025-04-11T12:11:26Z</time>
      </trkpt>
      <trkpt lat="45.28439" lon="0.31054">
        <ele>123</ele>
        <time>2025-04-11T12:11:28Z</time>
      </trkpt>
      <trkpt lat="45.28385" lon="0.31008">
        <ele>119</ele>
        <time>2025-04-11T12:11:39Z</time>
      </trkpt>
      <trkpt lat="45.28371" lon="0.30999">
        <ele>119</ele>
        <time>2025-04-11T12:11:42Z</time>
      </trkpt>
      <trkpt lat="45.28359" lon="0.30994">
        <ele>118</ele>
        <time>2025-04-11T12:11:44Z</time>
      </trkpt>
      <trkpt lat="45.28346" lon="0.30993">
        <ele>117</ele>
        <time>2025-04-11T12:11:46Z</time>
      </trkpt>
      <trkpt lat="45.28335" lon="0.30996">
        <ele>116</ele>
        <time>2025-04-11T12:11:48Z</time>
      </trkpt>
      <trkpt lat="45.28323" lon="0.31001">
        <ele>116</ele>
        <time>2025-04-11T12:11:51Z</time>
      </trkpt>
      <trkpt lat="45.28303" lon="0.31022">
        <ele>115</ele>
        <time>2025-04-11T12:11:55Z</time>
      </trkpt>
      <trkpt lat="45.2829" lon="0.31041">
        <ele>113</ele>
        <time>2025-04-11T12:11:58Z</time>
      </trkpt>
      <trkpt lat="45.2822" lon="0.31162">
        <ele>103</ele>
        <time>2025-04-11T12:12:18Z</time>
      </trkpt>
      <trkpt lat="45.28212" lon="0.31172">
        <ele>102</ele>
        <time>2025-04-11T12:12:20Z</time>
      </trkpt>
      <trkpt lat="45.28204" lon="0.31178">
        <ele>101</ele>
        <time>2025-04-11T12:12:22Z</time>
      </trkpt>
      <trkpt lat="45.28191" lon="0.31183">
        <ele>100</ele>
        <time>2025-04-11T12:12:24Z</time>
      </trkpt>
      <trkpt lat="45.28175" lon="0.31182">
        <ele>100</ele>
        <time>2025-04-11T12:12:27Z</time>
      </trkpt>
      <trkpt lat="45.28157" lon="0.31176">
        <ele>99</ele>
        <time>2025-04-11T12:12:30Z</time>
      </trkpt>
      <trkpt lat="45.28121" lon="0.31156">
        <ele>97</ele>
        <time>2025-04-11T12:12:37Z</time>
      </trkpt>
      <trkpt lat="45.2808" lon="0.31127">
        <ele>95</ele>
        <time>2025-04-11T12:12:45Z</time>
      </trkpt>
      <trkpt lat="45.28054" lon="0.31114">
        <ele>95</ele>
        <time>2025-04-11T12:12:50Z</time>
      </trkpt>
      <trkpt lat="45.28037" lon="0.31109">
        <ele>94</ele>
        <time>2025-04-11T12:12:53Z</time>
      </trkpt>
      <trkpt lat="45.28013" lon="0.31108">
        <ele>93</ele>
        <time>2025-04-11T12:12:57Z</time>
      </trkpt>
      <trkpt lat="45.2799" lon="0.3111">
        <ele>92</ele>
        <time>2025-04-11T12:13:01Z</time>
      </trkpt>
      <trkpt lat="45.27952" lon="0.31118">
        <ele>91</ele>
        <time>2025-04-11T12:13:08Z</time>
      </trkpt>
      <trkpt lat="45.27922" lon="0.31129">
        <ele>90</ele>
        <time>2025-04-11T12:13:14Z</time>
      </trkpt>
      <trkpt lat="45.2789" lon="0.31148">
        <ele>89</ele>
        <time>2025-04-11T12:13:20Z</time>
      </trkpt>
      <trkpt lat="45.27862" lon="0.31169">
        <ele>89</ele>
        <time>2025-04-11T12:13:26Z</time>
      </trkpt>
      <trkpt lat="45.27847" lon="0.31184">
        <ele>88</ele>
        <time>2025-04-11T12:13:29Z</time>
      </trkpt>
      <trkpt lat="45.27757" lon="0.31314">
        <ele>87</ele>
        <time>2025-04-11T12:13:52Z</time>
      </trkpt>
      <trkpt lat="45.27724" lon="0.31347">
        <ele>86</ele>
        <time>2025-04-11T12:13:59Z</time>
      </trkpt>
      <trkpt lat="45.27606" lon="0.31456">
        <ele>81</ele>
        <time>2025-04-11T12:14:24Z</time>
      </trkpt>
      <trkpt lat="45.27562" lon="0.31493">
        <ele>79</ele>
        <time>2025-04-11T12:14:33Z</time>
      </trkpt>
      <trkpt lat="45.27414" lon="0.31577">
        <ele>75</ele>
        <time>2025-04-11T12:15:01Z</time>
      </trkpt>
      <trkpt lat="45.27393" lon="0.31591">
        <ele>75</ele>
        <time>2025-04-11T12:15:06Z</time>
      </trkpt>
      <trkpt lat="45.26878" lon="0.31879">
        <ele>68</ele>
        <time>2025-04-11T12:16:44Z</time>
      </trkpt>
      <trkpt lat="45.26824" lon="0.31912">
        <ele>67</ele>
        <time>2025-04-11T12:16:54Z</time>
      </trkpt>
      <trkpt lat="45.26791" lon="0.31938">
        <ele>65</ele>
        <time>2025-04-11T12:17:01Z</time>
      </trkpt>
      <trkpt lat="45.26756" lon="0.31981">
        <ele>64</ele>
        <time>2025-04-11T12:17:09Z</time>
      </trkpt>
      <trkpt lat="45.26751" lon="0.3199">
        <ele>64</ele>
        <time>2025-04-11T12:17:11Z</time>
      </trkpt>
      <trkpt lat="45.26734" lon="0.32019">
        <ele>64</ele>
        <time>2025-04-11T12:17:16Z</time>
      </trkpt>
      <trkpt lat="45.26708" lon="0.32076">
        <ele>66</ele>
        <time>2025-04-11T12:17:24Z</time>
      </trkpt>
      <trkpt lat="45.26691" lon="0.32136">
        <ele>69</ele>
        <time>2025-04-11T12:17:32Z</time>
      </trkpt>
      <trkpt lat="45.26682" lon="0.3219">
        <ele>72</ele>
        <time>2025-04-11T12:17:39Z</time>
      </trkpt>
      <trkpt lat="45.26679" lon="0.32253">
        <ele>75</ele>
        <time>2025-04-11T12:17:47Z</time>
      </trkpt>
      <trkpt lat="45.26682" lon="0.32313">
        <ele>77</ele>
        <time>2025-04-11T12:17:55Z</time>
      </trkpt>
      <trkpt lat="45.26699" lon="0.32504">
        <ele>80</ele>
        <time>2025-04-11T12:18:19Z</time>
      </trkpt>
      <trkpt lat="45.26702" lon="0.32547">
        <ele>81</ele>
        <time>2025-04-11T12:18:24Z</time>
      </trkpt>
      <trkpt lat="45.26706" lon="0.32679">
        <ele>80</ele>
        <time>2025-04-11T12:18:41Z</time>
      </trkpt>
      <trkpt lat="45.26706" lon="0.32758">
        <ele>80</ele>
        <time>2025-04-11T12:18:51Z</time>
      </trkpt>
      <trkpt lat="45.26697" lon="0.32984">
        <ele>78</ele>
        <time>2025-04-11T12:19:19Z</time>
      </trkpt>
      <trkpt lat="45.26692" lon="0.33051">
        <ele>77</ele>
        <time>2025-04-11T12:19:27Z</time>
      </trkpt>
      <trkpt lat="45.26645" lon="0.33357">
        <ele>70</ele>
        <time>2025-04-11T12:20:07Z</time>
      </trkpt>
      <trkpt lat="45.26636" lon="0.3339">
        <ele>70</ele>
        <time>2025-04-11T12:20:11Z</time>
      </trkpt>
      <trkpt lat="45.26623" lon="0.33424">
        <ele>70</ele>
        <time>2025-04-11T12:20:16Z</time>
      </trkpt>
      <trkpt lat="45.26592" lon="0.33497">
        <ele>69</ele>
        <time>2025-04-11T12:20:26Z</time>
      </trkpt>
      <trkpt lat="45.26581" lon="0.33518">
        <ele>69</ele>
        <time>2025-04-11T12:20:30Z</time>
      </trkpt>
      <trkpt lat="45.26571" lon="0.33533">
        <ele>69</ele>
        <time>2025-04-11T12:20:32Z</time>
      </trkpt>
      <trkpt lat="45.26554" lon="0.33551">
        <ele>68</ele>
        <time>2025-04-11T12:20:36Z</time>
      </trkpt>
      <trkpt lat="45.26501" lon="0.33593">
        <ele>66</ele>
        <time>2025-04-11T12:20:47Z</time>
      </trkpt>
      <trkpt lat="45.26394" lon="0.33672">
        <ele>62</ele>
        <time>2025-04-11T12:21:08Z</time>
      </trkpt>
      <trkpt lat="45.26363" lon="0.337">
        <ele>61</ele>
        <time>2025-04-11T12:21:15Z</time>
      </trkpt>
      <trkpt lat="45.26323" lon="0.3374">
        <ele>61</ele>
        <time>2025-04-11T12:21:24Z</time>
      </trkpt>
      <trkpt lat="45.26292" lon="0.33777">
        <ele>62</ele>
        <time>2025-04-11T12:21:31Z</time>
      </trkpt>
      <trkpt lat="45.26263" lon="0.33818">
        <ele>61</ele>
        <time>2025-04-11T12:21:38Z</time>
      </trkpt>
      <trkpt lat="45.26233" lon="0.33868">
        <ele>61</ele>
        <time>2025-04-11T12:21:46Z</time>
      </trkpt>
      <trkpt lat="45.26214" lon="0.33904">
        <ele>60</ele>
        <time>2025-04-11T12:21:52Z</time>
      </trkpt>
      <trkpt lat="45.26197" lon="0.33942">
        <ele>59</ele>
        <time>2025-04-11T12:21:58Z</time>
      </trkpt>
      <trkpt lat="45.26172" lon="0.34007">
        <ele>58</ele>
        <time>2025-04-11T12:22:07Z</time>
      </trkpt>
      <trkpt lat="45.26153" lon="0.34067">
        <ele>59</ele>
        <time>2025-04-11T12:22:15Z</time>
      </trkpt>
      <trkpt lat="45.26135" lon="0.34146">
        <ele>60</ele>
        <time>2025-04-11T12:22:26Z</time>
      </trkpt>
      <trkpt lat="45.26126" lon="0.34204">
        <ele>61</ele>
        <time>2025-04-11T12:22:33Z</time>
      </trkpt>
      <trkpt lat="45.26124" lon="0.34246">
        <ele>61</ele>
        <time>2025-04-11T12:22:38Z</time>
      </trkpt>
      <trkpt lat="45.2612" lon="0.34278">
        <ele>61</ele>
        <time>2025-04-11T12:22:42Z</time>
      </trkpt>
      <trkpt lat="45.26115" lon="0.34285">
        <ele>61</ele>
        <time>2025-04-11T12:22:44Z</time>
      </trkpt>
      <trkpt lat="45.26101" lon="0.34287">
        <ele>61</ele>
        <time>2025-04-11T12:22:46Z</time>
      </trkpt>
      <trkpt lat="45.26056" lon="0.34284">
        <ele>61</ele>
        <time>2025-04-11T12:22:54Z</time>
      </trkpt>
      <trkpt lat="45.25963" lon="0.34288">
        <ele>61</ele>
        <time>2025-04-11T12:23:11Z</time>
      </trkpt>
      <trkpt lat="45.25925" lon="0.34288">
        <ele>61</ele>
        <time>2025-04-11T12:23:17Z</time>
      </trkpt>
      <trkpt lat="45.25797" lon="0.3429">
        <ele>63</ele>
        <time>2025-04-11T12:23:40Z</time>
      </trkpt>
      <trkpt lat="45.25768" lon="0.34291">
        <ele>62</ele>
        <time>2025-04-11T12:23:45Z</time>
      </trkpt>
      <trkpt lat="45.25715" lon="0.34292">
        <ele>62</ele>
        <time>2025-04-11T12:23:55Z</time>
      </trkpt>
      <trkpt lat="45.25693" lon="0.3429">
        <ele>61</ele>
        <time>2025-04-11T12:23:59Z</time>
      </trkpt>
      <trkpt lat="45.25678" lon="0.34286">
        <ele>61</ele>
        <time>2025-04-11T12:24:01Z</time>
      </trkpt>
      <trkpt lat="45.2566" lon="0.34276">
        <ele>61</ele>
        <time>2025-04-11T12:24:05Z</time>
      </trkpt>
      <trkpt lat="45.25619" lon="0.34246">
        <ele>63</ele>
        <time>2025-04-11T12:24:13Z</time>
      </trkpt>
      <trkpt lat="45.25505" lon="0.34162">
        <ele>65</ele>
        <time>2025-04-11T12:24:36Z</time>
      </trkpt>
      <trkpt lat="45.25472" lon="0.34135">
        <ele>67</ele>
        <time>2025-04-11T12:24:43Z</time>
      </trkpt>
      <trkpt lat="45.25462" lon="0.34115">
        <ele>67</ele>
        <time>2025-04-11T12:24:46Z</time>
      </trkpt>
      <trkpt lat="45.25463" lon="0.34104">
        <ele>67</ele>
        <time>2025-04-11T12:24:47Z</time>
      </trkpt>
      <trkpt lat="45.25462" lon="0.34099">
        <ele>67</ele>
        <time>2025-04-11T12:24:48Z</time>
      </trkpt>
      <trkpt lat="45.25455" lon="0.34092">
        <ele>67</ele>
        <time>2025-04-11T12:24:49Z</time>
      </trkpt>
      <trkpt lat="45.25452" lon="0.34092">
        <ele>67</ele>
        <time>2025-04-11T12:24:50Z</time>
      </trkpt>
      <trkpt lat="45.25446" lon="0.34095">
        <ele>68</ele>
        <time>2025-04-11T12:24:51Z</time>
      </trkpt>
      <trkpt lat="45.25437" lon="0.34096">
        <ele>68</ele>
        <time>2025-04-11T12:24:53Z</time>
      </trkpt>
      <trkpt lat="45.25429" lon="0.34096">
        <ele>69</ele>
        <time>2025-04-11T12:24:54Z</time>
      </trkpt>
      <trkpt lat="45.25443" lon="0.34102">
        <ele>68</ele>
        <time>2025-04-11T12:24:57Z</time>
      </trkpt>
      <trkpt lat="45.25442" lon="0.34109">
        <ele>68</ele>
        <time>2025-04-11T12:24:57Z</time>
      </trkpt>
      <trkpt lat="45.25444" lon="0.34115">
        <ele>68</ele>
        <time>2025-04-11T12:24:58Z</time>
      </trkpt>
      <trkpt lat="45.2545" lon="0.34121">
        <ele>68</ele>
        <time>2025-04-11T12:25:00Z</time>
      </trkpt>
      <trkpt lat="45.25456" lon="0.34121">
        <ele>67</ele>
        <time>2025-04-11T12:25:01Z</time>
      </trkpt>
      <trkpt lat="45.25462" lon="0.34115">
        <ele>67</ele>
        <time>2025-04-11T12:25:02Z</time>
      </trkpt>
      <trkpt lat="45.25463" lon="0.34104">
        <ele>67</ele>
        <time>2025-04-11T12:25:03Z</time>
      </trkpt>
      <trkpt lat="45.25462" lon="0.34099">
        <ele>67</ele>
        <time>2025-04-11T12:25:04Z</time>
      </trkpt>
      <trkpt lat="45.25469" lon="0.34083">
        <ele>66</ele>
        <time>2025-04-11T12:25:06Z</time>
      </trkpt>
      <trkpt lat="45.25484" lon="0.34069">
        <ele>66</ele>
        <time>2025-04-11T12:25:10Z</time>
      </trkpt>
      <trkpt lat="45.25494" lon="0.34054">
        <ele>65</ele>
        <time>2025-04-11T12:25:12Z</time>
      </trkpt>
      <trkpt lat="45.255" lon="0.34039">
        <ele>64</ele>
        <time>2025-04-11T12:25:14Z</time>
      </trkpt>
      <trkpt lat="45.25513" lon="0.33978">
        <ele>64</ele>
        <time>2025-04-11T12:25:22Z</time>
      </trkpt>
      <trkpt lat="45.25514" lon="0.33974">
        <ele>64</ele>
        <time>2025-04-11T12:25:23Z</time>
      </trkpt>
      <trkpt lat="45.25547" lon="0.33806">
        <ele>67</ele>
        <time>2025-04-11T12:25:45Z</time>
      </trkpt>
      <trkpt lat="45.25549" lon="0.33787">
        <ele>67</ele>
        <time>2025-04-11T12:25:47Z</time>
      </trkpt>
      <trkpt lat="45.2555" lon="0.33766">
        <ele>68</ele>
        <time>2025-04-11T12:25:50Z</time>
      </trkpt>
      <trkpt lat="45.25541" lon="0.33708">
        <ele>69</ele>
        <time>2025-04-11T12:25:57Z</time>
      </trkpt>
      <trkpt lat="45.25539" lon="0.33679">
        <ele>69</ele>
        <time>2025-04-11T12:26:01Z</time>
      </trkpt>
      <trkpt lat="45.25536" lon="0.33672">
        <ele>70</ele>
        <time>2025-04-11T12:26:02Z</time>
      </trkpt>
      <trkpt lat="45.2553" lon="0.33667">
        <ele>70</ele>
        <time>2025-04-11T12:26:03Z</time>
      </trkpt>
      <trkpt lat="45.25342" lon="0.33634">
        <ele>71</ele>
        <time>2025-04-11T12:26:37Z</time>
      </trkpt>
      <trkpt lat="45.25076" lon="0.33593">
        <ele>72</ele>
        <time>2025-04-11T12:27:24Z</time>
      </trkpt>
      <trkpt lat="45.25073" lon="0.33623">
        <ele>71</ele>
        <time>2025-04-11T12:27:28Z</time>
      </trkpt>
      <trkpt lat="45.25077" lon="0.33681">
        <ele>70</ele>
        <time>2025-04-11T12:27:35Z</time>
      </trkpt>
      <trkpt lat="45.24984" lon="0.337">
        <ele>72</ele>
        <time>2025-04-11T12:27:52Z</time>
      </trkpt>
      <trkpt lat="45.24969" lon="0.33703">
        <ele>72</ele>
        <time>2025-04-11T12:27:55Z</time>
      </trkpt>
    </trkseg>
  </trk>
  <trk>
    <name><![CDATA[samedi 65km]]></name>
    <extensions>
      <line xmlns="http://www.topografix.com/GPX/gpx_style/0/2">
        <color>0000FF</color>
        <width>5</width>
          <extensions>
            <sens>1</sens>
          </extensions>
      </line>
    </extensions>
    <trkseg>
      <trkpt lat="45.24966" lon="0.33704">
        <ele>72</ele>
        <time>2025-04-11T09:03:14Z</time>
      </trkpt>
      <trkpt lat="45.24985" lon="0.337">
        <ele>72</ele>
        <time>2025-04-11T09:03:17Z</time>
      </trkpt>
      <trkpt lat="45.25002" lon="0.33697">
        <ele>71</ele>
        <time>2025-04-11T09:03:20Z</time>
      </trkpt>
      <trkpt lat="45.25016" lon="0.33694">
        <ele>71</ele>
        <time>2025-04-11T09:03:23Z</time>
      </trkpt>
      <trkpt lat="45.2503" lon="0.33691">
        <ele>71</ele>
        <time>2025-04-11T09:03:26Z</time>
      </trkpt>
      <trkpt lat="45.25043" lon="0.33689">
        <ele>71</ele>
        <time>2025-04-11T09:03:28Z</time>
      </trkpt>
      <trkpt lat="45.25053" lon="0.33687">
        <ele>71</ele>
        <time>2025-04-11T09:03:30Z</time>
      </trkpt>
      <trkpt lat="45.25077" lon="0.33682">
        <ele>70</ele>
        <time>2025-04-11T09:03:34Z</time>
      </trkpt>
      <trkpt lat="45.25074" lon="0.33623">
        <ele>71</ele>
        <time>2025-04-11T09:03:41Z</time>
      </trkpt>
      <trkpt lat="45.25074" lon="0.33609">
        <ele>72</ele>
        <time>2025-04-11T09:03:43Z</time>
      </trkpt>
      <trkpt lat="45.25076" lon="0.33593">
        <ele>72</ele>
        <time>2025-04-11T09:03:45Z</time>
      </trkpt>
      <trkpt lat="45.25061" lon="0.3359">
        <ele>73</ele>
        <time>2025-04-11T09:03:48Z</time>
      </trkpt>
      <trkpt lat="45.25039" lon="0.33585">
        <ele>74</ele>
        <time>2025-04-11T09:03:52Z</time>
      </trkpt>
      <trkpt lat="45.25015" lon="0.33577">
        <ele>75</ele>
        <time>2025-04-11T09:03:56Z</time>
      </trkpt>
      <trkpt lat="45.24975" lon="0.33559">
        <ele>77</ele>
        <time>2025-04-11T09:04:04Z</time>
      </trkpt>
      <trkpt lat="45.24956" lon="0.33552">
        <ele>78</ele>
        <time>2025-04-11T09:04:07Z</time>
      </trkpt>
      <trkpt lat="45.24946" lon="0.33549">
        <ele>78</ele>
        <time>2025-04-11T09:04:09Z</time>
      </trkpt>
      <trkpt lat="45.24978" lon="0.33464">
        <ele>83</ele>
        <time>2025-04-11T09:04:21Z</time>
      </trkpt>
      <trkpt lat="45.24995" lon="0.33417">
        <ele>86</ele>
        <time>2025-04-11T09:04:28Z</time>
      </trkpt>
      <trkpt lat="45.24999" lon="0.33407">
        <ele>87</ele>
        <time>2025-04-11T09:04:29Z</time>
      </trkpt>
      <trkpt lat="45.25004" lon="0.33398">
        <ele>87</ele>
        <time>2025-04-11T09:04:31Z</time>
      </trkpt>
      <trkpt lat="45.25009" lon="0.33391">
        <ele>88</ele>
        <time>2025-04-11T09:04:32Z</time>
      </trkpt>
      <trkpt lat="45.25018" lon="0.33382">
        <ele>89</ele>
        <time>2025-04-11T09:04:34Z</time>
      </trkpt>
      <trkpt lat="45.25032" lon="0.33373">
        <ele>89</ele>
        <time>2025-04-11T09:04:36Z</time>
      </trkpt>
      <trkpt lat="45.25104" lon="0.33344">
        <ele>92</ele>
        <time>2025-04-11T09:04:50Z</time>
      </trkpt>
      <trkpt lat="45.25152" lon="0.33321">
        <ele>93</ele>
        <time>2025-04-11T09:04:59Z</time>
      </trkpt>
      <trkpt lat="45.25172" lon="0.33306">
        <ele>95</ele>
        <time>2025-04-11T09:05:03Z</time>
      </trkpt>
      <trkpt lat="45.25188" lon="0.33291">
        <ele>95</ele>
        <time>2025-04-11T09:05:06Z</time>
      </trkpt>
      <trkpt lat="45.25198" lon="0.33274">
        <ele>96</ele>
        <time>2025-04-11T09:05:09Z</time>
      </trkpt>
      <trkpt lat="45.25191" lon="0.3327">
        <ele>97</ele>
        <time>2025-04-11T09:05:10Z</time>
      </trkpt>
      <trkpt lat="45.25198" lon="0.33274">
        <ele>96</ele>
        <time>2025-04-11T09:05:12Z</time>
      </trkpt>
      <trkpt lat="45.25206" lon="0.33258">
        <ele>97</ele>
        <time>2025-04-11T09:05:14Z</time>
      </trkpt>
      <trkpt lat="45.25213" lon="0.33237">
        <ele>98</ele>
        <time>2025-04-11T09:05:17Z</time>
      </trkpt>
      <trkpt lat="45.25221" lon="0.33185">
        <ele>99</ele>
        <time>2025-04-11T09:05:24Z</time>
      </trkpt>
      <trkpt lat="45.25224" lon="0.3315">
        <ele>100</ele>
        <time>2025-04-11T09:05:28Z</time>
      </trkpt>
      <trkpt lat="45.25223" lon="0.33088">
        <ele>100</ele>
        <time>2025-04-11T09:05:36Z</time>
      </trkpt>
      <trkpt lat="45.25219" lon="0.33059">
        <ele>100</ele>
        <time>2025-04-11T09:05:40Z</time>
      </trkpt>
      <trkpt lat="45.25214" lon="0.3303">
        <ele>100</ele>
        <time>2025-04-11T09:05:43Z</time>
      </trkpt>
      <trkpt lat="45.25209" lon="0.33009">
        <ele>100</ele>
        <time>2025-04-11T09:05:46Z</time>
      </trkpt>
      <trkpt lat="45.25181" lon="0.32912">
        <ele>100</ele>
        <time>2025-04-11T09:05:59Z</time>
      </trkpt>
      <trkpt lat="45.25165" lon="0.32854">
        <ele>98</ele>
        <time>2025-04-11T09:06:07Z</time>
      </trkpt>
      <trkpt lat="45.25162" lon="0.32836">
        <ele>97</ele>
        <time>2025-04-11T09:06:09Z</time>
      </trkpt>
      <trkpt lat="45.25161" lon="0.32819">
        <ele>97</ele>
        <time>2025-04-11T09:06:12Z</time>
      </trkpt>
      <trkpt lat="45.2516" lon="0.32798">
        <ele>98</ele>
        <time>2025-04-11T09:06:14Z</time>
      </trkpt>
      <trkpt lat="45.25162" lon="0.32774">
        <ele>98</ele>
        <time>2025-04-11T09:06:17Z</time>
      </trkpt>
      <trkpt lat="45.25179" lon="0.32683">
        <ele>98</ele>
        <time>2025-04-11T09:06:29Z</time>
      </trkpt>
      <trkpt lat="45.25184" lon="0.32657">
        <ele>97</ele>
        <time>2025-04-11T09:06:32Z</time>
      </trkpt>
      <trkpt lat="45.25186" lon="0.32633">
        <ele>95</ele>
        <time>2025-04-11T09:06:35Z</time>
      </trkpt>
      <trkpt lat="45.25187" lon="0.32613">
        <ele>93</ele>
        <time>2025-04-11T09:06:38Z</time>
      </trkpt>
      <trkpt lat="45.25186" lon="0.32594">
        <ele>92</ele>
        <time>2025-04-11T09:06:40Z</time>
      </trkpt>
      <trkpt lat="45.25183" lon="0.32575">
        <ele>91</ele>
        <time>2025-04-11T09:06:43Z</time>
      </trkpt>
      <trkpt lat="45.25178" lon="0.32559">
        <ele>90</ele>
        <time>2025-04-11T09:06:45Z</time>
      </trkpt>
      <trkpt lat="45.25172" lon="0.32545">
        <ele>89</ele>
        <time>2025-04-11T09:06:47Z</time>
      </trkpt>
      <trkpt lat="45.25161" lon="0.32532">
        <ele>89</ele>
        <time>2025-04-11T09:06:50Z</time>
      </trkpt>
      <trkpt lat="45.25113" lon="0.32485">
        <ele>88</ele>
        <time>2025-04-11T09:07:00Z</time>
      </trkpt>
      <trkpt lat="45.25098" lon="0.32469">
        <ele>88</ele>
        <time>2025-04-11T09:07:03Z</time>
      </trkpt>
      <trkpt lat="45.25089" lon="0.32456">
        <ele>88</ele>
        <time>2025-04-11T09:07:06Z</time>
      </trkpt>
      <trkpt lat="45.25085" lon="0.32439">
        <ele>87</ele>
        <time>2025-04-11T09:07:08Z</time>
      </trkpt>
      <trkpt lat="45.25083" lon="0.32425">
        <ele>87</ele>
        <time>2025-04-11T09:07:10Z</time>
      </trkpt>
      <trkpt lat="45.25085" lon="0.32411">
        <ele>87</ele>
        <time>2025-04-11T09:07:11Z</time>
      </trkpt>
      <trkpt lat="45.25089" lon="0.32396">
        <ele>88</ele>
        <time>2025-04-11T09:07:13Z</time>
      </trkpt>
      <trkpt lat="45.25099" lon="0.32382">
        <ele>89</ele>
        <time>2025-04-11T09:07:16Z</time>
      </trkpt>
      <trkpt lat="45.25113" lon="0.3237">
        <ele>89</ele>
        <time>2025-04-11T09:07:19Z</time>
      </trkpt>
      <trkpt lat="45.25154" lon="0.32324">
        <ele>90</ele>
        <time>2025-04-11T09:07:28Z</time>
      </trkpt>
      <trkpt lat="45.25163" lon="0.32311">
        <ele>91</ele>
        <time>2025-04-11T09:07:30Z</time>
      </trkpt>
      <trkpt lat="45.25169" lon="0.32298">
        <ele>91</ele>
        <time>2025-04-11T09:07:32Z</time>
      </trkpt>
      <trkpt lat="45.25174" lon="0.32285">
        <ele>92</ele>
        <time>2025-04-11T09:07:34Z</time>
      </trkpt>
      <trkpt lat="45.25187" lon="0.32223">
        <ele>94</ele>
        <time>2025-04-11T09:07:42Z</time>
      </trkpt>
      <trkpt lat="45.25194" lon="0.32198">
        <ele>94</ele>
        <time>2025-04-11T09:07:46Z</time>
      </trkpt>
      <trkpt lat="45.252" lon="0.32181">
        <ele>94</ele>
        <time>2025-04-11T09:07:48Z</time>
      </trkpt>
      <trkpt lat="45.25209" lon="0.32166">
        <ele>94</ele>
        <time>2025-04-11T09:07:50Z</time>
      </trkpt>
      <trkpt lat="45.25218" lon="0.32151">
        <ele>94</ele>
        <time>2025-04-11T09:07:53Z</time>
      </trkpt>
      <trkpt lat="45.25236" lon="0.32126">
        <ele>93</ele>
        <time>2025-04-11T09:07:57Z</time>
      </trkpt>
      <trkpt lat="45.25245" lon="0.32112">
        <ele>92</ele>
        <time>2025-04-11T09:08:00Z</time>
      </trkpt>
      <trkpt lat="45.25249" lon="0.32098">
        <ele>92</ele>
        <time>2025-04-11T09:08:02Z</time>
      </trkpt>
      <trkpt lat="45.25252" lon="0.32084">
        <ele>92</ele>
        <time>2025-04-11T09:08:04Z</time>
      </trkpt>
      <trkpt lat="45.25253" lon="0.32047">
        <ele>90</ele>
        <time>2025-04-11T09:08:08Z</time>
      </trkpt>
      <trkpt lat="45.25253" lon="0.32042">
        <ele>89</ele>
        <time>2025-04-11T09:08:09Z</time>
      </trkpt>
      <trkpt lat="45.25253" lon="0.32014">
        <ele>88</ele>
        <time>2025-04-11T09:08:12Z</time>
      </trkpt>
      <trkpt lat="45.25255" lon="0.31971">
        <ele>85</ele>
        <time>2025-04-11T09:08:18Z</time>
      </trkpt>
      <trkpt lat="45.25257" lon="0.3196">
        <ele>85</ele>
        <time>2025-04-11T09:08:19Z</time>
      </trkpt>
      <trkpt lat="45.25262" lon="0.3194">
        <ele>83</ele>
        <time>2025-04-11T09:08:22Z</time>
      </trkpt>
      <trkpt lat="45.25275" lon="0.31904">
        <ele>82</ele>
        <time>2025-04-11T09:08:27Z</time>
      </trkpt>
      <trkpt lat="45.2528" lon="0.31891">
        <ele>81</ele>
        <time>2025-04-11T09:08:29Z</time>
      </trkpt>
      <trkpt lat="45.25298" lon="0.31842">
        <ele>80</ele>
        <time>2025-04-11T09:08:36Z</time>
      </trkpt>
      <trkpt lat="45.25303" lon="0.31825">
        <ele>79</ele>
        <time>2025-04-11T09:08:38Z</time>
      </trkpt>
      <trkpt lat="45.25306" lon="0.31801">
        <ele>78</ele>
        <time>2025-04-11T09:08:41Z</time>
      </trkpt>
      <trkpt lat="45.25307" lon="0.31779">
        <ele>77</ele>
        <time>2025-04-11T09:08:44Z</time>
      </trkpt>
      <trkpt lat="45.25305" lon="0.31744">
        <ele>76</ele>
        <time>2025-04-11T09:08:48Z</time>
      </trkpt>
      <trkpt lat="45.25299" lon="0.3168">
        <ele>75</ele>
        <time>2025-04-11T09:08:56Z</time>
      </trkpt>
      <trkpt lat="45.25298" lon="0.31669">
        <ele>75</ele>
        <time>2025-04-11T09:08:58Z</time>
      </trkpt>
      <trkpt lat="45.25295" lon="0.31622">
        <ele>70</ele>
        <time>2025-04-11T09:09:04Z</time>
      </trkpt>
      <trkpt lat="45.25297" lon="0.31524">
        <ele>65</ele>
        <time>2025-04-11T09:09:16Z</time>
      </trkpt>
      <trkpt lat="45.25296" lon="0.31469">
        <ele>64</ele>
        <time>2025-04-11T09:09:23Z</time>
      </trkpt>
      <trkpt lat="45.25281" lon="0.31293">
        <ele>68</ele>
        <time>2025-04-11T09:09:45Z</time>
      </trkpt>
      <trkpt lat="45.25283" lon="0.31265">
        <ele>70</ele>
        <time>2025-04-11T09:09:48Z</time>
      </trkpt>
      <trkpt lat="45.2529" lon="0.31231">
        <ele>71</ele>
        <time>2025-04-11T09:09:53Z</time>
      </trkpt>
      <trkpt lat="45.253" lon="0.31205">
        <ele>73</ele>
        <time>2025-04-11T09:09:57Z</time>
      </trkpt>
      <trkpt lat="45.25303" lon="0.31197">
        <ele>73</ele>
        <time>2025-04-11T09:09:58Z</time>
      </trkpt>
      <trkpt lat="45.25338" lon="0.31129">
        <ele>74</ele>
        <time>2025-04-11T09:10:08Z</time>
      </trkpt>
      <trkpt lat="45.25397" lon="0.31025">
        <ele>74</ele>
        <time>2025-04-11T09:10:25Z</time>
      </trkpt>
      <trkpt lat="45.25589" lon="0.30685">
        <ele>68</ele>
        <time>2025-04-11T09:11:20Z</time>
      </trkpt>
      <trkpt lat="45.2562" lon="0.3063">
        <ele>68</ele>
        <time>2025-04-11T09:11:28Z</time>
      </trkpt>
      <trkpt lat="45.25652" lon="0.30574">
        <ele>67</ele>
        <time>2025-04-11T09:11:37Z</time>
      </trkpt>
      <trkpt lat="45.25677" lon="0.30527">
        <ele>67</ele>
        <time>2025-04-11T09:11:45Z</time>
      </trkpt>
      <trkpt lat="45.25792" lon="0.30278">
        <ele>67</ele>
        <time>2025-04-11T09:12:22Z</time>
      </trkpt>
      <trkpt lat="45.25806" lon="0.30244">
        <ele>67</ele>
        <time>2025-04-11T09:12:27Z</time>
      </trkpt>
      <trkpt lat="45.25834" lon="0.30159">
        <ele>66</ele>
        <time>2025-04-11T09:12:39Z</time>
      </trkpt>
      <trkpt lat="45.25863" lon="0.30094">
        <ele>67</ele>
        <time>2025-04-11T09:12:48Z</time>
      </trkpt>
      <trkpt lat="45.25876" lon="0.30059">
        <ele>67</ele>
        <time>2025-04-11T09:12:53Z</time>
      </trkpt>
      <trkpt lat="45.25886" lon="0.3002">
        <ele>67</ele>
        <time>2025-04-11T09:12:59Z</time>
      </trkpt>
      <trkpt lat="45.25939" lon="0.29747">
        <ele>66</ele>
        <time>2025-04-11T09:13:34Z</time>
      </trkpt>
      <trkpt lat="45.25942" lon="0.29722">
        <ele>66</ele>
        <time>2025-04-11T09:13:37Z</time>
      </trkpt>
      <trkpt lat="45.25949" lon="0.29634">
        <ele>69</ele>
        <time>2025-04-11T09:13:48Z</time>
      </trkpt>
      <trkpt lat="45.25954" lon="0.29603">
        <ele>71</ele>
        <time>2025-04-11T09:13:52Z</time>
      </trkpt>
      <trkpt lat="45.25958" lon="0.29581">
        <ele>72</ele>
        <time>2025-04-11T09:13:55Z</time>
      </trkpt>
      <trkpt lat="45.25963" lon="0.29564">
        <ele>72</ele>
        <time>2025-04-11T09:13:57Z</time>
      </trkpt>
      <trkpt lat="45.26027" lon="0.29341">
        <ele>76</ele>
        <time>2025-04-11T09:14:28Z</time>
      </trkpt>
      <trkpt lat="45.26073" lon="0.29174">
        <ele>75</ele>
        <time>2025-04-11T09:14:50Z</time>
      </trkpt>
      <trkpt lat="45.26083" lon="0.29141">
        <ele>73</ele>
        <time>2025-04-11T09:14:55Z</time>
      </trkpt>
      <trkpt lat="45.26097" lon="0.29106">
        <ele>72</ele>
        <time>2025-04-11T09:15:00Z</time>
      </trkpt>
      <trkpt lat="45.2612" lon="0.29058">
        <ele>69</ele>
        <time>2025-04-11T09:15:07Z</time>
      </trkpt>
      <trkpt lat="45.26128" lon="0.29038">
        <ele>68</ele>
        <time>2025-04-11T09:15:10Z</time>
      </trkpt>
      <trkpt lat="45.26132" lon="0.29022">
        <ele>67</ele>
        <time>2025-04-11T09:15:12Z</time>
      </trkpt>
      <trkpt lat="45.26134" lon="0.29006">
        <ele>67</ele>
        <time>2025-04-11T09:15:14Z</time>
      </trkpt>
      <trkpt lat="45.26135" lon="0.28992">
        <ele>67</ele>
        <time>2025-04-11T09:15:16Z</time>
      </trkpt>
      <trkpt lat="45.26131" lon="0.28959">
        <ele>66</ele>
        <time>2025-04-11T09:15:20Z</time>
      </trkpt>
      <trkpt lat="45.26089" lon="0.28772">
        <ele>67</ele>
        <time>2025-04-11T09:15:44Z</time>
      </trkpt>
      <trkpt lat="45.26077" lon="0.28706">
        <ele>66</ele>
        <time>2025-04-11T09:15:53Z</time>
      </trkpt>
      <trkpt lat="45.26046" lon="0.28518">
        <ele>64</ele>
        <time>2025-04-11T09:16:17Z</time>
      </trkpt>
      <trkpt lat="45.2604" lon="0.28479">
        <ele>64</ele>
        <time>2025-04-11T09:16:22Z</time>
      </trkpt>
      <trkpt lat="45.26038" lon="0.28455">
        <ele>64</ele>
        <time>2025-04-11T09:16:25Z</time>
      </trkpt>
      <trkpt lat="45.26039" lon="0.28435">
        <ele>63</ele>
        <time>2025-04-11T09:16:28Z</time>
      </trkpt>
      <trkpt lat="45.26041" lon="0.28418">
        <ele>63</ele>
        <time>2025-04-11T09:16:30Z</time>
      </trkpt>
      <trkpt lat="45.26046" lon="0.28402">
        <ele>63</ele>
        <time>2025-04-11T09:16:32Z</time>
      </trkpt>
      <trkpt lat="45.26053" lon="0.28386">
        <ele>63</ele>
        <time>2025-04-11T09:16:34Z</time>
      </trkpt>
      <trkpt lat="45.2606" lon="0.28372">
        <ele>63</ele>
        <time>2025-04-11T09:16:37Z</time>
      </trkpt>
      <trkpt lat="45.26111" lon="0.28281">
        <ele>62</ele>
        <time>2025-04-11T09:16:51Z</time>
      </trkpt>
      <trkpt lat="45.26177" lon="0.28165">
        <ele>60</ele>
        <time>2025-04-11T09:17:10Z</time>
      </trkpt>
      <trkpt lat="45.26192" lon="0.28135">
        <ele>60</ele>
        <time>2025-04-11T09:17:14Z</time>
      </trkpt>
      <trkpt lat="45.26205" lon="0.28098">
        <ele>60</ele>
        <time>2025-04-11T09:17:20Z</time>
      </trkpt>
      <trkpt lat="45.26245" lon="0.27989">
        <ele>63</ele>
        <time>2025-04-11T09:17:35Z</time>
      </trkpt>
      <trkpt lat="45.26317" lon="0.27799">
        <ele>64</ele>
        <time>2025-04-11T09:18:02Z</time>
      </trkpt>
      <trkpt lat="45.26331" lon="0.27763">
        <ele>63</ele>
        <time>2025-04-11T09:18:07Z</time>
      </trkpt>
      <trkpt lat="45.26344" lon="0.27733">
        <ele>62</ele>
        <time>2025-04-11T09:18:12Z</time>
      </trkpt>
      <trkpt lat="45.26358" lon="0.27709">
        <ele>63</ele>
        <time>2025-04-11T09:18:16Z</time>
      </trkpt>
      <trkpt lat="45.26437" lon="0.27587">
        <ele>66</ele>
        <time>2025-04-11T09:18:36Z</time>
      </trkpt>
      <trkpt lat="45.2645" lon="0.27563">
        <ele>66</ele>
        <time>2025-04-11T09:18:40Z</time>
      </trkpt>
      <trkpt lat="45.26458" lon="0.27543">
        <ele>67</ele>
        <time>2025-04-11T09:18:43Z</time>
      </trkpt>
      <trkpt lat="45.26466" lon="0.27521">
        <ele>68</ele>
        <time>2025-04-11T09:18:46Z</time>
      </trkpt>
      <trkpt lat="45.2647" lon="0.27503">
        <ele>69</ele>
        <time>2025-04-11T09:18:48Z</time>
      </trkpt>
      <trkpt lat="45.26543" lon="0.27205">
        <ele>70</ele>
        <time>2025-04-11T09:19:28Z</time>
      </trkpt>
      <trkpt lat="45.26553" lon="0.27169">
        <ele>71</ele>
        <time>2025-04-11T09:19:33Z</time>
      </trkpt>
      <trkpt lat="45.26572" lon="0.27118">
        <ele>71</ele>
        <time>2025-04-11T09:19:40Z</time>
      </trkpt>
      <trkpt lat="45.26591" lon="0.27075">
        <ele>72</ele>
        <time>2025-04-11T09:19:46Z</time>
      </trkpt>
      <trkpt lat="45.26673" lon="0.26939">
        <ele>72</ele>
        <time>2025-04-11T09:20:09Z</time>
      </trkpt>
      <trkpt lat="45.26782" lon="0.26755">
        <ele>76</ele>
        <time>2025-04-11T09:20:39Z</time>
      </trkpt>
      <trkpt lat="45.26794" lon="0.26729">
        <ele>76</ele>
        <time>2025-04-11T09:20:43Z</time>
      </trkpt>
      <trkpt lat="45.26807" lon="0.26699">
        <ele>75</ele>
        <time>2025-04-11T09:20:47Z</time>
      </trkpt>
      <trkpt lat="45.26819" lon="0.26663">
        <ele>75</ele>
        <time>2025-04-11T09:20:52Z</time>
      </trkpt>
      <trkpt lat="45.26833" lon="0.26617">
        <ele>75</ele>
        <time>2025-04-11T09:20:58Z</time>
      </trkpt>
      <trkpt lat="45.26849" lon="0.26564">
        <ele>75</ele>
        <time>2025-04-11T09:21:06Z</time>
      </trkpt>
      <trkpt lat="45.2686" lon="0.26519">
        <ele>74</ele>
        <time>2025-04-11T09:21:12Z</time>
      </trkpt>
      <trkpt lat="45.26875" lon="0.26444">
        <ele>73</ele>
        <time>2025-04-11T09:21:21Z</time>
      </trkpt>
      <trkpt lat="45.26882" lon="0.26414">
        <ele>72</ele>
        <time>2025-04-11T09:21:25Z</time>
      </trkpt>
      <trkpt lat="45.26889" lon="0.26388">
        <ele>72</ele>
        <time>2025-04-11T09:21:29Z</time>
      </trkpt>
      <trkpt lat="45.26901" lon="0.26355">
        <ele>72</ele>
        <time>2025-04-11T09:21:34Z</time>
      </trkpt>
      <trkpt lat="45.26908" lon="0.26337">
        <ele>73</ele>
        <time>2025-04-11T09:21:36Z</time>
      </trkpt>
      <trkpt lat="45.26925" lon="0.26297">
        <ele>75</ele>
        <time>2025-04-11T09:21:42Z</time>
      </trkpt>
      <trkpt lat="45.26942" lon="0.26237">
        <ele>77</ele>
        <time>2025-04-11T09:21:50Z</time>
      </trkpt>
      <trkpt lat="45.26948" lon="0.26214">
        <ele>76</ele>
        <time>2025-04-11T09:21:53Z</time>
      </trkpt>
      <trkpt lat="45.2695" lon="0.26189">
        <ele>75</ele>
        <time>2025-04-11T09:21:56Z</time>
      </trkpt>
      <trkpt lat="45.26953" lon="0.2608">
        <ele>75</ele>
        <time>2025-04-11T09:22:10Z</time>
      </trkpt>
      <trkpt lat="45.26955" lon="0.2606">
        <ele>76</ele>
        <time>2025-04-11T09:22:12Z</time>
      </trkpt>
      <trkpt lat="45.2696" lon="0.26033">
        <ele>76</ele>
        <time>2025-04-11T09:22:16Z</time>
      </trkpt>
      <trkpt lat="45.26967" lon="0.26006">
        <ele>77</ele>
        <time>2025-04-11T09:22:20Z</time>
      </trkpt>
      <trkpt lat="45.26976" lon="0.25981">
        <ele>78</ele>
        <time>2025-04-11T09:22:23Z</time>
      </trkpt>
      <trkpt lat="45.26988" lon="0.25959">
        <ele>79</ele>
        <time>2025-04-11T09:22:27Z</time>
      </trkpt>
      <trkpt lat="45.27073" lon="0.25842">
        <ele>80</ele>
        <time>2025-04-11T09:22:48Z</time>
      </trkpt>
      <trkpt lat="45.27086" lon="0.25826">
        <ele>80</ele>
        <time>2025-04-11T09:22:51Z</time>
      </trkpt>
      <trkpt lat="45.27097" lon="0.25807">
        <ele>80</ele>
        <time>2025-04-11T09:22:54Z</time>
      </trkpt>
      <trkpt lat="45.27101" lon="0.25799">
        <ele>80</ele>
        <time>2025-04-11T09:22:55Z</time>
      </trkpt>
      <trkpt lat="45.27105" lon="0.25788">
        <ele>80</ele>
        <time>2025-04-11T09:22:57Z</time>
      </trkpt>
      <trkpt lat="45.27108" lon="0.25775">
        <ele>80</ele>
        <time>2025-04-11T09:22:58Z</time>
      </trkpt>
      <trkpt lat="45.27109" lon="0.25766">
        <ele>80</ele>
        <time>2025-04-11T09:22:59Z</time>
      </trkpt>
      <trkpt lat="45.27111" lon="0.25731">
        <ele>80</ele>
        <time>2025-04-11T09:23:04Z</time>
      </trkpt>
      <trkpt lat="45.27112" lon="0.25724">
        <ele>80</ele>
        <time>2025-04-11T09:23:05Z</time>
      </trkpt>
      <trkpt lat="45.27117" lon="0.25707">
        <ele>80</ele>
        <time>2025-04-11T09:23:07Z</time>
      </trkpt>
      <trkpt lat="45.27136" lon="0.25665">
        <ele>80</ele>
        <time>2025-04-11T09:23:13Z</time>
      </trkpt>
      <trkpt lat="45.27153" lon="0.25631">
        <ele>78</ele>
        <time>2025-04-11T09:23:18Z</time>
      </trkpt>
      <trkpt lat="45.27181" lon="0.25573">
        <ele>74</ele>
        <time>2025-04-11T09:23:27Z</time>
      </trkpt>
      <trkpt lat="45.27184" lon="0.25568">
        <ele>74</ele>
        <time>2025-04-11T09:23:28Z</time>
      </trkpt>
      <trkpt lat="45.2719" lon="0.25557">
        <ele>74</ele>
        <time>2025-04-11T09:23:30Z</time>
      </trkpt>
      <trkpt lat="45.27198" lon="0.25544">
        <ele>74</ele>
        <time>2025-04-11T09:23:32Z</time>
      </trkpt>
      <trkpt lat="45.2721" lon="0.25533">
        <ele>75</ele>
        <time>2025-04-11T09:23:35Z</time>
      </trkpt>
      <trkpt lat="45.27224" lon="0.25524">
        <ele>75</ele>
        <time>2025-04-11T09:23:37Z</time>
      </trkpt>
      <trkpt lat="45.27259" lon="0.2551">
        <ele>75</ele>
        <time>2025-04-11T09:23:44Z</time>
      </trkpt>
      <trkpt lat="45.27297" lon="0.25494">
        <ele>73</ele>
        <time>2025-04-11T09:23:51Z</time>
      </trkpt>
      <trkpt lat="45.27316" lon="0.25483">
        <ele>72</ele>
        <time>2025-04-11T09:23:54Z</time>
      </trkpt>
      <trkpt lat="45.27328" lon="0.25474">
        <ele>72</ele>
        <time>2025-04-11T09:23:57Z</time>
      </trkpt>
      <trkpt lat="45.2734" lon="0.25463">
        <ele>71</ele>
        <time>2025-04-11T09:23:59Z</time>
      </trkpt>
      <trkpt lat="45.2735" lon="0.25448">
        <ele>71</ele>
        <time>2025-04-11T09:24:02Z</time>
      </trkpt>
      <trkpt lat="45.27368" lon="0.2541">
        <ele>72</ele>
        <time>2025-04-11T09:24:08Z</time>
      </trkpt>
      <trkpt lat="45.27382" lon="0.25375">
        <ele>73</ele>
        <time>2025-04-11T09:24:13Z</time>
      </trkpt>
      <trkpt lat="45.27405" lon="0.25309">
        <ele>76</ele>
        <time>2025-04-11T09:24:22Z</time>
      </trkpt>
      <trkpt lat="45.27412" lon="0.2528">
        <ele>77</ele>
        <time>2025-04-11T09:24:26Z</time>
      </trkpt>
      <trkpt lat="45.27424" lon="0.25217">
        <ele>79</ele>
        <time>2025-04-11T09:24:34Z</time>
      </trkpt>
      <trkpt lat="45.27426" lon="0.25182">
        <ele>80</ele>
        <time>2025-04-11T09:24:38Z</time>
      </trkpt>
      <trkpt lat="45.27423" lon="0.25145">
        <ele>80</ele>
        <time>2025-04-11T09:24:43Z</time>
      </trkpt>
      <trkpt lat="45.2742" lon="0.25127">
        <ele>81</ele>
        <time>2025-04-11T09:24:45Z</time>
      </trkpt>
      <trkpt lat="45.27413" lon="0.25103">
        <ele>81</ele>
        <time>2025-04-11T09:24:49Z</time>
      </trkpt>
      <trkpt lat="45.27405" lon="0.25079">
        <ele>81</ele>
        <time>2025-04-11T09:24:52Z</time>
      </trkpt>
      <trkpt lat="45.2736" lon="0.24974">
        <ele>80</ele>
        <time>2025-04-11T09:25:07Z</time>
      </trkpt>
      <trkpt lat="45.2735" lon="0.24944">
        <ele>79</ele>
        <time>2025-04-11T09:25:12Z</time>
      </trkpt>
      <trkpt lat="45.27345" lon="0.24921">
        <ele>78</ele>
        <time>2025-04-11T09:25:15Z</time>
      </trkpt>
      <trkpt lat="45.2734" lon="0.24896">
        <ele>79</ele>
        <time>2025-04-11T09:25:18Z</time>
      </trkpt>
      <trkpt lat="45.27338" lon="0.24866">
        <ele>80</ele>
        <time>2025-04-11T09:25:22Z</time>
      </trkpt>
      <trkpt lat="45.27337" lon="0.24786">
        <ele>81</ele>
        <time>2025-04-11T09:25:32Z</time>
      </trkpt>
      <trkpt lat="45.27334" lon="0.24679">
        <ele>82</ele>
        <time>2025-04-11T09:25:45Z</time>
      </trkpt>
      <trkpt lat="45.27332" lon="0.24648">
        <ele>82</ele>
        <time>2025-04-11T09:25:49Z</time>
      </trkpt>
      <trkpt lat="45.27328" lon="0.2462">
        <ele>82</ele>
        <time>2025-04-11T09:25:52Z</time>
      </trkpt>
      <trkpt lat="45.27313" lon="0.24539">
        <ele>82</ele>
        <time>2025-04-11T09:26:03Z</time>
      </trkpt>
      <trkpt lat="45.27298" lon="0.24471">
        <ele>82</ele>
        <time>2025-04-11T09:26:12Z</time>
      </trkpt>
      <trkpt lat="45.27295" lon="0.24444">
        <ele>82</ele>
        <time>2025-04-11T09:26:15Z</time>
      </trkpt>
      <trkpt lat="45.27294" lon="0.24418">
        <ele>82</ele>
        <time>2025-04-11T09:26:19Z</time>
      </trkpt>
      <trkpt lat="45.273" lon="0.24357">
        <ele>81</ele>
        <time>2025-04-11T09:26:26Z</time>
      </trkpt>
      <trkpt lat="45.27301" lon="0.24331">
        <ele>80</ele>
        <time>2025-04-11T09:26:30Z</time>
      </trkpt>
      <trkpt lat="45.27298" lon="0.2431">
        <ele>79</ele>
        <time>2025-04-11T09:26:32Z</time>
      </trkpt>
      <trkpt lat="45.27292" lon="0.24292">
        <ele>77</ele>
        <time>2025-04-11T09:26:35Z</time>
      </trkpt>
      <trkpt lat="45.27287" lon="0.24282">
        <ele>76</ele>
        <time>2025-04-11T09:26:36Z</time>
      </trkpt>
      <trkpt lat="45.27281" lon="0.24271">
        <ele>74</ele>
        <time>2025-04-11T09:26:38Z</time>
      </trkpt>
      <trkpt lat="45.27273" lon="0.24265">
        <ele>73</ele>
        <time>2025-04-11T09:26:40Z</time>
      </trkpt>
      <trkpt lat="45.27265" lon="0.24261">
        <ele>72</ele>
        <time>2025-04-11T09:26:41Z</time>
      </trkpt>
      <trkpt lat="45.27251" lon="0.24259">
        <ele>70</ele>
        <time>2025-04-11T09:26:44Z</time>
      </trkpt>
      <trkpt lat="45.272" lon="0.24267">
        <ele>68</ele>
        <time>2025-04-11T09:26:53Z</time>
      </trkpt>
      <trkpt lat="45.2719" lon="0.24267">
        <ele>67</ele>
        <time>2025-04-11T09:26:55Z</time>
      </trkpt>
      <trkpt lat="45.27178" lon="0.24264">
        <ele>66</ele>
        <time>2025-04-11T09:26:57Z</time>
      </trkpt>
      <trkpt lat="45.27169" lon="0.24257">
        <ele>64</ele>
        <time>2025-04-11T09:26:59Z</time>
      </trkpt>
      <trkpt lat="45.27161" lon="0.24246">
        <ele>63</ele>
        <time>2025-04-11T09:27:00Z</time>
      </trkpt>
      <trkpt lat="45.27146" lon="0.24223">
        <ele>64</ele>
        <time>2025-04-11T09:27:04Z</time>
      </trkpt>
      <trkpt lat="45.27137" lon="0.24207">
        <ele>65</ele>
        <time>2025-04-11T09:27:07Z</time>
      </trkpt>
      <trkpt lat="45.27122" lon="0.24181">
        <ele>66</ele>
        <time>2025-04-11T09:27:11Z</time>
      </trkpt>
      <trkpt lat="45.27109" lon="0.24163">
        <ele>68</ele>
        <time>2025-04-11T09:27:14Z</time>
      </trkpt>
      <trkpt lat="45.27092" lon="0.24149">
        <ele>69</ele>
        <time>2025-04-11T09:27:18Z</time>
      </trkpt>
      <trkpt lat="45.26999" lon="0.24099">
        <ele>74</ele>
        <time>2025-04-11T09:27:36Z</time>
      </trkpt>
      <trkpt lat="45.26977" lon="0.24082">
        <ele>75</ele>
        <time>2025-04-11T09:27:40Z</time>
      </trkpt>
      <trkpt lat="45.26964" lon="0.24068">
        <ele>76</ele>
        <time>2025-04-11T09:27:43Z</time>
      </trkpt>
      <trkpt lat="45.26948" lon="0.24044">
        <ele>78</ele>
        <time>2025-04-11T09:27:47Z</time>
      </trkpt>
      <trkpt lat="45.26854" lon="0.23901">
        <ele>86</ele>
        <time>2025-04-11T09:28:12Z</time>
      </trkpt>
      <trkpt lat="45.26837" lon="0.23866">
        <ele>87</ele>
        <time>2025-04-11T09:28:17Z</time>
      </trkpt>
      <trkpt lat="45.26829" lon="0.23842">
        <ele>88</ele>
        <time>2025-04-11T09:28:20Z</time>
      </trkpt>
      <trkpt lat="45.26813" lon="0.23757">
        <ele>89</ele>
        <time>2025-04-11T09:28:31Z</time>
      </trkpt>
      <trkpt lat="45.2676" lon="0.23459">
        <ele>89</ele>
        <time>2025-04-11T09:29:10Z</time>
      </trkpt>
      <trkpt lat="45.26741" lon="0.23352">
        <ele>89</ele>
        <time>2025-04-11T09:29:24Z</time>
      </trkpt>
      <trkpt lat="45.26735" lon="0.2333">
        <ele>88</ele>
        <time>2025-04-11T09:29:27Z</time>
      </trkpt>
      <trkpt lat="45.26729" lon="0.23313">
        <ele>87</ele>
        <time>2025-04-11T09:29:29Z</time>
      </trkpt>
      <trkpt lat="45.26721" lon="0.23297">
        <ele>87</ele>
        <time>2025-04-11T09:29:31Z</time>
      </trkpt>
      <trkpt lat="45.2671" lon="0.23281">
        <ele>86</ele>
        <time>2025-04-11T09:29:34Z</time>
      </trkpt>
      <trkpt lat="45.2666" lon="0.23225">
        <ele>85</ele>
        <time>2025-04-11T09:29:46Z</time>
      </trkpt>
      <trkpt lat="45.26648" lon="0.23209">
        <ele>85</ele>
        <time>2025-04-11T09:29:48Z</time>
      </trkpt>
      <trkpt lat="45.26638" lon="0.23191">
        <ele>85</ele>
        <time>2025-04-11T09:29:51Z</time>
      </trkpt>
      <trkpt lat="45.26583" lon="0.23062">
        <ele>86</ele>
        <time>2025-04-11T09:30:10Z</time>
      </trkpt>
      <trkpt lat="45.26574" lon="0.23041">
        <ele>86</ele>
        <time>2025-04-11T09:30:13Z</time>
      </trkpt>
      <trkpt lat="45.26565" lon="0.23024">
        <ele>86</ele>
        <time>2025-04-11T09:30:16Z</time>
      </trkpt>
      <trkpt lat="45.26558" lon="0.23012">
        <ele>86</ele>
        <time>2025-04-11T09:30:18Z</time>
      </trkpt>
      <trkpt lat="45.26549" lon="0.22999">
        <ele>86</ele>
        <time>2025-04-11T09:30:20Z</time>
      </trkpt>
      <trkpt lat="45.2654" lon="0.2299">
        <ele>86</ele>
        <time>2025-04-11T09:30:22Z</time>
      </trkpt>
      <trkpt lat="45.26533" lon="0.22984">
        <ele>86</ele>
        <time>2025-04-11T09:30:24Z</time>
      </trkpt>
      <trkpt lat="45.26508" lon="0.22976">
        <ele>86</ele>
        <time>2025-04-11T09:30:28Z</time>
      </trkpt>
      <trkpt lat="45.26493" lon="0.22974">
        <ele>85</ele>
        <time>2025-04-11T09:30:31Z</time>
      </trkpt>
      <trkpt lat="45.26475" lon="0.22969">
        <ele>84</ele>
        <time>2025-04-11T09:30:34Z</time>
      </trkpt>
      <trkpt lat="45.26461" lon="0.22963">
        <ele>83</ele>
        <time>2025-04-11T09:30:37Z</time>
      </trkpt>
      <trkpt lat="45.26438" lon="0.22948">
        <ele>81</ele>
        <time>2025-04-11T09:30:41Z</time>
      </trkpt>
      <trkpt lat="45.26387" lon="0.22911">
        <ele>78</ele>
        <time>2025-04-11T09:30:51Z</time>
      </trkpt>
      <trkpt lat="45.26361" lon="0.22889">
        <ele>78</ele>
        <time>2025-04-11T09:30:57Z</time>
      </trkpt>
      <trkpt lat="45.26343" lon="0.22872">
        <ele>77</ele>
        <time>2025-04-11T09:31:01Z</time>
      </trkpt>
      <trkpt lat="45.26329" lon="0.22856">
        <ele>77</ele>
        <time>2025-04-11T09:31:04Z</time>
      </trkpt>
      <trkpt lat="45.26317" lon="0.2284">
        <ele>76</ele>
        <time>2025-04-11T09:31:07Z</time>
      </trkpt>
      <trkpt lat="45.26306" lon="0.22819">
        <ele>77</ele>
        <time>2025-04-11T09:31:10Z</time>
      </trkpt>
      <trkpt lat="45.26297" lon="0.22798">
        <ele>78</ele>
        <time>2025-04-11T09:31:13Z</time>
      </trkpt>
      <trkpt lat="45.26289" lon="0.22776">
        <ele>79</ele>
        <time>2025-04-11T09:31:16Z</time>
      </trkpt>
      <trkpt lat="45.26282" lon="0.22746">
        <ele>81</ele>
        <time>2025-04-11T09:31:20Z</time>
      </trkpt>
      <trkpt lat="45.26279" lon="0.22721">
        <ele>83</ele>
        <time>2025-04-11T09:31:23Z</time>
      </trkpt>
      <trkpt lat="45.26278" lon="0.22701">
        <ele>85</ele>
        <time>2025-04-11T09:31:26Z</time>
      </trkpt>
      <trkpt lat="45.26279" lon="0.22684">
        <ele>87</ele>
        <time>2025-04-11T09:31:28Z</time>
      </trkpt>
      <trkpt lat="45.26283" lon="0.22665">
        <ele>88</ele>
        <time>2025-04-11T09:31:30Z</time>
      </trkpt>
      <trkpt lat="45.26313" lon="0.22581">
        <ele>88</ele>
        <time>2025-04-11T09:31:42Z</time>
      </trkpt>
      <trkpt lat="45.26321" lon="0.22556">
        <ele>88</ele>
        <time>2025-04-11T09:31:46Z</time>
      </trkpt>
      <trkpt lat="45.26326" lon="0.2253">
        <ele>88</ele>
        <time>2025-04-11T09:31:49Z</time>
      </trkpt>
      <trkpt lat="45.26329" lon="0.22506">
        <ele>89</ele>
        <time>2025-04-11T09:31:52Z</time>
      </trkpt>
      <trkpt lat="45.26331" lon="0.2249">
        <ele>89</ele>
        <time>2025-04-11T09:31:54Z</time>
      </trkpt>
      <trkpt lat="45.26332" lon="0.22473">
        <ele>90</ele>
        <time>2025-04-11T09:31:56Z</time>
      </trkpt>
      <trkpt lat="45.2633" lon="0.22457">
        <ele>90</ele>
        <time>2025-04-11T09:31:58Z</time>
      </trkpt>
      <trkpt lat="45.26326" lon="0.22438">
        <ele>90</ele>
        <time>2025-04-11T09:32:01Z</time>
      </trkpt>
      <trkpt lat="45.2632" lon="0.22422">
        <ele>91</ele>
        <time>2025-04-11T09:32:03Z</time>
      </trkpt>
      <trkpt lat="45.26312" lon="0.22406">
        <ele>91</ele>
        <time>2025-04-11T09:32:06Z</time>
      </trkpt>
      <trkpt lat="45.26294" lon="0.22379">
        <ele>90</ele>
        <time>2025-04-11T09:32:10Z</time>
      </trkpt>
      <trkpt lat="45.26286" lon="0.22363">
        <ele>89</ele>
        <time>2025-04-11T09:32:13Z</time>
      </trkpt>
      <trkpt lat="45.26281" lon="0.2235">
        <ele>89</ele>
        <time>2025-04-11T09:32:15Z</time>
      </trkpt>
      <trkpt lat="45.26277" lon="0.22333">
        <ele>89</ele>
        <time>2025-04-11T09:32:17Z</time>
      </trkpt>
      <trkpt lat="45.26275" lon="0.2232">
        <ele>88</ele>
        <time>2025-04-11T09:32:18Z</time>
      </trkpt>
      <trkpt lat="45.26275" lon="0.22307">
        <ele>88</ele>
        <time>2025-04-11T09:32:20Z</time>
      </trkpt>
      <trkpt lat="45.26276" lon="0.22291">
        <ele>87</ele>
        <time>2025-04-11T09:32:22Z</time>
      </trkpt>
      <trkpt lat="45.26278" lon="0.22275">
        <ele>87</ele>
        <time>2025-04-11T09:32:24Z</time>
      </trkpt>
      <trkpt lat="45.26283" lon="0.22258">
        <ele>86</ele>
        <time>2025-04-11T09:32:26Z</time>
      </trkpt>
      <trkpt lat="45.26297" lon="0.22219">
        <ele>86</ele>
        <time>2025-04-11T09:32:32Z</time>
      </trkpt>
      <trkpt lat="45.26303" lon="0.22197">
        <ele>86</ele>
        <time>2025-04-11T09:32:35Z</time>
      </trkpt>
      <trkpt lat="45.26306" lon="0.22178">
        <ele>86</ele>
        <time>2025-04-11T09:32:37Z</time>
      </trkpt>
      <trkpt lat="45.26307" lon="0.22159">
        <ele>85</ele>
        <time>2025-04-11T09:32:40Z</time>
      </trkpt>
      <trkpt lat="45.26305" lon="0.22139">
        <ele>85</ele>
        <time>2025-04-11T09:32:42Z</time>
      </trkpt>
      <trkpt lat="45.26298" lon="0.22117">
        <ele>84</ele>
        <time>2025-04-11T09:32:45Z</time>
      </trkpt>
      <trkpt lat="45.26259" lon="0.22029">
        <ele>78</ele>
        <time>2025-04-11T09:32:58Z</time>
      </trkpt>
      <trkpt lat="45.26247" lon="0.2199">
        <ele>77</ele>
        <time>2025-04-11T09:33:04Z</time>
      </trkpt>
      <trkpt lat="45.26243" lon="0.21967">
        <ele>77</ele>
        <time>2025-04-11T09:33:07Z</time>
      </trkpt>
      <trkpt lat="45.2624" lon="0.21927">
        <ele>76</ele>
        <time>2025-04-11T09:33:12Z</time>
      </trkpt>
      <trkpt lat="45.26242" lon="0.2189">
        <ele>76</ele>
        <time>2025-04-11T09:33:16Z</time>
      </trkpt>
      <trkpt lat="45.26247" lon="0.21808">
        <ele>75</ele>
        <time>2025-04-11T09:33:27Z</time>
      </trkpt>
      <trkpt lat="45.26247" lon="0.21769">
        <ele>75</ele>
        <time>2025-04-11T09:33:31Z</time>
      </trkpt>
      <trkpt lat="45.26243" lon="0.217">
        <ele>71</ele>
        <time>2025-04-11T09:33:40Z</time>
      </trkpt>
      <trkpt lat="45.26242" lon="0.21672">
        <ele>68</ele>
        <time>2025-04-11T09:33:44Z</time>
      </trkpt>
      <trkpt lat="45.26243" lon="0.21656">
        <ele>67</ele>
        <time>2025-04-11T09:33:46Z</time>
      </trkpt>
      <trkpt lat="45.26246" lon="0.21642">
        <ele>66</ele>
        <time>2025-04-11T09:33:47Z</time>
      </trkpt>
      <trkpt lat="45.26252" lon="0.21627">
        <ele>64</ele>
        <time>2025-04-11T09:33:50Z</time>
      </trkpt>
      <trkpt lat="45.26371" lon="0.21424">
        <ele>54</ele>
        <time>2025-04-11T09:34:23Z</time>
      </trkpt>
      <trkpt lat="45.26377" lon="0.21408">
        <ele>53</ele>
        <time>2025-04-11T09:34:25Z</time>
      </trkpt>
      <trkpt lat="45.2638" lon="0.21394">
        <ele>53</ele>
        <time>2025-04-11T09:34:27Z</time>
      </trkpt>
      <trkpt lat="45.26381" lon="0.21382">
        <ele>53</ele>
        <time>2025-04-11T09:34:28Z</time>
      </trkpt>
      <trkpt lat="45.26379" lon="0.21356">
        <ele>52</ele>
        <time>2025-04-11T09:34:32Z</time>
      </trkpt>
      <trkpt lat="45.26375" lon="0.21341">
        <ele>52</ele>
        <time>2025-04-11T09:34:34Z</time>
      </trkpt>
      <trkpt lat="45.26369" lon="0.21326">
        <ele>52</ele>
        <time>2025-04-11T09:34:36Z</time>
      </trkpt>
      <trkpt lat="45.26278" lon="0.21169">
        <ele>53</ele>
        <time>2025-04-11T09:35:01Z</time>
      </trkpt>
      <trkpt lat="45.26266" lon="0.21143">
        <ele>53</ele>
        <time>2025-04-11T09:35:05Z</time>
      </trkpt>
      <trkpt lat="45.26184" lon="0.20937">
        <ele>52</ele>
        <time>2025-04-11T09:35:35Z</time>
      </trkpt>
      <trkpt lat="45.2617" lon="0.20905">
        <ele>50</ele>
        <time>2025-04-11T09:35:39Z</time>
      </trkpt>
      <trkpt lat="45.26148" lon="0.20862">
        <ele>51</ele>
        <time>2025-04-11T09:35:46Z</time>
      </trkpt>
      <trkpt lat="45.26133" lon="0.20829">
        <ele>51</ele>
        <time>2025-04-11T09:35:51Z</time>
      </trkpt>
      <trkpt lat="45.26127" lon="0.20813">
        <ele>52</ele>
        <time>2025-04-11T09:35:53Z</time>
      </trkpt>
      <trkpt lat="45.26123" lon="0.208">
        <ele>52</ele>
        <time>2025-04-11T09:35:55Z</time>
      </trkpt>
      <trkpt lat="45.2612" lon="0.20786">
        <ele>53</ele>
        <time>2025-04-11T09:35:57Z</time>
      </trkpt>
      <trkpt lat="45.26117" lon="0.20764">
        <ele>54</ele>
        <time>2025-04-11T09:36:00Z</time>
      </trkpt>
      <trkpt lat="45.2612" lon="0.20786">
        <ele>53</ele>
        <time>2025-04-11T09:36:03Z</time>
      </trkpt>
      <trkpt lat="45.26123" lon="0.208">
        <ele>52</ele>
        <time>2025-04-11T09:36:04Z</time>
      </trkpt>
      <trkpt lat="45.26127" lon="0.20813">
        <ele>52</ele>
        <time>2025-04-11T09:36:06Z</time>
      </trkpt>
      <trkpt lat="45.26133" lon="0.20829">
        <ele>51</ele>
        <time>2025-04-11T09:36:08Z</time>
      </trkpt>
      <trkpt lat="45.26148" lon="0.20862">
        <ele>51</ele>
        <time>2025-04-11T09:36:13Z</time>
      </trkpt>
      <trkpt lat="45.26161" lon="0.20888">
        <ele>50</ele>
        <time>2025-04-11T09:36:17Z</time>
      </trkpt>
      <trkpt lat="45.26148" lon="0.20862">
        <ele>51</ele>
        <time>2025-04-11T09:36:21Z</time>
      </trkpt>
      <trkpt lat="45.26133" lon="0.20829">
        <ele>51</ele>
        <time>2025-04-11T09:36:26Z</time>
      </trkpt>
      <trkpt lat="45.26127" lon="0.20813">
        <ele>52</ele>
        <time>2025-04-11T09:36:29Z</time>
      </trkpt>
      <trkpt lat="45.26123" lon="0.208">
        <ele>52</ele>
        <time>2025-04-11T09:36:30Z</time>
      </trkpt>
      <trkpt lat="45.2612" lon="0.20786">
        <ele>53</ele>
        <time>2025-04-11T09:36:32Z</time>
      </trkpt>
      <trkpt lat="45.26117" lon="0.20766">
        <ele>54</ele>
        <time>2025-04-11T09:36:35Z</time>
      </trkpt>
      <trkpt lat="45.26116" lon="0.20709">
        <ele>54</ele>
        <time>2025-04-11T09:36:42Z</time>
      </trkpt>
      <trkpt lat="45.26113" lon="0.20691">
        <ele>54</ele>
        <time>2025-04-11T09:36:44Z</time>
      </trkpt>
      <trkpt lat="45.26109" lon="0.20673">
        <ele>54</ele>
        <time>2025-04-11T09:36:47Z</time>
      </trkpt>
      <trkpt lat="45.26101" lon="0.20648">
        <ele>54</ele>
        <time>2025-04-11T09:36:50Z</time>
      </trkpt>
      <trkpt lat="45.26062" lon="0.20554">
        <ele>53</ele>
        <time>2025-04-11T09:37:04Z</time>
      </trkpt>
      <trkpt lat="45.26046" lon="0.20519">
        <ele>52</ele>
        <time>2025-04-11T09:37:09Z</time>
      </trkpt>
      <trkpt lat="45.26035" lon="0.20499">
        <ele>51</ele>
        <time>2025-04-11T09:37:12Z</time>
      </trkpt>
      <trkpt lat="45.26011" lon="0.20462">
        <ele>51</ele>
        <time>2025-04-11T09:37:18Z</time>
      </trkpt>
      <trkpt lat="45.25972" lon="0.20406">
        <ele>50</ele>
        <time>2025-04-11T09:37:28Z</time>
      </trkpt>
      <trkpt lat="45.25959" lon="0.20379">
        <ele>49</ele>
        <time>2025-04-11T09:37:32Z</time>
      </trkpt>
      <trkpt lat="45.25955" lon="0.20367">
        <ele>49</ele>
        <time>2025-04-11T09:37:34Z</time>
      </trkpt>
      <trkpt lat="45.25953" lon="0.20352">
        <ele>48</ele>
        <time>2025-04-11T09:37:36Z</time>
      </trkpt>
      <trkpt lat="45.25951" lon="0.20323">
        <ele>47</ele>
        <time>2025-04-11T09:37:40Z</time>
      </trkpt>
      <trkpt lat="45.25952" lon="0.20255">
        <ele>48</ele>
        <time>2025-04-11T09:37:48Z</time>
      </trkpt>
      <trkpt lat="45.25953" lon="0.20207">
        <ele>50</ele>
        <time>2025-04-11T09:37:54Z</time>
      </trkpt>
      <trkpt lat="45.25956" lon="0.20071">
        <ele>53</ele>
        <time>2025-04-11T09:38:11Z</time>
      </trkpt>
      <trkpt lat="45.2596" lon="0.19914">
        <ele>51</ele>
        <time>2025-04-11T09:38:31Z</time>
      </trkpt>
      <trkpt lat="45.25961" lon="0.19882">
        <ele>51</ele>
        <time>2025-04-11T09:38:35Z</time>
      </trkpt>
      <trkpt lat="45.25969" lon="0.19836">
        <ele>51</ele>
        <time>2025-04-11T09:38:41Z</time>
      </trkpt>
      <trkpt lat="45.26003" lon="0.19699">
        <ele>49</ele>
        <time>2025-04-11T09:38:59Z</time>
      </trkpt>
      <trkpt lat="45.26014" lon="0.1964">
        <ele>49</ele>
        <time>2025-04-11T09:39:07Z</time>
      </trkpt>
      <trkpt lat="45.26017" lon="0.1961">
        <ele>49</ele>
        <time>2025-04-11T09:39:10Z</time>
      </trkpt>
      <trkpt lat="45.26035" lon="0.19388">
        <ele>49</ele>
        <time>2025-04-11T09:39:38Z</time>
      </trkpt>
      <trkpt lat="45.26038" lon="0.19353">
        <ele>49</ele>
        <time>2025-04-11T09:39:43Z</time>
      </trkpt>
      <trkpt lat="45.26035" lon="0.19333">
        <ele>49</ele>
        <time>2025-04-11T09:39:45Z</time>
      </trkpt>
      <trkpt lat="45.26047" lon="0.1932">
        <ele>49</ele>
        <time>2025-04-11T09:39:48Z</time>
      </trkpt>
      <trkpt lat="45.26063" lon="0.19292">
        <ele>49</ele>
        <time>2025-04-11T09:39:53Z</time>
      </trkpt>
      <trkpt lat="45.26105" lon="0.19224">
        <ele>48</ele>
        <time>2025-04-11T09:40:04Z</time>
      </trkpt>
      <trkpt lat="45.26114" lon="0.19208">
        <ele>48</ele>
        <time>2025-04-11T09:40:06Z</time>
      </trkpt>
      <trkpt lat="45.26125" lon="0.1918">
        <ele>48</ele>
        <time>2025-04-11T09:40:10Z</time>
      </trkpt>
      <trkpt lat="45.26169" lon="0.19051">
        <ele>48</ele>
        <time>2025-04-11T09:40:28Z</time>
      </trkpt>
      <trkpt lat="45.26189" lon="0.18993">
        <ele>48</ele>
        <time>2025-04-11T09:40:36Z</time>
      </trkpt>
      <trkpt lat="45.26201" lon="0.18967">
        <ele>48</ele>
        <time>2025-04-11T09:40:40Z</time>
      </trkpt>
      <trkpt lat="45.26229" lon="0.18916">
        <ele>47</ele>
        <time>2025-04-11T09:40:48Z</time>
      </trkpt>
      <trkpt lat="45.26259" lon="0.18867">
        <ele>46</ele>
        <time>2025-04-11T09:40:57Z</time>
      </trkpt>
      <trkpt lat="45.26292" lon="0.18817">
        <ele>44</ele>
        <time>2025-04-11T09:41:05Z</time>
      </trkpt>
      <trkpt lat="45.26403" lon="0.1866">
        <ele>45</ele>
        <time>2025-04-11T09:41:33Z</time>
      </trkpt>
      <trkpt lat="45.26437" lon="0.18615">
        <ele>46</ele>
        <time>2025-04-11T09:41:41Z</time>
      </trkpt>
      <trkpt lat="45.26468" lon="0.18578">
        <ele>46</ele>
        <time>2025-04-11T09:41:49Z</time>
      </trkpt>
      <trkpt lat="45.26499" lon="0.1863">
        <ele>46</ele>
        <time>2025-04-11T09:41:57Z</time>
      </trkpt>
      <trkpt lat="45.26544" lon="0.18718">
        <ele>45</ele>
        <time>2025-04-11T09:42:11Z</time>
      </trkpt>
      <trkpt lat="45.26572" lon="0.1877">
        <ele>43</ele>
        <time>2025-04-11T09:42:19Z</time>
      </trkpt>
      <trkpt lat="45.26656" lon="0.18926">
        <ele>43</ele>
        <time>2025-04-11T09:42:43Z</time>
      </trkpt>
      <trkpt lat="45.26755" lon="0.19117">
        <ele>44</ele>
        <time>2025-04-11T09:43:13Z</time>
      </trkpt>
      <trkpt lat="45.26776" lon="0.19154">
        <ele>44</ele>
        <time>2025-04-11T09:43:19Z</time>
      </trkpt>
      <trkpt lat="45.26805" lon="0.19209">
        <ele>44</ele>
        <time>2025-04-11T09:43:28Z</time>
      </trkpt>
      <trkpt lat="45.27012" lon="0.19597">
        <ele>46</ele>
        <time>2025-04-11T09:44:29Z</time>
      </trkpt>
      <trkpt lat="45.27273" lon="0.2009">
        <ele>48</ele>
        <time>2025-04-11T09:45:46Z</time>
      </trkpt>
      <trkpt lat="45.27319" lon="0.20191">
        <ele>49</ele>
        <time>2025-04-11T09:46:01Z</time>
      </trkpt>
      <trkpt lat="45.27325" lon="0.20201">
        <ele>49</ele>
        <time>2025-04-11T09:46:03Z</time>
      </trkpt>
      <trkpt lat="45.27301" lon="0.20273">
        <ele>50</ele>
        <time>2025-04-11T09:46:13Z</time>
      </trkpt>
      <trkpt lat="45.27283" lon="0.20293">
        <ele>50</ele>
        <time>2025-04-11T09:46:17Z</time>
      </trkpt>
      <trkpt lat="45.27264" lon="0.20307">
        <ele>50</ele>
        <time>2025-04-11T09:46:21Z</time>
      </trkpt>
      <trkpt lat="45.27236" lon="0.2033">
        <ele>50</ele>
        <time>2025-04-11T09:46:26Z</time>
      </trkpt>
      <trkpt lat="45.27225" lon="0.20344">
        <ele>49</ele>
        <time>2025-04-11T09:46:29Z</time>
      </trkpt>
      <trkpt lat="45.27142" lon="0.20453">
        <ele>48</ele>
        <time>2025-04-11T09:46:49Z</time>
      </trkpt>
      <trkpt lat="45.27112" lon="0.20516">
        <ele>48</ele>
        <time>2025-04-11T09:46:59Z</time>
      </trkpt>
      <trkpt lat="45.27092" lon="0.20538">
        <ele>48</ele>
        <time>2025-04-11T09:47:03Z</time>
      </trkpt>
      <trkpt lat="45.27078" lon="0.20555">
        <ele>48</ele>
        <time>2025-04-11T09:47:06Z</time>
      </trkpt>
      <trkpt lat="45.27066" lon="0.20571">
        <ele>48</ele>
        <time>2025-04-11T09:47:09Z</time>
      </trkpt>
      <trkpt lat="45.27061" lon="0.20585">
        <ele>49</ele>
        <time>2025-04-11T09:47:11Z</time>
      </trkpt>
      <trkpt lat="45.2707" lon="0.20591">
        <ele>48</ele>
        <time>2025-04-11T09:47:13Z</time>
      </trkpt>
      <trkpt lat="45.27152" lon="0.20651">
        <ele>48</ele>
        <time>2025-04-11T09:47:29Z</time>
      </trkpt>
      <trkpt lat="45.27258" lon="0.20737">
        <ele>48</ele>
        <time>2025-04-11T09:47:51Z</time>
      </trkpt>
      <trkpt lat="45.27294" lon="0.20755">
        <ele>49</ele>
        <time>2025-04-11T09:47:58Z</time>
      </trkpt>
      <trkpt lat="45.27326" lon="0.20765">
        <ele>49</ele>
        <time>2025-04-11T09:48:04Z</time>
      </trkpt>
      <trkpt lat="45.27518" lon="0.20711">
        <ele>51</ele>
        <time>2025-04-11T09:48:39Z</time>
      </trkpt>
      <trkpt lat="45.27652" lon="0.20676">
        <ele>52</ele>
        <time>2025-04-11T09:49:03Z</time>
      </trkpt>
      <trkpt lat="45.27745" lon="0.20658">
        <ele>55</ele>
        <time>2025-04-11T09:49:19Z</time>
      </trkpt>
      <trkpt lat="45.27785" lon="0.20666">
        <ele>56</ele>
        <time>2025-04-11T09:49:27Z</time>
      </trkpt>
      <trkpt lat="45.27817" lon="0.20683">
        <ele>56</ele>
        <time>2025-04-11T09:49:33Z</time>
      </trkpt>
      <trkpt lat="45.27847" lon="0.20717">
        <ele>58</ele>
        <time>2025-04-11T09:49:40Z</time>
      </trkpt>
      <trkpt lat="45.27874" lon="0.20761">
        <ele>59</ele>
        <time>2025-04-11T09:49:47Z</time>
      </trkpt>
      <trkpt lat="45.27954" lon="0.20902">
        <ele>59</ele>
        <time>2025-04-11T09:50:10Z</time>
      </trkpt>
      <trkpt lat="45.27996" lon="0.20975">
        <ele>56</ele>
        <time>2025-04-11T09:50:21Z</time>
      </trkpt>
      <trkpt lat="45.28019" lon="0.21007">
        <ele>56</ele>
        <time>2025-04-11T09:50:27Z</time>
      </trkpt>
      <trkpt lat="45.28035" lon="0.21018">
        <ele>56</ele>
        <time>2025-04-11T09:50:30Z</time>
      </trkpt>
      <trkpt lat="45.2804" lon="0.21021">
        <ele>57</ele>
        <time>2025-04-11T09:50:31Z</time>
      </trkpt>
      <trkpt lat="45.2805" lon="0.21024">
        <ele>57</ele>
        <time>2025-04-11T09:50:33Z</time>
      </trkpt>
      <trkpt lat="45.28063" lon="0.21027">
        <ele>57</ele>
        <time>2025-04-11T09:50:35Z</time>
      </trkpt>
      <trkpt lat="45.28072" lon="0.21031">
        <ele>57</ele>
        <time>2025-04-11T09:50:37Z</time>
      </trkpt>
      <trkpt lat="45.28101" lon="0.21043">
        <ele>58</ele>
        <time>2025-04-11T09:50:42Z</time>
      </trkpt>
      <trkpt lat="45.28172" lon="0.21068">
        <ele>59</ele>
        <time>2025-04-11T09:50:55Z</time>
      </trkpt>
      <trkpt lat="45.28232" lon="0.21092">
        <ele>58</ele>
        <time>2025-04-11T09:51:07Z</time>
      </trkpt>
      <trkpt lat="45.28425" lon="0.21197">
        <ele>57</ele>
        <time>2025-04-11T09:51:43Z</time>
      </trkpt>
      <trkpt lat="45.28488" lon="0.21233">
        <ele>58</ele>
        <time>2025-04-11T09:51:55Z</time>
      </trkpt>
      <trkpt lat="45.28501" lon="0.2124">
        <ele>58</ele>
        <time>2025-04-11T09:51:58Z</time>
      </trkpt>
      <trkpt lat="45.28546" lon="0.21274">
        <ele>59</ele>
        <time>2025-04-11T09:52:07Z</time>
      </trkpt>
      <trkpt lat="45.28564" lon="0.21281">
        <ele>59</ele>
        <time>2025-04-11T09:52:10Z</time>
      </trkpt>
      <trkpt lat="45.28587" lon="0.21268">
        <ele>59</ele>
        <time>2025-04-11T09:52:15Z</time>
      </trkpt>
      <trkpt lat="45.28611" lon="0.2127">
        <ele>58</ele>
        <time>2025-04-11T09:52:19Z</time>
      </trkpt>
      <trkpt lat="45.28669" lon="0.21278">
        <ele>54</ele>
        <time>2025-04-11T09:52:29Z</time>
      </trkpt>
      <trkpt lat="45.28717" lon="0.21287">
        <ele>54</ele>
        <time>2025-04-11T09:52:38Z</time>
      </trkpt>
      <trkpt lat="45.2872" lon="0.21365">
        <ele>54</ele>
        <time>2025-04-11T09:52:48Z</time>
      </trkpt>
      <trkpt lat="45.2872" lon="0.21388">
        <ele>54</ele>
        <time>2025-04-11T09:52:51Z</time>
      </trkpt>
      <trkpt lat="45.28724" lon="0.21414">
        <ele>55</ele>
        <time>2025-04-11T09:52:54Z</time>
      </trkpt>
      <trkpt lat="45.28729" lon="0.21434">
        <ele>54</ele>
        <time>2025-04-11T09:52:57Z</time>
      </trkpt>
      <trkpt lat="45.28739" lon="0.21454">
        <ele>53</ele>
        <time>2025-04-11T09:53:00Z</time>
      </trkpt>
      <trkpt lat="45.2875" lon="0.21471">
        <ele>53</ele>
        <time>2025-04-11T09:53:03Z</time>
      </trkpt>
      <trkpt lat="45.28925" lon="0.21642">
        <ele>54</ele>
        <time>2025-04-11T09:53:40Z</time>
      </trkpt>
      <trkpt lat="45.29077" lon="0.21798">
        <ele>55</ele>
        <time>2025-04-11T09:54:14Z</time>
      </trkpt>
      <trkpt lat="45.29106" lon="0.21831">
        <ele>55</ele>
        <time>2025-04-11T09:54:20Z</time>
      </trkpt>
      <trkpt lat="45.2917" lon="0.2192">
        <ele>55</ele>
        <time>2025-04-11T09:54:36Z</time>
      </trkpt>
      <trkpt lat="45.29256" lon="0.22053">
        <ele>59</ele>
        <time>2025-04-11T09:54:59Z</time>
      </trkpt>
      <trkpt lat="45.29297" lon="0.22127">
        <ele>58</ele>
        <time>2025-04-11T09:55:11Z</time>
      </trkpt>
      <trkpt lat="45.29411" lon="0.22352">
        <ele>56</ele>
        <time>2025-04-11T09:55:45Z</time>
      </trkpt>
      <trkpt lat="45.29465" lon="0.22423">
        <ele>53</ele>
        <time>2025-04-11T09:55:58Z</time>
      </trkpt>
      <trkpt lat="45.29509" lon="0.22473">
        <ele>51</ele>
        <time>2025-04-11T09:56:08Z</time>
      </trkpt>
      <trkpt lat="45.29624" lon="0.22612">
        <ele>48</ele>
        <time>2025-04-11T09:56:35Z</time>
      </trkpt>
      <trkpt lat="45.29632" lon="0.22623">
        <ele>49</ele>
        <time>2025-04-11T09:56:37Z</time>
      </trkpt>
      <trkpt lat="45.29646" lon="0.22639">
        <ele>49</ele>
        <time>2025-04-11T09:56:40Z</time>
      </trkpt>
      <trkpt lat="45.29654" lon="0.2265">
        <ele>49</ele>
        <time>2025-04-11T09:56:42Z</time>
      </trkpt>
      <trkpt lat="45.29666" lon="0.22664">
        <ele>49</ele>
        <time>2025-04-11T09:56:45Z</time>
      </trkpt>
      <trkpt lat="45.29678" lon="0.22674">
        <ele>49</ele>
        <time>2025-04-11T09:56:48Z</time>
      </trkpt>
      <trkpt lat="45.29687" lon="0.2268">
        <ele>49</ele>
        <time>2025-04-11T09:56:49Z</time>
      </trkpt>
      <trkpt lat="45.29697" lon="0.22685">
        <ele>50</ele>
        <time>2025-04-11T09:56:51Z</time>
      </trkpt>
      <trkpt lat="45.29706" lon="0.22687">
        <ele>50</ele>
        <time>2025-04-11T09:56:53Z</time>
      </trkpt>
      <trkpt lat="45.29715" lon="0.22687">
        <ele>50</ele>
        <time>2025-04-11T09:56:55Z</time>
      </trkpt>
      <trkpt lat="45.29736" lon="0.22685">
        <ele>51</ele>
        <time>2025-04-11T09:56:58Z</time>
      </trkpt>
      <trkpt lat="45.29847" lon="0.22656">
        <ele>51</ele>
        <time>2025-04-11T09:57:18Z</time>
      </trkpt>
      <trkpt lat="45.29865" lon="0.22655">
        <ele>51</ele>
        <time>2025-04-11T09:57:22Z</time>
      </trkpt>
      <trkpt lat="45.29878" lon="0.22658">
        <ele>51</ele>
        <time>2025-04-11T09:57:24Z</time>
      </trkpt>
      <trkpt lat="45.29888" lon="0.22662">
        <ele>51</ele>
        <time>2025-04-11T09:57:26Z</time>
      </trkpt>
      <trkpt lat="45.29904" lon="0.22672">
        <ele>52</ele>
        <time>2025-04-11T09:57:29Z</time>
      </trkpt>
      <trkpt lat="45.29914" lon="0.22681">
        <ele>52</ele>
        <time>2025-04-11T09:57:31Z</time>
      </trkpt>
      <trkpt lat="45.29923" lon="0.22693">
        <ele>54</ele>
        <time>2025-04-11T09:57:33Z</time>
      </trkpt>
      <trkpt lat="45.29932" lon="0.22706">
        <ele>55</ele>
        <time>2025-04-11T09:57:35Z</time>
      </trkpt>
      <trkpt lat="45.29937" lon="0.22717">
        <ele>55</ele>
        <time>2025-04-11T09:57:37Z</time>
      </trkpt>
      <trkpt lat="45.29945" lon="0.22735">
        <ele>57</ele>
        <time>2025-04-11T09:57:40Z</time>
      </trkpt>
      <trkpt lat="45.29985" lon="0.22867">
        <ele>62</ele>
        <time>2025-04-11T09:57:58Z</time>
      </trkpt>
      <trkpt lat="45.30008" lon="0.22939">
        <ele>63</ele>
        <time>2025-04-11T09:58:08Z</time>
      </trkpt>
      <trkpt lat="45.30022" lon="0.22976">
        <ele>64</ele>
        <time>2025-04-11T09:58:13Z</time>
      </trkpt>
      <trkpt lat="45.30039" lon="0.23016">
        <ele>65</ele>
        <time>2025-04-11T09:58:19Z</time>
      </trkpt>
      <trkpt lat="45.30133" lon="0.23213">
        <ele>71</ele>
        <time>2025-04-11T09:58:49Z</time>
      </trkpt>
      <trkpt lat="45.30157" lon="0.23258">
        <ele>73</ele>
        <time>2025-04-11T09:58:56Z</time>
      </trkpt>
      <trkpt lat="45.30283" lon="0.2352">
        <ele>82</ele>
        <time>2025-04-11T09:59:35Z</time>
      </trkpt>
      <trkpt lat="45.303" lon="0.23551">
        <ele>82</ele>
        <time>2025-04-11T09:59:40Z</time>
      </trkpt>
      <trkpt lat="45.30324" lon="0.23587">
        <ele>83</ele>
        <time>2025-04-11T09:59:46Z</time>
      </trkpt>
      <trkpt lat="45.30505" lon="0.23822">
        <ele>88</ele>
        <time>2025-04-11T10:00:30Z</time>
      </trkpt>
      <trkpt lat="45.30649" lon="0.24012">
        <ele>92</ele>
        <time>2025-04-11T10:01:05Z</time>
      </trkpt>
      <trkpt lat="45.30719" lon="0.24102">
        <ele>94</ele>
        <time>2025-04-11T10:01:22Z</time>
      </trkpt>
      <trkpt lat="45.30737" lon="0.24129">
        <ele>96</ele>
        <time>2025-04-11T10:01:26Z</time>
      </trkpt>
      <trkpt lat="45.30757" lon="0.24166">
        <ele>98</ele>
        <time>2025-04-11T10:01:32Z</time>
      </trkpt>
      <trkpt lat="45.30795" lon="0.24239">
        <ele>98</ele>
        <time>2025-04-11T10:01:44Z</time>
      </trkpt>
      <trkpt lat="45.30822" lon="0.2429">
        <ele>97</ele>
        <time>2025-04-11T10:01:52Z</time>
      </trkpt>
      <trkpt lat="45.30936" lon="0.24505">
        <ele>100</ele>
        <time>2025-04-11T10:02:25Z</time>
      </trkpt>
      <trkpt lat="45.30985" lon="0.24596">
        <ele>104</ele>
        <time>2025-04-11T10:02:40Z</time>
      </trkpt>
      <trkpt lat="45.31003" lon="0.24624">
        <ele>106</ele>
        <time>2025-04-11T10:02:44Z</time>
      </trkpt>
      <trkpt lat="45.31048" lon="0.24684">
        <ele>107</ele>
        <time>2025-04-11T10:02:55Z</time>
      </trkpt>
      <trkpt lat="45.31125" lon="0.24783">
        <ele>105</ele>
        <time>2025-04-11T10:03:14Z</time>
      </trkpt>
      <trkpt lat="45.31191" lon="0.2487">
        <ele>106</ele>
        <time>2025-04-11T10:03:30Z</time>
      </trkpt>
      <trkpt lat="45.31289" lon="0.24999">
        <ele>107</ele>
        <time>2025-04-11T10:03:54Z</time>
      </trkpt>
      <trkpt lat="45.31293" lon="0.25005">
        <ele>107</ele>
        <time>2025-04-11T10:03:55Z</time>
      </trkpt>
      <trkpt lat="45.3139" lon="0.24962">
        <ele>101</ele>
        <time>2025-04-11T10:04:13Z</time>
      </trkpt>
      <trkpt lat="45.31411" lon="0.24948">
        <ele>101</ele>
        <time>2025-04-11T10:04:17Z</time>
      </trkpt>
      <trkpt lat="45.31424" lon="0.24937">
        <ele>100</ele>
        <time>2025-04-11T10:04:20Z</time>
      </trkpt>
      <trkpt lat="45.31445" lon="0.24915">
        <ele>99</ele>
        <time>2025-04-11T10:04:24Z</time>
      </trkpt>
      <trkpt lat="45.31465" lon="0.24893">
        <ele>99</ele>
        <time>2025-04-11T10:04:29Z</time>
      </trkpt>
      <trkpt lat="45.31483" lon="0.24871">
        <ele>98</ele>
        <time>2025-04-11T10:04:33Z</time>
      </trkpt>
      <trkpt lat="45.31496" lon="0.24851">
        <ele>98</ele>
        <time>2025-04-11T10:04:36Z</time>
      </trkpt>
      <trkpt lat="45.31516" lon="0.24819">
        <ele>98</ele>
        <time>2025-04-11T10:04:42Z</time>
      </trkpt>
      <trkpt lat="45.31542" lon="0.24767">
        <ele>99</ele>
        <time>2025-04-11T10:04:50Z</time>
      </trkpt>
      <trkpt lat="45.31547" lon="0.24757">
        <ele>100</ele>
        <time>2025-04-11T10:04:51Z</time>
      </trkpt>
      <trkpt lat="45.31562" lon="0.24737">
        <ele>100</ele>
        <time>2025-04-11T10:04:55Z</time>
      </trkpt>
      <trkpt lat="45.31566" lon="0.24732">
        <ele>100</ele>
        <time>2025-04-11T10:04:56Z</time>
      </trkpt>
      <trkpt lat="45.31585" lon="0.24718">
        <ele>100</ele>
        <time>2025-04-11T10:05:00Z</time>
      </trkpt>
      <trkpt lat="45.31596" lon="0.24711">
        <ele>100</ele>
        <time>2025-04-11T10:05:02Z</time>
      </trkpt>
      <trkpt lat="45.31608" lon="0.24706">
        <ele>101</ele>
        <time>2025-04-11T10:05:04Z</time>
      </trkpt>
      <trkpt lat="45.31626" lon="0.24702">
        <ele>101</ele>
        <time>2025-04-11T10:05:07Z</time>
      </trkpt>
      <trkpt lat="45.31639" lon="0.24698">
        <ele>101</ele>
        <time>2025-04-11T10:05:10Z</time>
      </trkpt>
      <trkpt lat="45.31654" lon="0.24697">
        <ele>101</ele>
        <time>2025-04-11T10:05:12Z</time>
      </trkpt>
      <trkpt lat="45.31693" lon="0.24695">
        <ele>101</ele>
        <time>2025-04-11T10:05:19Z</time>
      </trkpt>
      <trkpt lat="45.31755" lon="0.24697">
        <ele>100</ele>
        <time>2025-04-11T10:05:30Z</time>
      </trkpt>
      <trkpt lat="45.31812" lon="0.24702">
        <ele>101</ele>
        <time>2025-04-11T10:05:40Z</time>
      </trkpt>
      <trkpt lat="45.31859" lon="0.24709">
        <ele>102</ele>
        <time>2025-04-11T10:05:49Z</time>
      </trkpt>
      <trkpt lat="45.31965" lon="0.24731">
        <ele>104</ele>
        <time>2025-04-11T10:06:08Z</time>
      </trkpt>
      <trkpt lat="45.31989" lon="0.24732">
        <ele>105</ele>
        <time>2025-04-11T10:06:12Z</time>
      </trkpt>
      <trkpt lat="45.3203" lon="0.24729">
        <ele>107</ele>
        <time>2025-04-11T10:06:20Z</time>
      </trkpt>
      <trkpt lat="45.32255" lon="0.24709">
        <ele>112</ele>
        <time>2025-04-11T10:07:00Z</time>
      </trkpt>
      <trkpt lat="45.32389" lon="0.24701">
        <ele>113</ele>
        <time>2025-04-11T10:07:23Z</time>
      </trkpt>
      <trkpt lat="45.3249" lon="0.24696">
        <ele>111</ele>
        <time>2025-04-11T10:07:41Z</time>
      </trkpt>
      <trkpt lat="45.32509" lon="0.24697">
        <ele>110</ele>
        <time>2025-04-11T10:07:45Z</time>
      </trkpt>
      <trkpt lat="45.32528" lon="0.247">
        <ele>109</ele>
        <time>2025-04-11T10:07:48Z</time>
      </trkpt>
      <trkpt lat="45.32551" lon="0.24706">
        <ele>108</ele>
        <time>2025-04-11T10:07:52Z</time>
      </trkpt>
      <trkpt lat="45.3259" lon="0.2472">
        <ele>106</ele>
        <time>2025-04-11T10:08:00Z</time>
      </trkpt>
      <trkpt lat="45.3261" lon="0.24723">
        <ele>105</ele>
        <time>2025-04-11T10:08:03Z</time>
      </trkpt>
      <trkpt lat="45.32612" lon="0.24729">
        <ele>105</ele>
        <time>2025-04-11T10:08:04Z</time>
      </trkpt>
      <trkpt lat="45.32621" lon="0.24741">
        <ele>104</ele>
        <time>2025-04-11T10:08:06Z</time>
      </trkpt>
      <trkpt lat="45.32691" lon="0.24913">
        <ele>103</ele>
        <time>2025-04-11T10:08:31Z</time>
      </trkpt>
      <trkpt lat="45.32621" lon="0.24741">
        <ele>104</ele>
        <time>2025-04-11T10:08:56Z</time>
      </trkpt>
      <trkpt lat="45.32725" lon="0.24788">
        <ele>99</ele>
        <time>2025-04-11T10:09:15Z</time>
      </trkpt>
      <trkpt lat="45.32747" lon="0.24801">
        <ele>98</ele>
        <time>2025-04-11T10:09:20Z</time>
      </trkpt>
      <trkpt lat="45.32768" lon="0.24818">
        <ele>98</ele>
        <time>2025-04-11T10:09:24Z</time>
      </trkpt>
      <trkpt lat="45.32832" lon="0.24887">
        <ele>96</ele>
        <time>2025-04-11T10:09:38Z</time>
      </trkpt>
      <trkpt lat="45.32864" lon="0.24924">
        <ele>94</ele>
        <time>2025-04-11T10:09:45Z</time>
      </trkpt>
      <trkpt lat="45.32893" lon="0.24957">
        <ele>93</ele>
        <time>2025-04-11T10:09:52Z</time>
      </trkpt>
      <trkpt lat="45.32919" lon="0.24986">
        <ele>94</ele>
        <time>2025-04-11T10:09:58Z</time>
      </trkpt>
      <trkpt lat="45.3293" lon="0.24993">
        <ele>95</ele>
        <time>2025-04-11T10:10:00Z</time>
      </trkpt>
      <trkpt lat="45.32943" lon="0.24998">
        <ele>95</ele>
        <time>2025-04-11T10:10:03Z</time>
      </trkpt>
      <trkpt lat="45.32957" lon="0.25">
        <ele>95</ele>
        <time>2025-04-11T10:10:05Z</time>
      </trkpt>
      <trkpt lat="45.32967" lon="0.24998">
        <ele>95</ele>
        <time>2025-04-11T10:10:07Z</time>
      </trkpt>
      <trkpt lat="45.32978" lon="0.24993">
        <ele>95</ele>
        <time>2025-04-11T10:10:09Z</time>
      </trkpt>
      <trkpt lat="45.33138" lon="0.24897">
        <ele>89</ele>
        <time>2025-04-11T10:10:40Z</time>
      </trkpt>
      <trkpt lat="45.33155" lon="0.24892">
        <ele>88</ele>
        <time>2025-04-11T10:10:43Z</time>
      </trkpt>
      <trkpt lat="45.33167" lon="0.24891">
        <ele>88</ele>
        <time>2025-04-11T10:10:45Z</time>
      </trkpt>
      <trkpt lat="45.33179" lon="0.24894">
        <ele>88</ele>
        <time>2025-04-11T10:10:47Z</time>
      </trkpt>
      <trkpt lat="45.33219" lon="0.24906">
        <ele>86</ele>
        <time>2025-04-11T10:10:54Z</time>
      </trkpt>
      <trkpt lat="45.33277" lon="0.24927">
        <ele>83</ele>
        <time>2025-04-11T10:11:05Z</time>
      </trkpt>
      <trkpt lat="45.33299" lon="0.24938">
        <ele>82</ele>
        <time>2025-04-11T10:11:09Z</time>
      </trkpt>
      <trkpt lat="45.33316" lon="0.24951">
        <ele>82</ele>
        <time>2025-04-11T10:11:13Z</time>
      </trkpt>
      <trkpt lat="45.3333" lon="0.24965">
        <ele>81</ele>
        <time>2025-04-11T10:11:16Z</time>
      </trkpt>
      <trkpt lat="45.3357" lon="0.25278">
        <ele>75</ele>
        <time>2025-04-11T10:12:14Z</time>
      </trkpt>
      <trkpt lat="45.33612" lon="0.25332">
        <ele>75</ele>
        <time>2025-04-11T10:12:24Z</time>
      </trkpt>
      <trkpt lat="45.33625" lon="0.25345">
        <ele>74</ele>
        <time>2025-04-11T10:12:27Z</time>
      </trkpt>
      <trkpt lat="45.33642" lon="0.25359">
        <ele>72</ele>
        <time>2025-04-11T10:12:30Z</time>
      </trkpt>
      <trkpt lat="45.3366" lon="0.25369">
        <ele>69</ele>
        <time>2025-04-11T10:12:33Z</time>
      </trkpt>
      <trkpt lat="45.3368" lon="0.25374">
        <ele>68</ele>
        <time>2025-04-11T10:12:37Z</time>
      </trkpt>
      <trkpt lat="45.33705" lon="0.25375">
        <ele>68</ele>
        <time>2025-04-11T10:12:42Z</time>
      </trkpt>
      <trkpt lat="45.33728" lon="0.2537">
        <ele>67</ele>
        <time>2025-04-11T10:12:46Z</time>
      </trkpt>
      <trkpt lat="45.3378" lon="0.25349">
        <ele>68</ele>
        <time>2025-04-11T10:12:55Z</time>
      </trkpt>
      <trkpt lat="45.33845" lon="0.25321">
        <ele>71</ele>
        <time>2025-04-11T10:13:07Z</time>
      </trkpt>
      <trkpt lat="45.341" lon="0.25216">
        <ele>78</ele>
        <time>2025-04-11T10:13:55Z</time>
      </trkpt>
      <trkpt lat="45.3432" lon="0.25124">
        <ele>75</ele>
        <time>2025-04-11T10:14:35Z</time>
      </trkpt>
      <trkpt lat="45.34323" lon="0.25123">
        <ele>75</ele>
        <time>2025-04-11T10:14:36Z</time>
      </trkpt>
      <trkpt lat="45.34393" lon="0.25095">
        <ele>77</ele>
        <time>2025-04-11T10:14:49Z</time>
      </trkpt>
      <trkpt lat="45.34413" lon="0.25085">
        <ele>77</ele>
        <time>2025-04-11T10:14:53Z</time>
      </trkpt>
      <trkpt lat="45.3454" lon="0.25014">
        <ele>74</ele>
        <time>2025-04-11T10:15:17Z</time>
      </trkpt>
      <trkpt lat="45.3479" lon="0.24875">
        <ele>77</ele>
        <time>2025-04-11T10:16:05Z</time>
      </trkpt>
      <trkpt lat="45.34799" lon="0.24872">
        <ele>77</ele>
        <time>2025-04-11T10:16:06Z</time>
      </trkpt>
      <trkpt lat="45.3482" lon="0.24863">
        <ele>78</ele>
        <time>2025-04-11T10:16:10Z</time>
      </trkpt>
      <trkpt lat="45.34855" lon="0.24844">
        <ele>77</ele>
        <time>2025-04-11T10:16:17Z</time>
      </trkpt>
      <trkpt lat="45.34862" lon="0.24843">
        <ele>77</ele>
        <time>2025-04-11T10:16:18Z</time>
      </trkpt>
      <trkpt lat="45.34866" lon="0.24846">
        <ele>77</ele>
        <time>2025-04-11T10:16:19Z</time>
      </trkpt>
      <trkpt lat="45.3487" lon="0.2485">
        <ele>77</ele>
        <time>2025-04-11T10:16:20Z</time>
      </trkpt>
      <trkpt lat="45.34902" lon="0.24917">
        <ele>75</ele>
        <time>2025-04-11T10:16:30Z</time>
      </trkpt>
      <trkpt lat="45.34909" lon="0.24925">
        <ele>75</ele>
        <time>2025-04-11T10:16:32Z</time>
      </trkpt>
      <trkpt lat="45.34919" lon="0.24929">
        <ele>74</ele>
        <time>2025-04-11T10:16:33Z</time>
      </trkpt>
      <trkpt lat="45.34919" lon="0.24935">
        <ele>74</ele>
        <time>2025-04-11T10:16:34Z</time>
      </trkpt>
      <trkpt lat="45.34926" lon="0.24947">
        <ele>74</ele>
        <time>2025-04-11T10:16:36Z</time>
      </trkpt>
      <trkpt lat="45.34959" lon="0.24986">
        <ele>71</ele>
        <time>2025-04-11T10:16:44Z</time>
      </trkpt>
      <trkpt lat="45.35079" lon="0.25139">
        <ele>67</ele>
        <time>2025-04-11T10:17:12Z</time>
      </trkpt>
      <trkpt lat="45.35084" lon="0.25145">
        <ele>67</ele>
        <time>2025-04-11T10:17:14Z</time>
      </trkpt>
      <trkpt lat="45.35116" lon="0.25186">
        <ele>66</ele>
        <time>2025-04-11T10:17:21Z</time>
      </trkpt>
      <trkpt lat="45.35149" lon="0.25227">
        <ele>66</ele>
        <time>2025-04-11T10:17:29Z</time>
      </trkpt>
      <trkpt lat="45.35156" lon="0.25235">
        <ele>66</ele>
        <time>2025-04-11T10:17:31Z</time>
      </trkpt>
      <trkpt lat="45.35169" lon="0.25269">
        <ele>66</ele>
        <time>2025-04-11T10:17:35Z</time>
      </trkpt>
      <trkpt lat="45.35173" lon="0.25306">
        <ele>66</ele>
        <time>2025-04-11T10:17:40Z</time>
      </trkpt>
      <trkpt lat="45.35173" lon="0.2531">
        <ele>66</ele>
        <time>2025-04-11T10:17:41Z</time>
      </trkpt>
      <trkpt lat="45.35174" lon="0.25316">
        <ele>66</ele>
        <time>2025-04-11T10:17:41Z</time>
      </trkpt>
      <trkpt lat="45.35175" lon="0.25328">
        <ele>66</ele>
        <time>2025-04-11T10:17:43Z</time>
      </trkpt>
      <trkpt lat="45.3519" lon="0.25469">
        <ele>62</ele>
        <time>2025-04-11T10:18:01Z</time>
      </trkpt>
      <trkpt lat="45.35191" lon="0.25476">
        <ele>62</ele>
        <time>2025-04-11T10:18:02Z</time>
      </trkpt>
      <trkpt lat="45.35196" lon="0.25518">
        <ele>62</ele>
        <time>2025-04-11T10:18:07Z</time>
      </trkpt>
      <trkpt lat="45.352" lon="0.25541">
        <ele>62</ele>
        <time>2025-04-11T10:18:10Z</time>
      </trkpt>
      <trkpt lat="45.35229" lon="0.25567">
        <ele>62</ele>
        <time>2025-04-11T10:18:16Z</time>
      </trkpt>
      <trkpt lat="45.35246" lon="0.25577">
        <ele>62</ele>
        <time>2025-04-11T10:18:19Z</time>
      </trkpt>
      <trkpt lat="45.35324" lon="0.2561">
        <ele>63</ele>
        <time>2025-04-11T10:18:34Z</time>
      </trkpt>
      <trkpt lat="45.35331" lon="0.25613">
        <ele>63</ele>
        <time>2025-04-11T10:18:35Z</time>
      </trkpt>
      <trkpt lat="45.35347" lon="0.25624">
        <ele>63</ele>
        <time>2025-04-11T10:18:38Z</time>
      </trkpt>
      <trkpt lat="45.35362" lon="0.2564">
        <ele>63</ele>
        <time>2025-04-11T10:18:42Z</time>
      </trkpt>
      <trkpt lat="45.35375" lon="0.25662">
        <ele>63</ele>
        <time>2025-04-11T10:18:45Z</time>
      </trkpt>
      <trkpt lat="45.35378" lon="0.25669">
        <ele>64</ele>
        <time>2025-04-11T10:18:46Z</time>
      </trkpt>
      <trkpt lat="45.35414" lon="0.25747">
        <ele>63</ele>
        <time>2025-04-11T10:18:58Z</time>
      </trkpt>
      <trkpt lat="45.35481" lon="0.25839">
        <ele>62</ele>
        <time>2025-04-11T10:19:14Z</time>
      </trkpt>
      <trkpt lat="45.35688" lon="0.26024">
        <ele>64</ele>
        <time>2025-04-11T10:19:58Z</time>
      </trkpt>
      <trkpt lat="45.35701" lon="0.26027">
        <ele>65</ele>
        <time>2025-04-11T10:20:00Z</time>
      </trkpt>
      <trkpt lat="45.35709" lon="0.26029">
        <ele>65</ele>
        <time>2025-04-11T10:20:02Z</time>
      </trkpt>
      <trkpt lat="45.35813" lon="0.26017">
        <ele>73</ele>
        <time>2025-04-11T10:20:20Z</time>
      </trkpt>
      <trkpt lat="45.35818" lon="0.26018">
        <ele>73</ele>
        <time>2025-04-11T10:20:21Z</time>
      </trkpt>
      <trkpt lat="45.35981" lon="0.26064">
        <ele>79</ele>
        <time>2025-04-11T10:20:51Z</time>
      </trkpt>
      <trkpt lat="45.36059" lon="0.26086">
        <ele>81</ele>
        <time>2025-04-11T10:21:05Z</time>
      </trkpt>
      <trkpt lat="45.36122" lon="0.26123">
        <ele>82</ele>
        <time>2025-04-11T10:21:17Z</time>
      </trkpt>
      <trkpt lat="45.36217" lon="0.26133">
        <ele>83</ele>
        <time>2025-04-11T10:21:34Z</time>
      </trkpt>
      <trkpt lat="45.36321" lon="0.26163">
        <ele>88</ele>
        <time>2025-04-11T10:21:53Z</time>
      </trkpt>
      <trkpt lat="45.3637" lon="0.26177">
        <ele>93</ele>
        <time>2025-04-11T10:22:02Z</time>
      </trkpt>
      <trkpt lat="45.36391" lon="0.26177">
        <ele>95</ele>
        <time>2025-04-11T10:22:06Z</time>
      </trkpt>
      <trkpt lat="45.36413" lon="0.26157">
        <ele>96</ele>
        <time>2025-04-11T10:22:10Z</time>
      </trkpt>
      <trkpt lat="45.36452" lon="0.26094">
        <ele>92</ele>
        <time>2025-04-11T10:22:21Z</time>
      </trkpt>
      <trkpt lat="45.36493" lon="0.26055">
        <ele>90</ele>
        <time>2025-04-11T10:22:29Z</time>
      </trkpt>
      <trkpt lat="45.36552" lon="0.26024">
        <ele>89</ele>
        <time>2025-04-11T10:22:41Z</time>
      </trkpt>
      <trkpt lat="45.36585" lon="0.26021">
        <ele>89</ele>
        <time>2025-04-11T10:22:46Z</time>
      </trkpt>
      <trkpt lat="45.3664" lon="0.26035">
        <ele>90</ele>
        <time>2025-04-11T10:22:56Z</time>
      </trkpt>
      <trkpt lat="45.36707" lon="0.2606">
        <ele>94</ele>
        <time>2025-04-11T10:23:09Z</time>
      </trkpt>
      <trkpt lat="45.36731" lon="0.26062">
        <ele>94</ele>
        <time>2025-04-11T10:23:13Z</time>
      </trkpt>
      <trkpt lat="45.36739" lon="0.26063">
        <ele>94</ele>
        <time>2025-04-11T10:23:14Z</time>
      </trkpt>
      <trkpt lat="45.36896" lon="0.25984">
        <ele>89</ele>
        <time>2025-04-11T10:23:44Z</time>
      </trkpt>
      <trkpt lat="45.36935" lon="0.25977">
        <ele>89</ele>
        <time>2025-04-11T10:23:51Z</time>
      </trkpt>
      <trkpt lat="45.37077" lon="0.25978">
        <ele>88</ele>
        <time>2025-04-11T10:24:16Z</time>
      </trkpt>
      <trkpt lat="45.37117" lon="0.25977">
        <ele>87</ele>
        <time>2025-04-11T10:24:23Z</time>
      </trkpt>
      <trkpt lat="45.37132" lon="0.25979">
        <ele>87</ele>
        <time>2025-04-11T10:24:26Z</time>
      </trkpt>
      <trkpt lat="45.37137" lon="0.25993">
        <ele>88</ele>
        <time>2025-04-11T10:24:28Z</time>
      </trkpt>
      <trkpt lat="45.37193" lon="0.26064">
        <ele>98</ele>
        <time>2025-04-11T10:24:41Z</time>
      </trkpt>
      <trkpt lat="45.37212" lon="0.26073">
        <ele>99</ele>
        <time>2025-04-11T10:24:45Z</time>
      </trkpt>
      <trkpt lat="45.37261" lon="0.2607">
        <ele>99</ele>
        <time>2025-04-11T10:24:54Z</time>
      </trkpt>
      <trkpt lat="45.37273" lon="0.26071">
        <ele>99</ele>
        <time>2025-04-11T10:24:56Z</time>
      </trkpt>
      <trkpt lat="45.37292" lon="0.26076">
        <ele>99</ele>
        <time>2025-04-11T10:24:59Z</time>
      </trkpt>
      <trkpt lat="45.37303" lon="0.26097">
        <ele>101</ele>
        <time>2025-04-11T10:25:03Z</time>
      </trkpt>
      <trkpt lat="45.37302" lon="0.2612">
        <ele>104</ele>
        <time>2025-04-11T10:25:05Z</time>
      </trkpt>
      <trkpt lat="45.37293" lon="0.26147">
        <ele>107</ele>
        <time>2025-04-11T10:25:09Z</time>
      </trkpt>
      <trkpt lat="45.37289" lon="0.2617">
        <ele>110</ele>
        <time>2025-04-11T10:25:12Z</time>
      </trkpt>
      <trkpt lat="45.373" lon="0.26274">
        <ele>117</ele>
        <time>2025-04-11T10:25:25Z</time>
      </trkpt>
      <trkpt lat="45.37307" lon="0.26286">
        <ele>117</ele>
        <time>2025-04-11T10:25:27Z</time>
      </trkpt>
      <trkpt lat="45.37314" lon="0.26293">
        <ele>118</ele>
        <time>2025-04-11T10:25:29Z</time>
      </trkpt>
      <trkpt lat="45.37371" lon="0.26318">
        <ele>120</ele>
        <time>2025-04-11T10:25:39Z</time>
      </trkpt>
      <trkpt lat="45.37462" lon="0.26375">
        <ele>124</ele>
        <time>2025-04-11T10:25:57Z</time>
      </trkpt>
      <trkpt lat="45.37501" lon="0.26399">
        <ele>127</ele>
        <time>2025-04-11T10:26:05Z</time>
      </trkpt>
      <trkpt lat="45.37555" lon="0.26455">
        <ele>127</ele>
        <time>2025-04-11T10:26:17Z</time>
      </trkpt>
      <trkpt lat="45.37616" lon="0.26497">
        <ele>129</ele>
        <time>2025-04-11T10:26:29Z</time>
      </trkpt>
      <trkpt lat="45.37651" lon="0.26526">
        <ele>127</ele>
        <time>2025-04-11T10:26:36Z</time>
      </trkpt>
      <trkpt lat="45.37679" lon="0.26554">
        <ele>126</ele>
        <time>2025-04-11T10:26:42Z</time>
      </trkpt>
      <trkpt lat="45.37729" lon="0.26621">
        <ele>126</ele>
        <time>2025-04-11T10:26:54Z</time>
      </trkpt>
      <trkpt lat="45.37757" lon="0.26689">
        <ele>127</ele>
        <time>2025-04-11T10:27:04Z</time>
      </trkpt>
      <trkpt lat="45.37764" lon="0.26703">
        <ele>127</ele>
        <time>2025-04-11T10:27:06Z</time>
      </trkpt>
      <trkpt lat="45.37779" lon="0.26713">
        <ele>126</ele>
        <time>2025-04-11T10:27:09Z</time>
      </trkpt>
      <trkpt lat="45.37833" lon="0.26742">
        <ele>125</ele>
        <time>2025-04-11T10:27:19Z</time>
      </trkpt>
      <trkpt lat="45.37873" lon="0.26765">
        <ele>120</ele>
        <time>2025-04-11T10:27:27Z</time>
      </trkpt>
      <trkpt lat="45.37882" lon="0.26764">
        <ele>119</ele>
        <time>2025-04-11T10:27:29Z</time>
      </trkpt>
      <trkpt lat="45.37888" lon="0.26784">
        <ele>119</ele>
        <time>2025-04-11T10:27:31Z</time>
      </trkpt>
      <trkpt lat="45.37889" lon="0.26801">
        <ele>120</ele>
        <time>2025-04-11T10:27:33Z</time>
      </trkpt>
      <trkpt lat="45.37879" lon="0.26851">
        <ele>125</ele>
        <time>2025-04-11T10:27:40Z</time>
      </trkpt>
      <trkpt lat="45.37879" lon="0.26873">
        <ele>127</ele>
        <time>2025-04-11T10:27:43Z</time>
      </trkpt>
      <trkpt lat="45.37883" lon="0.26894">
        <ele>127</ele>
        <time>2025-04-11T10:27:45Z</time>
      </trkpt>
      <trkpt lat="45.3789" lon="0.26913">
        <ele>128</ele>
        <time>2025-04-11T10:27:48Z</time>
      </trkpt>
      <trkpt lat="45.37899" lon="0.26928">
        <ele>128</ele>
        <time>2025-04-11T10:27:51Z</time>
      </trkpt>
      <trkpt lat="45.37934" lon="0.26962">
        <ele>128</ele>
        <time>2025-04-11T10:27:58Z</time>
      </trkpt>
      <trkpt lat="45.37958" lon="0.2698">
        <ele>129</ele>
        <time>2025-04-11T10:28:03Z</time>
      </trkpt>
      <trkpt lat="45.37972" lon="0.26995">
        <ele>130</ele>
        <time>2025-04-11T10:28:06Z</time>
      </trkpt>
      <trkpt lat="45.37982" lon="0.2701">
        <ele>130</ele>
        <time>2025-04-11T10:28:09Z</time>
      </trkpt>
      <trkpt lat="45.37991" lon="0.27022">
        <ele>130</ele>
        <time>2025-04-11T10:28:11Z</time>
      </trkpt>
      <trkpt lat="45.38" lon="0.27023">
        <ele>129</ele>
        <time>2025-04-11T10:28:12Z</time>
      </trkpt>
      <trkpt lat="45.38015" lon="0.27031">
        <ele>130</ele>
        <time>2025-04-11T10:28:15Z</time>
      </trkpt>
      <trkpt lat="45.38164" lon="0.27112">
        <ele>138</ele>
        <time>2025-04-11T10:28:44Z</time>
      </trkpt>
      <trkpt lat="45.38255" lon="0.2716">
        <ele>150</ele>
        <time>2025-04-11T10:29:01Z</time>
      </trkpt>
      <trkpt lat="45.38303" lon="0.27198">
        <ele>147</ele>
        <time>2025-04-11T10:29:11Z</time>
      </trkpt>
      <trkpt lat="45.38458" lon="0.27203">
        <ele>136</ele>
        <time>2025-04-11T10:29:38Z</time>
      </trkpt>
      <trkpt lat="45.38493" lon="0.2723">
        <ele>136</ele>
        <time>2025-04-11T10:29:45Z</time>
      </trkpt>
      <trkpt lat="45.38531" lon="0.27266">
        <ele>133</ele>
        <time>2025-04-11T10:29:53Z</time>
      </trkpt>
      <trkpt lat="45.38562" lon="0.27295">
        <ele>132</ele>
        <time>2025-04-11T10:30:00Z</time>
      </trkpt>
      <trkpt lat="45.38603" lon="0.27338">
        <ele>132</ele>
        <time>2025-04-11T10:30:09Z</time>
      </trkpt>
      <trkpt lat="45.38614" lon="0.27386">
        <ele>129</ele>
        <time>2025-04-11T10:30:15Z</time>
      </trkpt>
      <trkpt lat="45.38619" lon="0.27482">
        <ele>126</ele>
        <time>2025-04-11T10:30:27Z</time>
      </trkpt>
      <trkpt lat="45.38642" lon="0.27532">
        <ele>124</ele>
        <time>2025-04-11T10:30:35Z</time>
      </trkpt>
      <trkpt lat="45.38709" lon="0.27602">
        <ele>123</ele>
        <time>2025-04-11T10:30:50Z</time>
      </trkpt>
      <trkpt lat="45.38719" lon="0.27612">
        <ele>123</ele>
        <time>2025-04-11T10:30:52Z</time>
      </trkpt>
      <trkpt lat="45.38807" lon="0.27683">
        <ele>125</ele>
        <time>2025-04-11T10:31:10Z</time>
      </trkpt>
      <trkpt lat="45.38888" lon="0.27767">
        <ele>124</ele>
        <time>2025-04-11T10:31:28Z</time>
      </trkpt>
      <trkpt lat="45.38893" lon="0.27774">
        <ele>124</ele>
        <time>2025-04-11T10:31:29Z</time>
      </trkpt>
      <trkpt lat="45.38954" lon="0.27866">
        <ele>129</ele>
        <time>2025-04-11T10:31:45Z</time>
      </trkpt>
      <trkpt lat="45.38974" lon="0.27901">
        <ele>133</ele>
        <time>2025-04-11T10:31:50Z</time>
      </trkpt>
      <trkpt lat="45.38996" lon="0.27947">
        <ele>138</ele>
        <time>2025-04-11T10:31:57Z</time>
      </trkpt>
      <trkpt lat="45.39006" lon="0.27984">
        <ele>140</ele>
        <time>2025-04-11T10:32:02Z</time>
      </trkpt>
      <trkpt lat="45.39012" lon="0.28011">
        <ele>142</ele>
        <time>2025-04-11T10:32:06Z</time>
      </trkpt>
      <trkpt lat="45.39015" lon="0.28034">
        <ele>143</ele>
        <time>2025-04-11T10:32:09Z</time>
      </trkpt>
      <trkpt lat="45.39015" lon="0.28054">
        <ele>144</ele>
        <time>2025-04-11T10:32:11Z</time>
      </trkpt>
      <trkpt lat="45.39013" lon="0.2808">
        <ele>145</ele>
        <time>2025-04-11T10:32:15Z</time>
      </trkpt>
      <trkpt lat="45.39008" lon="0.28101">
        <ele>146</ele>
        <time>2025-04-11T10:32:17Z</time>
      </trkpt>
      <trkpt lat="45.39002" lon="0.28121">
        <ele>147</ele>
        <time>2025-04-11T10:32:20Z</time>
      </trkpt>
      <trkpt lat="45.38992" lon="0.28148">
        <ele>147</ele>
        <time>2025-04-11T10:32:24Z</time>
      </trkpt>
      <trkpt lat="45.38978" lon="0.28179">
        <ele>147</ele>
        <time>2025-04-11T10:32:28Z</time>
      </trkpt>
      <trkpt lat="45.3897" lon="0.28202">
        <ele>147</ele>
        <time>2025-04-11T10:32:32Z</time>
      </trkpt>
      <trkpt lat="45.38965" lon="0.28218">
        <ele>147</ele>
        <time>2025-04-11T10:32:34Z</time>
      </trkpt>
      <trkpt lat="45.38961" lon="0.28253">
        <ele>149</ele>
        <time>2025-04-11T10:32:38Z</time>
      </trkpt>
      <trkpt lat="45.38961" lon="0.28306">
        <ele>148</ele>
        <time>2025-04-11T10:32:45Z</time>
      </trkpt>
      <trkpt lat="45.38961" lon="0.28328">
        <ele>147</ele>
        <time>2025-04-11T10:32:48Z</time>
      </trkpt>
      <trkpt lat="45.38964" lon="0.28355">
        <ele>147</ele>
        <time>2025-04-11T10:32:51Z</time>
      </trkpt>
      <trkpt lat="45.38966" lon="0.28373">
        <ele>146</ele>
        <time>2025-04-11T10:32:53Z</time>
      </trkpt>
      <trkpt lat="45.3897" lon="0.28389">
        <ele>146</ele>
        <time>2025-04-11T10:32:56Z</time>
      </trkpt>
      <trkpt lat="45.38976" lon="0.28407">
        <ele>145</ele>
        <time>2025-04-11T10:32:58Z</time>
      </trkpt>
      <trkpt lat="45.38984" lon="0.28424">
        <ele>145</ele>
        <time>2025-04-11T10:33:01Z</time>
      </trkpt>
      <trkpt lat="45.39006" lon="0.28457">
        <ele>144</ele>
        <time>2025-04-11T10:33:06Z</time>
      </trkpt>
      <trkpt lat="45.39033" lon="0.28492">
        <ele>142</ele>
        <time>2025-04-11T10:33:13Z</time>
      </trkpt>
      <trkpt lat="45.39055" lon="0.28523">
        <ele>139</ele>
        <time>2025-04-11T10:33:18Z</time>
      </trkpt>
      <trkpt lat="45.39065" lon="0.28539">
        <ele>139</ele>
        <time>2025-04-11T10:33:21Z</time>
      </trkpt>
      <trkpt lat="45.3908" lon="0.28545">
        <ele>138</ele>
        <time>2025-04-11T10:33:24Z</time>
      </trkpt>
      <trkpt lat="45.39094" lon="0.28552">
        <ele>137</ele>
        <time>2025-04-11T10:33:26Z</time>
      </trkpt>
      <trkpt lat="45.39128" lon="0.28594">
        <ele>136</ele>
        <time>2025-04-11T10:33:34Z</time>
      </trkpt>
      <trkpt lat="45.39176" lon="0.28656">
        <ele>135</ele>
        <time>2025-04-11T10:33:46Z</time>
      </trkpt>
      <trkpt lat="45.39209" lon="0.28695">
        <ele>134</ele>
        <time>2025-04-11T10:33:54Z</time>
      </trkpt>
      <trkpt lat="45.39229" lon="0.28713">
        <ele>134</ele>
        <time>2025-04-11T10:33:58Z</time>
      </trkpt>
      <trkpt lat="45.39246" lon="0.28724">
        <ele>134</ele>
        <time>2025-04-11T10:34:01Z</time>
      </trkpt>
      <trkpt lat="45.39263" lon="0.28723">
        <ele>132</ele>
        <time>2025-04-11T10:34:04Z</time>
      </trkpt>
      <trkpt lat="45.39505" lon="0.28596">
        <ele>112</ele>
        <time>2025-04-11T10:34:50Z</time>
      </trkpt>
      <trkpt lat="45.39572" lon="0.28544">
        <ele>108</ele>
        <time>2025-04-11T10:35:04Z</time>
      </trkpt>
      <trkpt lat="45.39669" lon="0.28487">
        <ele>104</ele>
        <time>2025-04-11T10:35:22Z</time>
      </trkpt>
      <trkpt lat="45.39878" lon="0.28503">
        <ele>97</ele>
        <time>2025-04-11T10:35:59Z</time>
      </trkpt>
      <trkpt lat="45.39909" lon="0.28496">
        <ele>95</ele>
        <time>2025-04-11T10:36:05Z</time>
      </trkpt>
      <trkpt lat="45.39982" lon="0.28338">
        <ele>92</ele>
        <time>2025-04-11T10:36:29Z</time>
      </trkpt>
      <trkpt lat="45.40007" lon="0.28313">
        <ele>92</ele>
        <time>2025-04-11T10:36:34Z</time>
      </trkpt>
      <trkpt lat="45.40147" lon="0.28229">
        <ele>88</ele>
        <time>2025-04-11T10:37:01Z</time>
      </trkpt>
      <trkpt lat="45.40328" lon="0.28121">
        <ele>85</ele>
        <time>2025-04-11T10:37:36Z</time>
      </trkpt>
      <trkpt lat="45.4034" lon="0.28113">
        <ele>84</ele>
        <time>2025-04-11T10:37:38Z</time>
      </trkpt>
      <trkpt lat="45.40416" lon="0.28082">
        <ele>81</ele>
        <time>2025-04-11T10:37:52Z</time>
      </trkpt>
      <trkpt lat="45.40487" lon="0.28073">
        <ele>81</ele>
        <time>2025-04-11T10:38:05Z</time>
      </trkpt>
      <trkpt lat="45.40654" lon="0.28096">
        <ele>83</ele>
        <time>2025-04-11T10:38:35Z</time>
      </trkpt>
      <trkpt lat="45.40833" lon="0.28152">
        <ele>82</ele>
        <time>2025-04-11T10:39:08Z</time>
      </trkpt>
      <trkpt lat="45.40951" lon="0.28188">
        <ele>80</ele>
        <time>2025-04-11T10:39:29Z</time>
      </trkpt>
      <trkpt lat="45.4098" lon="0.28175">
        <ele>81</ele>
        <time>2025-04-11T10:39:34Z</time>
      </trkpt>
      <trkpt lat="45.41092" lon="0.28069">
        <ele>84</ele>
        <time>2025-04-11T10:39:58Z</time>
      </trkpt>
      <trkpt lat="45.41143" lon="0.28028">
        <ele>85</ele>
        <time>2025-04-11T10:40:09Z</time>
      </trkpt>
      <trkpt lat="45.41215" lon="0.28007">
        <ele>82</ele>
        <time>2025-04-11T10:40:22Z</time>
      </trkpt>
      <trkpt lat="45.41298" lon="0.27983">
        <ele>78</ele>
        <time>2025-04-11T10:40:37Z</time>
      </trkpt>
      <trkpt lat="45.41419" lon="0.27962">
        <ele>77</ele>
        <time>2025-04-11T10:40:59Z</time>
      </trkpt>
      <trkpt lat="45.41565" lon="0.27993">
        <ele>79</ele>
        <time>2025-04-11T10:41:25Z</time>
      </trkpt>
      <trkpt lat="45.41633" lon="0.28008">
        <ele>77</ele>
        <time>2025-04-11T10:41:37Z</time>
      </trkpt>
      <trkpt lat="45.41639" lon="0.28009">
        <ele>77</ele>
        <time>2025-04-11T10:41:38Z</time>
      </trkpt>
      <trkpt lat="45.41789" lon="0.2804">
        <ele>77</ele>
        <time>2025-04-11T10:42:05Z</time>
      </trkpt>
      <trkpt lat="45.42052" lon="0.28017">
        <ele>80</ele>
        <time>2025-04-11T10:42:52Z</time>
      </trkpt>
      <trkpt lat="45.42215" lon="0.2795">
        <ele>77</ele>
        <time>2025-04-11T10:43:22Z</time>
      </trkpt>
      <trkpt lat="45.42318" lon="0.27891">
        <ele>78</ele>
        <time>2025-04-11T10:43:42Z</time>
      </trkpt>
      <trkpt lat="45.42375" lon="0.27829">
        <ele>78</ele>
        <time>2025-04-11T10:43:55Z</time>
      </trkpt>
      <trkpt lat="45.42433" lon="0.27724">
        <ele>78</ele>
        <time>2025-04-11T10:44:11Z</time>
      </trkpt>
      <trkpt lat="45.42453" lon="0.27705">
        <ele>78</ele>
        <time>2025-04-11T10:44:16Z</time>
      </trkpt>
      <trkpt lat="45.42446" lon="0.27777">
        <ele>79</ele>
        <time>2025-04-11T10:44:25Z</time>
      </trkpt>
      <trkpt lat="45.42424" lon="0.27994">
        <ele>83</ele>
        <time>2025-04-11T10:44:52Z</time>
      </trkpt>
      <trkpt lat="45.42388" lon="0.28335">
        <ele>87</ele>
        <time>2025-04-11T10:45:35Z</time>
      </trkpt>
      <trkpt lat="45.42384" lon="0.28364">
        <ele>86</ele>
        <time>2025-04-11T10:45:39Z</time>
      </trkpt>
      <trkpt lat="45.42382" lon="0.2837">
        <ele>86</ele>
        <time>2025-04-11T10:45:40Z</time>
      </trkpt>
      <trkpt lat="45.42378" lon="0.28377">
        <ele>86</ele>
        <time>2025-04-11T10:45:41Z</time>
      </trkpt>
      <trkpt lat="45.42338" lon="0.28426">
        <ele>87</ele>
        <time>2025-04-11T10:45:50Z</time>
      </trkpt>
      <trkpt lat="45.423" lon="0.28471">
        <ele>87</ele>
        <time>2025-04-11T10:45:59Z</time>
      </trkpt>
      <trkpt lat="45.42286" lon="0.28489">
        <ele>88</ele>
        <time>2025-04-11T10:46:02Z</time>
      </trkpt>
      <trkpt lat="45.42277" lon="0.28503">
        <ele>88</ele>
        <time>2025-04-11T10:46:05Z</time>
      </trkpt>
      <trkpt lat="45.42268" lon="0.2852">
        <ele>88</ele>
        <time>2025-04-11T10:46:07Z</time>
      </trkpt>
      <trkpt lat="45.42258" lon="0.28545">
        <ele>89</ele>
        <time>2025-04-11T10:46:11Z</time>
      </trkpt>
      <trkpt lat="45.42132" lon="0.28903">
        <ele>98</ele>
        <time>2025-04-11T10:47:01Z</time>
      </trkpt>
      <trkpt lat="45.42092" lon="0.29015">
        <ele>103</ele>
        <time>2025-04-11T10:47:17Z</time>
      </trkpt>
      <trkpt lat="45.41848" lon="0.29502">
        <ele>117</ele>
        <time>2025-04-11T10:48:32Z</time>
      </trkpt>
      <trkpt lat="45.41797" lon="0.29607">
        <ele>119</ele>
        <time>2025-04-11T10:48:47Z</time>
      </trkpt>
      <trkpt lat="45.41746" lon="0.29725">
        <ele>119</ele>
        <time>2025-04-11T10:49:05Z</time>
      </trkpt>
      <trkpt lat="45.41742" lon="0.29733">
        <ele>119</ele>
        <time>2025-04-11T10:49:06Z</time>
      </trkpt>
      <trkpt lat="45.41723" lon="0.29779">
        <ele>118</ele>
        <time>2025-04-11T10:49:13Z</time>
      </trkpt>
      <trkpt lat="45.41713" lon="0.29802">
        <ele>116</ele>
        <time>2025-04-11T10:49:16Z</time>
      </trkpt>
      <trkpt lat="45.41707" lon="0.29812">
        <ele>116</ele>
        <time>2025-04-11T10:49:18Z</time>
      </trkpt>
      <trkpt lat="45.417" lon="0.29821">
        <ele>115</ele>
        <time>2025-04-11T10:49:19Z</time>
      </trkpt>
      <trkpt lat="45.4169" lon="0.29831">
        <ele>115</ele>
        <time>2025-04-11T10:49:22Z</time>
      </trkpt>
      <trkpt lat="45.41676" lon="0.29843">
        <ele>114</ele>
        <time>2025-04-11T10:49:24Z</time>
      </trkpt>
      <trkpt lat="45.41655" lon="0.29856">
        <ele>112</ele>
        <time>2025-04-11T10:49:29Z</time>
      </trkpt>
      <trkpt lat="45.41633" lon="0.29865">
        <ele>111</ele>
        <time>2025-04-11T10:49:33Z</time>
      </trkpt>
      <trkpt lat="45.41612" lon="0.29871">
        <ele>111</ele>
        <time>2025-04-11T10:49:36Z</time>
      </trkpt>
      <trkpt lat="45.41554" lon="0.29879">
        <ele>109</ele>
        <time>2025-04-11T10:49:47Z</time>
      </trkpt>
      <trkpt lat="45.41544" lon="0.29883">
        <ele>108</ele>
        <time>2025-04-11T10:49:49Z</time>
      </trkpt>
      <trkpt lat="45.41537" lon="0.29888">
        <ele>108</ele>
        <time>2025-04-11T10:49:50Z</time>
      </trkpt>
      <trkpt lat="45.41532" lon="0.29893">
        <ele>107</ele>
        <time>2025-04-11T10:49:51Z</time>
      </trkpt>
      <trkpt lat="45.41523" lon="0.29905">
        <ele>107</ele>
        <time>2025-04-11T10:49:53Z</time>
      </trkpt>
      <trkpt lat="45.41513" lon="0.29923">
        <ele>106</ele>
        <time>2025-04-11T10:49:56Z</time>
      </trkpt>
      <trkpt lat="45.41501" lon="0.29953">
        <ele>107</ele>
        <time>2025-04-11T10:50:00Z</time>
      </trkpt>
      <trkpt lat="45.4149" lon="0.2999">
        <ele>109</ele>
        <time>2025-04-11T10:50:05Z</time>
      </trkpt>
      <trkpt lat="45.41486" lon="0.30014">
        <ele>110</ele>
        <time>2025-04-11T10:50:09Z</time>
      </trkpt>
      <trkpt lat="45.41482" lon="0.30039">
        <ele>111</ele>
        <time>2025-04-11T10:50:12Z</time>
      </trkpt>
      <trkpt lat="45.41481" lon="0.30077">
        <ele>114</ele>
        <time>2025-04-11T10:50:17Z</time>
      </trkpt>
      <trkpt lat="45.41481" lon="0.30117">
        <ele>117</ele>
        <time>2025-04-11T10:50:22Z</time>
      </trkpt>
      <trkpt lat="45.41483" lon="0.30139">
        <ele>118</ele>
        <time>2025-04-11T10:50:24Z</time>
      </trkpt>
      <trkpt lat="45.41487" lon="0.30155">
        <ele>119</ele>
        <time>2025-04-11T10:50:26Z</time>
      </trkpt>
      <trkpt lat="45.4149" lon="0.30168">
        <ele>120</ele>
        <time>2025-04-11T10:50:28Z</time>
      </trkpt>
      <trkpt lat="45.41499" lon="0.30187">
        <ele>122</ele>
        <time>2025-04-11T10:50:31Z</time>
      </trkpt>
      <trkpt lat="45.41506" lon="0.30197">
        <ele>122</ele>
        <time>2025-04-11T10:50:33Z</time>
      </trkpt>
      <trkpt lat="45.4155" lon="0.30243">
        <ele>124</ele>
        <time>2025-04-11T10:50:42Z</time>
      </trkpt>
      <trkpt lat="45.41556" lon="0.30252">
        <ele>124</ele>
        <time>2025-04-11T10:50:44Z</time>
      </trkpt>
      <trkpt lat="45.4156" lon="0.3026">
        <ele>124</ele>
        <time>2025-04-11T10:50:45Z</time>
      </trkpt>
      <trkpt lat="45.41563" lon="0.3027">
        <ele>125</ele>
        <time>2025-04-11T10:50:47Z</time>
      </trkpt>
      <trkpt lat="45.41564" lon="0.30279">
        <ele>125</ele>
        <time>2025-04-11T10:50:48Z</time>
      </trkpt>
      <trkpt lat="45.41563" lon="0.303">
        <ele>126</ele>
        <time>2025-04-11T10:50:50Z</time>
      </trkpt>
      <trkpt lat="45.4156" lon="0.30312">
        <ele>126</ele>
        <time>2025-04-11T10:50:52Z</time>
      </trkpt>
      <trkpt lat="45.41556" lon="0.30321">
        <ele>127</ele>
        <time>2025-04-11T10:50:53Z</time>
      </trkpt>
      <trkpt lat="45.41552" lon="0.30328">
        <ele>127</ele>
        <time>2025-04-11T10:50:54Z</time>
      </trkpt>
      <trkpt lat="45.41546" lon="0.30334">
        <ele>128</ele>
        <time>2025-04-11T10:50:56Z</time>
      </trkpt>
      <trkpt lat="45.41538" lon="0.30339">
        <ele>129</ele>
        <time>2025-04-11T10:50:57Z</time>
      </trkpt>
      <trkpt lat="45.41518" lon="0.30347">
        <ele>130</ele>
        <time>2025-04-11T10:51:01Z</time>
      </trkpt>
      <trkpt lat="45.41481" lon="0.30362">
        <ele>131</ele>
        <time>2025-04-11T10:51:08Z</time>
      </trkpt>
      <trkpt lat="45.4146" lon="0.30369">
        <ele>132</ele>
        <time>2025-04-11T10:51:12Z</time>
      </trkpt>
      <trkpt lat="45.41453" lon="0.30368">
        <ele>132</ele>
        <time>2025-04-11T10:51:13Z</time>
      </trkpt>
      <trkpt lat="45.41449" lon="0.30362">
        <ele>132</ele>
        <time>2025-04-11T10:51:14Z</time>
      </trkpt>
      <trkpt lat="45.41441" lon="0.30323">
        <ele>132</ele>
        <time>2025-04-11T10:51:19Z</time>
      </trkpt>
      <trkpt lat="45.4144" lon="0.3032">
        <ele>132</ele>
        <time>2025-04-11T10:51:19Z</time>
      </trkpt>
      <trkpt lat="45.41438" lon="0.30318">
        <ele>132</ele>
        <time>2025-04-11T10:51:20Z</time>
      </trkpt>
      <trkpt lat="45.41436" lon="0.30317">
        <ele>132</ele>
        <time>2025-04-11T10:51:20Z</time>
      </trkpt>
      <trkpt lat="45.414" lon="0.30324">
        <ele>132</ele>
        <time>2025-04-11T10:51:27Z</time>
      </trkpt>
      <trkpt lat="45.41372" lon="0.30331">
        <ele>132</ele>
        <time>2025-04-11T10:51:32Z</time>
      </trkpt>
      <trkpt lat="45.4136" lon="0.30337">
        <ele>132</ele>
        <time>2025-04-11T10:51:34Z</time>
      </trkpt>
      <trkpt lat="45.41356" lon="0.30341">
        <ele>132</ele>
        <time>2025-04-11T10:51:35Z</time>
      </trkpt>
      <trkpt lat="45.41321" lon="0.30376">
        <ele>133</ele>
        <time>2025-04-11T10:51:42Z</time>
      </trkpt>
      <trkpt lat="45.41281" lon="0.30419">
        <ele>134</ele>
        <time>2025-04-11T10:51:51Z</time>
      </trkpt>
      <trkpt lat="45.412" lon="0.30509">
        <ele>136</ele>
        <time>2025-04-11T10:52:10Z</time>
      </trkpt>
      <trkpt lat="45.41161" lon="0.30548">
        <ele>137</ele>
        <time>2025-04-11T10:52:18Z</time>
      </trkpt>
      <trkpt lat="45.41136" lon="0.3058">
        <ele>138</ele>
        <time>2025-04-11T10:52:24Z</time>
      </trkpt>
      <trkpt lat="45.41127" lon="0.30595">
        <ele>139</ele>
        <time>2025-04-11T10:52:27Z</time>
      </trkpt>
      <trkpt lat="45.41112" lon="0.30625">
        <ele>140</ele>
        <time>2025-04-11T10:52:31Z</time>
      </trkpt>
      <trkpt lat="45.41045" lon="0.30783">
        <ele>143</ele>
        <time>2025-04-11T10:52:54Z</time>
      </trkpt>
      <trkpt lat="45.41" lon="0.30885">
        <ele>146</ele>
        <time>2025-04-11T10:53:09Z</time>
      </trkpt>
      <trkpt lat="45.40992" lon="0.30908">
        <ele>146</ele>
        <time>2025-04-11T10:53:13Z</time>
      </trkpt>
      <trkpt lat="45.40985" lon="0.30933">
        <ele>145</ele>
        <time>2025-04-11T10:53:16Z</time>
      </trkpt>
      <trkpt lat="45.4098" lon="0.3096">
        <ele>144</ele>
        <time>2025-04-11T10:53:19Z</time>
      </trkpt>
      <trkpt lat="45.40958" lon="0.31146">
        <ele>142</ele>
        <time>2025-04-11T10:53:43Z</time>
      </trkpt>
      <trkpt lat="45.40953" lon="0.31183">
        <ele>142</ele>
        <time>2025-04-11T10:53:48Z</time>
      </trkpt>
      <trkpt lat="45.40945" lon="0.31214">
        <ele>143</ele>
        <time>2025-04-11T10:53:52Z</time>
      </trkpt>
      <trkpt lat="45.40934" lon="0.31256">
        <ele>144</ele>
        <time>2025-04-11T10:53:57Z</time>
      </trkpt>
      <trkpt lat="45.40884" lon="0.31435">
        <ele>143</ele>
        <time>2025-04-11T10:54:21Z</time>
      </trkpt>
      <trkpt lat="45.4087" lon="0.31484">
        <ele>141</ele>
        <time>2025-04-11T10:54:28Z</time>
      </trkpt>
      <trkpt lat="45.40867" lon="0.31509">
        <ele>141</ele>
        <time>2025-04-11T10:54:31Z</time>
      </trkpt>
      <trkpt lat="45.40865" lon="0.31534">
        <ele>140</ele>
        <time>2025-04-11T10:54:34Z</time>
      </trkpt>
      <trkpt lat="45.40867" lon="0.31725">
        <ele>138</ele>
        <time>2025-04-11T10:54:58Z</time>
      </trkpt>
      <trkpt lat="45.40865" lon="0.31761">
        <ele>138</ele>
        <time>2025-04-11T10:55:03Z</time>
      </trkpt>
      <trkpt lat="45.40859" lon="0.31797">
        <ele>137</ele>
        <time>2025-04-11T10:55:07Z</time>
      </trkpt>
      <trkpt lat="45.40798" lon="0.32065">
        <ele>137</ele>
        <time>2025-04-11T10:55:43Z</time>
      </trkpt>
      <trkpt lat="45.40668" lon="0.32054">
        <ele>130</ele>
        <time>2025-04-11T10:56:06Z</time>
      </trkpt>
      <trkpt lat="45.40631" lon="0.32056">
        <ele>129</ele>
        <time>2025-04-11T10:56:12Z</time>
      </trkpt>
      <trkpt lat="45.40601" lon="0.3206">
        <ele>128</ele>
        <time>2025-04-11T10:56:18Z</time>
      </trkpt>
      <trkpt lat="45.40572" lon="0.32066">
        <ele>127</ele>
        <time>2025-04-11T10:56:23Z</time>
      </trkpt>
      <trkpt lat="45.40532" lon="0.32085">
        <ele>126</ele>
        <time>2025-04-11T10:56:30Z</time>
      </trkpt>
      <trkpt lat="45.40468" lon="0.32123">
        <ele>122</ele>
        <time>2025-04-11T10:56:43Z</time>
      </trkpt>
      <trkpt lat="45.40382" lon="0.32177">
        <ele>118</ele>
        <time>2025-04-11T10:56:59Z</time>
      </trkpt>
      <trkpt lat="45.40359" lon="0.32199">
        <ele>118</ele>
        <time>2025-04-11T10:57:04Z</time>
      </trkpt>
      <trkpt lat="45.40315" lon="0.32252">
        <ele>118</ele>
        <time>2025-04-11T10:57:15Z</time>
      </trkpt>
      <trkpt lat="45.40277" lon="0.32294">
        <ele>117</ele>
        <time>2025-04-11T10:57:23Z</time>
      </trkpt>
      <trkpt lat="45.40271" lon="0.32298">
        <ele>117</ele>
        <time>2025-04-11T10:57:24Z</time>
      </trkpt>
      <trkpt lat="45.40072" lon="0.32367">
        <ele>109</ele>
        <time>2025-04-11T10:58:01Z</time>
      </trkpt>
      <trkpt lat="45.40033" lon="0.32391">
        <ele>109</ele>
        <time>2025-04-11T10:58:08Z</time>
      </trkpt>
      <trkpt lat="45.40007" lon="0.32402">
        <ele>108</ele>
        <time>2025-04-11T10:58:13Z</time>
      </trkpt>
      <trkpt lat="45.39981" lon="0.32408">
        <ele>107</ele>
        <time>2025-04-11T10:58:18Z</time>
      </trkpt>
      <trkpt lat="45.39954" lon="0.32407">
        <ele>106</ele>
        <time>2025-04-11T10:58:23Z</time>
      </trkpt>
      <trkpt lat="45.3993" lon="0.32396">
        <ele>104</ele>
        <time>2025-04-11T10:58:27Z</time>
      </trkpt>
      <trkpt lat="45.39832" lon="0.32351">
        <ele>98</ele>
        <time>2025-04-11T10:58:45Z</time>
      </trkpt>
      <trkpt lat="45.39792" lon="0.32346">
        <ele>96</ele>
        <time>2025-04-11T10:58:53Z</time>
      </trkpt>
      <trkpt lat="45.39641" lon="0.32366">
        <ele>92</ele>
        <time>2025-04-11T10:59:20Z</time>
      </trkpt>
      <trkpt lat="45.39612" lon="0.32372">
        <ele>91</ele>
        <time>2025-04-11T10:59:25Z</time>
      </trkpt>
      <trkpt lat="45.39588" lon="0.32382">
        <ele>91</ele>
        <time>2025-04-11T10:59:29Z</time>
      </trkpt>
      <trkpt lat="45.39493" lon="0.32449">
        <ele>87</ele>
        <time>2025-04-11T10:59:48Z</time>
      </trkpt>
      <trkpt lat="45.39433" lon="0.32491">
        <ele>85</ele>
        <time>2025-04-11T11:00:00Z</time>
      </trkpt>
      <trkpt lat="45.39408" lon="0.32508">
        <ele>85</ele>
        <time>2025-04-11T11:00:05Z</time>
      </trkpt>
      <trkpt lat="45.39348" lon="0.3255">
        <ele>84</ele>
        <time>2025-04-11T11:00:17Z</time>
      </trkpt>
      <trkpt lat="45.3934" lon="0.32556">
        <ele>84</ele>
        <time>2025-04-11T11:00:18Z</time>
      </trkpt>
      <trkpt lat="45.39293" lon="0.32589">
        <ele>86</ele>
        <time>2025-04-11T11:00:28Z</time>
      </trkpt>
      <trkpt lat="45.39243" lon="0.32625">
        <ele>89</ele>
        <time>2025-04-11T11:00:38Z</time>
      </trkpt>
      <trkpt lat="45.39225" lon="0.32641">
        <ele>90</ele>
        <time>2025-04-11T11:00:42Z</time>
      </trkpt>
      <trkpt lat="45.39202" lon="0.32668">
        <ele>92</ele>
        <time>2025-04-11T11:00:47Z</time>
      </trkpt>
      <trkpt lat="45.39157" lon="0.32726">
        <ele>94</ele>
        <time>2025-04-11T11:00:58Z</time>
      </trkpt>
      <trkpt lat="45.3914" lon="0.32751">
        <ele>95</ele>
        <time>2025-04-11T11:01:02Z</time>
      </trkpt>
      <trkpt lat="45.39125" lon="0.32783">
        <ele>97</ele>
        <time>2025-04-11T11:01:07Z</time>
      </trkpt>
      <trkpt lat="45.39116" lon="0.32824">
        <ele>99</ele>
        <time>2025-04-11T11:01:12Z</time>
      </trkpt>
      <trkpt lat="45.39088" lon="0.32967">
        <ele>106</ele>
        <time>2025-04-11T11:01:31Z</time>
      </trkpt>
      <trkpt lat="45.39072" lon="0.3305">
        <ele>110</ele>
        <time>2025-04-11T11:01:41Z</time>
      </trkpt>
      <trkpt lat="45.39065" lon="0.33076">
        <ele>111</ele>
        <time>2025-04-11T11:01:45Z</time>
      </trkpt>
      <trkpt lat="45.39055" lon="0.33099">
        <ele>112</ele>
        <time>2025-04-11T11:01:48Z</time>
      </trkpt>
      <trkpt lat="45.39047" lon="0.33113">
        <ele>113</ele>
        <time>2025-04-11T11:01:51Z</time>
      </trkpt>
      <trkpt lat="45.39039" lon="0.33124">
        <ele>113</ele>
        <time>2025-04-11T11:01:53Z</time>
      </trkpt>
      <trkpt lat="45.3903" lon="0.33136">
        <ele>114</ele>
        <time>2025-04-11T11:01:55Z</time>
      </trkpt>
      <trkpt lat="45.3902" lon="0.33145">
        <ele>114</ele>
        <time>2025-04-11T11:01:57Z</time>
      </trkpt>
      <trkpt lat="45.39003" lon="0.33156">
        <ele>115</ele>
        <time>2025-04-11T11:02:00Z</time>
      </trkpt>
      <trkpt lat="45.38987" lon="0.33165">
        <ele>115</ele>
        <time>2025-04-11T11:02:03Z</time>
      </trkpt>
      <trkpt lat="45.38861" lon="0.33229">
        <ele>114</ele>
        <time>2025-04-11T11:02:27Z</time>
      </trkpt>
      <trkpt lat="45.38752" lon="0.33285">
        <ele>116</ele>
        <time>2025-04-11T11:02:48Z</time>
      </trkpt>
      <trkpt lat="45.38723" lon="0.33296">
        <ele>118</ele>
        <time>2025-04-11T11:02:53Z</time>
      </trkpt>
      <trkpt lat="45.387" lon="0.33294">
        <ele>120</ele>
        <time>2025-04-11T11:02:57Z</time>
      </trkpt>
      <trkpt lat="45.38678" lon="0.33283">
        <ele>121</ele>
        <time>2025-04-11T11:03:01Z</time>
      </trkpt>
      <trkpt lat="45.3866" lon="0.33271">
        <ele>121</ele>
        <time>2025-04-11T11:03:05Z</time>
      </trkpt>
      <trkpt lat="45.38639" lon="0.33261">
        <ele>122</ele>
        <time>2025-04-11T11:03:09Z</time>
      </trkpt>
      <trkpt lat="45.3862" lon="0.33258">
        <ele>123</ele>
        <time>2025-04-11T11:03:12Z</time>
      </trkpt>
      <trkpt lat="45.38597" lon="0.33258">
        <ele>124</ele>
        <time>2025-04-11T11:03:16Z</time>
      </trkpt>
      <trkpt lat="45.38551" lon="0.33263">
        <ele>126</ele>
        <time>2025-04-11T11:03:24Z</time>
      </trkpt>
      <trkpt lat="45.38513" lon="0.33266">
        <ele>127</ele>
        <time>2025-04-11T11:03:31Z</time>
      </trkpt>
      <trkpt lat="45.38451" lon="0.33272">
        <ele>132</ele>
        <time>2025-04-11T11:03:42Z</time>
      </trkpt>
      <trkpt lat="45.38412" lon="0.33269">
        <ele>135</ele>
        <time>2025-04-11T11:03:49Z</time>
      </trkpt>
      <trkpt lat="45.38359" lon="0.3326">
        <ele>138</ele>
        <time>2025-04-11T11:03:59Z</time>
      </trkpt>
      <trkpt lat="45.38327" lon="0.33252">
        <ele>140</ele>
        <time>2025-04-11T11:04:04Z</time>
      </trkpt>
      <trkpt lat="45.38288" lon="0.33251">
        <ele>142</ele>
        <time>2025-04-11T11:04:11Z</time>
      </trkpt>
      <trkpt lat="45.38215" lon="0.33268">
        <ele>145</ele>
        <time>2025-04-11T11:04:25Z</time>
      </trkpt>
      <trkpt lat="45.38131" lon="0.33251">
        <ele>150</ele>
        <time>2025-04-11T11:04:40Z</time>
      </trkpt>
      <trkpt lat="45.38072" lon="0.33235">
        <ele>153</ele>
        <time>2025-04-11T11:04:50Z</time>
      </trkpt>
      <trkpt lat="45.38044" lon="0.3323">
        <ele>154</ele>
        <time>2025-04-11T11:04:55Z</time>
      </trkpt>
      <trkpt lat="45.38022" lon="0.33234">
        <ele>156</ele>
        <time>2025-04-11T11:04:59Z</time>
      </trkpt>
      <trkpt lat="45.38003" lon="0.33247">
        <ele>157</ele>
        <time>2025-04-11T11:05:03Z</time>
      </trkpt>
      <trkpt lat="45.37973" lon="0.33273">
        <ele>157</ele>
        <time>2025-04-11T11:05:09Z</time>
      </trkpt>
      <trkpt lat="45.37907" lon="0.33316">
        <ele>158</ele>
        <time>2025-04-11T11:05:22Z</time>
      </trkpt>
      <trkpt lat="45.3781" lon="0.33389">
        <ele>161</ele>
        <time>2025-04-11T11:05:42Z</time>
      </trkpt>
      <trkpt lat="45.37786" lon="0.33421">
        <ele>162</ele>
        <time>2025-04-11T11:05:48Z</time>
      </trkpt>
      <trkpt lat="45.37774" lon="0.3345">
        <ele>162</ele>
        <time>2025-04-11T11:05:52Z</time>
      </trkpt>
      <trkpt lat="45.37758" lon="0.33547">
        <ele>160</ele>
        <time>2025-04-11T11:06:04Z</time>
      </trkpt>
      <trkpt lat="45.37748" lon="0.33569">
        <ele>160</ele>
        <time>2025-04-11T11:06:08Z</time>
      </trkpt>
      <trkpt lat="45.37727" lon="0.33592">
        <ele>160</ele>
        <time>2025-04-11T11:06:12Z</time>
      </trkpt>
      <trkpt lat="45.37681" lon="0.33626">
        <ele>161</ele>
        <time>2025-04-11T11:06:21Z</time>
      </trkpt>
      <trkpt lat="45.37653" lon="0.33654">
        <ele>159</ele>
        <time>2025-04-11T11:06:28Z</time>
      </trkpt>
      <trkpt lat="45.37609" lon="0.33772">
        <ele>152</ele>
        <time>2025-04-11T11:06:44Z</time>
      </trkpt>
      <trkpt lat="45.37601" lon="0.33789">
        <ele>152</ele>
        <time>2025-04-11T11:06:47Z</time>
      </trkpt>
      <trkpt lat="45.37587" lon="0.33812">
        <ele>153</ele>
        <time>2025-04-11T11:06:51Z</time>
      </trkpt>
      <trkpt lat="45.37565" lon="0.33843">
        <ele>152</ele>
        <time>2025-04-11T11:06:56Z</time>
      </trkpt>
      <trkpt lat="45.37544" lon="0.33867">
        <ele>151</ele>
        <time>2025-04-11T11:07:01Z</time>
      </trkpt>
      <trkpt lat="45.37529" lon="0.3388">
        <ele>150</ele>
        <time>2025-04-11T11:07:04Z</time>
      </trkpt>
      <trkpt lat="45.37512" lon="0.33893">
        <ele>150</ele>
        <time>2025-04-11T11:07:08Z</time>
      </trkpt>
      <trkpt lat="45.37496" lon="0.33903">
        <ele>150</ele>
        <time>2025-04-11T11:07:11Z</time>
      </trkpt>
      <trkpt lat="45.3741" lon="0.33937">
        <ele>146</ele>
        <time>2025-04-11T11:07:26Z</time>
      </trkpt>
      <trkpt lat="45.37391" lon="0.33942">
        <ele>145</ele>
        <time>2025-04-11T11:07:30Z</time>
      </trkpt>
      <trkpt lat="45.37372" lon="0.33945">
        <ele>145</ele>
        <time>2025-04-11T11:07:33Z</time>
      </trkpt>
      <trkpt lat="45.37322" lon="0.33943">
        <ele>141</ele>
        <time>2025-04-11T11:07:42Z</time>
      </trkpt>
      <trkpt lat="45.37302" lon="0.33942">
        <ele>140</ele>
        <time>2025-04-11T11:07:46Z</time>
      </trkpt>
      <trkpt lat="45.37281" lon="0.33947">
        <ele>138</ele>
        <time>2025-04-11T11:07:50Z</time>
      </trkpt>
      <trkpt lat="45.37268" lon="0.33956">
        <ele>138</ele>
        <time>2025-04-11T11:07:52Z</time>
      </trkpt>
      <trkpt lat="45.37256" lon="0.33967">
        <ele>138</ele>
        <time>2025-04-11T11:07:55Z</time>
      </trkpt>
      <trkpt lat="45.37237" lon="0.33993">
        <ele>137</ele>
        <time>2025-04-11T11:07:59Z</time>
      </trkpt>
      <trkpt lat="45.37126" lon="0.34154">
        <ele>131</ele>
        <time>2025-04-11T11:08:28Z</time>
      </trkpt>
      <trkpt lat="45.37101" lon="0.34182">
        <ele>129</ele>
        <time>2025-04-11T11:08:33Z</time>
      </trkpt>
      <trkpt lat="45.37078" lon="0.34204">
        <ele>127</ele>
        <time>2025-04-11T11:08:38Z</time>
      </trkpt>
      <trkpt lat="45.36708" lon="0.34479">
        <ele>109</ele>
        <time>2025-04-11T11:09:52Z</time>
      </trkpt>
      <trkpt lat="45.3668" lon="0.345">
        <ele>108</ele>
        <time>2025-04-11T11:09:58Z</time>
      </trkpt>
      <trkpt lat="45.36641" lon="0.34526">
        <ele>109</ele>
        <time>2025-04-11T11:10:06Z</time>
      </trkpt>
      <trkpt lat="45.3636" lon="0.34671">
        <ele>103</ele>
        <time>2025-04-11T11:10:59Z</time>
      </trkpt>
      <trkpt lat="45.36351" lon="0.34662">
        <ele>103</ele>
        <time>2025-04-11T11:11:01Z</time>
      </trkpt>
      <trkpt lat="45.36139" lon="0.34405">
        <ele>115</ele>
        <time>2025-04-11T11:11:50Z</time>
      </trkpt>
      <trkpt lat="45.36084" lon="0.34339">
        <ele>118</ele>
        <time>2025-04-11T11:12:03Z</time>
      </trkpt>
      <trkpt lat="45.36043" lon="0.34279">
        <ele>120</ele>
        <time>2025-04-11T11:12:14Z</time>
      </trkpt>
      <trkpt lat="45.3604" lon="0.34275">
        <ele>120</ele>
        <time>2025-04-11T11:12:14Z</time>
      </trkpt>
      <trkpt lat="45.35883" lon="0.34023">
        <ele>102</ele>
        <time>2025-04-11T11:12:57Z</time>
      </trkpt>
      <trkpt lat="45.3587" lon="0.34002">
        <ele>101</ele>
        <time>2025-04-11T11:13:00Z</time>
      </trkpt>
      <trkpt lat="45.35842" lon="0.33961">
        <ele>101</ele>
        <time>2025-04-11T11:13:07Z</time>
      </trkpt>
      <trkpt lat="45.35835" lon="0.33954">
        <ele>102</ele>
        <time>2025-04-11T11:13:09Z</time>
      </trkpt>
      <trkpt lat="45.3583" lon="0.33949">
        <ele>102</ele>
        <time>2025-04-11T11:13:10Z</time>
      </trkpt>
      <trkpt lat="45.35813" lon="0.33942">
        <ele>103</ele>
        <time>2025-04-11T11:13:13Z</time>
      </trkpt>
      <trkpt lat="45.35794" lon="0.33938">
        <ele>104</ele>
        <time>2025-04-11T11:13:16Z</time>
      </trkpt>
      <trkpt lat="45.35785" lon="0.33938">
        <ele>104</ele>
        <time>2025-04-11T11:13:18Z</time>
      </trkpt>
      <trkpt lat="45.35783" lon="0.33927">
        <ele>105</ele>
        <time>2025-04-11T11:13:19Z</time>
      </trkpt>
      <trkpt lat="45.35774" lon="0.33926">
        <ele>105</ele>
        <time>2025-04-11T11:13:21Z</time>
      </trkpt>
      <trkpt lat="45.35768" lon="0.33924">
        <ele>106</ele>
        <time>2025-04-11T11:13:22Z</time>
      </trkpt>
      <trkpt lat="45.35748" lon="0.33914">
        <ele>107</ele>
        <time>2025-04-11T11:13:26Z</time>
      </trkpt>
      <trkpt lat="45.35734" lon="0.33905">
        <ele>107</ele>
        <time>2025-04-11T11:13:29Z</time>
      </trkpt>
      <trkpt lat="45.35716" lon="0.33895">
        <ele>108</ele>
        <time>2025-04-11T11:13:32Z</time>
      </trkpt>
      <trkpt lat="45.35705" lon="0.33886">
        <ele>108</ele>
        <time>2025-04-11T11:13:34Z</time>
      </trkpt>
      <trkpt lat="45.35683" lon="0.33895">
        <ele>108</ele>
        <time>2025-04-11T11:13:38Z</time>
      </trkpt>
      <trkpt lat="45.35664" lon="0.33905">
        <ele>108</ele>
        <time>2025-04-11T11:13:42Z</time>
      </trkpt>
      <trkpt lat="45.35648" lon="0.3392">
        <ele>107</ele>
        <time>2025-04-11T11:13:45Z</time>
      </trkpt>
      <trkpt lat="45.35636" lon="0.33934">
        <ele>105</ele>
        <time>2025-04-11T11:13:48Z</time>
      </trkpt>
      <trkpt lat="45.35596" lon="0.33969">
        <ele>102</ele>
        <time>2025-04-11T11:13:56Z</time>
      </trkpt>
      <trkpt lat="45.35586" lon="0.33978">
        <ele>101</ele>
        <time>2025-04-11T11:13:59Z</time>
      </trkpt>
      <trkpt lat="45.35567" lon="0.33993">
        <ele>101</ele>
        <time>2025-04-11T11:14:02Z</time>
      </trkpt>
      <trkpt lat="45.35407" lon="0.34127">
        <ele>110</ele>
        <time>2025-04-11T11:14:35Z</time>
      </trkpt>
      <trkpt lat="45.35336" lon="0.34182">
        <ele>111</ele>
        <time>2025-04-11T11:14:50Z</time>
      </trkpt>
      <trkpt lat="45.35294" lon="0.34188">
        <ele>110</ele>
        <time>2025-04-11T11:14:57Z</time>
      </trkpt>
      <trkpt lat="45.35196" lon="0.34153">
        <ele>107</ele>
        <time>2025-04-11T11:15:15Z</time>
      </trkpt>
      <trkpt lat="45.35085" lon="0.34118">
        <ele>98</ele>
        <time>2025-04-11T11:15:36Z</time>
      </trkpt>
      <trkpt lat="45.35059" lon="0.34112">
        <ele>97</ele>
        <time>2025-04-11T11:15:40Z</time>
      </trkpt>
      <trkpt lat="45.35033" lon="0.3411">
        <ele>95</ele>
        <time>2025-04-11T11:15:45Z</time>
      </trkpt>
      <trkpt lat="45.34949" lon="0.34115">
        <ele>95</ele>
        <time>2025-04-11T11:16:00Z</time>
      </trkpt>
      <trkpt lat="45.34845" lon="0.34136">
        <ele>97</ele>
        <time>2025-04-11T11:16:19Z</time>
      </trkpt>
      <trkpt lat="45.34793" lon="0.34138">
        <ele>98</ele>
        <time>2025-04-11T11:16:28Z</time>
      </trkpt>
      <trkpt lat="45.34739" lon="0.34133">
        <ele>97</ele>
        <time>2025-04-11T11:16:37Z</time>
      </trkpt>
      <trkpt lat="45.34644" lon="0.34116">
        <ele>95</ele>
        <time>2025-04-11T11:16:54Z</time>
      </trkpt>
      <trkpt lat="45.3462" lon="0.34112">
        <ele>95</ele>
        <time>2025-04-11T11:16:59Z</time>
      </trkpt>
      <trkpt lat="45.34616" lon="0.34113">
        <ele>95</ele>
        <time>2025-04-11T11:16:59Z</time>
      </trkpt>
      <trkpt lat="45.34606" lon="0.341">
        <ele>95</ele>
        <time>2025-04-11T11:17:02Z</time>
      </trkpt>
      <trkpt lat="45.34603" lon="0.34104">
        <ele>95</ele>
        <time>2025-04-11T11:17:03Z</time>
      </trkpt>
      <trkpt lat="45.34596" lon="0.34105">
        <ele>94</ele>
        <time>2025-04-11T11:17:04Z</time>
      </trkpt>
      <trkpt lat="45.34476" lon="0.34069">
        <ele>94</ele>
        <time>2025-04-11T11:17:26Z</time>
      </trkpt>
      <trkpt lat="45.34267" lon="0.34029">
        <ele>88</ele>
        <time>2025-04-11T11:18:03Z</time>
      </trkpt>
      <trkpt lat="45.34085" lon="0.33989">
        <ele>86</ele>
        <time>2025-04-11T11:18:36Z</time>
      </trkpt>
      <trkpt lat="45.34033" lon="0.33977">
        <ele>85</ele>
        <time>2025-04-11T11:18:45Z</time>
      </trkpt>
      <trkpt lat="45.34004" lon="0.33967">
        <ele>85</ele>
        <time>2025-04-11T11:18:51Z</time>
      </trkpt>
      <trkpt lat="45.33893" lon="0.33879">
        <ele>86</ele>
        <time>2025-04-11T11:19:13Z</time>
      </trkpt>
      <trkpt lat="45.33818" lon="0.3382">
        <ele>83</ele>
        <time>2025-04-11T11:19:29Z</time>
      </trkpt>
      <trkpt lat="45.33767" lon="0.33788">
        <ele>82</ele>
        <time>2025-04-11T11:19:38Z</time>
      </trkpt>
      <trkpt lat="45.33757" lon="0.33778">
        <ele>82</ele>
        <time>2025-04-11T11:19:41Z</time>
      </trkpt>
      <trkpt lat="45.33664" lon="0.33739">
        <ele>82</ele>
        <time>2025-04-11T11:19:58Z</time>
      </trkpt>
      <trkpt lat="45.3361" lon="0.33696">
        <ele>82</ele>
        <time>2025-04-11T11:20:09Z</time>
      </trkpt>
      <trkpt lat="45.33533" lon="0.33606">
        <ele>82</ele>
        <time>2025-04-11T11:20:27Z</time>
      </trkpt>
      <trkpt lat="45.33479" lon="0.33539">
        <ele>81</ele>
        <time>2025-04-11T11:20:39Z</time>
      </trkpt>
      <trkpt lat="45.33426" lon="0.33491">
        <ele>81</ele>
        <time>2025-04-11T11:20:51Z</time>
      </trkpt>
      <trkpt lat="45.33375" lon="0.33448">
        <ele>83</ele>
        <time>2025-04-11T11:21:01Z</time>
      </trkpt>
      <trkpt lat="45.3334" lon="0.33415">
        <ele>84</ele>
        <time>2025-04-11T11:21:09Z</time>
      </trkpt>
      <trkpt lat="45.33293" lon="0.33392">
        <ele>85</ele>
        <time>2025-04-11T11:21:17Z</time>
      </trkpt>
      <trkpt lat="45.33186" lon="0.33366">
        <ele>82</ele>
        <time>2025-04-11T11:21:37Z</time>
      </trkpt>
      <trkpt lat="45.33127" lon="0.33362">
        <ele>81</ele>
        <time>2025-04-11T11:21:47Z</time>
      </trkpt>
      <trkpt lat="45.3307" lon="0.33345">
        <ele>82</ele>
        <time>2025-04-11T11:21:58Z</time>
      </trkpt>
      <trkpt lat="45.33019" lon="0.33336">
        <ele>82</ele>
        <time>2025-04-11T11:22:07Z</time>
      </trkpt>
      <trkpt lat="45.32964" lon="0.33314">
        <ele>81</ele>
        <time>2025-04-11T11:22:17Z</time>
      </trkpt>
      <trkpt lat="45.32957" lon="0.33313">
        <ele>81</ele>
        <time>2025-04-11T11:22:18Z</time>
      </trkpt>
      <trkpt lat="45.32869" lon="0.33262">
        <ele>79</ele>
        <time>2025-04-11T11:22:35Z</time>
      </trkpt>
      <trkpt lat="45.32791" lon="0.33203">
        <ele>78</ele>
        <time>2025-04-11T11:22:51Z</time>
      </trkpt>
      <trkpt lat="45.32667" lon="0.33084">
        <ele>77</ele>
        <time>2025-04-11T11:23:17Z</time>
      </trkpt>
      <trkpt lat="45.32627" lon="0.33048">
        <ele>77</ele>
        <time>2025-04-11T11:23:26Z</time>
      </trkpt>
      <trkpt lat="45.32575" lon="0.32988">
        <ele>75</ele>
        <time>2025-04-11T11:23:38Z</time>
      </trkpt>
      <trkpt lat="45.32532" lon="0.32934">
        <ele>76</ele>
        <time>2025-04-11T11:23:48Z</time>
      </trkpt>
      <trkpt lat="45.32482" lon="0.32871">
        <ele>77</ele>
        <time>2025-04-11T11:24:00Z</time>
      </trkpt>
      <trkpt lat="45.32454" lon="0.32841">
        <ele>77</ele>
        <time>2025-04-11T11:24:06Z</time>
      </trkpt>
      <trkpt lat="45.32408" lon="0.32809">
        <ele>77</ele>
        <time>2025-04-11T11:24:15Z</time>
      </trkpt>
      <trkpt lat="45.3237" lon="0.32768">
        <ele>77</ele>
        <time>2025-04-11T11:24:24Z</time>
      </trkpt>
      <trkpt lat="45.32327" lon="0.32722">
        <ele>76</ele>
        <time>2025-04-11T11:24:33Z</time>
      </trkpt>
      <trkpt lat="45.32266" lon="0.32699">
        <ele>75</ele>
        <time>2025-04-11T11:24:44Z</time>
      </trkpt>
      <trkpt lat="45.3222" lon="0.32676">
        <ele>73</ele>
        <time>2025-04-11T11:24:53Z</time>
      </trkpt>
      <trkpt lat="45.32178" lon="0.32653">
        <ele>72</ele>
        <time>2025-04-11T11:25:01Z</time>
      </trkpt>
      <trkpt lat="45.32155" lon="0.32636">
        <ele>72</ele>
        <time>2025-04-11T11:25:06Z</time>
      </trkpt>
      <trkpt lat="45.32144" lon="0.32623">
        <ele>73</ele>
        <time>2025-04-11T11:25:08Z</time>
      </trkpt>
      <trkpt lat="45.32118" lon="0.3262">
        <ele>72</ele>
        <time>2025-04-11T11:25:13Z</time>
      </trkpt>
      <trkpt lat="45.32074" lon="0.32643">
        <ele>70</ele>
        <time>2025-04-11T11:25:21Z</time>
      </trkpt>
      <trkpt lat="45.32038" lon="0.32686">
        <ele>70</ele>
        <time>2025-04-11T11:25:30Z</time>
      </trkpt>
      <trkpt lat="45.32029" lon="0.327">
        <ele>70</ele>
        <time>2025-04-11T11:25:32Z</time>
      </trkpt>
      <trkpt lat="45.32026" lon="0.32705">
        <ele>70</ele>
        <time>2025-04-11T11:25:33Z</time>
      </trkpt>
      <trkpt lat="45.31995" lon="0.32753">
        <ele>71</ele>
        <time>2025-04-11T11:25:41Z</time>
      </trkpt>
      <trkpt lat="45.31976" lon="0.32805">
        <ele>73</ele>
        <time>2025-04-11T11:25:48Z</time>
      </trkpt>
      <trkpt lat="45.3197" lon="0.32857">
        <ele>73</ele>
        <time>2025-04-11T11:25:55Z</time>
      </trkpt>
      <trkpt lat="45.31958" lon="0.32833">
        <ele>73</ele>
        <time>2025-04-11T11:25:59Z</time>
      </trkpt>
      <trkpt lat="45.31945" lon="0.32776">
        <ele>72</ele>
        <time>2025-04-11T11:26:06Z</time>
      </trkpt>
      <trkpt lat="45.31936" lon="0.32772">
        <ele>72</ele>
        <time>2025-04-11T11:26:08Z</time>
      </trkpt>
      <trkpt lat="45.31931" lon="0.3277">
        <ele>72</ele>
        <time>2025-04-11T11:26:09Z</time>
      </trkpt>
      <trkpt lat="45.31896" lon="0.32792">
        <ele>73</ele>
        <time>2025-04-11T11:26:16Z</time>
      </trkpt>
      <trkpt lat="45.31881" lon="0.32792">
        <ele>74</ele>
        <time>2025-04-11T11:26:18Z</time>
      </trkpt>
      <trkpt lat="45.31865" lon="0.32767">
        <ele>74</ele>
        <time>2025-04-11T11:26:22Z</time>
      </trkpt>
      <trkpt lat="45.31858" lon="0.32767">
        <ele>75</ele>
        <time>2025-04-11T11:26:24Z</time>
      </trkpt>
      <trkpt lat="45.31847" lon="0.32766">
        <ele>75</ele>
        <time>2025-04-11T11:26:26Z</time>
      </trkpt>
      <trkpt lat="45.31737" lon="0.32819">
        <ele>78</ele>
        <time>2025-04-11T11:26:46Z</time>
      </trkpt>
      <trkpt lat="45.31625" lon="0.32876">
        <ele>84</ele>
        <time>2025-04-11T11:27:07Z</time>
      </trkpt>
      <trkpt lat="45.31579" lon="0.32916">
        <ele>87</ele>
        <time>2025-04-11T11:27:17Z</time>
      </trkpt>
      <trkpt lat="45.31539" lon="0.32935">
        <ele>88</ele>
        <time>2025-04-11T11:27:25Z</time>
      </trkpt>
      <trkpt lat="45.31365" lon="0.3298">
        <ele>91</ele>
        <time>2025-04-11T11:27:56Z</time>
      </trkpt>
      <trkpt lat="45.31349" lon="0.32983">
        <ele>92</ele>
        <time>2025-04-11T11:27:59Z</time>
      </trkpt>
      <trkpt lat="45.31258" lon="0.32996">
        <ele>97</ele>
        <time>2025-04-11T11:28:15Z</time>
      </trkpt>
      <trkpt lat="45.31132" lon="0.33051">
        <ele>108</ele>
        <time>2025-04-11T11:28:39Z</time>
      </trkpt>
      <trkpt lat="45.31055" lon="0.33082">
        <ele>117</ele>
        <time>2025-04-11T11:28:53Z</time>
      </trkpt>
      <trkpt lat="45.31035" lon="0.3308">
        <ele>120</ele>
        <time>2025-04-11T11:28:56Z</time>
      </trkpt>
      <trkpt lat="45.30998" lon="0.33066">
        <ele>123</ele>
        <time>2025-04-11T11:29:03Z</time>
      </trkpt>
      <trkpt lat="45.30931" lon="0.33042">
        <ele>127</ele>
        <time>2025-04-11T11:29:16Z</time>
      </trkpt>
      <trkpt lat="45.30868" lon="0.33037">
        <ele>129</ele>
        <time>2025-04-11T11:29:27Z</time>
      </trkpt>
      <trkpt lat="45.30816" lon="0.33062">
        <ele>132</ele>
        <time>2025-04-11T11:29:37Z</time>
      </trkpt>
      <trkpt lat="45.3075" lon="0.33091">
        <ele>132</ele>
        <time>2025-04-11T11:29:49Z</time>
      </trkpt>
      <trkpt lat="45.30576" lon="0.33132">
        <ele>132</ele>
        <time>2025-04-11T11:30:20Z</time>
      </trkpt>
      <trkpt lat="45.30568" lon="0.33136">
        <ele>132</ele>
        <time>2025-04-11T11:30:22Z</time>
      </trkpt>
      <trkpt lat="45.30474" lon="0.33206">
        <ele>135</ele>
        <time>2025-04-11T11:30:41Z</time>
      </trkpt>
      <trkpt lat="45.30419" lon="0.33268">
        <ele>136</ele>
        <time>2025-04-11T11:30:53Z</time>
      </trkpt>
      <trkpt lat="45.30344" lon="0.334">
        <ele>136</ele>
        <time>2025-04-11T11:31:14Z</time>
      </trkpt>
      <trkpt lat="45.303" lon="0.33453">
        <ele>138</ele>
        <time>2025-04-11T11:31:25Z</time>
      </trkpt>
      <trkpt lat="45.30273" lon="0.33461">
        <ele>138</ele>
        <time>2025-04-11T11:31:29Z</time>
      </trkpt>
      <trkpt lat="45.30141" lon="0.3345">
        <ele>141</ele>
        <time>2025-04-11T11:31:53Z</time>
      </trkpt>
      <trkpt lat="45.29988" lon="0.33447">
        <ele>143</ele>
        <time>2025-04-11T11:32:20Z</time>
      </trkpt>
      <trkpt lat="45.29922" lon="0.33468">
        <ele>142</ele>
        <time>2025-04-11T11:32:32Z</time>
      </trkpt>
      <trkpt lat="45.29852" lon="0.33342">
        <ele>144</ele>
        <time>2025-04-11T11:32:52Z</time>
      </trkpt>
      <trkpt lat="45.29766" lon="0.33159">
        <ele>141</ele>
        <time>2025-04-11T11:33:20Z</time>
      </trkpt>
      <trkpt lat="45.29671" lon="0.32927">
        <ele>140</ele>
        <time>2025-04-11T11:33:54Z</time>
      </trkpt>
      <trkpt lat="45.29655" lon="0.32892">
        <ele>141</ele>
        <time>2025-04-11T11:33:59Z</time>
      </trkpt>
      <trkpt lat="45.29644" lon="0.32875">
        <ele>141</ele>
        <time>2025-04-11T11:34:02Z</time>
      </trkpt>
      <trkpt lat="45.29551" lon="0.32792">
        <ele>144</ele>
        <time>2025-04-11T11:34:21Z</time>
      </trkpt>
      <trkpt lat="45.29517" lon="0.32761">
        <ele>145</ele>
        <time>2025-04-11T11:34:28Z</time>
      </trkpt>
      <trkpt lat="45.29482" lon="0.32737">
        <ele>145</ele>
        <time>2025-04-11T11:34:35Z</time>
      </trkpt>
      <trkpt lat="45.29439" lon="0.32714">
        <ele>144</ele>
        <time>2025-04-11T11:34:43Z</time>
      </trkpt>
      <trkpt lat="45.29345" lon="0.32664">
        <ele>142</ele>
        <time>2025-04-11T11:35:01Z</time>
      </trkpt>
      <trkpt lat="45.29315" lon="0.32647">
        <ele>141</ele>
        <time>2025-04-11T11:35:07Z</time>
      </trkpt>
      <trkpt lat="45.29289" lon="0.32625">
        <ele>141</ele>
        <time>2025-04-11T11:35:12Z</time>
      </trkpt>
      <trkpt lat="45.29261" lon="0.32597">
        <ele>141</ele>
        <time>2025-04-11T11:35:19Z</time>
      </trkpt>
      <trkpt lat="45.29241" lon="0.32572">
        <ele>142</ele>
        <time>2025-04-11T11:35:23Z</time>
      </trkpt>
      <trkpt lat="45.29224" lon="0.32547">
        <ele>141</ele>
        <time>2025-04-11T11:35:28Z</time>
      </trkpt>
      <trkpt lat="45.29208" lon="0.3252">
        <ele>141</ele>
        <time>2025-04-11T11:35:32Z</time>
      </trkpt>
      <trkpt lat="45.29185" lon="0.32475">
        <ele>143</ele>
        <time>2025-04-11T11:35:39Z</time>
      </trkpt>
      <trkpt lat="45.29174" lon="0.32449">
        <ele>145</ele>
        <time>2025-04-11T11:35:43Z</time>
      </trkpt>
      <trkpt lat="45.29164" lon="0.32422">
        <ele>146</ele>
        <time>2025-04-11T11:35:47Z</time>
      </trkpt>
      <trkpt lat="45.29121" lon="0.32275">
        <ele>145</ele>
        <time>2025-04-11T11:36:07Z</time>
      </trkpt>
      <trkpt lat="45.2912" lon="0.32271">
        <ele>145</ele>
        <time>2025-04-11T11:36:07Z</time>
      </trkpt>
      <trkpt lat="45.28992" lon="0.31843">
        <ele>132</ele>
        <time>2025-04-11T11:37:05Z</time>
      </trkpt>
      <trkpt lat="45.28935" lon="0.31658">
        <ele>127</ele>
        <time>2025-04-11T11:37:31Z</time>
      </trkpt>
      <trkpt lat="45.28924" lon="0.31607">
        <ele>126</ele>
        <time>2025-04-11T11:37:37Z</time>
      </trkpt>
      <trkpt lat="45.28919" lon="0.31566">
        <ele>126</ele>
        <time>2025-04-11T11:37:42Z</time>
      </trkpt>
      <trkpt lat="45.28918" lon="0.31519">
        <ele>125</ele>
        <time>2025-04-11T11:37:48Z</time>
      </trkpt>
      <trkpt lat="45.28907" lon="0.31499">
        <ele>125</ele>
        <time>2025-04-11T11:37:52Z</time>
      </trkpt>
      <trkpt lat="45.28842" lon="0.31433">
        <ele>126</ele>
        <time>2025-04-11T11:38:06Z</time>
      </trkpt>
      <trkpt lat="45.28728" lon="0.3128">
        <ele>127</ele>
        <time>2025-04-11T11:38:34Z</time>
      </trkpt>
      <trkpt lat="45.2869" lon="0.31216">
        <ele>127</ele>
        <time>2025-04-11T11:38:44Z</time>
      </trkpt>
      <trkpt lat="45.28679" lon="0.312">
        <ele>127</ele>
        <time>2025-04-11T11:38:47Z</time>
      </trkpt>
      <trkpt lat="45.28663" lon="0.31178">
        <ele>127</ele>
        <time>2025-04-11T11:38:51Z</time>
      </trkpt>
      <trkpt lat="45.28633" lon="0.31141">
        <ele>127</ele>
        <time>2025-04-11T11:38:58Z</time>
      </trkpt>
      <trkpt lat="45.28617" lon="0.31119">
        <ele>128</ele>
        <time>2025-04-11T11:39:02Z</time>
      </trkpt>
      <trkpt lat="45.28606" lon="0.31097">
        <ele>128</ele>
        <time>2025-04-11T11:39:05Z</time>
      </trkpt>
      <trkpt lat="45.28597" lon="0.31077">
        <ele>128</ele>
        <time>2025-04-11T11:39:08Z</time>
      </trkpt>
      <trkpt lat="45.28574" lon="0.31007">
        <ele>128</ele>
        <time>2025-04-11T11:39:18Z</time>
      </trkpt>
      <trkpt lat="45.28566" lon="0.30992">
        <ele>128</ele>
        <time>2025-04-11T11:39:20Z</time>
      </trkpt>
      <trkpt lat="45.28562" lon="0.30989">
        <ele>128</ele>
        <time>2025-04-11T11:39:21Z</time>
      </trkpt>
      <trkpt lat="45.28557" lon="0.31002">
        <ele>127</ele>
        <time>2025-04-11T11:39:23Z</time>
      </trkpt>
      <trkpt lat="45.28548" lon="0.31018">
        <ele>127</ele>
        <time>2025-04-11T11:39:25Z</time>
      </trkpt>
      <trkpt lat="45.28539" lon="0.31031">
        <ele>127</ele>
        <time>2025-04-11T11:39:28Z</time>
      </trkpt>
      <trkpt lat="45.28527" lon="0.31043">
        <ele>127</ele>
        <time>2025-04-11T11:39:30Z</time>
      </trkpt>
      <trkpt lat="45.28516" lon="0.31052">
        <ele>127</ele>
        <time>2025-04-11T11:39:33Z</time>
      </trkpt>
      <trkpt lat="45.28503" lon="0.3106">
        <ele>127</ele>
        <time>2025-04-11T11:39:35Z</time>
      </trkpt>
      <trkpt lat="45.2849" lon="0.31064">
        <ele>126</ele>
        <time>2025-04-11T11:39:38Z</time>
      </trkpt>
      <trkpt lat="45.28478" lon="0.31066">
        <ele>125</ele>
        <time>2025-04-11T11:39:40Z</time>
      </trkpt>
      <trkpt lat="45.28466" lon="0.31065">
        <ele>125</ele>
        <time>2025-04-11T11:39:42Z</time>
      </trkpt>
      <trkpt lat="45.28451" lon="0.31061">
        <ele>124</ele>
        <time>2025-04-11T11:39:45Z</time>
      </trkpt>
      <trkpt lat="45.2844" lon="0.31055">
        <ele>123</ele>
        <time>2025-04-11T11:39:47Z</time>
      </trkpt>
      <trkpt lat="45.28427" lon="0.31045">
        <ele>122</ele>
        <time>2025-04-11T11:39:49Z</time>
      </trkpt>
      <trkpt lat="45.28386" lon="0.31008">
        <ele>120</ele>
        <time>2025-04-11T11:39:58Z</time>
      </trkpt>
      <trkpt lat="45.28372" lon="0.30999">
        <ele>119</ele>
        <time>2025-04-11T11:40:01Z</time>
      </trkpt>
      <trkpt lat="45.2836" lon="0.30995">
        <ele>118</ele>
        <time>2025-04-11T11:40:03Z</time>
      </trkpt>
      <trkpt lat="45.28347" lon="0.30994">
        <ele>117</ele>
        <time>2025-04-11T11:40:05Z</time>
      </trkpt>
      <trkpt lat="45.28335" lon="0.30996">
        <ele>116</ele>
        <time>2025-04-11T11:40:07Z</time>
      </trkpt>
      <trkpt lat="45.28324" lon="0.31002">
        <ele>116</ele>
        <time>2025-04-11T11:40:09Z</time>
      </trkpt>
      <trkpt lat="45.28314" lon="0.3101">
        <ele>115</ele>
        <time>2025-04-11T11:40:11Z</time>
      </trkpt>
      <trkpt lat="45.28304" lon="0.31022">
        <ele>115</ele>
        <time>2025-04-11T11:40:14Z</time>
      </trkpt>
      <trkpt lat="45.2829" lon="0.31042">
        <ele>113</ele>
        <time>2025-04-11T11:40:17Z</time>
      </trkpt>
      <trkpt lat="45.28258" lon="0.31097">
        <ele>109</ele>
        <time>2025-04-11T11:40:26Z</time>
      </trkpt>
      <trkpt lat="45.2822" lon="0.31162">
        <ele>103</ele>
        <time>2025-04-11T11:40:37Z</time>
      </trkpt>
      <trkpt lat="45.28212" lon="0.31172">
        <ele>102</ele>
        <time>2025-04-11T11:40:39Z</time>
      </trkpt>
      <trkpt lat="45.28204" lon="0.31178">
        <ele>101</ele>
        <time>2025-04-11T11:40:40Z</time>
      </trkpt>
      <trkpt lat="45.28192" lon="0.31184">
        <ele>100</ele>
        <time>2025-04-11T11:40:43Z</time>
      </trkpt>
      <trkpt lat="45.28175" lon="0.31183">
        <ele>100</ele>
        <time>2025-04-11T11:40:46Z</time>
      </trkpt>
      <trkpt lat="45.28157" lon="0.31176">
        <ele>99</ele>
        <time>2025-04-11T11:40:49Z</time>
      </trkpt>
      <trkpt lat="45.28122" lon="0.31156">
        <ele>97</ele>
        <time>2025-04-11T11:40:56Z</time>
      </trkpt>
      <trkpt lat="45.2808" lon="0.31128">
        <ele>95</ele>
        <time>2025-04-11T11:41:04Z</time>
      </trkpt>
      <trkpt lat="45.28054" lon="0.31115">
        <ele>95</ele>
        <time>2025-04-11T11:41:09Z</time>
      </trkpt>
      <trkpt lat="45.28037" lon="0.3111">
        <ele>94</ele>
        <time>2025-04-11T11:41:12Z</time>
      </trkpt>
      <trkpt lat="45.28014" lon="0.31108">
        <ele>93</ele>
        <time>2025-04-11T11:41:16Z</time>
      </trkpt>
      <trkpt lat="45.27991" lon="0.3111">
        <ele>93</ele>
        <time>2025-04-11T11:41:20Z</time>
      </trkpt>
      <trkpt lat="45.27953" lon="0.31118">
        <ele>91</ele>
        <time>2025-04-11T11:41:27Z</time>
      </trkpt>
      <trkpt lat="45.27922" lon="0.3113">
        <ele>90</ele>
        <time>2025-04-11T11:41:33Z</time>
      </trkpt>
      <trkpt lat="45.2789" lon="0.31148">
        <ele>89</ele>
        <time>2025-04-11T11:41:39Z</time>
      </trkpt>
      <trkpt lat="45.27863" lon="0.31169">
        <ele>89</ele>
        <time>2025-04-11T11:41:44Z</time>
      </trkpt>
      <trkpt lat="45.27848" lon="0.31184">
        <ele>88</ele>
        <time>2025-04-11T11:41:48Z</time>
      </trkpt>
      <trkpt lat="45.27807" lon="0.31242">
        <ele>88</ele>
        <time>2025-04-11T11:41:58Z</time>
      </trkpt>
      <trkpt lat="45.27757" lon="0.31314">
        <ele>87</ele>
        <time>2025-04-11T11:42:10Z</time>
      </trkpt>
      <trkpt lat="45.27735" lon="0.31337">
        <ele>86</ele>
        <time>2025-04-11T11:42:15Z</time>
      </trkpt>
      <trkpt lat="45.27724" lon="0.31347">
        <ele>86</ele>
        <time>2025-04-11T11:42:18Z</time>
      </trkpt>
      <trkpt lat="45.27607" lon="0.31456">
        <ele>82</ele>
        <time>2025-04-11T11:42:43Z</time>
      </trkpt>
      <trkpt lat="45.27591" lon="0.31471">
        <ele>81</ele>
        <time>2025-04-11T11:42:46Z</time>
      </trkpt>
      <trkpt lat="45.27563" lon="0.31494">
        <ele>79</ele>
        <time>2025-04-11T11:42:52Z</time>
      </trkpt>
      <trkpt lat="45.27414" lon="0.31578">
        <ele>75</ele>
        <time>2025-04-11T11:43:20Z</time>
      </trkpt>
      <trkpt lat="45.27393" lon="0.31591">
        <ele>75</ele>
        <time>2025-04-11T11:43:24Z</time>
      </trkpt>
      <trkpt lat="45.27248" lon="0.31672">
        <ele>74</ele>
        <time>2025-04-11T11:43:52Z</time>
      </trkpt>
      <trkpt lat="45.27068" lon="0.31774">
        <ele>72</ele>
        <time>2025-04-11T11:44:26Z</time>
      </trkpt>
      <trkpt lat="45.26941" lon="0.31846">
        <ele>69</ele>
        <time>2025-04-11T11:44:51Z</time>
      </trkpt>
      <trkpt lat="45.26879" lon="0.31879">
        <ele>68</ele>
        <time>2025-04-11T11:45:03Z</time>
      </trkpt>
      <trkpt lat="45.2684" lon="0.31903">
        <ele>67</ele>
        <time>2025-04-11T11:45:10Z</time>
      </trkpt>
      <trkpt lat="45.26824" lon="0.31912">
        <ele>67</ele>
        <time>2025-04-11T11:45:13Z</time>
      </trkpt>
      <trkpt lat="45.26792" lon="0.31939">
        <ele>65</ele>
        <time>2025-04-11T11:45:20Z</time>
      </trkpt>
      <trkpt lat="45.2676" lon="0.31976">
        <ele>64</ele>
        <time>2025-04-11T11:45:27Z</time>
      </trkpt>
      <trkpt lat="45.26757" lon="0.31982">
        <ele>64</ele>
        <time>2025-04-11T11:45:28Z</time>
      </trkpt>
      <trkpt lat="45.26751" lon="0.31991">
        <ele>64</ele>
        <time>2025-04-11T11:45:30Z</time>
      </trkpt>
      <trkpt lat="45.26745" lon="0.32">
        <ele>64</ele>
        <time>2025-04-11T11:45:31Z</time>
      </trkpt>
      <trkpt lat="45.26734" lon="0.32019">
        <ele>64</ele>
        <time>2025-04-11T11:45:34Z</time>
      </trkpt>
      <trkpt lat="45.26709" lon="0.32077">
        <ele>66</ele>
        <time>2025-04-11T11:45:43Z</time>
      </trkpt>
      <trkpt lat="45.26691" lon="0.32136">
        <ele>69</ele>
        <time>2025-04-11T11:45:51Z</time>
      </trkpt>
      <trkpt lat="45.26683" lon="0.3219">
        <ele>72</ele>
        <time>2025-04-11T11:45:58Z</time>
      </trkpt>
      <trkpt lat="45.26679" lon="0.32232">
        <ele>74</ele>
        <time>2025-04-11T11:46:03Z</time>
      </trkpt>
      <trkpt lat="45.26679" lon="0.32253">
        <ele>75</ele>
        <time>2025-04-11T11:46:06Z</time>
      </trkpt>
      <trkpt lat="45.26682" lon="0.32314">
        <ele>77</ele>
        <time>2025-04-11T11:46:13Z</time>
      </trkpt>
      <trkpt lat="45.267" lon="0.32505">
        <ele>80</ele>
        <time>2025-04-11T11:46:38Z</time>
      </trkpt>
      <trkpt lat="45.26703" lon="0.32547">
        <ele>81</ele>
        <time>2025-04-11T11:46:43Z</time>
      </trkpt>
      <trkpt lat="45.26704" lon="0.32595">
        <ele>81</ele>
        <time>2025-04-11T11:46:49Z</time>
      </trkpt>
      <trkpt lat="45.26707" lon="0.32679">
        <ele>80</ele>
        <time>2025-04-11T11:46:59Z</time>
      </trkpt>
      <trkpt lat="45.26707" lon="0.32714">
        <ele>80</ele>
        <time>2025-04-11T11:47:04Z</time>
      </trkpt>
      <trkpt lat="45.26706" lon="0.32758">
        <ele>80</ele>
        <time>2025-04-11T11:47:09Z</time>
      </trkpt>
      <trkpt lat="45.26697" lon="0.32984">
        <ele>78</ele>
        <time>2025-04-11T11:47:38Z</time>
      </trkpt>
      <trkpt lat="45.26693" lon="0.33051">
        <ele>77</ele>
        <time>2025-04-11T11:47:46Z</time>
      </trkpt>
      <trkpt lat="45.26688" lon="0.33088">
        <ele>76</ele>
        <time>2025-04-11T11:47:51Z</time>
      </trkpt>
      <trkpt lat="45.26645" lon="0.33358">
        <ele>70</ele>
        <time>2025-04-11T11:48:25Z</time>
      </trkpt>
      <trkpt lat="45.26637" lon="0.3339">
        <ele>70</ele>
        <time>2025-04-11T11:48:30Z</time>
      </trkpt>
      <trkpt lat="45.26624" lon="0.33424">
        <ele>70</ele>
        <time>2025-04-11T11:48:34Z</time>
      </trkpt>
      <trkpt lat="45.26592" lon="0.33497">
        <ele>69</ele>
        <time>2025-04-11T11:48:45Z</time>
      </trkpt>
      <trkpt lat="45.26582" lon="0.33518">
        <ele>69</ele>
        <time>2025-04-11T11:48:48Z</time>
      </trkpt>
      <trkpt lat="45.26571" lon="0.33534">
        <ele>69</ele>
        <time>2025-04-11T11:48:51Z</time>
      </trkpt>
      <trkpt lat="45.26555" lon="0.33552">
        <ele>68</ele>
        <time>2025-04-11T11:48:55Z</time>
      </trkpt>
      <trkpt lat="45.26502" lon="0.33593">
        <ele>66</ele>
        <time>2025-04-11T11:49:06Z</time>
      </trkpt>
      <trkpt lat="45.26394" lon="0.33673">
        <ele>62</ele>
        <time>2025-04-11T11:49:27Z</time>
      </trkpt>
      <trkpt lat="45.26363" lon="0.337">
        <ele>61</ele>
        <time>2025-04-11T11:49:34Z</time>
      </trkpt>
      <trkpt lat="45.26323" lon="0.3374">
        <ele>61</ele>
        <time>2025-04-11T11:49:42Z</time>
      </trkpt>
      <trkpt lat="45.26293" lon="0.33777">
        <ele>62</ele>
        <time>2025-04-11T11:49:50Z</time>
      </trkpt>
      <trkpt lat="45.26263" lon="0.33819">
        <ele>61</ele>
        <time>2025-04-11T11:49:57Z</time>
      </trkpt>
      <trkpt lat="45.26234" lon="0.33868">
        <ele>61</ele>
        <time>2025-04-11T11:50:05Z</time>
      </trkpt>
      <trkpt lat="45.26214" lon="0.33905">
        <ele>60</ele>
        <time>2025-04-11T11:50:11Z</time>
      </trkpt>
      <trkpt lat="45.26197" lon="0.33943">
        <ele>59</ele>
        <time>2025-04-11T11:50:17Z</time>
      </trkpt>
      <trkpt lat="45.26189" lon="0.33962">
        <ele>59</ele>
        <time>2025-04-11T11:50:19Z</time>
      </trkpt>
      <trkpt lat="45.26172" lon="0.34007">
        <ele>58</ele>
        <time>2025-04-11T11:50:26Z</time>
      </trkpt>
      <trkpt lat="45.26153" lon="0.34068">
        <ele>59</ele>
        <time>2025-04-11T11:50:34Z</time>
      </trkpt>
      <trkpt lat="45.26135" lon="0.34146">
        <ele>60</ele>
        <time>2025-04-11T11:50:44Z</time>
      </trkpt>
      <trkpt lat="45.26128" lon="0.34189">
        <ele>61</ele>
        <time>2025-04-11T11:50:50Z</time>
      </trkpt>
      <trkpt lat="45.26127" lon="0.34205">
        <ele>61</ele>
        <time>2025-04-11T11:50:52Z</time>
      </trkpt>
      <trkpt lat="45.26125" lon="0.34222">
        <ele>61</ele>
        <time>2025-04-11T11:50:54Z</time>
      </trkpt>
      <trkpt lat="45.26125" lon="0.34246">
        <ele>61</ele>
        <time>2025-04-11T11:50:57Z</time>
      </trkpt>
      <trkpt lat="45.2612" lon="0.34278">
        <ele>61</ele>
        <time>2025-04-11T11:51:01Z</time>
      </trkpt>
      <trkpt lat="45.26116" lon="0.34282">
        <ele>61</ele>
        <time>2025-04-11T11:51:02Z</time>
      </trkpt>
      <trkpt lat="45.26115" lon="0.34285">
        <ele>61</ele>
        <time>2025-04-11T11:51:02Z</time>
      </trkpt>
      <trkpt lat="45.26109" lon="0.34286">
        <ele>61</ele>
        <time>2025-04-11T11:51:03Z</time>
      </trkpt>
      <trkpt lat="45.26101" lon="0.34287">
        <ele>61</ele>
        <time>2025-04-11T11:51:05Z</time>
      </trkpt>
      <trkpt lat="45.26056" lon="0.34285">
        <ele>61</ele>
        <time>2025-04-11T11:51:13Z</time>
      </trkpt>
      <trkpt lat="45.25963" lon="0.34288">
        <ele>61</ele>
        <time>2025-04-11T11:51:29Z</time>
      </trkpt>
      <trkpt lat="45.25926" lon="0.34288">
        <ele>61</ele>
        <time>2025-04-11T11:51:36Z</time>
      </trkpt>
      <trkpt lat="45.25798" lon="0.34291">
        <ele>63</ele>
        <time>2025-04-11T11:51:59Z</time>
      </trkpt>
      <trkpt lat="45.25768" lon="0.34292">
        <ele>62</ele>
        <time>2025-04-11T11:52:04Z</time>
      </trkpt>
      <trkpt lat="45.25716" lon="0.34293">
        <ele>62</ele>
        <time>2025-04-11T11:52:13Z</time>
      </trkpt>
      <trkpt lat="45.25694" lon="0.34291">
        <ele>61</ele>
        <time>2025-04-11T11:52:17Z</time>
      </trkpt>
      <trkpt lat="45.25678" lon="0.34287">
        <ele>61</ele>
        <time>2025-04-11T11:52:20Z</time>
      </trkpt>
      <trkpt lat="45.25661" lon="0.34277">
        <ele>61</ele>
        <time>2025-04-11T11:52:24Z</time>
      </trkpt>
      <trkpt lat="45.25619" lon="0.34247">
        <ele>63</ele>
        <time>2025-04-11T11:52:32Z</time>
      </trkpt>
      <trkpt lat="45.25604" lon="0.34234">
        <ele>63</ele>
        <time>2025-04-11T11:52:35Z</time>
      </trkpt>
      <trkpt lat="45.25517" lon="0.34169">
        <ele>65</ele>
        <time>2025-04-11T11:52:52Z</time>
      </trkpt>
      <trkpt lat="45.25506" lon="0.34162">
        <ele>65</ele>
        <time>2025-04-11T11:52:55Z</time>
      </trkpt>
      <trkpt lat="45.25473" lon="0.34135">
        <ele>66</ele>
        <time>2025-04-11T11:53:01Z</time>
      </trkpt>
      <trkpt lat="45.25463" lon="0.34114">
        <ele>67</ele>
        <time>2025-04-11T11:53:05Z</time>
      </trkpt>
      <trkpt lat="45.25464" lon="0.34109">
        <ele>67</ele>
        <time>2025-04-11T11:53:05Z</time>
      </trkpt>
      <trkpt lat="45.25464" lon="0.34104">
        <ele>67</ele>
        <time>2025-04-11T11:53:06Z</time>
      </trkpt>
      <trkpt lat="45.25462" lon="0.341">
        <ele>67</ele>
        <time>2025-04-11T11:53:06Z</time>
      </trkpt>
      <trkpt lat="45.25471" lon="0.34082">
        <ele>66</ele>
        <time>2025-04-11T11:53:09Z</time>
      </trkpt>
      <trkpt lat="45.25485" lon="0.3407">
        <ele>66</ele>
        <time>2025-04-11T11:53:12Z</time>
      </trkpt>
      <trkpt lat="45.2549" lon="0.34061">
        <ele>65</ele>
        <time>2025-04-11T11:53:14Z</time>
      </trkpt>
      <trkpt lat="45.25494" lon="0.34054">
        <ele>65</ele>
        <time>2025-04-11T11:53:15Z</time>
      </trkpt>
      <trkpt lat="45.255" lon="0.3404">
        <ele>64</ele>
        <time>2025-04-11T11:53:17Z</time>
      </trkpt>
      <trkpt lat="45.25508" lon="0.3401">
        <ele>64</ele>
        <time>2025-04-11T11:53:21Z</time>
      </trkpt>
      <trkpt lat="45.25514" lon="0.33979">
        <ele>64</ele>
        <time>2025-04-11T11:53:25Z</time>
      </trkpt>
      <trkpt lat="45.25514" lon="0.33975">
        <ele>64</ele>
        <time>2025-04-11T11:53:25Z</time>
      </trkpt>
      <trkpt lat="45.2553" lon="0.33897">
        <ele>65</ele>
        <time>2025-04-11T11:53:35Z</time>
      </trkpt>
      <trkpt lat="45.25547" lon="0.33807">
        <ele>67</ele>
        <time>2025-04-11T11:53:47Z</time>
      </trkpt>
      <trkpt lat="45.2555" lon="0.33787">
        <ele>67</ele>
        <time>2025-04-11T11:53:50Z</time>
      </trkpt>
      <trkpt lat="45.25551" lon="0.33766">
        <ele>68</ele>
        <time>2025-04-11T11:53:52Z</time>
      </trkpt>
      <trkpt lat="45.25547" lon="0.33741">
        <ele>68</ele>
        <time>2025-04-11T11:53:56Z</time>
      </trkpt>
      <trkpt lat="45.25542" lon="0.33708">
        <ele>69</ele>
        <time>2025-04-11T11:54:00Z</time>
      </trkpt>
      <trkpt lat="45.25539" lon="0.33679">
        <ele>69</ele>
        <time>2025-04-11T11:54:03Z</time>
      </trkpt>
      <trkpt lat="45.25536" lon="0.33672">
        <ele>70</ele>
        <time>2025-04-11T11:54:05Z</time>
      </trkpt>
      <trkpt lat="45.25531" lon="0.33668">
        <ele>70</ele>
        <time>2025-04-11T11:54:06Z</time>
      </trkpt>
      <trkpt lat="45.25452" lon="0.33655">
        <ele>70</ele>
        <time>2025-04-11T11:54:20Z</time>
      </trkpt>
      <trkpt lat="45.25438" lon="0.33651">
        <ele>69</ele>
        <time>2025-04-11T11:54:22Z</time>
      </trkpt>
      <trkpt lat="45.25317" lon="0.33631">
        <ele>71</ele>
        <time>2025-04-11T11:54:44Z</time>
      </trkpt>
      <trkpt lat="45.25296" lon="0.33629">
        <ele>72</ele>
        <time>2025-04-11T11:54:48Z</time>
      </trkpt>
      <trkpt lat="45.25271" lon="0.33624">
        <ele>72</ele>
        <time>2025-04-11T11:54:52Z</time>
      </trkpt>
      <trkpt lat="45.25249" lon="0.33621">
        <ele>72</ele>
        <time>2025-04-11T11:54:56Z</time>
      </trkpt>
      <trkpt lat="45.25125" lon="0.33602">
        <ele>72</ele>
        <time>2025-04-11T11:55:18Z</time>
      </trkpt>
      <trkpt lat="45.25116" lon="0.336">
        <ele>72</ele>
        <time>2025-04-11T11:55:20Z</time>
      </trkpt>
      <trkpt lat="45.25076" lon="0.33593">
        <ele>72</ele>
        <time>2025-04-11T11:55:27Z</time>
      </trkpt>
      <trkpt lat="45.25074" lon="0.33609">
        <ele>72</ele>
        <time>2025-04-11T11:55:29Z</time>
      </trkpt>
      <trkpt lat="45.25074" lon="0.33623">
        <ele>71</ele>
        <time>2025-04-11T11:55:31Z</time>
      </trkpt>
      <trkpt lat="45.25077" lon="0.33682">
        <ele>70</ele>
        <time>2025-04-11T11:55:38Z</time>
      </trkpt>
      <trkpt lat="45.25053" lon="0.33687">
        <ele>71</ele>
        <time>2025-04-11T11:55:43Z</time>
      </trkpt>
      <trkpt lat="45.25043" lon="0.33689">
        <ele>71</ele>
        <time>2025-04-11T11:55:44Z</time>
      </trkpt>
      <trkpt lat="45.2503" lon="0.33691">
        <ele>71</ele>
        <time>2025-04-11T11:55:47Z</time>
      </trkpt>
      <trkpt lat="45.25016" lon="0.33694">
        <ele>71</ele>
        <time>2025-04-11T11:55:49Z</time>
      </trkpt>
      <trkpt lat="45.25002" lon="0.33697">
        <ele>71</ele>
        <time>2025-04-11T11:55:52Z</time>
      </trkpt>
      <trkpt lat="45.24985" lon="0.337">
        <ele>72</ele>
        <time>2025-04-11T11:55:55Z</time>
      </trkpt>
      <trkpt lat="45.24966" lon="0.33704">
        <ele>72</ele>
        <time>2025-04-11T11:55:58Z</time>
      </trkpt>
      <trkpt lat="45.2496" lon="0.33705">
        <ele>72</ele>
        <time>2025-04-11T11:55:59Z</time>
      </trkpt>
      <trkpt lat="45.24959" lon="0.33698">
        <ele>72</ele>
        <time>2025-04-11T11:56:00Z</time>
      </trkpt>
      <trkpt lat="45.24971" lon="0.33696">
        <ele>72</ele>
        <time>2025-04-11T11:56:02Z</time>
      </trkpt>
    </trkseg>
  </trk>
</gpx>